# Wetter Temperatur Luftdruck Luftfeuchtigkeit Sichtweite Windgeschwindigkeit Windrichtung Zeit
1 Clear 8 1022 69 0 0.75 327 07:37 14.07.2020
2 Clear 8 1022 70 0 1.11 355 07:18 14.07.2020
3 Clear 8 1022 70 0 1.11 355 06:36 14.07.2020
4 Rain 8 1022 70 0 1.44 358 06:18 14.07.2020
5 Rain 9 1022 70 0 1.66 4 05:22 14.07.2020
6 Rain 9 1022 70 0 1.66 4 04:35 14.07.2020
7 Clear 9 1022 68 0 1.77 10 03:34 14.07.2020
8 Clear 10 1020 65 0 1.83 2 02:41 14.07.2020
9 Clouds 11 1019 59 0 2.32 357 01:52 14.07.2020
10 Clouds 12 1017 53 0 2.62 355 01:24 14.07.2020
11 Clouds 17 1029 33 10000 2.6 0 00:47 14.07.2020
12 Clouds 17 1029 33 10000 2.6 0 00:27 14.07.2020
13 Clouds 19 1029 22 10000 2.1 350 23:40 13.07.2020
14 Clouds 19 1029 22 10000 2.1 350 23:20 13.07.2020
15 Clouds 19 1029 24 10000 3.1 10 22:59 13.07.2020
16 Clouds 19 1029 22 10000 3.1 50 22:40 13.07.2020
17 Clouds 19 1029 22 10000 3.1 50 22:20 13.07.2020
18 Clouds 19 1029 22 10000 2.1 360 21:56 13.07.2020
19 Clouds 19 1029 22 10000 2.6 20 21:38 13.07.2020
20 Clouds 19 1029 22 10000 2.6 20 21:19 13.07.2020
21 Clouds 21 1030 21 10000 3.1 350 20:57 13.07.2020
22 Clouds 21 1030 22 10000 3.1 0 20:38 13.07.2020
23 Clouds 21 1030 22 10000 3.1 0 20:19 13.07.2020
24 Clouds 21 1030 22 10000 3.1 0 20:19 13.07.2020
25 Clear 19 1032 25 10000 2.1 0 19:43 13.07.2020
26 Clear 19 1032 25 10000 2.1 0 19:25 13.07.2020
27 Clear 19 1032 29 10000 0.5 60 18:59 13.07.2020
28 Clear 17 1033 33 10000 1 0 18:40 13.07.2020
29 Clear 17 1033 33 10000 1 0 18:21 13.07.2020
30 Clear 16 1034 36 10000 1 20 17:56 13.07.2020
31 Clear 16 1034 36 10000 1 20 17:56 13.07.2020
32 Clear 14 1035 44 10000 1 360 17:38 13.07.2020
33 Clear 14 1035 44 10000 1 360 17:19 13.07.2020
34 Clear 13 1035 47 10000 1 120 16:55 13.07.2020
35 Clear 11 1035 53 10000 1 340 16:36 13.07.2020
36 Clear 11 1035 53 10000 1 340 16:18 13.07.2020
37 Clouds 7 1035 65 10000 0.5 160 15:41 13.07.2020
38 Clouds 7 1035 65 10000 0.5 160 15:21 13.07.2020
39 Clouds 4 1035 80 10000 0.5 100 14:59 13.07.2020
40 Clouds 3 1035 60 10000 0.5 360 14:40 13.07.2020
41 Clouds 3 1035 70 10000 0.5 360 14:21 13.07.2020
42 Clear 8 1022 70 0 0.89 269 13:57 13.07.2020
43 Clear 8 1022 70 0 0.89 269 13:39 13.07.2020
44 Clear 6 1021 75 0 0.88 292 13:21 13.07.2020
45 Clear 6 1021 75 0 0.88 292 12:44 13.07.2020
46 Clear 6 1020 75 0 0.79 295 12:26 13.07.2020
47 Clear 6 1020 75 0 0.79 295 11:59 13.07.2020
48 Clear 6 1020 75 0 0.79 295 11:40 13.07.2020
49 Clear 6 1019 74 0 1 296 11:22 13.07.2020
50 Clear 6 1019 74 0 1 296 10:42 13.07.2020
51 Clear 7 1019 73 0 1.24 305 10:20 13.07.2020
52 Clear 7 1019 73 0 1.24 305 09:47 13.07.2020
53 Clear 7 1020 71 0 0.99 321 09:27 13.07.2020
54 Clear 7 1020 71 0 0.99 321 08:59 13.07.2020
55 Clear 7 1020 71 0 0.99 321 08:40 13.07.2020
56 Clear 8 1020 71 0 1.16 333 08:20 13.07.2020
57 Clear 8 1020 70 0 1.13 341 07:21 13.07.2020
58 Clear 8 1020 70 0 1.13 341 06:46 13.07.2020
59 Clear 9 1020 69 0 1.61 347 06:24 13.07.2020
60 Clear 9 1020 69 0 1.74 348 04:57 13.07.2020
61 Clear 11 1018 63 0 2.16 348 02:45 13.07.2020
62 Rain 12 1017 56 0 2.36 343 01:42 13.07.2020
63 Clouds 13 1015 49 0 2.58 348 01:21 13.07.2020
64 Clouds 13 1015 49 0 2.58 348 00:40 13.07.2020
65 Clouds 16 1013 40 0 3.59 339 00:20 13.07.2020
66 Clouds 16 1013 40 0 3.59 339 23:41 12.07.2020
67 Clouds 21 1027 18 10000 2.1 250 23:23 12.07.2020
68 Clouds 21 1027 18 10000 2.1 250 22:56 12.07.2020
69 Clouds 21 1027 18 10000 2.1 250 22:37 12.07.2020
70 Clouds 21 1027 18 10000 2.1 250 22:18 12.07.2020
71 Clouds 20 1028 18 10000 1.5 0 21:56 12.07.2020
72 Clouds 21 1028 19 10000 2.6 190 21:38 12.07.2020
73 Clouds 21 1028 19 10000 2.6 190 21:19 12.07.2020
74 Clouds 21 1028 19 10000 2.6 190 21:19 12.07.2020
75 Clouds 20 1029 18 10000 2.1 0 20:42 12.07.2020
76 Clouds 20 1029 18 10000 2.1 0 20:20 12.07.2020
77 Clouds 21 1030 19 10000 1.5 0 19:59 12.07.2020
78 Clouds 20 1031 22 10000 1 340 19:40 12.07.2020
79 Clouds 20 1031 22 10000 1 340 19:21 12.07.2020
80 Clouds 19 1031 25 10000 1.56 303 18:55 12.07.2020
81 Clear 18 1032 30 10000 1 70 18:37 12.07.2020
82 Clear 16 1033 36 10000 1 0 18:18 12.07.2020
83 Clear 14 1034 47 10000 1 60 17:38 12.07.2020
84 Clouds 14 1034 47 10000 1 60 17:20 12.07.2020
85 Clouds 13 1034 47 10000 1 0 16:48 12.07.2020
86 Clouds 11 1034 53 10000 1 70 16:23 12.07.2020
87 Clouds 10 1034 57 10000 1 50 15:51 12.07.2020
88 Clouds 9 1034 61 10000 0.91 223 15:31 12.07.2020
89 Clouds 9 1034 61 10000 0.91 223 15:31 12.07.2020
90 Clouds 8 1034 65 10000 1.11 227 14:58 12.07.2020
91 Clouds 2 1034 67 10000 1.11 227 14:40 12.07.2020
92 Clouds 2 1034 73 10000 0.87 248 14:22 12.07.2020
93 Clouds 7 1020 73 0 0.87 248 13:40 12.07.2020
94 Clouds 6 1020 76 0 0.71 279 13:21 12.07.2020
95 Clouds 6 1020 76 0 0.71 279 12:57 12.07.2020
96 Clouds 6 1020 76 0 0.71 279 12:38 12.07.2020
97 Clouds 6 1019 75 0 0.9 266 12:18 12.07.2020
98 Clouds 6 1019 75 0 0.9 266 11:45 12.07.2020
99 Clear 6 1018 74 0 0.94 279 11:21 12.07.2020
100 Clear 6 1018 74 0 0.94 279 10:57 12.07.2020
101 Clear 6 1018 74 0 0.94 279 10:39 12.07.2020
102 Clear 7 1018 73 0 1.05 279 10:19 12.07.2020
103 Clear 7 1018 73 0 1.05 279 10:19 12.07.2020
104 Clear 7 1018 73 0 1.05 279 09:43 12.07.2020
105 Clear 7 1019 72 0 1.02 283 09:21 12.07.2020
106 Clear 7 1019 72 0 1.02 283 08:55 12.07.2020
107 Clear 7 1019 72 0 1.02 283 08:37 12.07.2020
108 Clouds 8 1019 71 0 0.95 291 08:18 12.07.2020
109 Clouds 8 1019 71 0 0.95 291 07:45 12.07.2020
110 Clouds 8 1019 71 0 1.02 306 07:27 12.07.2020
111 Clouds 8 1019 71 0 1.02 306 06:53 12.07.2020
112 Clouds 9 1019 71 0 1.14 323 06:22 12.07.2020
113 Clouds 9 1019 71 0 1.14 323 05:57 12.07.2020
114 Clouds 9 1019 69 0 1.44 340 04:57 12.07.2020
115 Clouds 10 1018 67 0 1.73 346 04:28 12.07.2020
116 Clouds 10 1018 67 0 1.73 346 03:44 12.07.2020
117 Clear 11 1017 62 0 2.07 344 03:23 12.07.2020
118 Clouds 12 1016 56 0 2.19 334 01:52 12.07.2020
119 Clouds 19 1027 51 10000 5.1 320 00:59 12.07.2020
120 Clouds 19 1027 51 10000 5.1 320 00:39 12.07.2020
121 Clouds 19 1027 42 10000 5.1 320 00:20 12.07.2020
122 Clouds 20 1026 20 10000 4.6 290 23:40 11.07.2020
123 Clouds 20 1026 20 10000 4.6 290 23:20 11.07.2020
124 Clouds 22 1026 15 10000 5.1 280 22:56 11.07.2020
125 Clouds 23 1026 13 10000 5.1 270 22:37 11.07.2020
126 Clouds 23 1026 13 10000 5.1 270 22:19 11.07.2020
127 Clouds 22 1027 13 10000 2.6 70 21:43 11.07.2020
128 Clouds 22 1028 18 10000 2.6 310 21:24 11.07.2020
129 Clouds 21 1028 19 10000 0.5 0 20:59 11.07.2020
130 Clouds 21 1029 21 10000 2.6 320 20:40 11.07.2020
131 Clouds 21 1029 21 10000 2.6 320 20:21 11.07.2020
132 Clear 20 1030 20 10000 1.5 0 19:59 11.07.2020
133 Clear 20 1031 19 10000 2.6 320 19:40 11.07.2020
134 Clear 20 1031 19 10000 2.6 320 19:22 11.07.2020
135 Clear 18 1031 22 10000 1.5 320 18:56 11.07.2020
136 Clear 17 1032 30 10000 1 120 18:38 11.07.2020
137 Clear 17 1032 35 10000 1 120 18:19 11.07.2020
138 Clear 16 1033 31 10000 1 340 17:55 11.07.2020
139 Clear 14 1033 41 10000 1 360 17:37 11.07.2020
140 Clear 14 1033 41 10000 1 360 17:18 11.07.2020
141 Clear 12 1034 50 10000 1 20 16:42 11.07.2020
142 Clear 11 1034 53 10000 0.5 200 16:23 11.07.2020
143 Clear 10 1034 53 10000 1 80 15:58 11.07.2020
144 Clear 8 1034 61 10000 0.5 90 15:39 11.07.2020
145 Clear 8 1034 61 10000 0.5 90 15:20 11.07.2020
146 Clear 7 1034 65 10000 1 80 14:56 11.07.2020
147 Clear 9 1020 63 0 1.03 197 14:36 11.07.2020
148 Clear 7 1021 72 0 0.91 204 14:18 11.07.2020
149 Clear 7 1021 72 0 0.88 201 13:42 11.07.2020
150 Clear 5 1021 77 0 0.74 208 13:21 11.07.2020
151 Clear 5 1021 77 0 0.74 208 12:55 11.07.2020
152 Clear 5 1021 77 0 0.74 208 12:37 11.07.2020
153 Clear 6 1020 76 0 0.75 211 12:18 11.07.2020
154 Clear 6 1020 76 0 0.75 211 11:41 11.07.2020
155 Clear 6 1020 75 0 0.76 238 11:21 11.07.2020
156 Clear 6 1020 75 0 0.76 238 10:56 11.07.2020
157 Clear 6 1020 75 0 0.76 238 10:38 11.07.2020
158 Clear 6 1020 74 0 0.92 249 10:19 11.07.2020
159 Clear 6 1020 74 0 0.92 249 09:39 11.07.2020
160 Clear 7 1020 72 0 0.89 265 09:20 11.07.2020
161 Clear 7 1020 72 0 0.89 265 08:46 11.07.2020
162 Clear 7 1020 70 0 0.97 268 08:28 11.07.2020
163 Clear 7 1020 70 0 0.97 268 07:56 11.07.2020
164 Clear 7 1020 70 0 0.97 268 07:36 11.07.2020
165 Clear 8 1021 68 0 1.02 289 07:18 11.07.2020
166 Clear 8 1021 68 0 1.22 314 06:27 11.07.2020
167 Clear 8 1021 68 0 1.22 314 05:54 11.07.2020
168 Clear 9 1021 67 0 1.31 328 05:19 11.07.2020
169 Clear 9 1021 67 0 1.31 328 04:50 11.07.2020
170 Clear 9 1020 66 0 1.49 327 04:19 11.07.2020
171 Clear 10 1019 64 0 1.94 331 02:54 11.07.2020
172 Clouds 11 1017 61 0 2.27 332 02:25 11.07.2020
173 Clouds 12 1016 55 0 2.46 332 01:24 11.07.2020
174 Clouds 12 1016 55 0 2.46 332 00:57 11.07.2020
175 Clouds 12 1016 55 0 2.46 332 00:37 11.07.2020
176 Clouds 14 1014 45 0 3.37 332 00:18 11.07.2020
177 Clouds 14 1014 45 0 3.37 332 23:45 10.07.2020
178 Clouds 19 1028 24 10000 4.6 330 23:26 10.07.2020
179 Clouds 19 1028 24 10000 4.6 330 22:56 10.07.2020
180 Clouds 19 1028 24 10000 4.6 330 22:38 10.07.2020
181 Clouds 19 1028 24 10000 4.6 330 22:18 10.07.2020
182 Clouds 20 1029 20 10000 4.1 310 21:38 10.07.2020
183 Clouds 20 1029 20 10000 4.1 310 21:20 10.07.2020
184 Clouds 20 1029 20 10000 2.6 0 20:56 10.07.2020
185 Clouds 20 1030 20 10000 3.6 330 20:37 10.07.2020
186 Clouds 20 1030 20 10000 3.6 330 20:19 10.07.2020
187 Clouds 19 1031 34 10000 2.1 10 19:54 10.07.2020
188 Clouds 18 1031 27 10000 2.1 0 19:36 10.07.2020
189 Clouds 17 1032 35 10000 2.1 0 19:18 10.07.2020
190 Clouds 16 1033 35 10000 0.5 0 18:38 10.07.2020
191 Clouds 16 1033 38 10000 0.5 0 18:19 10.07.2020
192 Clouds 15 1033 38 10000 1 0 17:55 10.07.2020
193 Clouds 14 1034 41 10000 1 0 17:37 10.07.2020
194 Clouds 14 1034 41 10000 1 0 17:18 10.07.2020
195 Clouds 11 1034 50 10000 1 0 16:40 10.07.2020
196 Clouds 11 1034 50 10000 1 0 16:19 10.07.2020
197 Clouds 11 1034 53 10000 1.5 70 15:44 10.07.2020
198 Clouds 8 1034 65 10000 0.5 0 15:22 10.07.2020
199 Clouds 7 1034 70 10000 1.5 40 14:55 10.07.2020
200 Clouds 6 1034 70 10000 1 0 14:36 10.07.2020
201 Clouds 6 1034 70 10000 1 0 14:18 10.07.2020
202 Clouds 8 1023 65 0 0.14 149 13:55 10.07.2020
203 Clouds 8 1023 65 0 0.14 149 13:36 10.07.2020
204 Clouds 8 1023 65 0 0.14 149 13:36 10.07.2020
205 Clouds 7 1022 70 0 0.62 243 13:18 10.07.2020
206 Clouds 7 1022 70 0 0.62 243 12:43 10.07.2020
207 Clouds 7 1022 67 0 0.54 330 12:24 10.07.2020
208 Clouds 7 1022 67 0 0.54 330 11:58 10.07.2020
209 Clouds 8 1022 65 0 1.14 345 11:38 10.07.2020
210 Clouds 8 1022 65 0 1.14 345 11:18 10.07.2020
211 Clouds 8 1022 65 0 1.14 345 10:42 10.07.2020
212 Clouds 7 1021 66 0 1.19 344 10:21 10.07.2020
213 Clouds 7 1021 66 0 1.19 344 09:59 10.07.2020
214 Clouds 7 1021 66 0 1.19 344 09:37 10.07.2020
215 Clouds 7 1022 67 0 1.23 348 09:19 10.07.2020
216 Clouds 7 1022 67 0 1.23 348 08:55 10.07.2020
217 Clouds 7 1022 67 0 1.23 348 08:36 10.07.2020
218 Clouds 8 1022 65 0 0.97 356 08:18 10.07.2020
219 Clouds 8 1022 65 0 0.97 356 07:41 10.07.2020
220 Clouds 7 1022 66 0 1.44 352 07:20 10.07.2020
221 Clouds 7 1022 66 0 1.44 352 06:48 10.07.2020
222 Clouds 8 1022 66 0 2.03 18 05:55 10.07.2020
223 Clouds 8 1022 65 0 1.92 32 04:32 10.07.2020
224 Clouds 9 1021 64 0 2.14 22 03:31 10.07.2020
225 Clouds 9 1020 63 0 2.38 20 02:49 10.07.2020
226 Clouds 10 1019 61 0 3.05 10 01:47 10.07.2020
227 Clouds 11 1017 57 0 3.18 17 00:45 10.07.2020
228 Rain 12 1016 50 0 4.29 8 00:18 10.07.2020
229 Rain 12 1016 50 0 4.29 8 23:45 09.07.2020
230 Clouds 18 1028 13 10000 4.01 359 23:21 09.07.2020
231 Clouds 18 1028 13 10000 4.01 359 22:58 09.07.2020
232 Clouds 18 1028 13 10000 4.01 359 22:39 09.07.2020
233 Clouds 18 1028 13 10000 2.2 350 22:21 09.07.2020
234 Clouds 17 1029 16 10000 1 0 21:56 09.07.2020
235 Clouds 17 1029 16 10000 1 0 21:37 09.07.2020
236 Clouds 17 1029 16 10000 1 0 21:37 09.07.2020
237 Clouds 17 1029 16 10000 1 0 21:18 09.07.2020
238 Clouds 17 1030 20 10000 1.5 70 20:43 09.07.2020
239 Clouds 17 1030 20 10000 1.5 70 20:24 09.07.2020
240 Clouds 17 1032 21 10000 1.28 353 19:56 09.07.2020
241 Clouds 17 1032 21 10000 1.28 353 19:38 09.07.2020
242 Clouds 17 1032 21 10000 0.52 335 19:20 09.07.2020
243 Clouds 14 1033 28 10000 1.5 260 18:42 09.07.2020
244 Clouds 14 1033 28 10000 1.5 260 18:20 09.07.2020
245 Clouds 12 1034 40 10000 0.18 3 17:55 09.07.2020
246 Clouds 12 1034 40 10000 0.18 3 17:37 09.07.2020
247 Clouds 12 1034 40 10000 0.41 112 17:18 09.07.2020
248 Clouds 12 1034 50 10000 0.41 112 16:55 09.07.2020
249 Clouds 10 1034 53 10000 0.41 112 16:36 09.07.2020
250 Clouds 10 1034 53 10000 0.58 133 16:18 09.07.2020
251 Clouds 7 1034 58 10000 1 70 15:45 09.07.2020
252 Clouds 7 1034 66 10000 1 70 15:27 09.07.2020
253 Clouds 3 1034 74 10000 2.6 100 14:59 09.07.2020
254 Clouds 3 1034 74 10000 2.6 100 14:41 09.07.2020
255 Clouds 3 1034 74 10000 2.6 100 14:41 09.07.2020
256 Clouds 3 1034 74 10000 2.6 100 14:22 09.07.2020
257 Clear 7 1022 74 0 0.87 201 13:58 09.07.2020
258 Clear 7 1022 74 0 0.87 201 13:40 09.07.2020
259 Clear 5 1022 77 0 0.84 207 13:20 09.07.2020
260 Clear 5 1022 77 0 0.84 207 12:56 09.07.2020
261 Clear 5 1022 77 0 0.84 207 12:38 09.07.2020
262 Clear 5 1021 77 0 0.62 198 12:19 09.07.2020
263 Clear 5 1021 77 0 0.62 198 11:43 09.07.2020
264 Clear 5 1020 76 0 0.33 218 11:24 09.07.2020
265 Clear 5 1020 76 0 0.33 218 10:58 09.07.2020
266 Clear 5 1020 76 0 0.33 218 10:40 09.07.2020
267 Clear 5 1020 76 0 0.33 218 10:40 09.07.2020
268 Clear 6 1020 75 0 0.4 347 10:22 09.07.2020
269 Clear 6 1020 75 0 0.4 347 09:55 09.07.2020
270 Clear 6 1020 75 0 0.4 347 09:37 09.07.2020
271 Clear 6 1021 75 0 0.85 4 09:18 09.07.2020
272 Clear 6 1021 75 0 0.85 4 08:43 09.07.2020
273 Clear 7 1021 74 0 0.86 4 08:24 09.07.2020
274 Clear 7 1021 74 0 0.86 4 07:45 09.07.2020
275 Clear 7 1021 73 0 0.98 8 07:22 09.07.2020
276 Clear 7 1021 73 0 0.98 8 06:41 09.07.2020
277 Clear 8 1021 73 0 1.2 13 06:19 09.07.2020
278 Clear 9 1020 67 0 1.64 5 04:29 09.07.2020
279 Clear 9 1020 67 0 1.64 5 03:32 09.07.2020
280 Clouds 11 1017 58 0 2.09 3 02:19 09.07.2020
281 Rain 12 1015 50 0 2.96 345 01:32 09.07.2020
282 Rain 12 1015 50 0 2.96 345 00:47 09.07.2020
283 Rain 15 1013 35 0 2.91 319 00:23 09.07.2020
284 Rain 15 1013 35 0 2.91 319 23:46 08.07.2020
285 Clouds 20 1027 11 10000 3.6 320 23:27 08.07.2020
286 Clouds 20 1027 11 10000 3.6 320 22:58 08.07.2020
287 Clouds 20 1027 11 10000 3.6 320 22:39 08.07.2020
288 Clouds 20 1027 11 10000 3.6 320 22:21 08.07.2020
289 Clouds 21 1027 10 10000 2.1 300 21:58 08.07.2020
290 Clouds 21 1027 10 10000 2.1 300 21:58 08.07.2020
291 Clouds 20 1028 12 10000 3.1 300 21:38 08.07.2020
292 Clouds 20 1028 12 10000 3.1 300 21:20 08.07.2020
293 Clouds 19 1028 12 10000 2.6 350 20:54 08.07.2020
294 Clouds 19 1029 13 10000 3.1 290 20:36 08.07.2020
295 Clouds 19 1029 13 10000 3.1 290 20:18 08.07.2020
296 Clouds 18 1031 17 10000 2.1 0 19:42 08.07.2020
297 Clouds 18 1031 17 10000 2.1 0 19:22 08.07.2020
298 Clouds 16 1031 26 10000 2.1 0 18:56 08.07.2020
299 Clouds 15 1032 28 10000 2.6 60 18:38 08.07.2020
300 Clouds 15 1032 28 10000 2.6 60 18:19 08.07.2020
301 Clouds 15 1033 28 10000 1.5 0 17:55 08.07.2020
302 Clouds 14 1033 48 10000 1 90 17:36 08.07.2020
303 Clouds 14 1033 60 10000 1 90 17:18 08.07.2020
304 Clouds 11 1034 50 10000 1.5 80 16:39 08.07.2020
305 Clouds 11 1034 50 10000 1.5 80 16:20 08.07.2020
306 Clouds 10 1034 53 10000 1 60 15:58 08.07.2020
307 Clouds 8 1034 66 10000 0.5 0 15:39 08.07.2020
308 Clouds 8 1034 71 10000 0.5 0 15:19 08.07.2020
309 Clouds 6 1034 71 10000 0.5 80 14:46 08.07.2020
310 Clouds 8 1021 75 0 0.78 215 14:28 08.07.2020
311 Clouds 8 1021 75 0 0.78 215 13:58 08.07.2020
312 Clouds 8 1021 75 0 0.78 215 13:40 08.07.2020
313 Clouds 6 1020 79 0 0.94 216 13:20 08.07.2020
314 Clouds 6 1020 79 0 0.94 216 12:43 08.07.2020
315 Clouds 6 1019 79 0 0.92 235 12:21 08.07.2020
316 Clouds 6 1019 79 0 0.92 235 11:56 08.07.2020
317 Clouds 6 1019 79 0 0.92 235 11:38 08.07.2020
318 Clouds 6 1019 79 0 0.98 267 11:20 08.07.2020
319 Clouds 6 1019 79 0 0.98 267 10:44 08.07.2020
320 Clouds 6 1018 78 0 1.23 298 10:25 08.07.2020
321 Clouds 6 1018 78 0 1.23 298 09:46 08.07.2020
322 Clear 7 1019 77 0 1.27 292 09:26 08.07.2020
323 Clear 7 1019 77 0 1.27 292 08:58 08.07.2020
324 Clear 7 1019 77 0 1.27 292 08:39 08.07.2020
325 Clear 7 1019 75 0 1.28 298 08:20 08.07.2020
326 Clear 7 1019 75 0 1.28 298 07:44 08.07.2020
327 Clear 8 1019 74 0 1.16 304 07:22 08.07.2020
328 Clear 8 1019 74 0 1.16 304 06:52 08.07.2020
329 Clear 8 1019 74 0 1.16 304 06:31 08.07.2020
330 Clear 8 1019 72 0 1.12 324 05:49 08.07.2020
331 Clear 9 1018 71 0 1.41 349 04:58 08.07.2020
332 Clear 10 1018 69 0 1.51 4 04:20 08.07.2020
333 Clouds 11 1016 62 0 2.43 340 02:20 08.07.2020
334 Clouds 11 1016 62 0 2.43 340 01:39 08.07.2020
335 Clouds 13 1014 52 0 2.7 316 00:56 08.07.2020
336 Clouds 16 1012 37 0 2.67 294 00:22 08.07.2020
337 Clouds 16 1012 37 0 2.67 294 23:44 07.07.2020
338 Clouds 19 1027 19 10000 5.1 250 23:22 07.07.2020
339 Clouds 19 1027 19 10000 5.1 250 22:58 07.07.2020
340 Clouds 19 1027 19 10000 5.1 250 22:39 07.07.2020
341 Clouds 19 1027 19 10000 5.1 250 22:20 07.07.2020
342 Clouds 20 1027 18 10000 4.6 270 21:57 07.07.2020
343 Clouds 21 1027 21 10000 2.6 270 21:38 07.07.2020
344 Clouds 21 1027 21 10000 2.6 270 21:38 07.07.2020
345 Clouds 21 1027 21 10000 2.6 270 21:19 07.07.2020
346 Clouds 20 1028 24 10000 3.6 330 20:55 07.07.2020
347 Clouds 21 1028 19 10000 3.1 310 20:36 07.07.2020
348 Clouds 21 1028 19 10000 3.1 310 20:18 07.07.2020
349 Clouds 20 1030 24 10000 1.5 100 19:39 07.07.2020
350 Clouds 19 1030 25 10000 1 0 19:20 07.07.2020
351 Clouds 19 1030 25 10000 1 0 18:55 07.07.2020
352 Clouds 18 1031 44 10000 3.1 350 18:37 07.07.2020
353 Clouds 18 1031 52 10000 3.1 350 18:19 07.07.2020
354 Clouds 16 1032 36 10000 2.6 90 17:56 07.07.2020
355 Clouds 16 1032 36 10000 1 0 17:37 07.07.2020
356 Clouds 16 1032 36 10000 1 0 17:18 07.07.2020
357 Clouds 15 1033 44 10000 1 20 16:42 07.07.2020
358 Clouds 13 1033 54 10000 2.1 90 16:22 07.07.2020
359 Clouds 12 1033 54 10000 1.5 60 15:56 07.07.2020
360 Haze 10 1034 61 10000 1.55 248 15:37 07.07.2020
361 Haze 10 1034 61 10000 1.42 258 15:19 07.07.2020
362 Clouds 6 1033 75 10000 1.42 258 14:43 07.07.2020
363 Clouds 6 1033 75 10000 1.11 270 14:24 07.07.2020
364 Clouds 8 1020 75 0 1.11 270 13:44 07.07.2020
365 Clouds 6 1020 79 0 1.18 249 13:21 07.07.2020
366 Clouds 6 1020 79 0 1.18 249 12:57 07.07.2020
367 Clouds 6 1020 79 0 1.18 249 12:38 07.07.2020
368 Clouds 7 1019 78 0 1.11 265 12:20 07.07.2020
369 Clouds 7 1019 78 0 1.11 265 11:44 07.07.2020
370 Clouds 7 1019 77 0 0.95 295 11:22 07.07.2020
371 Clouds 7 1019 77 0 0.95 295 10:58 07.07.2020
372 Clouds 7 1019 77 0 0.95 295 10:40 07.07.2020
373 Clouds 7 1019 76 0 0.98 328 10:21 07.07.2020
374 Clouds 7 1019 76 0 0.98 328 09:54 07.07.2020
375 Clouds 7 1019 76 0 0.98 328 09:36 07.07.2020
376 Clouds 8 1019 76 0 1.14 312 09:18 07.07.2020
377 Clouds 8 1019 76 0 1.14 312 08:39 07.07.2020
378 Clouds 8 1019 75 0 1.31 330 08:19 07.07.2020
379 Clouds 8 1019 75 0 1.31 330 07:38 07.07.2020
380 Clouds 9 1020 73 0 1.33 328 07:20 07.07.2020
381 Clouds 9 1020 73 0 1.33 328 06:48 07.07.2020
382 Clouds 9 1020 72 0 1.53 335 06:27 07.07.2020
383 Clouds 9 1020 72 0 1.53 335 05:47 07.07.2020
384 Clouds 9 1020 71 0 1.68 346 04:59 07.07.2020
385 Clouds 10 1019 70 0 1.91 341 04:25 07.07.2020
386 Clouds 10 1019 70 0 1.91 341 03:34 07.07.2020
387 Clouds 11 1016 62 0 2.12 332 02:18 07.07.2020
388 Rain 12 1015 58 0 2.08 318 01:21 07.07.2020
389 Rain 12 1015 58 0 2.08 318 00:42 07.07.2020
390 Rain 14 1014 48 0 2.51 325 00:22 07.07.2020
391 Rain 14 1014 48 0 2.51 325 00:22 07.07.2020
392 Rain 14 1014 48 0 2.51 325 23:44 06.07.2020
393 Clouds 20 1028 24 10000 6.7 300 23:26 06.07.2020
394 Clouds 20 1028 24 10000 6.7 300 22:59 06.07.2020
395 Clouds 20 1028 24 10000 6.7 300 22:40 06.07.2020
396 Clouds 20 1028 24 10000 6.7 300 22:19 06.07.2020
397 Clouds 21 1028 22 10000 4.6 320 21:57 06.07.2020
398 Clouds 21 1029 22 10000 5.7 310 21:37 06.07.2020
399 Clouds 21 1029 22 10000 5.7 310 21:19 06.07.2020
400 Clouds 21 1029 22 10000 5.7 310 21:19 06.07.2020
401 Clouds 20 1029 24 10000 5.1 300 20:55 06.07.2020
402 Clouds 20 1030 24 10000 4.1 320 20:36 06.07.2020
403 Clouds 20 1030 24 10000 4.1 320 20:18 06.07.2020
404 Clouds 19 1031 37 10000 1 210 19:54 06.07.2020
405 Clouds 19 1031 29 10000 1.5 0 19:36 06.07.2020
406 Clouds 19 1031 29 10000 1.5 0 19:18 06.07.2020
407 Clouds 16 1033 36 10000 2.1 50 18:41 06.07.2020
408 Clouds 16 1033 36 10000 2.1 50 18:23 06.07.2020
409 Clouds 16 1033 38 10000 1 30 17:58 06.07.2020
410 Clouds 14 1032 44 10000 1.5 0 17:39 06.07.2020
411 Clouds 14 1032 44 10000 1.5 0 17:20 06.07.2020
412 Clouds 12 1034 54 10000 1.5 0 16:43 06.07.2020
413 Clouds 12 1034 54 10000 1.5 90 16:24 06.07.2020
414 Clouds 12 1034 54 10000 1.5 90 16:24 06.07.2020
415 Clouds 11 1034 57 10000 1 0 15:57 06.07.2020
416 Clouds 8 1034 70 10000 1 80 15:39 06.07.2020
417 Clouds 8 1034 70 10000 1 80 15:20 06.07.2020
418 Clouds 6 1034 75 10000 1.5 90 14:55 06.07.2020
419 Clear 9 1020 57 0 0.19 237 14:36 06.07.2020
420 Clouds 7 1020 66 0 0.61 289 14:18 06.07.2020
421 Clouds 7 1020 66 0 0.61 289 13:43 06.07.2020
422 Clouds 6 1020 72 0 0.69 278 13:24 06.07.2020
423 Clouds 6 1020 72 0 0.69 278 12:54 06.07.2020
424 Clouds 6 1020 72 0 0.69 278 12:36 06.07.2020
425 Clouds 6 1020 71 0 0.84 280 12:18 06.07.2020
426 Clouds 6 1020 71 0 0.84 280 11:41 06.07.2020
427 Clouds 6 1019 70 0 0.97 293 11:23 06.07.2020
428 Clouds 6 1019 70 0 0.97 293 10:59 06.07.2020
429 Clouds 6 1019 70 0 0.97 293 10:41 06.07.2020
430 Clouds 7 1020 69 0 1.02 322 10:21 06.07.2020
431 Clouds 7 1020 69 0 1.02 322 09:55 06.07.2020
432 Clouds 7 1020 69 0 1.02 322 09:37 06.07.2020
433 Clouds 7 1020 70 0 1.13 342 09:18 06.07.2020
434 Clouds 7 1020 70 0 1.13 342 08:40 06.07.2020
435 Clear 7 1019 70 0 1.4 352 08:22 06.07.2020
436 Clear 7 1019 70 0 1.4 352 07:53 06.07.2020
437 Clear 7 1019 70 0 1.4 352 07:31 06.07.2020
438 Clear 8 1019 71 0 1.63 357 06:56 06.07.2020
439 Clear 8 1019 71 0 1.63 357 06:37 06.07.2020
440 Clear 9 1019 72 0 1.79 358 05:55 06.07.2020
441 Clear 9 1019 71 0 1.93 360 05:28 06.07.2020
442 Clear 10 1018 67 0 2.05 356 03:58 06.07.2020
443 Clear 11 1018 62 0 2.22 354 02:41 06.07.2020
444 Clouds 12 1016 52 0 2.42 343 01:55 06.07.2020
445 Clouds 13 1014 44 0 2.89 327 00:49 06.07.2020
446 Clouds 22 1026 14 10000 5.1 300 00:24 06.07.2020
447 Clouds 22 1026 14 10000 5.1 300 23:57 05.07.2020
448 Clouds 22 1026 14 10000 5.1 300 23:38 05.07.2020
449 Clouds 22 1026 14 10000 5.1 300 23:20 05.07.2020
450 Clouds 23 1026 13 10000 5.7 300 22:42 05.07.2020
451 Clouds 21 1026 15 10000 4.1 300 22:21 05.07.2020
452 Clouds 21 1027 16 10000 3.1 320 21:59 05.07.2020
453 Clouds 22 1027 17 10000 2.1 0 21:41 05.07.2020
454 Clouds 22 1027 17 10000 2.1 0 21:19 05.07.2020
455 Clouds 22 1027 17 10000 2.1 0 21:19 05.07.2020
456 Clouds 21 1028 16 10000 1.5 0 20:59 05.07.2020
457 Clouds 21 1029 19 10000 2.6 320 20:40 05.07.2020
458 Clouds 21 1029 19 10000 2.6 320 20:22 05.07.2020
459 Clouds 21 1029 21 10000 2.1 280 19:57 05.07.2020
460 Clouds 20 1030 20 10000 0.5 360 19:38 05.07.2020
461 Clouds 20 1030 20 10000 0.5 360 19:19 05.07.2020
462 Clouds 17 1032 31 10000 1 110 18:42 05.07.2020
463 Clouds 17 1032 42 10000 1 110 18:22 05.07.2020
464 Clouds 16 1032 36 10000 0.5 30 17:56 05.07.2020
465 Clouds 14 1033 41 10000 1.5 40 17:38 05.07.2020
466 Clouds 14 1033 41 10000 1.5 40 17:19 05.07.2020
467 Clouds 13 1033 55 10000 1.5 0 16:44 05.07.2020
468 Clouds 11 1033 67 10000 0.5 50 16:25 05.07.2020
469 Haze 10 1033 67 10000 1 0 15:58 05.07.2020
470 Haze 8 1033 61 10000 0.5 0 15:37 05.07.2020
471 Haze 8 1033 61 10000 0.5 0 15:19 05.07.2020
472 Haze 6 1033 74 10000 0.5 0 14:42 05.07.2020
473 Haze 3 1033 74 10000 1 0 14:23 05.07.2020
474 Clouds 7 1019 79 0 0.96 251 13:54 05.07.2020
475 Clouds 7 1019 79 0 0.96 251 13:36 05.07.2020
476 Clouds 7 1018 81 0 1 261 13:18 05.07.2020
477 Clouds 7 1018 81 0 1 261 12:38 05.07.2020
478 Clouds 7 1018 81 0 0.86 253 12:20 05.07.2020
479 Clouds 7 1018 81 0 0.86 253 11:55 05.07.2020
480 Clouds 7 1018 81 0 0.86 253 11:55 05.07.2020
481 Clouds 7 1018 81 0 0.86 253 11:36 05.07.2020
482 Clouds 7 1017 80 0 0.95 249 11:18 05.07.2020
483 Clouds 7 1017 80 0 0.95 249 10:42 05.07.2020
484 Clear 7 1017 79 0 0.94 275 10:20 05.07.2020
485 Clear 7 1017 79 0 0.94 275 09:59 05.07.2020
486 Clear 7 1017 79 0 0.94 275 09:40 05.07.2020
487 Clear 7 1017 78 0 1.16 279 09:20 05.07.2020
488 Clear 7 1017 77 0 1.24 273 08:51 05.07.2020
489 Clear 7 1017 77 0 1.24 273 08:33 05.07.2020
490 Clear 8 1017 75 0 1.09 275 07:49 05.07.2020
491 Clear 8 1017 75 0 1.09 275 07:30 05.07.2020
492 Clear 8 1017 74 0 1.18 290 06:53 05.07.2020
493 Clear 9 1018 73 0 1.47 305 05:48 05.07.2020
494 Clear 10 1017 70 0 1.83 325 03:35 05.07.2020
495 Clear 11 1016 68 0 2.16 332 02:46 05.07.2020
496 Clear 12 1014 60 0 2.34 321 02:28 05.07.2020
497 Clear 12 1014 60 0 2.34 321 01:41 05.07.2020
498 Clear 13 1013 49 0 2.1 303 01:20 05.07.2020
499 Clear 13 1013 49 0 2.1 303 00:41 05.07.2020
500 Clear 17 1011 34 0 2.06 281 00:23 05.07.2020
501 Clear 22 1025 15 10000 3.6 320 23:48 04.07.2020
502 Clear 22 1025 15 10000 3.6 320 23:30 04.07.2020
503 Clear 22 1025 15 10000 3.6 320 22:57 04.07.2020
504 Clear 22 1026 15 10000 2.1 0 22:38 04.07.2020
505 Clear 22 1026 15 10000 2.1 0 22:20 04.07.2020
506 Clear 22 1026 15 10000 1.5 0 21:43 04.07.2020
507 Clear 22 1027 15 10000 1.5 110 21:23 04.07.2020
508 Clear 22 1027 15 10000 2.6 310 20:59 04.07.2020
509 Clear 21 1028 19 10000 2.1 0 20:41 04.07.2020
510 Clear 21 1028 19 10000 2.1 0 20:20 04.07.2020
511 Clear 19 1030 28 10000 2.1 30 19:45 04.07.2020
512 Clouds 18 1030 33 10000 1 0 19:22 04.07.2020
513 Clouds 18 1030 33 10000 1 0 18:59 04.07.2020
514 Clouds 17 1031 33 10000 1.13 262 18:41 04.07.2020
515 Clouds 16 1032 40 10000 1.21 220 18:21 04.07.2020
516 Clouds 16 1032 40 10000 1.21 220 17:44 04.07.2020
517 Clouds 14 1032 41 10000 1.5 0 17:26 04.07.2020
518 Clouds 12 1033 50 10000 1 0 16:58 04.07.2020
519 Clouds 11 1033 53 10000 1.5 80 16:38 04.07.2020
520 Clouds 11 1033 53 10000 1.5 80 16:20 04.07.2020
521 Clouds 9 1033 57 10000 1.5 80 15:55 04.07.2020
522 Haze 8 1033 58 10000 1.3 204 15:37 04.07.2020
523 Haze 8 1033 69 10000 1.18 212 15:18 04.07.2020
524 Haze 2 1033 80 10000 1.18 212 14:38 04.07.2020
525 Haze 2 1033 80 10000 1.17 216 14:19 04.07.2020
526 Clouds 7 1020 77 0 1.17 216 13:58 04.07.2020
527 Clouds 7 1020 77 0 1.17 216 13:40 04.07.2020
528 Clouds 6 1019 80 0 0.95 237 13:18 04.07.2020
529 Clouds 6 1019 80 0 0.95 237 12:42 04.07.2020
530 Clouds 6 1018 80 0 1.1 273 12:21 04.07.2020
531 Clouds 6 1018 80 0 1.1 273 11:56 04.07.2020
532 Clouds 6 1018 80 0 1.1 273 11:38 04.07.2020
533 Clouds 6 1018 79 0 1.51 292 11:19 04.07.2020
534 Clouds 6 1018 79 0 1.51 292 10:42 04.07.2020
535 Clear 7 1018 79 0 1.81 301 10:22 04.07.2020
536 Clear 7 1018 79 0 1.81 301 09:59 04.07.2020
537 Clear 7 1018 79 0 1.81 301 09:37 04.07.2020
538 Clear 7 1018 78 0 1.92 308 09:19 04.07.2020
539 Clear 7 1018 77 0 1.85 307 08:47 04.07.2020
540 Clear 7 1018 77 0 1.91 307 08:28 04.07.2020
541 Clear 7 1018 77 0 1.91 307 07:50 04.07.2020
542 Clear 7 1018 77 0 1.91 307 07:31 04.07.2020
543 Clear 8 1018 76 0 1.97 306 06:56 04.07.2020
544 Clear 9 1019 74 0 1.99 310 06:23 04.07.2020
545 Clear 9 1019 74 0 1.99 310 05:36 04.07.2020
546 Clear 9 1019 73 0 1.9 311 04:50 04.07.2020
547 Clear 11 1017 67 0 2.1 319 03:18 04.07.2020
548 Clear 12 1015 59 0 2.76 323 02:26 04.07.2020
549 Clear 12 1015 52 0 2.45 313 01:32 04.07.2020
550 Clear 21 1025 15 10000 5.1 320 00:44 04.07.2020
551 Clear 21 1025 15 10000 5.1 320 00:25 04.07.2020
552 Clear 21 1025 14 10000 4.1 310 23:41 03.07.2020
553 Clear 21 1025 14 10000 4.1 310 23:19 03.07.2020
554 Clear 22 1025 13 10000 4.1 310 22:58 03.07.2020
555 Clear 22 1026 13 10000 1 340 22:39 03.07.2020
556 Clear 22 1026 13 10000 1 340 22:21 03.07.2020
557 Clear 22 1026 13 10000 3.1 310 21:43 03.07.2020
558 Clear 22 1027 11 10000 3.1 340 21:20 03.07.2020
559 Clear 21 1027 12 10000 2.6 300 20:56 03.07.2020
560 Clear 21 1027 12 10000 2.6 300 20:56 03.07.2020
561 Clear 20 1028 18 10000 1.5 0 20:38 03.07.2020
562 Clouds 20 1028 18 10000 1.5 0 20:20 03.07.2020
563 Clouds 18 1030 27 10000 1.91 282 19:41 03.07.2020
564 Clouds 18 1030 27 10000 1.75 286 19:20 03.07.2020
565 Clouds 18 1030 27 10000 1.75 286 18:57 03.07.2020
566 Clouds 16 1031 31 10000 0.5 330 18:39 03.07.2020
567 Clouds 15 1032 33 10000 1 0 18:20 03.07.2020
568 Clouds 15 1032 33 10000 1 0 17:43 03.07.2020
569 Clouds 13 1032 48 10000 1 60 17:22 03.07.2020
570 Clouds 11 1033 48 10000 1.5 0 16:46 03.07.2020
571 Haze 10 1033 46 10000 1 0 16:28 03.07.2020
572 Haze 9 1033 60 10000 1 0 15:49 03.07.2020
573 Clouds 7 1033 56 10000 1 0 15:26 03.07.2020
574 Clouds 8 1019 70 0 0.8 254 15:00 03.07.2020
575 Clouds 8 1019 70 0 0.8 254 14:41 03.07.2020
576 Clouds 8 1019 70 0 0.8 254 14:41 03.07.2020
577 Clouds 7 1020 80 0 0.85 278 14:22 03.07.2020
578 Clouds 7 1020 80 0 0.85 278 13:56 03.07.2020
579 Clouds 7 1020 80 0 0.85 278 13:37 03.07.2020
580 Clouds 5 1019 81 0 0.91 273 13:19 03.07.2020
581 Clouds 5 1019 81 0 0.91 273 12:40 03.07.2020
582 Clear 5 1018 81 0 1.04 265 12:21 03.07.2020
583 Clear 5 1018 81 0 1.04 265 11:44 03.07.2020
584 Clear 6 1018 80 0 1.03 260 11:25 03.07.2020
585 Clear 6 1018 80 0 1.03 260 10:59 03.07.2020
586 Clear 6 1018 80 0 1.03 260 10:40 03.07.2020
587 Clear 6 1017 79 0 1.06 270 10:21 03.07.2020
588 Clear 6 1017 79 0 1.06 270 09:57 03.07.2020
589 Clear 6 1017 79 0 1.06 270 09:38 03.07.2020
590 Clear 6 1017 77 0 1.17 281 09:18 03.07.2020
591 Clear 6 1018 76 0 0.92 291 08:40 03.07.2020
592 Clear 7 1018 76 0 1.14 297 08:19 03.07.2020
593 Clear 7 1018 76 0 1.14 297 07:52 03.07.2020
594 Clear 7 1018 76 0 1.27 299 07:28 03.07.2020
595 Clear 7 1018 76 0 1.27 299 06:59 03.07.2020
596 Clear 8 1018 75 0 1.4 300 06:25 03.07.2020
597 Clear 9 1018 74 0 1.5 301 05:23 03.07.2020
598 Clear 9 1017 73 0 1.46 309 03:46 03.07.2020
599 Clear 10 1017 70 0 1.87 326 02:49 03.07.2020
600 Clear 10 1017 70 0 1.87 326 02:30 03.07.2020
601 Clear 11 1015 60 0 2.59 326 01:30 03.07.2020
602 Clear 13 1013 44 0 2.7 312 00:56 03.07.2020
603 Clear 23 1025 8 10000 2.1 290 00:37 03.07.2020
604 Clear 23 1025 8 10000 2.1 290 23:52 02.07.2020
605 Clear 23 1025 8 10000 2.1 290 23:21 02.07.2020
606 Clear 23 1026 8 10000 3.1 310 22:59 02.07.2020
607 Clear 23 1026 8 10000 2.1 0 22:41 02.07.2020
608 Clouds 23 1026 8 10000 2.1 0 22:21 02.07.2020
609 Clouds 22 1026 7 10000 1.5 340 21:58 02.07.2020
610 Clouds 22 1027 7 10000 2.1 0 21:39 02.07.2020
611 Clouds 22 1027 7 10000 2.1 0 21:19 02.07.2020
612 Clouds 22 1028 7 10000 1.5 0 20:58 02.07.2020
613 Clouds 21 1028 10 10000 2.19 278 20:39 02.07.2020
614 Clouds 21 1028 10 10000 1.78 279 20:18 02.07.2020
615 Clouds 19 1030 17 10000 1.5 30 19:42 02.07.2020
616 Clouds 19 1030 17 10000 1.5 30 19:23 02.07.2020
617 Clouds 18 1031 18 10000 2.1 330 18:58 02.07.2020
618 Clouds 17 1031 21 10000 1.5 0 18:40 02.07.2020
619 Clouds 17 1031 21 10000 1.5 0 18:21 02.07.2020
620 Clouds 16 1032 23 10000 1.17 247 17:55 02.07.2020
621 Clouds 12 1033 34 10000 1 100 17:36 02.07.2020
622 Clouds 12 1033 34 10000 1 100 17:18 02.07.2020
623 Clouds 9 1034 45 10000 1 0 16:41 02.07.2020
624 Clouds 9 1034 45 10000 1 0 16:20 02.07.2020
625 Clouds 8 1034 49 10000 2.1 70 15:56 02.07.2020
626 Clouds 8 1034 49 10000 2.1 70 15:56 02.07.2020
627 Clouds 6 1034 56 10000 1.5 90 15:37 02.07.2020
628 Clouds 6 1034 56 10000 1.5 90 15:18 02.07.2020
629 Clouds 5 1034 60 10000 1.5 100 14:44 02.07.2020
630 Clouds 2 1033 69 10000 0.5 216 14:22 02.07.2020
631 Clouds 7 1020 78 0 0.49 163 13:57 02.07.2020
632 Clouds 7 1020 78 0 0.49 163 13:38 02.07.2020
633 Clouds 5 1020 80 0 0.68 176 13:18 02.07.2020
634 Clouds 5 1020 80 0 0.68 176 12:41 02.07.2020
635 Clouds 5 1019 80 0 0.64 190 12:22 02.07.2020
636 Clouds 5 1019 80 0 0.64 190 11:59 02.07.2020
637 Clouds 5 1019 80 0 0.64 190 11:40 02.07.2020
638 Clouds 6 1019 79 0 0.95 196 11:22 02.07.2020
639 Clouds 6 1019 79 0 0.95 196 10:43 02.07.2020
640 Clouds 6 1019 77 0 0.83 211 10:25 02.07.2020
641 Clouds 6 1019 77 0 0.83 211 09:55 02.07.2020
642 Clouds 6 1019 77 0 0.83 211 09:36 02.07.2020
643 Clouds 7 1019 76 0 0.52 305 09:18 02.07.2020
644 Clouds 7 1019 76 0 0.52 305 08:42 02.07.2020
645 Clouds 7 1020 75 0 0.8 337 08:21 02.07.2020
646 Clouds 7 1020 75 0 0.8 337 07:43 02.07.2020
647 Clouds 8 1020 74 0 0.85 332 07:23 02.07.2020
648 Clouds 8 1020 74 0 0.85 332 06:53 02.07.2020
649 Clouds 8 1020 74 0 0.85 332 06:34 02.07.2020
650 Clouds 8 1019 73 0 1.03 334 05:50 02.07.2020
651 Clouds 9 1019 70 0 1.28 342 05:29 02.07.2020
652 Clouds 9 1019 67 0 1.59 341 03:35 02.07.2020
653 Clouds 11 1016 56 0 2.36 334 01:53 02.07.2020
654 Clouds 12 1014 50 0 2.99 324 00:46 02.07.2020
655 Clouds 15 1013 39 0 3.91 310 00:22 02.07.2020
656 Clouds 15 1013 39 0 3.91 310 23:45 01.07.2020
657 Clouds 21 1028 8 10000 2.6 0 23:26 01.07.2020
658 Clouds 21 1028 8 10000 2.6 0 22:55 01.07.2020
659 Clouds 21 1028 8 10000 2.6 0 22:37 01.07.2020
660 Clear 21 1028 8 10000 2.6 0 22:19 01.07.2020
661 Clear 22 1028 8 10000 2.6 0 21:58 01.07.2020
662 Clear 21 1028 9 10000 0.5 90 21:39 01.07.2020
663 Clear 21 1028 9 10000 0.5 90 21:20 01.07.2020
664 Clear 21 1030 8 10000 1.5 350 20:47 01.07.2020
665 Clear 21 1030 8 10000 1.5 350 20:29 01.07.2020
666 Clear 20 1031 8 10000 0.5 40 19:58 01.07.2020
667 Clear 19 1031 10 10000 0.5 60 19:40 01.07.2020
668 Clear 19 1031 10 10000 0.5 60 19:21 01.07.2020
669 Clear 18 1032 11 10000 1.5 0 18:58 01.07.2020
670 Clear 16 1033 13 10000 1.5 40 18:40 01.07.2020
671 Clear 15 1034 14 10000 1 10 18:21 01.07.2020
672 Clear 15 1034 14 10000 1 10 17:55 01.07.2020
673 Clear 13 1034 16 10000 1 50 17:37 01.07.2020
674 Clear 13 1034 16 10000 1 50 17:18 01.07.2020
675 Clear 11 1035 20 10000 1 90 16:42 01.07.2020
676 Clear 9 1035 26 10000 1 70 16:23 01.07.2020
677 Clear 8 1035 28 10000 0.5 0 15:43 01.07.2020
678 Clouds 5 1035 35 10000 0.71 138 15:23 01.07.2020
679 Clouds 5 1035 35 10000 0.71 138 14:58 01.07.2020
680 Clouds 10 1020 57 0 0.71 138 14:38 01.07.2020
681 Clouds 8 1021 68 0 0.54 96 14:20 01.07.2020
682 Clouds 8 1021 66 0 0.61 119 13:54 01.07.2020
683 Clouds 8 1021 66 0 0.61 119 13:36 01.07.2020
684 Clouds 5 1020 71 0 0.66 147 13:18 01.07.2020
685 Clouds 5 1020 71 0 0.66 147 12:41 01.07.2020
686 Clear 6 1019 70 0 0.53 160 12:23 01.07.2020
687 Clear 6 1019 70 0 0.53 160 12:23 01.07.2020
688 Clear 6 1019 70 0 0.53 160 11:58 01.07.2020
689 Clear 6 1019 70 0 0.53 160 11:40 01.07.2020
690 Clear 6 1019 70 0 0.11 266 11:21 01.07.2020
691 Clear 6 1019 70 0 0.11 266 10:55 01.07.2020
692 Clear 6 1018 69 0 0.44 272 10:36 01.07.2020
693 Clear 6 1018 69 0 0.44 272 10:18 01.07.2020
694 Clear 6 1018 69 0 0.44 272 09:38 01.07.2020
695 Clear 7 1019 69 0 0.44 250 09:20 01.07.2020
696 Clear 7 1019 69 0 0.44 250 08:57 01.07.2020
697 Clear 7 1019 69 0 0.44 250 08:38 01.07.2020
698 Clear 7 1019 68 0 0.45 220 08:19 01.07.2020
699 Clear 7 1019 68 0 0.45 220 07:41 01.07.2020
700 Clear 8 1019 67 0 0.55 205 07:22 01.07.2020
701 Clear 8 1019 67 0 0.55 205 06:54 01.07.2020
702 Clear 8 1019 67 0 0.55 205 06:32 01.07.2020
703 Clear 8 1019 65 0 0.43 269 05:44 01.07.2020
704 Clear 10 1018 59 0 1.44 344 04:26 01.07.2020
705 Clear 10 1018 59 0 1.44 344 03:40 01.07.2020
706 Clear 10 1017 51 0 1.81 348 03:20 01.07.2020
707 Clear 12 1016 43 0 1.81 332 01:56 01.07.2020
708 Clear 13 1015 37 0 1.35 305 00:48 01.07.2020
709 Clouds 21 1027 7 10000 2.1 220 00:27 01.07.2020
710 Clouds 21 1027 7 10000 2.1 220 23:57 30.06.2020
711 Clear 16 1012 29 0 1.33 270 23:39 30.06.2020
712 Clear 18 1011 23 0 1.58 257 23:19 30.06.2020
713 Clear 18 1011 23 0 1.58 257 22:42 30.06.2020
714 Clear 19 1011 23 0 1.33 261 22:19 30.06.2020
715 Clear 19 1011 23 0 1.33 261 21:42 30.06.2020
716 Clear 19 1012 23 0 1.26 272 21:19 30.06.2020
717 Clear 19 1012 23 0 1.26 272 20:59 30.06.2020
718 Clear 19 1012 23 0 1.26 272 20:40 30.06.2020
719 Clouds 18 1014 24 0 1.09 263 20:20 30.06.2020
720 Clouds 18 1014 24 0 1.09 263 19:43 30.06.2020
721 Clouds 17 1016 27 0 0.72 238 19:20 30.06.2020
722 Clouds 17 1016 27 0 0.72 238 19:20 30.06.2020
723 Clouds 17 1016 27 0 0.72 238 18:54 30.06.2020
724 Clouds 17 1016 27 0 0.72 238 18:36 30.06.2020
725 Clouds 16 1017 31 0 0.83 194 18:18 30.06.2020
726 Clouds 16 1017 31 0 0.83 194 17:38 30.06.2020
727 Clouds 14 1018 37 0 1.09 183 17:20 30.06.2020
728 Clouds 8 1035 42 10000 1 0 16:55 30.06.2020
729 Clouds 8 1035 42 10000 1 0 16:36 30.06.2020
730 Clouds 8 1035 42 10000 1 0 16:18 30.06.2020
731 Clouds 8 1035 42 10000 1 0 15:42 30.06.2020
732 Clouds 6 1035 48 10000 1 80 15:22 30.06.2020
733 Clouds 9 1021 54 0 1.23 190 14:58 30.06.2020
734 Clouds 9 1021 54 0 1.23 190 14:40 30.06.2020
735 Clouds 7 1021 71 0 0.79 201 14:18 30.06.2020
736 Clouds 7 1021 71 0 0.79 201 13:42 30.06.2020
737 Clear 4 1020 76 0 0.71 213 13:21 30.06.2020
738 Clear 4 1020 76 0 0.71 213 12:59 30.06.2020
739 Clear 4 1020 76 0 0.71 213 12:41 30.06.2020
740 Clear 5 1019 76 0 0.78 217 12:23 30.06.2020
741 Clear 5 1019 76 0 0.78 217 11:59 30.06.2020
742 Clear 5 1019 76 0 0.78 217 11:39 30.06.2020
743 Clear 5 1019 76 0 0.74 221 11:20 30.06.2020
744 Clear 5 1019 76 0 0.74 221 11:20 30.06.2020
745 Clear 5 1019 76 0 0.74 221 10:59 30.06.2020
746 Clouds 12 1034 54 10000 1 0 16:44 28.06.2020
747 Clouds 9 1034 61 10000 0.5 300 16:26 28.06.2020
748 Clouds 8 1034 61 10000 1 0 15:58 28.06.2020
749 Clouds 6 1033 70 10000 1.5 90 15:39 28.06.2020
750 Clouds 6 1033 70 10000 1.5 90 15:19 28.06.2020
751 Clouds 9 1021 63 0 1.01 281 14:47 28.06.2020
752 Clouds 9 1021 63 0 1.01 281 14:47 28.06.2020
753 Clouds 7 1021 73 0 0.88 294 14:28 28.06.2020
754 Clouds 7 1021 73 0 0.88 294 13:59 28.06.2020
755 Clouds 7 1021 73 0 0.88 294 13:38 28.06.2020
756 Clouds 7 1021 73 0 0.88 294 13:38 28.06.2020
757 Clouds 7 1021 73 0 0.88 294 13:38 28.06.2020
758 Clouds 5 1020 77 0 0.81 306 13:20 28.06.2020
759 Clouds 5 1020 77 0 0.81 306 13:20 28.06.2020
760 Clouds 5 1020 77 0 0.81 306 12:56 28.06.2020
761 Clouds 5 1020 77 0 0.81 306 12:37 28.06.2020
762 Clouds 5 1020 77 0 0.81 306 12:37 28.06.2020
763 Clouds 5 1019 76 0 0.88 279 12:19 28.06.2020
764 Clouds 5 1019 76 0 0.88 279 11:57 28.06.2020
765 Clouds 5 1019 76 0 0.88 279 11:57 28.06.2020
766 Clouds 5 1019 76 0 0.88 279 11:39 28.06.2020
767 Clouds 6 1019 75 0 1.12 286 11:20 28.06.2020
768 Clouds 6 1019 75 0 1.12 286 10:56 28.06.2020
769 Clouds 6 1019 75 0 1.12 286 10:38 28.06.2020
770 Clouds 6 1019 74 0 1.17 317 10:19 28.06.2020
771 Clouds 6 1019 74 0 1.17 317 09:40 28.06.2020
772 Clear 7 1018 75 0 1.06 320 09:21 28.06.2020
773 Clear 7 1018 75 0 1.06 320 08:48 28.06.2020
774 Clear 7 1019 75 0 1.03 316 08:28 28.06.2020
775 Clear 7 1019 75 0 1.03 316 07:50 28.06.2020
776 Clear 7 1019 75 0 1.03 316 07:30 28.06.2020
777 Clear 8 1019 75 0 1.15 332 06:44 28.06.2020
778 Clear 8 1019 74 0 0.99 336 06:24 28.06.2020
779 Clear 9 1019 73 0 1.17 341 05:26 28.06.2020
780 Clear 9 1019 70 0 1.49 341 03:33 28.06.2020
781 Clear 10 1018 65 0 1.85 345 02:47 28.06.2020
782 Clear 11 1016 54 0 2.42 328 01:56 28.06.2020
783 Clouds 13 1015 41 0 2.17 308 01:27 28.06.2020
784 Clouds 13 1015 41 0 2.17 308 00:48 28.06.2020
785 Clouds 21 1027 14 10000 2.1 0 00:25 28.06.2020
786 Clouds 21 1027 14 10000 2.1 0 23:42 27.06.2020
787 Clouds 21 1027 14 10000 2.1 0 23:24 27.06.2020
788 Clouds 21 1027 14 10000 3.6 290 22:58 27.06.2020
789 Clouds 21 1027 14 10000 2.1 0 22:40 27.06.2020
790 Clouds 21 1027 14 10000 2.1 0 22:20 27.06.2020
791 Clouds 21 1027 16 10000 4.1 290 21:55 27.06.2020
792 Clouds 21 1028 15 10000 2.6 360 21:37 27.06.2020
793 Clouds 21 1028 15 10000 2.6 360 21:18 27.06.2020
794 Clouds 21 1028 15 10000 1.5 10 20:42 27.06.2020
795 Clouds 20 1029 20 10000 1.5 290 20:19 27.06.2020
796 Clouds 20 1030 19 10000 1 300 19:55 27.06.2020
797 Clouds 19 1030 19 10000 1 0 19:36 27.06.2020
798 Clouds 18 1031 25 10000 1 0 19:18 27.06.2020
799 Clouds 16 1032 32 10000 1 50 18:43 27.06.2020
800 Clouds 16 1032 39 10000 1 50 18:22 27.06.2020
801 Clouds 15 1033 39 10000 2.1 50 17:57 27.06.2020
802 Clouds 13 1033 47 10000 1.5 0 17:38 27.06.2020
803 Clouds 13 1033 47 10000 1.5 0 17:19 27.06.2020
804 Clouds 13 1034 43 10000 1.5 0 16:43 27.06.2020
805 Haze 11 1034 50 10000 1 0 16:25 27.06.2020
806 Haze 9 1034 57 10000 1 0 15:55 27.06.2020
807 Haze 7 1034 58 10000 1 0 15:37 27.06.2020
808 Haze 7 1034 68 10000 1 0 15:18 27.06.2020
809 Clouds 9 1020 68 0 0.64 191 14:41 27.06.2020
810 Clouds 7 1020 76 0 0.42 219 14:23 27.06.2020
811 Clouds 7 1020 76 0 0.42 219 13:57 27.06.2020
812 Clouds 7 1020 76 0 0.42 219 13:37 27.06.2020
813 Clouds 5 1020 80 0 0.5 230 13:19 27.06.2020
814 Clouds 5 1020 80 0 0.5 230 13:19 27.06.2020
815 Clouds 5 1020 80 0 0.5 230 12:56 27.06.2020
816 Clouds 5 1020 80 0 0.5 230 12:37 27.06.2020
817 Clouds 6 1019 80 0 0.64 235 12:19 27.06.2020
818 Clouds 6 1019 80 0 0.64 235 11:41 27.06.2020
819 Clear 6 1019 79 0 0.57 253 11:23 27.06.2020
820 Clear 6 1019 79 0 0.57 253 10:57 27.06.2020
821 Clear 6 1019 79 0 0.57 253 10:38 27.06.2020
822 Clear 6 1019 78 0 0.54 261 10:18 27.06.2020
823 Clear 6 1019 78 0 0.54 261 09:41 27.06.2020
824 Clear 7 1019 77 0 0.84 284 09:21 27.06.2020
825 Clear 7 1019 77 0 0.84 284 08:56 27.06.2020
826 Clear 7 1019 77 0 0.84 284 08:37 27.06.2020
827 Clear 7 1019 76 0 0.99 303 08:19 27.06.2020
828 Clear 7 1019 76 0 0.99 303 07:38 27.06.2020
829 Clear 8 1020 75 0 1.02 322 07:19 27.06.2020
830 Clear 8 1020 75 0 1.02 322 06:37 27.06.2020
831 Clear 8 1020 75 0 1.22 334 05:46 27.06.2020
832 Clear 9 1019 70 0 1.8 348 04:21 27.06.2020
833 Clear 9 1019 70 0 1.8 348 03:51 27.06.2020
834 Clear 10 1017 65 0 1.8 344 02:48 27.06.2020
835 Clear 11 1016 58 0 2.18 334 02:27 27.06.2020
836 Clear 11 1016 57 0 2.25 328 01:40 27.06.2020
837 Clear 12 1015 48 0 2.07 301 00:54 27.06.2020
838 Clouds 21 1027 19 10000 4.6 310 00:18 27.06.2020
839 Clouds 21 1027 19 10000 4.6 310 23:41 26.06.2020
840 Clouds 21 1027 19 10000 4.6 310 23:21 26.06.2020
841 Clouds 21 1028 13 10000 3.1 310 22:55 26.06.2020
842 Clouds 21 1028 16 10000 3.6 290 22:36 26.06.2020
843 Clouds 21 1028 16 10000 3.6 290 22:18 26.06.2020
844 Clouds 21 1029 16 10000 3.1 320 21:56 26.06.2020
845 Clouds 20 1029 18 10000 2.6 330 21:36 26.06.2020
846 Clouds 20 1029 18 10000 2.6 330 21:18 26.06.2020
847 Clouds 19 1031 22 10000 1 270 20:41 26.06.2020
848 Clouds 19 1031 22 10000 1 270 20:19 26.06.2020
849 Clouds 17 1032 27 10000 1.5 0 19:41 26.06.2020
850 Clouds 17 1032 27 10000 1.5 0 19:23 26.06.2020
851 Clouds 16 1034 31 10000 1.5 0 18:45 26.06.2020
852 Clouds 16 1034 31 10000 1.5 0 18:26 26.06.2020
853 Clouds 15 1034 38 10000 1.5 0 17:58 26.06.2020
854 Clouds 15 1034 38 10000 1.5 0 17:58 26.06.2020
855 Clouds 14 1034 41 10000 1.5 0 17:40 26.06.2020
856 Clouds 14 1034 41 10000 1.5 0 17:22 26.06.2020
857 Clouds 11 1035 53 10000 1 0 16:46 26.06.2020
858 Clouds 11 1035 53 10000 1 0 16:23 26.06.2020
859 Clouds 10 1035 57 10000 1 0 15:54 26.06.2020
860 Clouds 11 1022 52 0 0.94 236 15:36 26.06.2020
861 Clouds 9 1022 61 0 0.85 257 15:18 26.06.2020
862 Clouds 9 1022 61 0 0.85 257 14:40 26.06.2020
863 Clouds 7 1023 64 0 0.83 301 14:22 26.06.2020
864 Clouds 7 1023 64 0 0.83 301 13:57 26.06.2020
865 Clouds 7 1023 64 0 0.83 301 13:38 26.06.2020
866 Clouds 5 1022 70 0 0.79 316 13:18 26.06.2020
867 Clouds 5 1022 70 0 0.79 316 12:41 26.06.2020
868 Clear 5 1021 69 0 0.83 309 12:23 26.06.2020
869 Clear 5 1021 69 0 0.83 309 12:23 26.06.2020
870 Clear 5 1021 69 0 0.83 309 11:58 26.06.2020
871 Clear 5 1021 69 0 0.83 309 11:39 26.06.2020
872 Clear 6 1021 69 0 1.11 322 11:21 26.06.2020
873 Clear 6 1021 69 0 1.11 322 10:57 26.06.2020
874 Clear 6 1021 69 0 1.11 322 10:38 26.06.2020
875 Clear 6 1021 70 0 1.26 330 10:19 26.06.2020
876 Clear 6 1021 70 0 1.26 330 09:44 26.06.2020
877 Clear 7 1021 71 0 1.28 337 09:25 26.06.2020
878 Clear 7 1021 72 0 1.2 329 08:56 26.06.2020
879 Clear 7 1021 70 0 1.4 341 08:28 26.06.2020
880 Clear 7 1021 70 0 1.4 341 07:53 26.06.2020
881 Clear 7 1021 71 0 1.51 354 07:25 26.06.2020
882 Clear 7 1021 71 0 1.51 354 06:59 26.06.2020
883 Clear 7 1021 71 0 1.51 354 06:41 26.06.2020
884 Clear 8 1020 70 0 1.6 2 06:18 26.06.2020
885 Clear 8 1020 70 0 1.6 2 05:48 26.06.2020
886 Clear 9 1019 65 0 1.84 359 03:55 26.06.2020
887 Clouds 11 1017 55 0 2.32 329 02:22 26.06.2020
888 Clouds 12 1015 49 0 2.54 315 01:20 26.06.2020
889 Clouds 12 1015 49 0 2.54 315 00:41 26.06.2020
890 Clouds 20 1027 19 10000 5.1 310 00:19 26.06.2020
891 Clouds 20 1027 19 10000 5.1 310 23:42 25.06.2020
892 Clouds 20 1027 19 10000 5.1 310 23:18 25.06.2020
893 Clouds 22 1027 12 10000 3.6 310 22:56 25.06.2020
894 Clouds 21 1027 14 10000 5.7 300 22:37 25.06.2020
895 Clouds 21 1027 14 10000 5.7 300 22:18 25.06.2020
896 Clouds 21 1028 12 10000 4.1 280 21:56 25.06.2020
897 Clouds 21 1028 12 10000 4.1 280 21:56 25.06.2020
898 Clouds 21 1028 12 10000 3.6 310 21:38 25.06.2020
899 Clouds 21 1028 12 10000 3.6 310 21:19 25.06.2020
900 Clouds 21 1028 12 10000 3.6 310 21:19 25.06.2020
901 Clouds 21 1029 13 10000 0.5 0 20:44 25.06.2020
902 Clouds 20 1030 20 10000 1.5 0 20:23 25.06.2020
903 Clouds 19 1030 22 10000 2.1 0 19:58 25.06.2020
904 Clouds 19 1030 22 10000 2.1 0 19:39 25.06.2020
905 Clouds 17 1031 25 10000 1 360 19:19 25.06.2020
906 Clouds 15 1032 26 10000 2.1 0 18:55 25.06.2020
907 Clouds 15 1032 26 10000 2.1 0 18:36 25.06.2020
908 Clouds 15 1032 26 10000 2.1 0 18:18 25.06.2020
909 Clouds 12 1033 34 10000 1 40 17:39 25.06.2020
910 Clouds 12 1033 34 10000 1 40 17:19 25.06.2020
911 Clouds 11 1034 40 10000 1.5 0 16:42 25.06.2020
912 Clouds 9 1034 45 10000 1 0 16:22 25.06.2020
913 Haze 9 1034 49 10000 1 0 15:59 25.06.2020
914 Haze 7 1034 56 10000 1 0 15:40 25.06.2020
915 Haze 7 1034 56 10000 1 0 15:19 25.06.2020
916 Clouds 9 1020 62 0 0.52 270 14:43 25.06.2020
917 Clouds 7 1020 72 0 0.58 293 14:23 25.06.2020
918 Clouds 7 1020 76 0 0.87 283 13:56 25.06.2020
919 Clouds 7 1020 76 0 0.87 283 13:37 25.06.2020
920 Clouds 5 1020 79 0 0.8 266 13:19 25.06.2020
921 Clouds 5 1020 79 0 0.8 266 12:44 25.06.2020
922 Clouds 5 1019 77 0 0.95 261 12:20 25.06.2020
923 Clouds 5 1019 77 0 0.95 261 11:58 25.06.2020
924 Clouds 5 1019 77 0 0.95 261 11:38 25.06.2020
925 Clouds 6 1019 75 0 1.03 265 11:20 25.06.2020
926 Clouds 6 1019 75 0 1.03 265 10:42 25.06.2020
927 Clouds 6 1018 73 0 1.08 257 10:23 25.06.2020
928 Clouds 6 1018 73 0 1.08 257 09:41 25.06.2020
929 Clouds 7 1018 70 0 0.95 279 09:23 25.06.2020
930 Clouds 7 1018 72 0 1.09 279 08:49 25.06.2020
931 Clouds 7 1018 71 0 0.86 283 08:21 25.06.2020
932 Clouds 7 1018 71 0 0.86 283 07:57 25.06.2020
933 Clouds 7 1018 71 0 0.86 283 07:38 25.06.2020
934 Clouds 8 1018 70 0 0.94 314 07:20 25.06.2020
935 Clear 8 1018 71 0 0.83 328 06:30 25.06.2020
936 Clear 8 1018 71 0 0.83 328 05:55 25.06.2020
937 Clear 8 1018 70 0 0.95 341 05:25 25.06.2020
938 Clear 9 1017 69 0 1.44 346 03:36 25.06.2020
939 Clear 10 1016 65 0 2.11 341 02:44 25.06.2020
940 Clear 11 1015 59 0 2.56 327 02:19 25.06.2020
941 Clear 11 1015 58 0 2.71 323 01:34 25.06.2020
942 Clear 12 1013 48 0 2.74 307 00:47 25.06.2020
943 Clouds 20 1026 10 10000 6.2 310 00:22 25.06.2020
944 Clouds 20 1026 10 10000 6.2 310 23:58 24.06.2020
945 Clouds 20 1026 10 10000 6.2 310 23:37 24.06.2020
946 Clear 20 1026 10 10000 6.2 310 23:19 24.06.2020
947 Clear 20 1026 13 10000 5.7 310 22:41 24.06.2020
948 Clouds 20 1026 13 10000 5.7 310 22:20 24.06.2020
949 Clouds 21 1027 12 10000 2.6 0 21:57 24.06.2020
950 Clouds 20 1027 14 10000 2.6 10 21:37 24.06.2020
951 Clouds 20 1027 14 10000 2.6 10 21:19 24.06.2020
952 Clear 20 1028 14 10000 3.1 0 20:58 24.06.2020
953 Clear 19 1029 15 10000 3.1 310 20:39 24.06.2020
954 Clouds 19 1029 15 10000 3.1 310 20:21 24.06.2020
955 Clouds 19 1029 16 10000 2.4 281 19:57 24.06.2020
956 Clouds 18 1030 22 10000 2.6 60 19:38 24.06.2020
957 Clouds 18 1030 22 10000 2.6 60 19:20 24.06.2020
958 Clouds 17 1031 27 10000 2.1 10 18:58 24.06.2020
959 Clouds 16 1031 29 10000 0.5 50 18:39 24.06.2020
960 Clouds 16 1031 29 10000 0.5 50 18:20 24.06.2020
961 Clouds 15 1032 30 10000 0.5 50 17:55 24.06.2020
962 Clouds 14 1032 41 10000 1 0 17:37 24.06.2020
963 Clouds 14 1032 41 10000 1 0 17:18 24.06.2020
964 Clouds 13 1032 47 10000 0.5 60 16:55 24.06.2020
965 Clouds 11 1032 53 10000 0.5 80 16:37 24.06.2020
966 Clouds 11 1032 53 10000 0.5 80 16:19 24.06.2020
967 Clouds 10 1033 53 10000 1 0 15:54 24.06.2020
968 Clouds 11 1018 60 0 1.39 246 15:36 24.06.2020
969 Clear 9 1018 67 0 1.16 261 15:18 24.06.2020
970 Clear 9 1018 67 0 1.16 261 14:40 24.06.2020
971 Clouds 7 1018 76 0 1.04 241 14:21 24.06.2020
972 Clouds 7 1018 76 0 1.04 241 13:42 24.06.2020
973 Clouds 5 1018 78 0 0.62 275 13:21 24.06.2020
974 Clouds 5 1018 78 0 0.62 275 12:44 24.06.2020
975 Clouds 5 1017 78 0 0.72 285 12:21 24.06.2020
976 Clouds 5 1017 78 0 0.72 285 11:58 24.06.2020
977 Clouds 5 1017 78 0 0.72 285 11:40 24.06.2020
978 Clouds 6 1017 77 0 0.98 279 11:21 24.06.2020
979 Clouds 6 1017 77 0 0.98 279 10:47 24.06.2020
980 Clouds 6 1017 76 0 1.1 281 10:20 24.06.2020
981 Clouds 6 1017 76 0 1.1 281 09:56 24.06.2020
982 Clouds 6 1017 76 0 1.1 281 09:38 24.06.2020
983 Clouds 7 1017 76 0 1.32 294 09:19 24.06.2020
984 Clouds 7 1017 76 0 1.32 294 08:40 24.06.2020
985 Clouds 7 1017 75 0 1.31 299 08:19 24.06.2020
986 Clouds 7 1017 75 0 1.31 299 07:48 24.06.2020
987 Clouds 8 1017 75 0 1.34 309 07:25 24.06.2020
988 Clouds 8 1017 75 0 1.34 309 06:46 24.06.2020
989 Clouds 8 1017 75 0 1.41 329 06:24 24.06.2020
990 Clouds 8 1017 75 0 1.41 329 06:24 24.06.2020
991 Clouds 8 1017 75 0 1.41 329 05:45 24.06.2020
992 Clouds 9 1017 74 0 1.46 327 04:39 24.06.2020
993 Clouds 9 1017 72 0 1.6 322 03:39 24.06.2020
994 Clouds 10 1016 68 0 2.1 329 02:55 24.06.2020
995 Clouds 11 1015 55 0 1.84 306 02:23 24.06.2020
996 Clouds 12 1013 46 0 1.87 293 00:53 24.06.2020
997 Clouds 12 1013 46 0 1.87 293 00:53 24.06.2020
998 Clouds 21 1026 16 10000 3.6 300 00:34 24.06.2020
999 Clouds 21 1026 16 10000 3.6 300 23:49 23.06.2020
1000 Clouds 21 1026 16 10000 3.6 300 23:23 23.06.2020
1001 Clouds 21 1026 16 10000 2.6 0 22:59 23.06.2020
1002 Clouds 21 1026 16 10000 3.1 310 22:41 23.06.2020
1003 Clouds 21 1026 16 10000 3.1 310 22:19 23.06.2020
1004 Clouds 20 1027 20 10000 2.6 0 21:56 23.06.2020
1005 Clouds 21 1027 15 10000 5.7 310 21:37 23.06.2020
1006 Clear 21 1027 15 10000 5.7 310 21:18 23.06.2020
1007 Clear 20 1028 24 10000 2.1 0 20:55 23.06.2020
1008 Clouds 20 1028 24 10000 2.1 0 20:36 23.06.2020
1009 Clouds 20 1028 24 10000 2.1 0 20:36 23.06.2020
1010 Clouds 20 1029 37 10000 1 260 20:18 23.06.2020
1011 Clouds 18 1030 37 10000 2.1 0 19:41 23.06.2020
1012 Clouds 18 1030 37 10000 2.1 0 19:41 23.06.2020
1013 Clouds 18 1030 31 10000 1.5 0 19:23 23.06.2020
1014 Clouds 18 1030 31 10000 1.5 0 18:39 23.06.2020
1015 Clouds 16 1032 36 10000 1.5 0 18:19 23.06.2020
1016 Clouds 15 1032 41 10000 2.1 360 17:43 23.06.2020
1017 Clouds 15 1032 41 10000 2.1 360 17:25 23.06.2020
1018 Clouds 14 1033 44 10000 1 0 16:57 23.06.2020
1019 Clouds 13 1033 50 10000 1 0 16:38 23.06.2020
1020 Clouds 13 1033 50 10000 1 0 16:20 23.06.2020
1021 Clouds 12 1033 58 10000 0.5 6 15:59 23.06.2020
1022 Clouds 10 1033 61 10000 0.5 0 15:40 23.06.2020
1023 Clouds 10 1033 61 10000 0.5 0 15:22 23.06.2020
1024 Clouds 8 1020 73 0 1.09 286 14:43 23.06.2020
1025 Clouds 7 1021 77 0 0.68 258 14:20 23.06.2020
1026 Clouds 7 1021 77 0 0.68 258 13:58 23.06.2020
1027 Clouds 7 1021 77 0 0.68 258 13:40 23.06.2020
1028 Clouds 5 1020 78 0 0.59 272 13:22 23.06.2020
1029 Clouds 5 1020 78 0 0.59 272 12:45 23.06.2020
1030 Clouds 5 1020 78 0 0.73 265 12:23 23.06.2020
1031 Clouds 5 1020 78 0 0.73 265 11:59 23.06.2020
1032 Clouds 5 1020 78 0 0.73 265 11:40 23.06.2020
1033 Clouds 6 1019 77 0 1.14 270 11:19 23.06.2020
1034 Clouds 6 1019 77 0 1.14 270 10:57 23.06.2020
1035 Clouds 6 1019 77 0 1.14 270 10:39 23.06.2020
1036 Clouds 6 1019 77 0 1.21 290 10:21 23.06.2020
1037 Clouds 6 1019 77 0 1.21 290 09:42 23.06.2020
1038 Clouds 7 1020 75 0 1.3 281 09:21 23.06.2020
1039 Clouds 7 1020 75 0 1.26 278 08:59 23.06.2020
1040 Clouds 7 1020 75 0 1.26 278 08:41 23.06.2020
1041 Clouds 7 1020 74 0 1.07 294 08:21 23.06.2020
1042 Clouds 7 1020 74 0 1.07 294 07:41 23.06.2020
1043 Clouds 7 1021 73 0 0.92 312 07:22 23.06.2020
1044 Clouds 7 1021 73 0 0.92 312 06:50 23.06.2020
1045 Clouds 7 1021 73 0 0.92 312 06:31 23.06.2020
1046 Clouds 8 1021 73 0 0.87 342 05:45 23.06.2020
1047 Clouds 9 1020 70 0 1.63 8 03:55 23.06.2020
1048 Clear 10 1019 67 0 1.81 7 02:57 23.06.2020
1049 Clear 10 1019 67 0 1.81 7 02:38 23.06.2020
1050 Clouds 11 1018 63 0 1.81 1 02:20 23.06.2020
1051 Clouds 11 1018 63 0 1.81 1 01:43 23.06.2020
1052 Rain 12 1017 60 0 2.03 359 01:19 23.06.2020
1053 Clouds 18 1028 31 10000 4.6 20 00:24 23.06.2020
1054 Clouds 18 1028 31 10000 4.6 20 23:58 22.06.2020
1055 Clouds 18 1028 31 10000 4.6 20 23:39 22.06.2020
1056 Clouds 18 1028 31 10000 4.6 20 23:19 22.06.2020
1057 Clouds 19 1028 32 10000 4.6 20 22:57 22.06.2020
1058 Clouds 18 1028 31 10000 5.1 20 22:39 22.06.2020
1059 Clouds 18 1028 31 10000 5.1 20 22:20 22.06.2020
1060 Clouds 19 1029 29 10000 4.6 20 21:57 22.06.2020
1061 Clouds 20 1030 19 10000 2.1 0 21:38 22.06.2020
1062 Clouds 20 1030 19 10000 2.1 0 21:20 22.06.2020
1063 Clouds 20 1030 19 10000 2.1 0 20:44 22.06.2020
1064 Clouds 20 1030 19 10000 2.1 0 20:26 22.06.2020
1065 Clouds 20 1031 20 10000 2.1 0 19:59 22.06.2020
1066 Clouds 18 1032 27 10000 1.5 80 19:41 22.06.2020
1067 Clouds 18 1032 27 10000 1.5 80 19:19 22.06.2020
1068 Clouds 16 1033 38 10000 0.98 261 18:42 22.06.2020
1069 Clouds 16 1033 38 10000 0.49 285 18:23 22.06.2020
1070 Clouds 15 1034 44 10000 1 90 17:57 22.06.2020
1071 Clouds 13 1035 50 10000 1 360 17:39 22.06.2020
1072 Clouds 13 1035 50 10000 1 360 17:21 22.06.2020
1073 Clouds 13 1035 50 10000 1.5 0 16:59 22.06.2020
1074 Clouds 11 1035 57 10000 1 350 16:40 22.06.2020
1075 Clouds 10 1035 57 10000 0.39 298 16:18 22.06.2020
1076 Clouds 8 1035 65 10000 0.39 298 15:44 22.06.2020
1077 Clouds 8 1035 65 10000 0.39 298 15:44 22.06.2020
1078 Clouds 8 1035 65 10000 0.93 279 15:26 22.06.2020
1079 Clouds 10 1022 64 0 0.93 279 14:58 22.06.2020
1080 Clouds 10 1022 64 0 0.93 279 14:39 22.06.2020
1081 Clouds 9 1022 68 0 1.14 326 14:20 22.06.2020
1082 Clouds 9 1022 68 0 1.14 326 13:54 22.06.2020
1083 Clouds 9 1022 68 0 1.14 326 13:36 22.06.2020
1084 Clouds 8 1022 71 0 1.01 324 13:18 22.06.2020
1085 Clouds 8 1022 71 0 1.01 324 12:41 22.06.2020
1086 Clouds 8 1021 72 0 1.08 353 12:22 22.06.2020
1087 Clouds 8 1020 74 0 0.7 354 11:38 22.06.2020
1088 Clouds 8 1021 72 0 1.08 353 11:38 22.06.2020
1089 Clouds 8 1020 74 0 0.7 354 11:20 22.06.2020
1090 Clouds 8 1020 74 0 0.7 354 10:57 22.06.2020
1091 Clouds 8 1020 74 0 0.7 354 10:57 22.06.2020
1092 Clouds 8 1020 74 0 0.7 354 10:39 22.06.2020
1093 Clouds 8 1020 74 0 0.7 354 10:39 22.06.2020
1094 Clouds 8 1020 74 0 0.82 13 10:19 22.06.2020
1095 Clouds 8 1020 74 0 0.82 13 09:59 22.06.2020
1096 Clouds 8 1020 77 0 0.57 356 09:41 22.06.2020
1097 Clouds 8 1020 76 0 0.65 340 09:20 22.06.2020
1098 Clouds 8 1020 76 0 0.65 340 08:57 22.06.2020
1099 Clouds 8 1020 76 0 0.65 340 08:38 22.06.2020
1100 Clouds 8 1020 76 0 0.79 353 08:19 22.06.2020
1101 Clouds 8 1020 76 0 0.79 353 07:50 22.06.2020
1102 Clouds 8 1020 76 0 0.79 353 07:31 22.06.2020
1103 Clouds 9 1020 75 0 0.94 359 06:44 22.06.2020
1104 Clouds 9 1021 75 0 1.11 11 06:25 22.06.2020
1105 Clouds 9 1021 75 0 1.11 11 05:43 22.06.2020
1106 Clouds 10 1020 73 0 1.56 6 03:48 22.06.2020
1107 Clouds 11 1018 65 0 2.15 347 02:28 22.06.2020
1108 Clouds 13 1016 55 0 2.27 321 01:18 22.06.2020
1109 Clouds 22 1028 10 10000 2.1 220 00:39 22.06.2020
1110 Clouds 22 1028 10 10000 2.1 220 23:58 21.06.2020
1111 Clouds 22 1028 10 10000 2.1 220 23:39 21.06.2020
1112 Clouds 22 1028 10 10000 2.1 220 23:20 21.06.2020
1113 Clouds 22 1028 9 10000 4.1 250 22:57 21.06.2020
1114 Clouds 22 1028 14 10000 2.6 20 22:37 21.06.2020
1115 Clouds 22 1028 14 10000 2.6 20 22:19 21.06.2020
1116 Clouds 22 1029 17 10000 2.6 360 21:57 21.06.2020
1117 Clouds 22 1029 15 10000 1.5 350 21:39 21.06.2020
1118 Clouds 22 1029 15 10000 1.5 350 21:20 21.06.2020
1119 Clouds 21 1030 21 10000 1.5 360 20:57 21.06.2020
1120 Clouds 21 1031 22 10000 2.6 0 20:37 21.06.2020
1121 Clouds 19 1032 29 10000 2.1 0 20:18 21.06.2020
1122 Clouds 19 1032 29 10000 2.1 0 19:55 21.06.2020
1123 Clouds 18 1033 34 10000 1.5 360 19:37 21.06.2020
1124 Clouds 17 1034 45 10000 1.5 50 19:18 21.06.2020
1125 Clouds 15 1035 44 10000 2.1 0 18:40 21.06.2020
1126 Clouds 15 1035 44 10000 2.1 0 18:22 21.06.2020
1127 Clouds 15 1035 44 10000 1.5 0 17:58 21.06.2020
1128 Clouds 13 1036 50 10000 1 20 17:38 21.06.2020
1129 Clouds 13 1036 50 10000 1 20 17:19 21.06.2020
1130 Clouds 9 1037 66 10000 0.95 243 16:41 21.06.2020
1131 Clouds 9 1037 66 10000 0.73 244 16:23 21.06.2020
1132 Clouds 8 1037 70 10000 0.73 244 15:57 21.06.2020
1133 Clouds 10 1022 63 0 0.73 244 15:37 21.06.2020
1134 Clouds 9 1023 69 0 0.63 227 15:19 21.06.2020
1135 Clouds 9 1023 69 0 0.63 227 14:39 21.06.2020
1136 Clouds 8 1023 73 0 0.56 223 14:20 21.06.2020
1137 Clouds 8 1023 73 0 0.56 223 13:57 21.06.2020
1138 Clouds 8 1023 73 0 0.56 223 13:39 21.06.2020
1139 Clouds 7 1022 75 0 0.81 248 13:19 21.06.2020
1140 Clouds 7 1022 75 0 0.81 248 12:44 21.06.2020
1141 Clouds 7 1022 75 0 0.81 248 12:44 21.06.2020
1142 Clouds 7 1022 76 0 0.77 260 12:26 21.06.2020
1143 Clouds 7 1022 76 0 0.77 260 11:58 21.06.2020
1144 Clouds 7 1022 76 0 0.77 260 11:40 21.06.2020
1145 Clouds 7 1022 76 0 0.77 260 11:40 21.06.2020
1146 Clouds 7 1021 76 0 0.74 274 11:22 21.06.2020
1147 Clouds 7 1021 76 0 0.74 274 10:56 21.06.2020
1148 Clouds 7 1021 76 0 0.74 274 10:38 21.06.2020
1149 Clouds 7 1021 75 0 0.79 286 10:20 21.06.2020
1150 Clouds 7 1021 75 0 0.79 286 09:41 21.06.2020
1151 Clear 7 1021 74 0 0.85 319 09:19 21.06.2020
1152 Clear 7 1021 74 0 0.85 319 08:56 21.06.2020
1153 Clear 7 1021 74 0 0.85 319 08:38 21.06.2020
1154 Clouds 8 1021 73 0 1.19 329 08:19 21.06.2020
1155 Clouds 8 1021 73 0 1.19 329 07:41 21.06.2020
1156 Clouds 8 1021 73 0 1.24 343 07:23 21.06.2020
1157 Clouds 8 1021 73 0 1.24 343 06:49 21.06.2020
1158 Clouds 9 1021 73 0 1.24 348 06:18 21.06.2020
1159 Clouds 9 1021 73 0 1.24 348 05:54 21.06.2020
1160 Clouds 10 1021 71 0 1.23 349 03:40 21.06.2020
1161 Clouds 11 1020 67 0 1.68 352 03:18 21.06.2020
1162 Clouds 12 1018 62 0 2.15 353 02:20 21.06.2020
1163 Clouds 12 1018 62 0 2.15 353 01:32 21.06.2020
1164 Clouds 13 1017 56 0 2.38 340 00:56 21.06.2020
1165 Clouds 19 1029 56 10000 3.1 330 00:38 21.06.2020
1166 Clouds 19 1029 47 10000 3.1 330 00:19 21.06.2020
1167 Clouds 19 1029 47 10000 3.1 330 23:44 20.06.2020
1168 Clouds 19 1029 38 10000 3.1 330 23:22 20.06.2020
1169 Clouds 19 1029 38 10000 3.1 290 22:56 20.06.2020
1170 Clouds 20 1029 24 10000 4.6 320 22:38 20.06.2020
1171 Clouds 21 1030 19 10000 2.1 330 22:18 20.06.2020
1172 Clouds 21 1030 19 10000 2.1 330 21:56 20.06.2020
1173 Clouds 22 1031 19 10000 2.6 50 21:38 20.06.2020
1174 Clouds 21 1031 19 10000 2.1 0 21:19 20.06.2020
1175 Clouds 21 1031 19 10000 2.1 0 20:57 20.06.2020
1176 Clouds 20 1032 22 10000 2.1 0 20:38 20.06.2020
1177 Clouds 20 1032 32 10000 1.5 40 20:19 20.06.2020
1178 Clouds 18 1033 31 10000 2.1 0 19:44 20.06.2020
1179 Clouds 18 1033 31 10000 2.1 0 19:25 20.06.2020
1180 Clouds 18 1034 34 10000 2.1 0 18:58 20.06.2020
1181 Clouds 16 1034 38 10000 2.6 80 18:40 20.06.2020
1182 Clouds 16 1035 38 10000 1.5 0 18:19 20.06.2020
1183 Clouds 16 1035 38 10000 1.5 0 17:56 20.06.2020
1184 Clouds 13 1035 50 10000 2.1 350 17:38 20.06.2020
1185 Clouds 13 1035 50 10000 2.1 350 17:19 20.06.2020
1186 Clouds 12 1036 50 10000 1 0 16:41 20.06.2020
1187 Clouds 12 1036 50 10000 1 0 16:19 20.06.2020
1188 Clouds 8 1036 59 10000 1 0 15:57 20.06.2020
1189 Clouds 8 1036 59 10000 1 0 15:38 20.06.2020
1190 Clear 10 1022 66 0 1.08 263 15:18 20.06.2020
1191 Clear 10 1022 66 0 1.08 263 14:42 20.06.2020
1192 Clear 8 1022 73 0 1.08 283 14:20 20.06.2020
1193 Clear 8 1022 73 0 1.08 283 13:42 20.06.2020
1194 Clear 6 1022 77 0 1.01 281 13:20 20.06.2020
1195 Clear 6 1022 77 0 1.01 281 12:56 20.06.2020
1196 Clear 6 1022 77 0 1.01 281 12:38 20.06.2020
1197 Clear 7 1021 76 0 1.05 293 12:19 20.06.2020
1198 Clear 7 1021 76 0 1.05 293 11:40 20.06.2020
1199 Clear 7 1020 76 0 0.97 306 11:21 20.06.2020
1200 Clear 7 1020 76 0 0.97 306 10:59 20.06.2020
1201 Clear 7 1020 76 0 0.97 306 10:41 20.06.2020
1202 Clear 7 1020 75 0 0.76 318 10:20 20.06.2020
1203 Clear 7 1020 75 0 0.76 318 09:43 20.06.2020
1204 Clear 8 1020 75 0 0.69 314 09:25 20.06.2020
1205 Clear 8 1020 75 0 0.69 314 08:58 20.06.2020
1206 Clear 8 1020 75 0 0.69 314 08:39 20.06.2020
1207 Clouds 8 1020 73 0 0.41 282 08:21 20.06.2020
1208 Clouds 8 1020 73 0 0.41 282 07:50 20.06.2020
1209 Clouds 9 1021 72 0 0.76 291 07:25 20.06.2020
1210 Clouds 9 1021 72 0 0.76 291 06:49 20.06.2020
1211 Clouds 9 1020 70 0 0.94 297 06:21 20.06.2020
1212 Clouds 9 1020 70 0 0.94 297 05:48 20.06.2020
1213 Clouds 10 1020 66 0 1.38 338 04:29 20.06.2020
1214 Clouds 12 1018 57 0 1.76 339 01:58 20.06.2020
1215 Clouds 12 1018 57 0 1.76 339 01:40 20.06.2020
1216 Clouds 13 1016 53 0 1.97 334 00:49 20.06.2020
1217 Clouds 22 1029 13 10000 2.1 360 00:20 20.06.2020
1218 Clouds 22 1029 13 10000 2.1 360 23:46 19.06.2020
1219 Clouds 22 1029 13 10000 2.1 360 23:21 19.06.2020
1220 Clouds 21 1029 14 10000 3.1 60 22:57 19.06.2020
1221 Clouds 22 1029 15 10000 2.6 50 22:38 19.06.2020
1222 Clouds 22 1029 15 10000 2.6 50 22:20 19.06.2020
1223 Clouds 22 1029 17 10000 2.1 0 21:55 19.06.2020
1224 Clouds 22 1030 17 10000 1.63 308 21:37 19.06.2020
1225 Clouds 21 1030 18 10000 2.6 260 21:18 19.06.2020
1226 Clouds 21 1030 18 10000 2.6 260 20:56 19.06.2020
1227 Clouds 21 1031 18 10000 1.25 287 20:38 19.06.2020
1228 Clouds 21 1031 18 10000 1.58 266 20:20 19.06.2020
1229 Clouds 20 1032 20 10000 1 0 19:54 19.06.2020
1230 Clouds 20 1033 20 10000 1.5 300 19:36 19.06.2020
1231 Clouds 19 1033 25 10000 1 40 19:18 19.06.2020
1232 Clouds 18 1034 27 10000 1.71 261 18:40 19.06.2020
1233 Clouds 16 1034 36 10000 1 110 18:21 19.06.2020
1234 Clouds 15 1035 41 10000 1 0 17:43 19.06.2020
1235 Clouds 15 1035 41 10000 1 0 17:25 19.06.2020
1236 Clouds 14 1035 44 10000 1.23 211 16:59 19.06.2020
1237 Clouds 11 1036 50 10000 1 0 16:41 19.06.2020
1238 Clouds 11 1036 50 10000 1 0 16:22 19.06.2020
1239 Clouds 10 1036 53 10000 1 0 15:54 19.06.2020
1240 Clouds 9 1036 59 10000 1.2 179 15:36 19.06.2020
1241 Clouds 10 1022 66 0 1.29 144 15:18 19.06.2020
1242 Clouds 10 1022 66 0 1.29 144 14:41 19.06.2020
1243 Clouds 8 1021 73 0 0.96 119 14:22 19.06.2020
1244 Clouds 8 1021 73 0 1.17 128 14:22 19.06.2020
1245 Clouds 8 1021 73 0 0.96 119 13:59 19.06.2020
1246 Clouds 8 1021 73 0 0.96 119 13:41 19.06.2020
1247 Clear 6 1021 77 0 0.64 110 13:23 19.06.2020
1248 Clear 6 1021 77 0 0.64 110 12:46 19.06.2020
1249 Clear 7 1020 77 0 0.52 72 12:22 19.06.2020
1250 Clear 7 1020 77 0 0.52 72 11:57 19.06.2020
1251 Clear 7 1020 77 0 0.52 72 11:37 19.06.2020
1252 Clear 7 1020 77 0 0.69 28 11:18 19.06.2020
1253 Clear 7 1020 77 0 0.69 28 10:45 19.06.2020
1254 Clouds 7 1020 76 0 1.09 6 10:26 19.06.2020
1255 Clouds 7 1020 76 0 1.09 6 09:57 19.06.2020
1256 Clouds 7 1020 76 0 1.09 6 09:39 19.06.2020
1257 Clouds 8 1020 75 0 1.35 12 09:19 19.06.2020
1258 Clouds 8 1020 75 0 1.35 12 08:41 19.06.2020
1259 Clouds 8 1020 75 0 1.45 4 08:23 19.06.2020
1260 Clouds 8 1020 75 0 1.45 4 07:55 19.06.2020
1261 Clouds 8 1020 75 0 1.45 4 07:55 19.06.2020
1262 Clouds 8 1020 75 0 1.45 4 07:36 19.06.2020
1263 Clouds 9 1020 74 0 1.55 13 07:18 19.06.2020
1264 Clouds 9 1019 73 0 1.67 13 06:23 19.06.2020
1265 Clouds 9 1019 73 0 1.67 13 05:41 19.06.2020
1266 Clouds 11 1019 68 0 1.59 35 04:23 19.06.2020
1267 Clouds 12 1017 60 0 2.1 14 02:27 19.06.2020
1268 Clouds 13 1015 52 0 2.37 352 00:47 19.06.2020
1269 Clouds 22 1028 14 10000 4.1 50 00:22 19.06.2020
1270 Clouds 22 1028 14 10000 4.1 50 23:58 18.06.2020
1271 Clouds 22 1028 14 10000 4.1 50 23:40 18.06.2020
1272 Clouds 22 1028 14 10000 4.1 50 23:22 18.06.2020
1273 Clouds 22 1028 19 10000 3.6 40 22:57 18.06.2020
1274 Clouds 22 1028 19 10000 3.6 40 22:36 18.06.2020
1275 Clouds 21 1028 21 10000 2.6 70 22:18 18.06.2020
1276 Clouds 23 1029 18 10000 1.5 270 21:38 18.06.2020
1277 Clouds 22 1030 30 10000 2.1 310 21:19 18.06.2020
1278 Clouds 21 1030 22 10000 1 60 20:44 18.06.2020
1279 Clouds 21 1030 22 10000 1 60 20:23 18.06.2020
1280 Clouds 21 1031 22 10000 1.5 0 19:59 18.06.2020
1281 Clouds 20 1032 34 10000 1 290 19:41 18.06.2020
1282 Clouds 20 1032 41 10000 1 290 19:20 18.06.2020
1283 Clouds 18 1033 27 10000 1 0 18:56 18.06.2020
1284 Clouds 18 1033 31 10000 1 50 18:36 18.06.2020
1285 Clouds 16 1034 36 10000 0.34 257 18:18 18.06.2020
1286 Clouds 14 1035 50 10000 1.5 240 17:41 18.06.2020
1287 Clouds 14 1035 50 10000 1.5 240 17:23 18.06.2020
1288 Clouds 11 1036 62 10000 1 0 16:44 18.06.2020
1289 Clouds 11 1036 62 10000 1 0 16:26 18.06.2020
1290 Clouds 10 1036 61 10000 1.5 80 15:59 18.06.2020
1291 Clouds 8 1035 65 10000 1 100 15:40 18.06.2020
1292 Clouds 8 1035 65 10000 1 100 15:20 18.06.2020
1293 Clouds 9 1020 75 0 0.58 209 14:57 18.06.2020
1294 Clouds 9 1020 75 0 0.58 209 14:39 18.06.2020
1295 Clouds 8 1021 79 0 1.01 222 14:21 18.06.2020
1296 Clouds 8 1021 79 0 1.01 222 13:55 18.06.2020
1297 Clouds 8 1021 79 0 1.01 222 13:36 18.06.2020
1298 Clouds 7 1020 80 0 0.94 235 13:18 18.06.2020
1299 Clouds 7 1020 80 0 0.94 235 12:40 18.06.2020
1300 Clouds 7 1020 80 0 0.82 244 12:20 18.06.2020
1301 Clouds 7 1020 80 0 0.82 244 11:59 18.06.2020
1302 Clouds 7 1020 80 0 0.82 244 11:40 18.06.2020
1303 Clouds 7 1019 80 0 0.81 255 11:20 18.06.2020
1304 Clouds 7 1019 80 0 0.81 255 11:20 18.06.2020
1305 Clouds 7 1019 80 0 0.81 255 10:41 18.06.2020
1306 Clouds 7 1019 78 0 1 251 10:19 18.06.2020
1307 Clouds 7 1019 78 0 1 251 09:55 18.06.2020
1308 Clouds 7 1019 78 0 1 251 09:37 18.06.2020
1309 Clouds 8 1019 78 0 0.74 267 09:19 18.06.2020
1310 Clouds 8 1019 78 0 0.74 267 08:40 18.06.2020
1311 Clear 8 1019 77 0 0.85 290 08:21 18.06.2020
1312 Clear 8 1019 77 0 0.85 290 07:46 18.06.2020
1313 Clear 8 1020 76 0 1.04 309 07:26 18.06.2020
1314 Clear 8 1020 76 0 1.04 309 06:54 18.06.2020
1315 Clear 9 1020 75 0 1.2 310 05:56 18.06.2020
1316 Clear 10 1019 72 0 1.35 357 04:22 18.06.2020
1317 Clear 11 1018 69 0 1.64 347 02:51 18.06.2020
1318 Clear 13 1015 54 0 2.19 338 01:28 18.06.2020
1319 Clear 13 1015 54 0 2.19 338 00:56 18.06.2020
1320 Clouds 23 1028 18 10000 1.5 360 00:37 18.06.2020
1321 Clouds 23 1028 18 10000 1.5 360 00:19 18.06.2020
1322 Clouds 23 1028 18 10000 1.5 360 23:42 17.06.2020
1323 Clouds 23 1028 18 10000 1.5 360 23:20 17.06.2020
1324 Clouds 22 1028 21 10000 1.5 90 22:57 17.06.2020
1325 Clouds 22 1028 19 10000 1.5 330 22:38 17.06.2020
1326 Clouds 22 1028 19 10000 1.5 330 22:20 17.06.2020
1327 Clouds 22 1029 19 10000 1.5 40 21:55 17.06.2020
1328 Clouds 22 1029 19 10000 2.6 0 21:36 17.06.2020
1329 Clouds 22 1030 21 10000 3.1 0 21:18 17.06.2020
1330 Clouds 21 1031 28 10000 3.1 300 20:38 17.06.2020
1331 Clouds 21 1031 28 10000 3.1 300 20:19 17.06.2020
1332 Clouds 21 1031 28 10000 3.1 300 20:19 17.06.2020
1333 Clouds 20 1032 28 10000 1.5 330 19:46 17.06.2020
1334 Clouds 20 1032 28 10000 1.5 330 19:23 17.06.2020
1335 Clouds 19 1033 32 10000 3.1 10 18:59 17.06.2020
1336 Clear 18 1034 34 10000 2.6 300 18:40 17.06.2020
1337 Clouds 18 1034 34 10000 2.6 300 18:22 17.06.2020
1338 Clouds 15 1035 41 10000 1 100 17:44 17.06.2020
1339 Clouds 15 1035 41 10000 1 100 17:22 17.06.2020
1340 Clouds 15 1035 41 10000 1 100 17:22 17.06.2020
1341 Clouds 14 1035 47 10000 0.6 212 16:57 17.06.2020
1342 Haze 13 1036 50 10000 1.5 60 16:38 17.06.2020
1343 Haze 13 1036 50 10000 1.5 60 16:20 17.06.2020
1344 Haze 11 1036 53 10000 1 0 15:56 17.06.2020
1345 Haze 9 1036 61 10000 1 90 15:38 17.06.2020
1346 Clear 10 1022 67 0 1.3 195 15:18 17.06.2020
1347 Clear 10 1022 67 0 1.3 195 14:57 17.06.2020
1348 Clear 10 1022 67 0 1.3 195 14:38 17.06.2020
1349 Clouds 8 1022 77 0 0.95 232 14:19 17.06.2020
1350 Clouds 8 1022 77 0 0.95 232 13:42 17.06.2020
1351 Clouds 6 1022 80 0 0.62 288 13:22 17.06.2020
1352 Clouds 6 1022 80 0 0.62 288 12:59 17.06.2020
1353 Clouds 6 1022 80 0 0.62 288 12:40 17.06.2020
1354 Clouds 6 1022 79 0 0.73 285 12:20 17.06.2020
1355 Clouds 6 1022 79 0 0.73 285 11:44 17.06.2020
1356 Clear 7 1022 78 0 0.76 273 11:26 17.06.2020
1357 Clear 7 1022 78 0 0.76 273 11:26 17.06.2020
1358 Clear 7 1022 78 0 0.76 273 10:56 17.06.2020
1359 Clear 7 1022 78 0 0.76 273 10:37 17.06.2020
1360 Clear 7 1022 77 0 0.77 267 10:19 17.06.2020
1361 Clear 7 1022 77 0 0.77 267 09:55 17.06.2020
1362 Clear 7 1022 77 0 0.77 267 09:36 17.06.2020
1363 Clear 7 1021 76 0 0.71 279 09:18 17.06.2020
1364 Clear 7 1021 76 0 0.71 279 09:18 17.06.2020
1365 Clear 7 1021 75 0 0.78 306 08:42 17.06.2020
1366 Clear 8 1021 75 0 0.75 308 08:19 17.06.2020
1367 Clear 8 1021 75 0 0.75 308 07:43 17.06.2020
1368 Clear 8 1020 74 0 1.03 332 07:23 17.06.2020
1369 Clear 8 1020 74 0 1.03 332 06:58 17.06.2020
1370 Clear 8 1020 74 0 1.03 332 06:39 17.06.2020
1371 Clear 9 1020 73 0 1.09 326 06:21 17.06.2020
1372 Clear 9 1020 73 0 1.09 326 05:48 17.06.2020
1373 Clear 9 1021 73 0 1.22 335 04:36 17.06.2020
1374 Clouds 11 1018 64 0 2.36 323 01:55 17.06.2020
1375 Clouds 12 1017 58 0 2.37 310 00:49 17.06.2020
1376 Clouds 19 1029 25 10000 3.1 300 00:28 17.06.2020
1377 Clouds 19 1029 25 10000 3.1 300 23:57 16.06.2020
1378 Clouds 19 1029 25 10000 3.1 300 23:39 16.06.2020
1379 Clouds 19 1029 25 10000 3.1 300 23:21 16.06.2020
1380 Clouds 20 1029 22 10000 3.1 260 22:57 16.06.2020
1381 Clouds 21 1030 19 10000 1 0 22:38 16.06.2020
1382 Clouds 21 1030 19 10000 1 0 22:19 16.06.2020
1383 Clouds 21 1030 19 10000 1 0 21:54 16.06.2020
1384 Clouds 21 1030 19 10000 1 0 21:54 16.06.2020
1385 Clouds 20 1030 18 10000 0.5 260 21:36 16.06.2020
1386 Clouds 20 1031 19 10000 2.1 300 21:18 16.06.2020
1387 Clouds 19 1032 22 10000 2.1 0 20:42 16.06.2020
1388 Clouds 19 1032 22 10000 2.1 0 20:19 16.06.2020
1389 Clouds 19 1032 22 10000 2.1 0 20:19 16.06.2020
1390 Clouds 18 1034 31 10000 0.5 0 19:58 16.06.2020
1391 Clouds 18 1034 31 10000 0.5 0 19:58 16.06.2020
1392 Clouds 17 1034 31 10000 0.5 0 19:39 16.06.2020
1393 Clouds 17 1034 35 10000 0.5 0 19:21 16.06.2020
1394 Clouds 15 1036 41 10000 1.5 0 18:55 16.06.2020
1395 Clouds 15 1036 44 10000 1.5 0 18:37 16.06.2020
1396 Clouds 15 1036 44 10000 1.5 0 18:19 16.06.2020
1397 Clouds 14 1036 50 10000 0.5 0 17:55 16.06.2020
1398 Clouds 11 1037 62 10000 1 0 17:36 16.06.2020
1399 Clouds 11 1037 57 10000 1.5 0 17:18 16.06.2020
1400 Clouds 11 1037 57 10000 1.5 0 17:18 16.06.2020
1401 Clouds 10 1037 66 10000 1 280 16:42 16.06.2020
1402 Clouds 10 1037 66 10000 1 280 16:21 16.06.2020
1403 Clouds 9 1037 70 10000 0.5 0 15:59 16.06.2020
1404 Clouds 12 1023 56 0 0.91 254 15:41 16.06.2020
1405 Clouds 10 1023 64 0 0.85 296 15:23 16.06.2020
1406 Clouds 10 1023 64 0 0.85 296 15:00 16.06.2020
1407 Clouds 10 1023 64 0 0.85 296 14:41 16.06.2020
1408 Clouds 9 1023 72 0 0.64 281 14:23 16.06.2020
1409 Clouds 9 1023 72 0 0.64 281 13:49 16.06.2020
1410 Clouds 8 1023 76 0 0.74 302 13:26 16.06.2020
1411 Clouds 8 1023 76 0 0.74 302 12:57 16.06.2020
1412 Clouds 8 1023 76 0 0.74 302 12:39 16.06.2020
1413 Clouds 8 1023 77 0 0.87 315 12:20 16.06.2020
1414 Clouds 8 1023 77 0 0.87 315 11:55 16.06.2020
1415 Clouds 8 1023 77 0 0.87 315 11:37 16.06.2020
1416 Clouds 8 1022 78 0 0.97 311 11:19 16.06.2020
1417 Clouds 8 1022 78 0 0.97 311 10:42 16.06.2020
1418 Clouds 8 1022 77 0 1.2 307 10:21 16.06.2020
1419 Clouds 8 1022 77 0 1.2 307 09:58 16.06.2020
1420 Clouds 8 1022 78 0 1.05 313 09:40 16.06.2020
1421 Clouds 8 1022 76 0 1.3 316 09:21 16.06.2020
1422 Clouds 8 1022 76 0 1.3 316 09:21 16.06.2020
1423 Clouds 8 1022 77 0 1.13 313 08:44 16.06.2020
1424 Clouds 8 1021 76 0 1.22 330 08:25 16.06.2020
1425 Clouds 8 1021 76 0 1.22 330 07:50 16.06.2020
1426 Clouds 9 1022 74 0 1.34 341 07:27 16.06.2020
1427 Clouds 9 1022 74 0 1.34 341 07:27 16.06.2020
1428 Clouds 9 1022 74 0 1.34 341 06:48 16.06.2020
1429 Clouds 10 1022 73 0 1.28 350 06:27 16.06.2020
1430 Clouds 10 1022 73 0 1.28 350 05:38 16.06.2020
1431 Clouds 10 1022 72 0 1.35 351 04:39 16.06.2020
1432 Clouds 11 1021 67 0 1.67 353 02:59 16.06.2020
1433 Clouds 12 1019 61 0 1.55 323 01:59 16.06.2020
1434 Clouds 13 1018 55 0 1.47 299 01:27 16.06.2020
1435 Clouds 13 1018 55 0 1.47 299 00:43 16.06.2020
1436 Clouds 16 1032 41 10000 4.1 300 00:19 16.06.2020
1437 Clouds 16 1032 41 10000 4.1 300 23:42 15.06.2020
1438 Clouds 16 1032 41 10000 4.1 300 23:22 15.06.2020
1439 Clouds 16 1032 41 10000 3.6 300 22:55 15.06.2020
1440 Clouds 16 1032 41 10000 2.6 340 22:37 15.06.2020
1441 Clouds 16 1032 41 10000 1.5 0 22:18 15.06.2020
1442 Clouds 16 1032 41 10000 1.5 0 21:55 15.06.2020
1443 Clouds 16 1033 38 10000 1.5 0 21:36 15.06.2020
1444 Clouds 15 1034 44 10000 2.6 310 21:18 15.06.2020
1445 Clouds 15 1034 44 10000 2.6 310 20:55 15.06.2020
1446 Clouds 14 1035 47 10000 2.1 290 20:36 15.06.2020
1447 Clouds 14 1035 47 10000 1.5 270 20:18 15.06.2020
1448 Clouds 14 1036 47 10000 1 0 19:41 15.06.2020
1449 Clouds 13 1036 50 10000 2.1 280 19:22 15.06.2020
1450 Clouds 13 1036 50 10000 2.1 280 19:22 15.06.2020
1451 Clouds 13 1036 50 10000 2.1 280 18:59 15.06.2020
1452 Clouds 12 1037 54 10000 2.1 350 18:41 15.06.2020
1453 Clouds 12 1037 54 10000 2.1 350 18:21 15.06.2020
1454 Clouds 12 1037 54 10000 1.5 30 17:59 15.06.2020
1455 Clouds 11 1037 57 10000 1 0 17:40 15.06.2020
1456 Clouds 11 1037 57 10000 1 0 17:20 15.06.2020
1457 Clouds 11 1037 57 10000 1 0 16:57 15.06.2020
1458 Clouds 11 1037 62 10000 0.71 209 16:39 15.06.2020
1459 Clouds 10 1037 66 10000 0.88 209 16:18 15.06.2020
1460 Clouds 10 1037 61 10000 0.88 209 15:41 15.06.2020
1461 Clouds 10 1037 61 10000 0.77 226 15:21 15.06.2020
1462 Clouds 9 1024 67 0 0.77 226 14:59 15.06.2020
1463 Clouds 9 1024 67 0 0.77 226 14:40 15.06.2020
1464 Clouds 8 1024 73 0 0.66 226 14:20 15.06.2020
1465 Clouds 8 1024 73 0 0.66 226 13:58 15.06.2020
1466 Clouds 8 1024 73 0 0.66 226 13:38 15.06.2020
1467 Clouds 8 1023 75 0 0.49 255 13:19 15.06.2020
1468 Clouds 8 1023 75 0 0.49 255 12:43 15.06.2020
1469 Clouds 7 1023 77 0 0.55 306 12:22 15.06.2020
1470 Clouds 7 1023 77 0 0.55 306 12:00 15.06.2020
1471 Clouds 7 1023 77 0 0.55 306 11:41 15.06.2020
1472 Clouds 7 1022 79 0 0.77 304 11:23 15.06.2020
1473 Clouds 7 1022 79 0 0.77 304 10:43 15.06.2020
1474 Clouds 6 1022 79 0 0.84 305 10:22 15.06.2020
1475 Clouds 6 1022 79 0 0.84 305 09:45 15.06.2020
1476 Clouds 7 1022 77 0 0.85 318 09:23 15.06.2020
1477 Clouds 7 1022 77 0 0.85 318 08:55 15.06.2020
1478 Clouds 7 1022 77 0 0.85 318 08:36 15.06.2020
1479 Clouds 7 1022 76 0 0.95 326 08:18 15.06.2020
1480 Clouds 7 1022 76 0 0.95 326 07:41 15.06.2020
1481 Clouds 8 1023 75 0 1.09 342 07:20 15.06.2020
1482 Clouds 8 1023 75 0 1.09 342 06:30 15.06.2020
1483 Clouds 8 1023 74 0 1.26 349 05:51 15.06.2020
1484 Clouds 8 1023 74 0 1.26 349 05:31 15.06.2020
1485 Clouds 9 1023 71 0 1.63 351 04:23 15.06.2020
1486 Clouds 9 1023 71 0 1.63 351 03:49 15.06.2020
1487 Clear 10 1021 68 0 1.9 345 03:27 15.06.2020
1488 Clouds 11 1020 64 0 1.6 317 02:33 15.06.2020
1489 Clouds 11 1020 64 0 1.6 317 01:51 15.06.2020
1490 Clouds 12 1018 57 0 1.47 301 01:30 15.06.2020
1491 Clouds 12 1018 57 0 1.47 301 00:56 15.06.2020
1492 Clouds 19 1030 32 10000 3.1 360 00:38 15.06.2020
1493 Clouds 19 1030 32 10000 3.1 360 00:18 15.06.2020
1494 Clouds 19 1030 32 10000 3.1 360 23:42 14.06.2020
1495 Clouds 19 1030 32 10000 3.1 360 23:24 14.06.2020
1496 Clouds 20 1030 28 10000 3.1 290 22:58 14.06.2020
1497 Clouds 19 1031 29 10000 1.5 360 22:38 14.06.2020
1498 Clouds 20 1031 28 10000 2.6 290 22:19 14.06.2020
1499 Clouds 20 1031 28 10000 2.6 290 21:57 14.06.2020
1500 Clouds 20 1031 28 10000 3.1 280 21:38 14.06.2020
1501 Clouds 20 1032 36 10000 2.1 60 21:19 14.06.2020
1502 Clouds 20 1032 36 10000 2.1 60 20:58 14.06.2020
1503 Clouds 20 1033 28 10000 2.1 90 20:38 14.06.2020
1504 Clouds 17 1033 33 10000 3.1 110 20:19 14.06.2020
1505 Clouds 17 1033 33 10000 3.1 110 19:57 14.06.2020
1506 Clouds 18 1034 31 10000 2.1 0 19:37 14.06.2020
1507 Clouds 19 1034 39 10000 4.6 110 19:19 14.06.2020
1508 Clouds 19 1034 39 10000 4.6 110 18:56 14.06.2020
1509 Clouds 19 1034 39 10000 4.6 110 18:56 14.06.2020
1510 Clouds 17 1035 39 10000 1 150 18:37 14.06.2020
1511 Clouds 16 1036 44 10000 0.5 110 18:19 14.06.2020
1512 Clouds 16 1036 44 10000 0.5 110 17:57 14.06.2020
1513 Clouds 15 1036 44 10000 1.5 0 17:38 14.06.2020
1514 Clouds 14 1036 41 10000 4.6 110 17:19 14.06.2020
1515 Clouds 12 1037 50 10000 2.1 0 16:41 14.06.2020
1516 Clouds 12 1037 50 10000 2.1 0 16:20 14.06.2020
1517 Clouds 12 1037 54 10000 1.5 0 15:58 14.06.2020
1518 Clear 11 1024 57 0 0.59 360 15:40 14.06.2020
1519 Clear 9 1024 65 0 0.73 28 15:18 14.06.2020
1520 Clear 9 1024 65 0 0.73 28 14:58 14.06.2020
1521 Clear 9 1024 65 0 0.73 28 14:40 14.06.2020
1522 Rain 7 1024 72 0 1.11 54 14:19 14.06.2020
1523 Rain 7 1024 72 0 1.11 54 13:55 14.06.2020
1524 Rain 7 1024 72 0 1.11 54 13:36 14.06.2020
1525 Rain 6 1024 76 0 1.07 60 13:18 14.06.2020
1526 Rain 6 1024 76 0 1.07 60 12:54 14.06.2020
1527 Rain 6 1024 76 0 1.07 60 12:36 14.06.2020
1528 Clear 6 1023 76 0 0.98 63 12:18 14.06.2020
1529 Clear 6 1023 76 0 0.98 63 11:55 14.06.2020
1530 Clear 6 1023 76 0 0.98 63 11:36 14.06.2020
1531 Clear 6 1023 75 0 0.53 38 11:18 14.06.2020
1532 Clear 6 1023 75 0 0.53 38 10:40 14.06.2020
1533 Clear 6 1023 75 0 1.18 22 10:19 14.06.2020
1534 Clear 6 1023 75 0 1.18 22 09:44 14.06.2020
1535 Clouds 7 1023 75 0 1.47 23 09:24 14.06.2020
1536 Clouds 7 1023 75 0 1.47 23 08:44 14.06.2020
1537 Clear 7 1023 74 0 1.84 24 08:22 14.06.2020
1538 Clear 7 1023 74 0 1.84 24 07:58 14.06.2020
1539 Clear 7 1023 74 0 1.84 24 07:37 14.06.2020
1540 Clear 7 1023 73 0 1.91 22 07:19 14.06.2020
1541 Clear 8 1023 72 0 1.91 23 05:58 14.06.2020
1542 Clear 8 1023 72 0 1.91 23 05:39 14.06.2020
1543 Clear 8 1023 71 0 1.92 26 04:43 14.06.2020
1544 Clear 9 1022 69 0 2.03 26 03:57 14.06.2020
1545 Clear 10 1020 67 0 2.13 24 02:53 14.06.2020
1546 Clouds 10 1019 63 0 2.26 23 02:23 14.06.2020
1547 Clouds 11 1018 63 0 2.3 21 01:36 14.06.2020
1548 Clouds 12 1016 57 0 2.51 19 00:50 14.06.2020
1549 Clouds 17 1029 33 10000 2.1 0 00:30 14.06.2020
1550 Clouds 17 1029 33 10000 2.1 0 23:56 13.06.2020
1551 Clouds 17 1029 33 10000 2.1 0 23:38 13.06.2020
1552 Clouds 17 1029 33 10000 2.1 0 23:20 13.06.2020
1553 Clouds 17 1029 33 10000 29.8 10 22:54 13.06.2020
1554 Clouds 19 1029 29 10000 3.6 10 22:36 13.06.2020
1555 Clouds 20 1029 42 10000 4.1 30 22:18 13.06.2020
1556 Clouds 21 1029 42 10000 4.6 20 21:42 13.06.2020
1557 Clouds 21 1029 37 10000 4.6 20 21:24 13.06.2020
1558 Clouds 21 1029 37 10000 4.6 30 20:57 13.06.2020
1559 Clouds 20 1030 30 10000 2.1 330 20:39 13.06.2020
1560 Clouds 20 1031 30 10000 0.5 60 20:18 13.06.2020
1561 Clouds 18 1032 39 10000 0.5 330 19:41 13.06.2020
1562 Clouds 18 1032 39 10000 0.5 330 19:20 13.06.2020
1563 Clouds 17 1032 39 10000 1.5 60 18:59 13.06.2020
1564 Clouds 15 1033 47 10000 2.1 0 18:40 13.06.2020
1565 Clouds 15 1033 47 10000 2.1 0 18:20 13.06.2020
1566 Clouds 14 1034 50 10000 1.5 0 17:57 13.06.2020
1567 Clouds 13 1034 54 10000 0.5 110 17:39 13.06.2020
1568 Clouds 13 1034 54 10000 0.5 110 17:20 13.06.2020
1569 Clouds 10 1035 66 10000 1 110 16:55 13.06.2020
1570 Clouds 10 1035 66 10000 1 110 16:37 13.06.2020
1571 Clouds 9 1035 66 10000 0.5 0 16:18 13.06.2020
1572 Clouds 9 1034 66 10000 0.5 350 15:42 13.06.2020
1573 Clouds 9 1034 66 10000 0.5 350 15:22 13.06.2020
1574 Clouds 10 1020 66 0 0.3 80 14:44 13.06.2020
1575 Clouds 9 1020 69 0 0.07 314 14:25 13.06.2020
1576 Clouds 9 1020 69 0 0.07 314 13:58 13.06.2020
1577 Clouds 9 1020 69 0 0.07 314 13:39 13.06.2020
1578 Clouds 8 1019 72 0 0.29 246 13:20 13.06.2020
1579 Clouds 8 1019 72 0 0.29 246 12:43 13.06.2020
1580 Clouds 8 1018 73 0 0.39 260 12:25 13.06.2020
1581 Clouds 8 1018 73 0 0.39 260 11:57 13.06.2020
1582 Clouds 8 1018 73 0 0.39 260 11:38 13.06.2020
1583 Clouds 8 1018 73 0 0.49 321 11:19 13.06.2020
1584 Clouds 8 1018 73 0 0.49 321 10:55 13.06.2020
1585 Clouds 8 1018 73 0 0.49 321 10:37 13.06.2020
1586 Clouds 8 1018 74 0 0.92 335 10:18 13.06.2020
1587 Clouds 7 1018 77 0 0.76 336 09:42 13.06.2020
1588 Clouds 7 1018 77 0 0.87 324 09:20 13.06.2020
1589 Clouds 7 1018 77 0 0.87 324 08:46 13.06.2020
1590 Clear 8 1018 77 0 0.72 314 08:28 13.06.2020
1591 Clear 8 1018 77 0 0.72 314 07:50 13.06.2020
1592 Clear 8 1018 76 0 0.48 318 07:27 13.06.2020
1593 Clear 8 1018 76 0 0.48 318 06:47 13.06.2020
1594 Clear 9 1018 75 0 0.58 341 06:27 13.06.2020
1595 Clear 9 1018 75 0 0.58 341 05:36 13.06.2020
1596 Clear 9 1018 74 0 1.15 2 04:59 13.06.2020
1597 Clear 10 1018 74 0 1.54 3 03:46 13.06.2020
1598 Clear 10 1017 72 0 1.92 1 02:53 13.06.2020
1599 Clouds 11 1016 68 0 2.12 347 02:25 13.06.2020
1600 Clouds 12 1014 55 0 1.73 294 01:26 13.06.2020
1601 Clouds 12 1014 55 0 1.73 294 00:58 13.06.2020
1602 Clouds 22 1027 17 10000 4.1 290 00:38 13.06.2020
1603 Clouds 22 1027 17 10000 4.1 290 00:19 13.06.2020
1604 Clouds 22 1027 17 10000 4.1 290 23:40 12.06.2020
1605 Clouds 22 1027 19 10000 1.5 330 23:19 12.06.2020
1606 Clouds 22 1027 19 10000 1.5 330 22:56 12.06.2020
1607 Clouds 22 1027 19 10000 1 0 22:37 12.06.2020
1608 Clouds 22 1028 18 10000 2.6 290 22:18 12.06.2020
1609 Clouds 22 1028 18 10000 2.1 270 21:44 12.06.2020
1610 Clouds 22 1028 18 10000 2.1 270 21:24 12.06.2020
1611 Clouds 21 1029 19 10000 2.6 90 20:57 12.06.2020
1612 Clouds 21 1029 19 10000 2.6 280 20:39 12.06.2020
1613 Clouds 20 1030 18 10000 1.5 0 20:20 12.06.2020
1614 Clouds 19 1031 24 10000 1.5 230 19:46 12.06.2020
1615 Clouds 19 1031 24 10000 1.5 230 19:22 12.06.2020
1616 Haze 19 1032 24 10000 1.5 60 18:59 12.06.2020
1617 Clouds 18 1032 25 10000 1 0 18:37 12.06.2020
1618 Haze 18 1033 27 10000 1 360 18:18 12.06.2020
1619 Haze 16 1034 38 10000 1 30 17:44 12.06.2020
1620 Haze 16 1034 38 10000 1 30 17:26 12.06.2020
1621 Haze 11 1034 57 10000 0.5 20 16:47 12.06.2020
1622 Haze 11 1034 57 10000 0.5 20 16:24 12.06.2020
1623 Haze 11 1034 57 10000 0.56 247 15:59 12.06.2020
1624 Haze 8 1034 70 10000 1 80 15:41 12.06.2020
1625 Clouds 9 1020 75 0 0.63 231 15:19 12.06.2020
1626 Clouds 9 1020 75 0 0.63 231 14:42 12.06.2020
1627 Clouds 9 1020 77 0 0.81 224 14:22 12.06.2020
1628 Clouds 9 1020 77 0 0.81 224 13:57 12.06.2020
1629 Clouds 9 1020 77 0 0.81 224 13:39 12.06.2020
1630 Clouds 8 1020 79 0 0.92 237 13:18 12.06.2020
1631 Clouds 8 1020 79 0 0.92 237 12:40 12.06.2020
1632 Clouds 8 1020 79 0 0.92 237 12:40 12.06.2020
1633 Clouds 8 1019 80 0 0.89 247 12:19 12.06.2020
1634 Clouds 8 1019 80 0 0.89 247 11:49 12.06.2020
1635 Clouds 7 1019 82 0 0.94 259 11:23 12.06.2020
1636 Clouds 7 1019 82 0 0.94 259 10:58 12.06.2020
1637 Clouds 7 1019 82 0 0.94 259 10:40 12.06.2020
1638 Clear 7 1019 80 0 0.99 274 10:21 12.06.2020
1639 Clear 7 1019 80 0 0.99 274 09:44 12.06.2020
1640 Clear 7 1019 79 0 1.12 283 09:21 12.06.2020
1641 Clear 7 1019 79 0 1.12 283 08:43 12.06.2020
1642 Clear 8 1019 78 0 1.22 293 08:24 12.06.2020
1643 Clear 8 1019 78 0 1.22 293 07:43 12.06.2020
1644 Clear 8 1019 77 0 1.1 291 07:24 12.06.2020
1645 Clear 8 1019 77 0 1.1 291 06:44 12.06.2020
1646 Clear 9 1019 75 0 0.94 298 06:24 12.06.2020
1647 Clear 9 1019 75 0 0.94 298 05:50 12.06.2020
1648 Clear 9 1019 74 0 1.07 335 05:26 12.06.2020
1649 Clear 9 1019 74 0 1.07 335 04:41 12.06.2020
1650 Clear 10 1018 71 0 1.56 353 02:46 12.06.2020
1651 Clear 11 1017 68 0 1.84 352 01:52 12.06.2020
1652 Clear 12 1016 61 0 2 350 01:23 12.06.2020
1653 Clear 12 1016 61 0 2 350 00:42 12.06.2020
1654 Clouds 21 1028 19 10000 3.1 290 00:24 12.06.2020
1655 Clouds 21 1028 19 10000 3.1 290 23:58 11.06.2020
1656 Clouds 21 1028 19 10000 3.1 290 23:40 11.06.2020
1657 Clouds 21 1028 19 10000 3.1 290 23:40 11.06.2020
1658 Clouds 21 1028 19 10000 3.1 290 23:20 11.06.2020
1659 Clouds 22 1028 17 10000 1 100 22:57 11.06.2020
1660 Clouds 22 1029 17 10000 1.5 0 22:38 11.06.2020
1661 Clouds 22 1029 17 10000 2.6 290 22:19 11.06.2020
1662 Clouds 22 1029 17 10000 2.6 290 21:54 11.06.2020
1663 Clouds 22 1030 18 10000 3.6 330 21:36 11.06.2020
1664 Clouds 21 1030 19 10000 1.5 0 21:18 11.06.2020
1665 Clouds 21 1031 22 10000 2.1 60 20:43 11.06.2020
1666 Clouds 20 1032 30 10000 2.6 10 20:21 11.06.2020
1667 Clouds 19 1033 32 10000 1.5 0 19:44 11.06.2020
1668 Clouds 19 1033 32 10000 1.5 0 19:23 11.06.2020
1669 Clouds 19 1033 32 10000 2.1 310 18:58 11.06.2020
1670 Clouds 18 1034 36 10000 1.5 0 18:40 11.06.2020
1671 Clouds 17 1034 39 10000 1.5 0 18:20 11.06.2020
1672 Clouds 17 1034 39 10000 1.5 0 17:56 11.06.2020
1673 Clouds 15 1035 51 10000 1 320 17:37 11.06.2020
1674 Clouds 15 1035 51 10000 1 320 17:19 11.06.2020
1675 Clouds 11 1036 66 10000 0.5 230 16:45 11.06.2020
1676 Clouds 11 1036 66 10000 0.5 230 16:27 11.06.2020
1677 Clouds 10 1036 71 10000 0.5 0 15:59 11.06.2020
1678 Clouds 10 1021 68 0 1.01 206 15:40 11.06.2020
1679 Clouds 9 1021 72 0 0.99 208 15:22 11.06.2020
1680 Clouds 9 1021 72 0 0.99 208 14:46 11.06.2020
1681 Clouds 8 1021 78 0 0.25 253 14:22 11.06.2020
1682 Clouds 8 1021 78 0 0.25 253 13:58 11.06.2020
1683 Clouds 8 1021 78 0 0.25 253 13:39 11.06.2020
1684 Clouds 6 1021 80 0 0.78 247 13:21 11.06.2020
1685 Clouds 6 1021 80 0 0.78 247 12:59 11.06.2020
1686 Clouds 6 1021 80 0 0.78 247 12:39 11.06.2020
1687 Clouds 6 1020 79 0 1.02 261 12:20 11.06.2020
1688 Clouds 6 1020 79 0 1.02 261 11:58 11.06.2020
1689 Clouds 6 1020 79 0 1.02 261 11:40 11.06.2020
1690 Clouds 7 1020 78 0 0.93 274 11:21 11.06.2020
1691 Clouds 7 1020 78 0 0.93 274 11:21 11.06.2020
1692 Clouds 7 1020 78 0 0.93 274 10:57 11.06.2020
1693 Clouds 7 1020 78 0 0.93 274 10:38 11.06.2020
1694 Clouds 7 1020 78 0 0.76 271 10:18 11.06.2020
1695 Clouds 7 1020 78 0 0.76 271 09:42 11.06.2020
1696 Clouds 7 1019 78 0 0.32 265 09:23 11.06.2020
1697 Clouds 7 1019 78 0 0.32 265 08:44 11.06.2020
1698 Clouds 8 1019 77 0 0.46 321 08:20 11.06.2020
1699 Clouds 8 1019 77 0 0.46 321 07:58 11.06.2020
1700 Clouds 8 1019 77 0 0.46 321 07:40 11.06.2020
1701 Clouds 8 1019 77 0 0.78 345 07:20 11.06.2020
1702 Clouds 8 1020 75 0 0.81 335 06:29 11.06.2020
1703 Clouds 8 1020 75 0 0.81 335 05:39 11.06.2020
1704 Clouds 9 1020 73 0 0.92 10 03:54 11.06.2020
1705 Clouds 10 1019 70 0 1.6 7 03:23 11.06.2020
1706 Clouds 10 1018 70 0 1.57 357 02:32 11.06.2020
1707 Clouds 11 1017 67 0 1.71 358 01:51 11.06.2020
1708 Rain 12 1016 64 0 1.91 360 01:25 11.06.2020
1709 Rain 12 1016 64 0 1.91 360 00:50 11.06.2020
1710 Clouds 19 1028 32 10000 6.2 30 00:29 11.06.2020
1711 Clouds 19 1028 32 10000 6.2 30 23:47 10.06.2020
1712 Clouds 19 1028 32 10000 6.2 30 23:27 10.06.2020
1713 Clouds 20 1028 30 10000 6.2 20 22:57 10.06.2020
1714 Clouds 21 1028 28 10000 5.1 20 22:38 10.06.2020
1715 Clouds 21 1028 28 10000 5.1 20 22:20 10.06.2020
1716 Clouds 21 1028 28 10000 3.1 0 21:58 10.06.2020
1717 Clouds 19 1029 32 10000 1 0 21:39 10.06.2020
1718 Clouds 19 1029 32 10000 1 0 21:18 10.06.2020
1719 Clouds 20 1029 30 10000 1 0 20:57 10.06.2020
1720 Clouds 20 1029 30 10000 1 0 20:57 10.06.2020
1721 Clouds 18 1031 36 10000 1.5 150 20:39 10.06.2020
1722 Clouds 18 1031 36 10000 1.5 150 20:21 10.06.2020
1723 Clouds 17 1032 39 10000 2.6 90 19:41 10.06.2020
1724 Clouds 18 1032 36 10000 0.5 290 19:20 10.06.2020
1725 Clouds 18 1032 36 10000 0.5 290 19:00 10.06.2020
1726 Clouds 18 1033 34 10000 1 0 18:41 10.06.2020
1727 Clouds 16 1033 41 10000 1.5 30 18:20 10.06.2020
1728 Clouds 16 1033 41 10000 1.5 30 18:20 10.06.2020
1729 Clouds 16 1033 41 10000 1.5 30 17:56 10.06.2020
1730 Clouds 17 1033 39 10000 1.5 40 17:37 10.06.2020
1731 Clouds 17 1033 39 10000 1.5 40 17:19 10.06.2020
1732 Clouds 16 1034 44 10000 1 70 16:58 10.06.2020
1733 Clouds 15 1034 47 10000 1.5 0 16:39 10.06.2020
1734 Clouds 15 1034 47 10000 1.5 0 16:20 10.06.2020
1735 Haze 14 1034 54 10000 1.5 0 15:55 10.06.2020
1736 Haze 13 1034 58 10000 0.5 0 15:36 10.06.2020
1737 Haze 13 1034 58 10000 0.5 0 15:18 10.06.2020
1738 Haze 13 1034 58 10000 0.5 0 15:18 10.06.2020
1739 Clouds 10 1021 68 0 0.33 198 14:40 10.06.2020
1740 Clouds 8 1021 75 0 0.56 236 14:21 10.06.2020
1741 Clouds 8 1021 75 0 0.56 236 13:41 10.06.2020
1742 Clouds 6 1020 78 0 0.57 242 13:22 10.06.2020
1743 Clouds 6 1020 78 0 0.57 242 12:55 10.06.2020
1744 Clouds 6 1020 78 0 0.57 242 12:37 10.06.2020
1745 Clouds 6 1020 77 0 0.7 273 12:18 10.06.2020
1746 Clouds 6 1020 77 0 0.7 273 11:42 10.06.2020
1747 Clouds 7 1019 77 0 0.47 290 11:20 10.06.2020
1748 Clouds 7 1019 77 0 0.47 290 10:58 10.06.2020
1749 Clouds 7 1019 77 0 0.47 290 10:40 10.06.2020
1750 Clouds 7 1019 77 0 0.47 290 10:40 10.06.2020
1751 Clouds 7 1019 77 0 0.37 327 10:21 10.06.2020
1752 Clouds 7 1019 77 0 0.37 327 09:44 10.06.2020
1753 Clouds 7 1019 76 0 0.57 342 09:25 10.06.2020
1754 Clouds 7 1019 75 0 0.6 349 08:58 10.06.2020
1755 Clouds 7 1019 75 0 0.6 349 08:39 10.06.2020
1756 Clouds 8 1020 76 0 0.62 342 08:21 10.06.2020
1757 Clouds 8 1020 76 0 0.62 342 07:41 10.06.2020
1758 Clouds 8 1020 75 0 0.96 2 07:23 10.06.2020
1759 Clouds 8 1020 75 0 0.96 2 06:50 10.06.2020
1760 Clouds 8 1020 75 0 0.96 2 06:30 10.06.2020
1761 Clear 9 1020 75 0 1.2 7 05:58 10.06.2020
1762 Clear 9 1020 74 0 1.58 3 05:29 10.06.2020
1763 Clear 9 1020 74 0 1.58 3 04:46 10.06.2020
1764 Clear 10 1020 72 0 1.88 1 04:28 10.06.2020
1765 Clouds 12 1018 63 0 2.11 2 02:24 10.06.2020
1766 Clouds 12 1018 63 0 2.11 2 01:39 10.06.2020
1767 Rain 13 1016 58 0 2.2 359 00:41 10.06.2020
1768 Clouds 20 1029 51 10000 3.6 350 00:23 10.06.2020
1769 Clouds 20 1029 51 10000 3.6 350 23:58 09.06.2020
1770 Clouds 20 1029 51 10000 3.6 350 23:39 09.06.2020
1771 Clouds 20 1029 40 10000 3.6 350 23:21 09.06.2020
1772 Clouds 22 1029 40 10000 3.6 320 22:56 09.06.2020
1773 Clouds 22 1029 40 10000 2.6 0 22:38 09.06.2020
1774 Clouds 22 1029 32 10000 2.6 0 22:20 09.06.2020
1775 Clouds 23 1029 32 10000 3.6 290 21:56 09.06.2020
1776 Clouds 22 1030 18 10000 3.1 40 21:38 09.06.2020
1777 Clouds 22 1030 18 10000 3.1 40 21:38 09.06.2020
1778 Clouds 22 1030 18 10000 3.1 40 21:20 09.06.2020
1779 Clouds 22 1030 18 10000 3.1 40 21:20 09.06.2020
1780 Clouds 22 1030 21 10000 0.5 230 20:57 09.06.2020
1781 Clouds 20 1032 30 10000 1 0 20:38 09.06.2020
1782 Clouds 19 1032 29 10000 2.6 70 20:19 09.06.2020
1783 Clouds 19 1032 29 10000 2.6 70 19:57 09.06.2020
1784 Clouds 20 1033 31 10000 1.5 0 19:38 09.06.2020
1785 Clouds 20 1034 30 10000 2.1 0 19:20 09.06.2020
1786 Clouds 20 1034 30 10000 2.1 0 18:56 09.06.2020
1787 Clouds 18 1034 36 10000 1.5 340 18:37 09.06.2020
1788 Clouds 18 1035 34 10000 0.5 50 18:18 09.06.2020
1789 Clouds 18 1035 34 10000 0.5 50 17:54 09.06.2020
1790 Clear 16 1036 41 10000 0.5 0 17:36 09.06.2020
1791 Clear 16 1036 41 10000 0.5 0 17:18 09.06.2020
1792 Clear 13 1036 54 10000 2.1 80 16:42 09.06.2020
1793 Clear 13 1036 54 10000 2.1 80 16:22 09.06.2020
1794 Clear 12 1036 58 10000 1 0 15:55 09.06.2020
1795 Clear 11 1036 57 10000 0.5 0 15:36 09.06.2020
1796 Clear 11 1022 65 0 0.65 198 15:18 09.06.2020
1797 Clear 11 1022 65 0 0.65 198 14:40 09.06.2020
1798 Clear 8 1022 73 0 0.56 192 14:20 09.06.2020
1799 Clear 8 1022 73 0 0.56 192 13:57 09.06.2020
1800 Clear 8 1022 73 0 0.56 192 13:38 09.06.2020
1801 Clear 6 1022 77 0 0.62 201 13:20 09.06.2020
1802 Clear 6 1022 77 0 0.62 201 12:42 09.06.2020
1803 Clear 7 1021 76 0 0.74 204 12:21 09.06.2020
1804 Clear 7 1021 76 0 0.74 204 12:21 09.06.2020
1805 Clear 7 1021 76 0 0.74 204 11:58 09.06.2020
1806 Clear 7 1021 76 0 0.74 204 11:40 09.06.2020
1807 Clear 7 1021 75 0 0.5 219 11:20 09.06.2020
1808 Clear 7 1021 75 0 0.5 219 11:20 09.06.2020
1809 Clear 7 1021 75 0 0.5 219 10:58 09.06.2020
1810 Clear 7 1021 75 0 0.5 219 10:39 09.06.2020
1811 Clear 7 1021 74 0 0.28 265 10:19 09.06.2020
1812 Clear 7 1021 74 0 0.28 265 09:41 09.06.2020
1813 Clear 8 1021 74 0 0.27 275 09:22 09.06.2020
1814 Clear 8 1021 74 0 0.17 220 08:56 09.06.2020
1815 Clear 8 1021 74 0 0.17 220 08:37 09.06.2020
1816 Clouds 8 1022 73 0 0.53 294 08:19 09.06.2020
1817 Clouds 8 1022 73 0 0.53 294 07:37 09.06.2020
1818 Clouds 9 1022 73 0 0.72 336 07:19 09.06.2020
1819 Clouds 9 1022 73 0 0.72 336 06:52 09.06.2020
1820 Clouds 9 1022 73 0 0.72 336 06:33 09.06.2020
1821 Rain 9 1022 74 0 1.37 8 04:57 09.06.2020
1822 Rain 10 1020 68 0 2.03 17 02:52 09.06.2020
1823 Rain 11 1019 64 0 1.96 14 01:41 09.06.2020
1824 Rain 13 1018 57 0 2.3 358 01:19 09.06.2020
1825 Rain 13 1018 57 0 2.3 358 00:45 09.06.2020
1826 Clouds 21 1030 26 10000 2.6 340 00:20 09.06.2020
1827 Clouds 21 1030 26 10000 2.6 340 23:54 08.06.2020
1828 Clouds 21 1030 26 10000 2.6 340 23:36 08.06.2020
1829 Clouds 21 1030 26 10000 2.6 340 23:18 08.06.2020
1830 Clouds 20 1031 28 10000 5.1 20 22:41 08.06.2020
1831 Clouds 20 1031 28 10000 5.1 20 22:21 08.06.2020
1832 Clouds 20 1031 33 10000 2.6 70 21:58 08.06.2020
1833 Clouds 22 1032 19 10000 1 140 21:39 08.06.2020
1834 Clouds 22 1032 19 10000 1 140 21:21 08.06.2020
1835 Clouds 20 1032 24 10000 2.6 300 20:55 08.06.2020
1836 Clouds 21 1033 33 10000 1.5 0 20:37 08.06.2020
1837 Clouds 21 1033 33 10000 1.5 0 20:19 08.06.2020
1838 Clouds 20 1034 28 10000 1 240 19:44 08.06.2020
1839 Clouds 19 1035 29 10000 1 110 19:22 08.06.2020
1840 Clouds 18 1036 34 10000 1 0 18:58 08.06.2020
1841 Clouds 18 1036 34 10000 1 0 18:39 08.06.2020
1842 Clouds 16 1036 41 10000 1 0 18:18 08.06.2020
1843 Clouds 16 1036 41 10000 1 0 17:54 08.06.2020
1844 Clear 15 1037 44 10000 1 10 17:36 08.06.2020
1845 Clear 15 1037 44 10000 1 10 17:18 08.06.2020
1846 Clear 12 1038 54 10000 1 0 16:42 08.06.2020
1847 Clear 12 1038 54 10000 1 0 16:22 08.06.2020
1848 Clear 8 1038 70 10000 1 0 15:45 08.06.2020
1849 Clear 8 1038 70 10000 1 0 15:22 08.06.2020
1850 Clear 11 1023 60 0 0.99 181 14:59 08.06.2020
1851 Clear 11 1023 60 0 0.99 181 14:40 08.06.2020
1852 Clouds 9 1023 68 0 0.96 176 14:20 08.06.2020
1853 Clouds 9 1023 68 0 0.96 176 14:20 08.06.2020
1854 Clouds 9 1023 68 0 0.96 176 13:44 08.06.2020
1855 Clouds 6 1023 72 0 0.39 232 13:25 08.06.2020
1856 Clouds 6 1023 72 0 0.39 232 12:44 08.06.2020
1857 Clouds 6 1023 72 0 0.39 232 12:44 08.06.2020
1858 Clouds 6 1023 72 0 0.39 232 12:44 08.06.2020
1859 Clouds 6 1023 72 0 0.33 269 12:22 08.06.2020
1860 Clouds 6 1023 72 0 0.33 269 11:59 08.06.2020
1861 Clouds 6 1023 72 0 0.33 269 11:41 08.06.2020
1862 Clouds 7 1022 72 0 0.46 285 11:23 08.06.2020
1863 Clouds 7 1022 72 0 0.46 285 10:58 08.06.2020
1864 Clouds 7 1022 72 0 0.46 285 10:39 08.06.2020
1865 Clouds 7 1022 71 0 0.58 280 10:20 08.06.2020
1866 Clouds 7 1022 71 0 0.58 280 09:58 08.06.2020
1867 Clouds 7 1022 72 0 0.55 253 09:40 08.06.2020
1868 Clouds 7 1022 72 0 0.41 264 09:21 08.06.2020
1869 Clouds 7 1022 72 0 0.41 264 08:46 08.06.2020
1870 Clouds 8 1022 72 0 0.53 312 08:22 08.06.2020
1871 Clouds 8 1022 72 0 0.53 312 07:46 08.06.2020
1872 Clouds 8 1023 71 0 0.77 331 07:23 08.06.2020
1873 Clouds 8 1023 71 0 0.77 331 06:50 08.06.2020
1874 Clouds 8 1023 71 0 0.77 331 06:30 08.06.2020
1875 Clouds 9 1023 71 0 1.04 345 05:51 08.06.2020
1876 Clouds 10 1023 69 0 1.56 342 04:29 08.06.2020
1877 Clouds 10 1022 67 0 1.86 340 02:32 08.06.2020
1878 Clouds 11 1020 63 0 2.08 336 01:49 08.06.2020
1879 Clouds 11 1020 63 0 2.08 336 01:30 08.06.2020
1880 Clouds 16 1033 41 10000 3.1 110 00:30 08.06.2020
1881 Clouds 16 1033 41 10000 3.1 110 23:42 07.06.2020
1882 Clouds 16 1033 41 10000 3.1 110 23:20 07.06.2020
1883 Clouds 17 1033 39 10000 3.1 110 22:59 07.06.2020
1884 Clouds 18 1033 34 10000 1 130 22:39 07.06.2020
1885 Clouds 18 1033 34 10000 1 130 22:19 07.06.2020
1886 Clouds 17 1034 39 10000 1.5 140 21:59 07.06.2020
1887 Clouds 17 1035 42 10000 2.1 30 21:39 07.06.2020
1888 Clouds 17 1035 42 10000 2.1 30 21:20 07.06.2020
1889 Clouds 17 1035 42 10000 2.1 30 21:20 07.06.2020
1890 Clouds 17 1035 42 10000 2.1 30 21:20 07.06.2020
1891 Clouds 17 1035 42 10000 2.1 30 21:20 07.06.2020
1892 Clouds 17 1035 42 10000 2.1 30 21:20 07.06.2020
1893 Clouds 16 1035 41 10000 2.1 60 20:56 07.06.2020
1894 Clouds 15 1036 44 10000 2.1 0 20:38 07.06.2020
1895 Clouds 15 1036 44 10000 2.1 0 20:18 07.06.2020
1896 Clouds 15 1037 47 10000 2.1 50 19:55 07.06.2020
1897 Clouds 13 1038 54 10000 1 0 19:37 07.06.2020
1898 Clouds 12 1038 62 10000 1 60 19:19 07.06.2020
1899 Clouds 12 1038 62 10000 1 60 18:54 07.06.2020
1900 Clouds 11 1039 62 10000 1.5 110 18:36 07.06.2020
1901 Clouds 11 1039 66 10000 1 303 18:18 07.06.2020
1902 Clouds 9 1039 76 10000 2.1 110 17:41 07.06.2020
1903 Clouds 9 1039 76 10000 2.1 110 17:22 07.06.2020
1904 Clouds 8 1039 81 10000 2.6 110 16:45 07.06.2020
1905 Clouds 8 1039 81 10000 2.6 110 16:23 07.06.2020
1906 Clouds 8 1039 81 10000 2.1 120 15:58 07.06.2020
1907 Clouds 8 1039 81 10000 6.2 90 15:36 07.06.2020
1908 Clouds 8 1039 81 10000 6.2 90 15:18 07.06.2020
1909 Clear 10 1024 64 0 0.16 256 14:38 07.06.2020
1910 Clear 8 1024 71 0 0.32 266 14:19 07.06.2020
1911 Clear 8 1025 72 0 0.42 243 13:47 07.06.2020
1912 Clear 8 1025 72 0 0.42 243 13:47 07.06.2020
1913 Clear 8 1025 72 0 0.42 243 13:46 07.06.2020
1914 Clear 5 1024 77 0 0.59 233 13:21 07.06.2020
1915 Clear 5 1024 77 0 0.59 233 12:45 07.06.2020
1916 Clear 5 1024 76 0 0.74 236 12:27 07.06.2020
1917 Clear 5 1024 76 0 0.74 236 11:56 07.06.2020
1918 Clear 5 1024 76 0 0.74 236 11:38 07.06.2020
1919 Clear 6 1024 75 0 0.63 244 11:20 07.06.2020
1920 Clear 6 1024 75 0 0.63 244 10:59 07.06.2020
1921 Clear 6 1024 75 0 0.63 244 10:40 07.06.2020
1922 Clear 6 1023 74 0 0.54 255 10:19 07.06.2020
1923 Clear 6 1023 74 0 0.54 255 09:56 07.06.2020
1924 Clear 6 1023 74 0 0.54 255 09:38 07.06.2020
1925 Clear 6 1023 73 0 0.8 269 09:19 07.06.2020
1926 Clear 6 1023 73 0 0.8 269 08:45 07.06.2020
1927 Clouds 7 1023 73 0 0.75 288 08:23 07.06.2020
1928 Clouds 7 1023 73 0 0.75 288 08:23 07.06.2020
1929 Clouds 7 1023 73 0 0.75 288 07:47 07.06.2020
1930 Clouds 7 1023 73 0 0.75 288 07:28 07.06.2020
1931 Clouds 7 1024 72 0 0.77 318 06:38 07.06.2020
1932 Clouds 8 1024 73 0 1.01 340 05:36 07.06.2020
1933 Clear 8 1023 73 0 1.46 349 04:20 07.06.2020
1934 Clear 8 1023 73 0 1.46 349 04:20 07.06.2020
1935 Clouds 9 1022 71 0 1.65 333 02:32 07.06.2020
1936 Clouds 10 1020 69 0 1.77 326 01:50 07.06.2020
1937 Clouds 11 1019 65 0 1.45 329 01:25 07.06.2020
1938 Clouds 11 1019 65 0 1.45 329 00:42 07.06.2020
1939 Rain 12 1034 66 10000 6.2 110 00:18 07.06.2020
1940 Rain 12 1034 66 10000 6.2 110 23:57 06.06.2020
1941 Rain 12 1034 66 10000 6.2 110 23:36 06.06.2020
1942 Rain 12 1034 66 10000 6.2 110 23:18 06.06.2020
1943 Clouds 13 1033 62 10000 5.1 110 22:56 06.06.2020
1944 Clouds 13 1033 62 10000 4.1 110 22:37 06.06.2020
1945 Clouds 13 1033 62 10000 4.1 110 22:18 06.06.2020
1946 Rain 13 1034 66 10000 2.6 80 21:43 06.06.2020
1947 Rain 13 1034 66 10000 2.6 80 21:22 06.06.2020
1948 Clouds 12 1034 71 10000 2.6 0 20:56 06.06.2020
1949 Rain 15 1034 51 10000 1.5 40 20:37 06.06.2020
1950 Rain 15 1034 51 10000 1.5 40 20:18 06.06.2020
1951 Clouds 17 1034 42 10000 1.5 40 19:56 06.06.2020
1952 Clouds 15 1035 47 10000 3.1 250 19:37 06.06.2020
1953 Rain 16 1036 41 10000 3.6 290 19:18 06.06.2020
1954 Clouds 16 1036 41 10000 1.5 0 18:42 06.06.2020
1955 Clouds 15 1036 44 10000 1 60 18:24 06.06.2020
1956 Clouds 15 1036 44 10000 1 60 17:57 06.06.2020
1957 Clouds 14 1037 50 10000 0.5 210 17:39 06.06.2020
1958 Clouds 14 1037 50 10000 0.5 210 17:18 06.06.2020
1959 Clouds 14 1037 58 10000 0.5 0 16:40 06.06.2020
1960 Clouds 12 1037 58 10000 0.5 0 16:21 06.06.2020
1961 Clouds 12 1037 58 10000 0.5 0 15:55 06.06.2020
1962 Clouds 11 1025 60 0 0.95 178 15:36 06.06.2020
1963 Clouds 9 1025 67 0 0.88 159 15:18 06.06.2020
1964 Clouds 9 1025 67 0 0.88 159 14:39 06.06.2020
1965 Clouds 7 1025 73 0 0.72 138 14:20 06.06.2020
1966 Clouds 7 1025 73 0 0.72 138 13:55 06.06.2020
1967 Clouds 7 1025 73 0 0.72 138 13:37 06.06.2020
1968 Clouds 5 1024 78 0 0.6 135 13:18 06.06.2020
1969 Clouds 5 1024 78 0 0.6 135 12:42 06.06.2020
1970 Clouds 5 1024 78 0 0.48 175 12:23 06.06.2020
1971 Clouds 5 1024 78 0 0.48 175 11:58 06.06.2020
1972 Clouds 5 1024 78 0 0.48 175 11:38 06.06.2020
1973 Clouds 5 1023 77 0 0.36 238 11:19 06.06.2020
1974 Clouds 5 1023 77 0 0.36 238 10:57 06.06.2020
1975 Clouds 5 1023 77 0 0.36 238 10:39 06.06.2020
1976 Clouds 5 1023 77 0 0.36 238 10:39 06.06.2020
1977 Clouds 5 1023 76 0 0.58 290 10:20 06.06.2020
1978 Clouds 5 1023 76 0 0.58 290 09:45 06.06.2020
1979 Clear 6 1023 75 0 0.69 314 09:27 06.06.2020
1980 Clear 5 1023 76 0 0.59 316 08:56 06.06.2020
1981 Clear 5 1023 76 0 0.59 316 08:38 06.06.2020
1982 Clouds 6 1024 76 0 0.75 355 08:18 06.06.2020
1983 Clouds 6 1024 76 0 0.75 355 07:45 06.06.2020
1984 Clouds 6 1024 76 0 0.95 353 07:20 06.06.2020
1985 Clouds 6 1024 76 0 0.95 353 06:46 06.06.2020
1986 Clouds 7 1024 75 0 0.91 337 06:27 06.06.2020
1987 Clouds 7 1024 75 0 0.91 337 05:50 06.06.2020
1988 Clouds 7 1024 75 0 0.94 306 05:25 06.06.2020
1989 Clouds 7 1024 75 0 0.94 306 04:38 06.06.2020
1990 Clouds 8 1023 72 0 1.19 302 02:36 06.06.2020
1991 Clouds 10 1021 65 0 1.26 308 01:42 06.06.2020
1992 Clouds 10 1020 65 0 1.18 314 01:18 06.06.2020
1993 Clouds 10 1020 65 0 1.18 314 00:41 06.06.2020
1994 Clouds 17 1032 39 10000 3.1 40 00:23 06.06.2020
1995 Clouds 17 1032 39 10000 3.1 40 23:40 05.06.2020
1996 Clouds 17 1032 39 10000 3.1 40 23:21 05.06.2020
1997 Clouds 16 1032 41 10000 3.6 20 22:59 05.06.2020
1998 Clouds 16 1032 44 10000 1 20 22:41 05.06.2020
1999 Clouds 16 1032 44 10000 1 20 22:22 05.06.2020
2000 Clouds 16 1032 44 10000 2.6 330 21:57 05.06.2020
2001 Drizzle 16 1032 48 10000 1.5 0 21:39 05.06.2020
2002 Drizzle 16 1032 48 10000 1.5 0 21:19 05.06.2020
2003 Rain 16 1032 41 10000 5.7 110 20:55 05.06.2020
2004 Clouds 17 1032 39 10000 5.7 110 20:37 05.06.2020
2005 Clouds 18 1033 34 10000 2.6 0 20:18 05.06.2020
2006 Clouds 18 1034 36 10000 0.5 230 19:40 05.06.2020
2007 Clouds 18 1034 36 10000 0.5 230 19:21 05.06.2020
2008 Clouds 17 1034 39 10000 2.1 300 18:54 05.06.2020
2009 Clouds 16 1035 41 10000 1.5 0 18:36 05.06.2020
2010 Clouds 16 1035 41 10000 1 0 18:18 05.06.2020
2011 Clouds 16 1035 41 10000 1 0 17:55 05.06.2020
2012 Clouds 15 1036 47 10000 1.5 0 17:37 05.06.2020
2013 Clouds 15 1036 47 10000 1.5 0 17:18 05.06.2020
2014 Clouds 13 1036 58 10000 1 0 16:37 05.06.2020
2015 Clouds 13 1036 58 10000 1 0 16:19 05.06.2020
2016 Clouds 11 1036 66 10000 0.5 0 15:40 05.06.2020
2017 Clouds 11 1036 66 10000 0.5 0 15:21 05.06.2020
2018 Clouds 9 1024 66 0 0.39 45 14:58 05.06.2020
2019 Clouds 9 1024 66 0 0.39 45 14:40 05.06.2020
2020 Clouds 7 1024 72 0 0.43 88 14:21 05.06.2020
2021 Clouds 7 1024 72 0 0.43 88 13:47 05.06.2020
2022 Clouds 7 1024 72 0 0.43 88 13:28 05.06.2020
2023 Clouds 5 1023 77 0 0.28 86 12:57 05.06.2020
2024 Clouds 5 1023 77 0 0.28 86 12:39 05.06.2020
2025 Clouds 5 1023 76 0 0.16 94 12:19 05.06.2020
2026 Clouds 5 1023 76 0 0.16 94 11:43 05.06.2020
2027 Clouds 5 1023 76 0 0.16 94 11:43 05.06.2020
2028 Clouds 5 1022 76 0 0.13 28 11:24 05.06.2020
2029 Clouds 5 1022 76 0 0.13 28 10:59 05.06.2020
2030 Clouds 5 1022 76 0 0.13 28 10:41 05.06.2020
2031 Clouds 6 1022 75 0 0.56 11 10:20 05.06.2020
2032 Clouds 6 1022 75 0 0.56 11 09:57 05.06.2020
2033 Clouds 6 1022 75 0 0.56 11 09:39 05.06.2020
2034 Clouds 6 1022 75 0 1.3 7 09:19 05.06.2020
2035 Clouds 6 1022 75 0 1.3 7 08:57 05.06.2020
2036 Clouds 6 1022 75 0 1.3 7 08:39 05.06.2020
2037 Clouds 6 1022 75 0 1.44 2 08:18 05.06.2020
2038 Clouds 6 1022 75 0 1.44 2 07:49 05.06.2020
2039 Clouds 6 1022 75 0 1.44 2 07:31 05.06.2020
2040 Clouds 7 1023 74 0 1.36 2 06:45 05.06.2020
2041 Clouds 8 1022 74 0 1.69 2 05:23 05.06.2020
2042 Clouds 8 1022 73 0 1.67 358 04:27 05.06.2020
2043 Clouds 8 1022 73 0 1.67 358 03:29 05.06.2020
2044 Clouds 10 1020 68 0 1.91 345 02:29 05.06.2020
2045 Clouds 14 1030 47 10000 3.1 250 01:58 05.06.2020
2046 Clouds 14 1030 47 10000 3.1 250 01:30 05.06.2020
2047 Clouds 14 1030 47 10000 3.1 250 00:43 05.06.2020
2048 Clouds 16 1030 41 10000 6.2 290 00:21 05.06.2020
2049 Clouds 17 1030 36 10000 7.2 280 23:47 04.06.2020
2050 Clouds 17 1030 36 10000 7.2 280 23:29 04.06.2020
2051 Clouds 18 1029 34 10000 6.7 290 22:57 04.06.2020
2052 Clouds 18 1029 34 10000 6.7 280 22:38 04.06.2020
2053 Clouds 18 1030 34 10000 7.2 290 22:20 04.06.2020
2054 Clouds 18 1030 34 10000 7.2 290 21:57 04.06.2020
2055 Clouds 19 1030 32 10000 3.6 280 21:38 04.06.2020
2056 Clouds 19 1030 32 10000 3.6 280 21:19 04.06.2020
2057 Clouds 17 1031 36 10000 1 0 20:55 04.06.2020
2058 Clouds 17 1032 36 10000 1.96 340 20:37 04.06.2020
2059 Clouds 17 1032 36 10000 1.74 326 20:18 04.06.2020
2060 Clouds 16 1032 38 10000 1 0 19:40 04.06.2020
2061 Clouds 14 1034 44 10000 1 140 19:21 04.06.2020
2062 Clouds 14 1034 44 10000 1 140 19:21 04.06.2020
2063 Drizzle 14 1034 44 10000 1 0 18:56 04.06.2020
2064 Drizzle 14 1034 44 10000 1 0 18:38 04.06.2020
2065 Clouds 12 1034 50 10000 2.1 290 18:20 04.06.2020
2066 Clouds 12 1035 54 10000 1 300 17:43 04.06.2020
2067 Clouds 12 1035 54 10000 1 300 17:21 04.06.2020
2068 Clouds 12 1035 54 10000 1 0 16:57 04.06.2020
2069 Clouds 13 1035 50 10000 0.62 44 16:39 04.06.2020
2070 Clouds 13 1035 50 10000 0.87 25 16:18 04.06.2020
2071 Clouds 8 1035 70 10000 0.87 25 15:43 04.06.2020
2072 Clouds 8 1035 70 10000 0.28 13 15:24 04.06.2020
2073 Rain 8 1022 73 0 0.28 13 14:41 04.06.2020
2074 Clouds 8 1022 73 0 0.63 310 14:22 04.06.2020
2075 Clouds 8 1022 73 0 0.63 310 14:22 04.06.2020
2076 Clouds 8 1022 73 0 0.63 310 13:58 04.06.2020
2077 Clouds 8 1022 73 0 0.63 310 13:39 04.06.2020
2078 Clouds 7 1021 75 0 0.85 291 13:20 04.06.2020
2079 Clouds 7 1021 75 0 0.85 291 12:58 04.06.2020
2080 Clouds 7 1021 75 0 0.85 291 12:40 04.06.2020
2081 Rain 7 1021 75 0 0.77 275 12:21 04.06.2020
2082 Rain 7 1021 75 0 0.77 275 11:54 04.06.2020
2083 Rain 7 1021 75 0 0.77 275 11:36 04.06.2020
2084 Clouds 7 1020 73 0 0.22 337 11:18 04.06.2020
2085 Clouds 7 1020 73 0 0.22 337 10:39 04.06.2020
2086 Clouds 7 1020 75 0 0.44 359 10:21 04.06.2020
2087 Clouds 7 1020 75 0 0.44 359 09:56 04.06.2020
2088 Clouds 7 1020 75 0 0.44 359 09:38 04.06.2020
2089 Clouds 6 1020 76 0 1.16 332 09:19 04.06.2020
2090 Clouds 6 1020 76 0 1.16 332 09:19 04.06.2020
2091 Clouds 6 1020 76 0 1.16 332 08:41 04.06.2020
2092 Clouds 6 1021 76 0 1.34 330 08:22 04.06.2020
2093 Clouds 6 1021 76 0 1.34 330 07:42 04.06.2020
2094 Clouds 7 1021 74 0 1.53 335 07:21 04.06.2020
2095 Clouds 7 1021 74 0 1.53 335 06:40 04.06.2020
2096 Clouds 7 1021 73 0 1.86 346 06:22 04.06.2020
2097 Clouds 7 1021 73 0 1.86 346 05:34 04.06.2020
2098 Clouds 7 1021 73 0 1.86 346 05:34 04.06.2020
2099 Clouds 8 1020 72 0 1.82 345 03:54 04.06.2020
2100 Clouds 8 1018 71 0 1.84 351 02:38 04.06.2020
2101 Clouds 9 1017 70 0 2.04 349 01:42 04.06.2020
2102 Rain 10 1015 67 0 2.23 325 01:19 04.06.2020
2103 Clouds 15 1029 38 10000 4.6 290 00:28 04.06.2020
2104 Clouds 15 1029 38 10000 4.6 290 23:40 03.06.2020
2105 Clouds 15 1029 38 10000 4.6 290 23:20 03.06.2020
2106 Clouds 14 1029 41 10000 6.7 320 22:57 03.06.2020
2107 Clouds 16 1028 55 10000 6.2 300 22:38 03.06.2020
2108 Clouds 16 1028 51 10000 6.2 300 22:18 03.06.2020
2109 Clouds 18 1028 31 10000 5.1 300 21:56 03.06.2020
2110 Clouds 16 1029 51 10000 5.1 290 21:37 03.06.2020
2111 Clouds 16 1029 53 10000 5.1 290 21:19 03.06.2020
2112 Clouds 16 1030 53 10000 1 0 20:43 03.06.2020
2113 Clouds 16 1030 55 10000 1 0 20:21 03.06.2020
2114 Clouds 17 1030 33 10000 0.5 220 19:58 03.06.2020
2115 Clouds 16 1031 36 10000 0.5 220 19:39 03.06.2020
2116 Clouds 17 1032 33 10000 2.1 50 19:21 03.06.2020
2117 Clouds 17 1032 33 10000 2.1 50 18:59 03.06.2020
2118 Clouds 14 1032 41 10000 2.1 50 18:41 03.06.2020
2119 Clouds 14 1033 44 10000 1.5 90 18:20 03.06.2020
2120 Clouds 13 1033 54 10000 1 210 17:45 03.06.2020
2121 Clouds 13 1033 54 10000 1 210 17:23 03.06.2020
2122 Clouds 11 1034 53 10000 1 180 16:59 03.06.2020
2123 Clouds 10 1034 57 10000 0.5 0 16:41 03.06.2020
2124 Clouds 10 1034 57 10000 0.5 0 16:19 03.06.2020
2125 Clouds 9 1034 57 10000 2.1 100 15:55 03.06.2020
2126 Clouds 8 1034 61 10000 2.6 80 15:37 03.06.2020
2127 Clouds 8 1034 61 10000 2.6 80 15:18 03.06.2020
2128 Clouds 8 1021 68 0 1.04 274 14:44 03.06.2020
2129 Clouds 7 1022 75 0 1.18 279 14:24 03.06.2020
2130 Clouds 7 1022 75 0 1.18 279 13:54 03.06.2020
2131 Clouds 7 1022 75 0 1.18 279 13:36 03.06.2020
2132 Clouds 5 1021 79 0 0.97 279 13:18 03.06.2020
2133 Clouds 5 1021 79 0 0.97 279 12:42 03.06.2020
2134 Clouds 5 1020 79 0 1.14 267 12:19 03.06.2020
2135 Clouds 5 1020 79 0 1.14 267 11:44 03.06.2020
2136 Clouds 5 1020 77 0 1.27 274 11:26 03.06.2020
2137 Clouds 5 1020 77 0 1.27 274 10:55 03.06.2020
2138 Clouds 5 1020 77 0 1.27 274 10:36 03.06.2020
2139 Clouds 5 1020 76 0 1.42 298 10:18 03.06.2020
2140 Clouds 5 1020 76 0 1.42 298 09:41 03.06.2020
2141 Clouds 6 1020 76 0 1.64 310 09:19 03.06.2020
2142 Clouds 6 1020 76 0 1.64 310 08:47 03.06.2020
2143 Clouds 6 1021 73 0 1.78 314 08:22 03.06.2020
2144 Clouds 6 1021 73 0 1.78 314 07:58 03.06.2020
2145 Clouds 6 1021 73 0 1.78 314 07:36 03.06.2020
2146 Clouds 7 1021 73 0 1.73 317 07:18 03.06.2020
2147 Clouds 7 1021 73 0 1.73 317 06:44 03.06.2020
2148 Clouds 7 1021 72 0 1.58 326 06:22 03.06.2020
2149 Clouds 7 1021 72 0 1.58 326 05:44 03.06.2020
2150 Clear 8 1020 71 0 2.04 333 04:20 03.06.2020
2151 Clear 8 1020 71 0 2.04 333 03:41 03.06.2020
2152 Clear 9 1019 68 0 2.28 328 02:39 03.06.2020
2153 Rain 10 1017 65 0 2.07 310 01:44 03.06.2020
2154 Rain 11 1015 60 0 1.96 293 00:39 03.06.2020
2155 Clouds 20 1028 19 10000 4.1 280 00:19 03.06.2020
2156 Clouds 20 1028 19 10000 4.1 280 23:45 02.06.2020
2157 Clouds 20 1028 19 10000 4.1 280 23:27 02.06.2020
2158 Clouds 20 1028 20 10000 5.7 290 22:55 02.06.2020
2159 Clouds 20 1028 19 10000 4.1 300 22:36 02.06.2020
2160 Clouds 20 1028 19 10000 4.1 300 22:18 02.06.2020
2161 Clouds 20 1028 19 10000 3.6 330 21:54 02.06.2020
2162 Clouds 19 1029 20 10000 3.1 0 21:36 02.06.2020
2163 Clouds 19 1029 20 10000 3.1 0 21:36 02.06.2020
2164 Clouds 19 1029 20 10000 3.1 0 21:18 02.06.2020
2165 Clouds 19 1031 20 10000 2.6 220 20:42 02.06.2020
2166 Clouds 19 1031 20 10000 2.6 220 20:23 02.06.2020
2167 Clouds 18 1032 23 10000 2.1 290 19:46 02.06.2020
2168 Clouds 18 1032 23 10000 2.1 290 19:27 02.06.2020
2169 Clouds 17 1034 27 10000 1.5 180 18:59 02.06.2020
2170 Clouds 17 1034 27 10000 1.5 180 18:41 02.06.2020
2171 Clouds 16 1034 31 10000 1 0 18:22 02.06.2020
2172 Clouds 16 1034 31 10000 1 0 17:59 02.06.2020
2173 Clouds 13 1035 43 10000 1.5 110 17:41 02.06.2020
2174 Clouds 13 1035 43 10000 1.5 110 17:22 02.06.2020
2175 Clouds 11 1035 50 10000 1.5 80 16:56 02.06.2020
2176 Clouds 10 1035 53 10000 1.5 100 16:38 02.06.2020
2177 Clouds 10 1035 53 10000 1.5 100 16:20 02.06.2020
2178 Clouds 9 1035 57 10000 1.11 233 15:42 02.06.2020
2179 Clouds 9 1035 57 10000 0.83 236 15:23 02.06.2020
2180 Clouds 9 1022 65 0 0.83 236 14:49 02.06.2020
2181 Clouds 9 1022 65 0 0.83 236 14:30 02.06.2020
2182 Clouds 7 1023 75 0 0.76 232 13:58 02.06.2020
2183 Clouds 7 1023 75 0 0.76 232 13:39 02.06.2020
2184 Clouds 4 1022 79 0 0.47 275 13:19 02.06.2020
2185 Clouds 4 1022 79 0 0.47 275 12:58 02.06.2020
2186 Clouds 4 1022 79 0 0.47 275 12:39 02.06.2020
2187 Clouds 5 1022 78 0 0.71 299 12:20 02.06.2020
2188 Clouds 5 1022 78 0 0.71 299 11:55 02.06.2020
2189 Clouds 5 1022 78 0 0.71 299 11:37 02.06.2020
2190 Clouds 5 1022 77 0 0.85 300 11:18 02.06.2020
2191 Clouds 5 1022 77 0 0.85 300 10:46 02.06.2020
2192 Clouds 6 1022 76 0 0.98 310 10:28 02.06.2020
2193 Clouds 6 1022 76 0 0.98 310 09:55 02.06.2020
2194 Clouds 6 1022 76 0 0.98 310 09:36 02.06.2020
2195 Clouds 6 1022 76 0 0.98 310 09:36 02.06.2020
2196 Clouds 6 1022 74 0 0.98 323 09:18 02.06.2020
2197 Clouds 6 1022 74 0 0.98 323 08:45 02.06.2020
2198 Clouds 7 1022 73 0 1.09 344 08:20 02.06.2020
2199 Clouds 7 1022 73 0 1.09 344 07:44 02.06.2020
2200 Clouds 7 1022 73 0 1.21 359 07:25 02.06.2020
2201 Clouds 7 1022 73 0 1.21 359 06:43 02.06.2020
2202 Clouds 7 1022 73 0 1.21 359 06:43 02.06.2020
2203 Clouds 7 1022 73 0 1.43 9 05:54 02.06.2020
2204 Clouds 8 1023 72 0 1.53 7 04:58 02.06.2020
2205 Clouds 9 1021 68 0 1.9 349 03:21 02.06.2020
2206 Clouds 10 1019 64 0 2.07 340 02:24 02.06.2020
2207 Clouds 11 1017 58 0 1.89 312 00:58 02.06.2020
2208 Clouds 19 1029 20 10000 7.2 340 00:25 02.06.2020
2209 Clouds 19 1029 20 10000 7.2 340 23:54 01.06.2020
2210 Clouds 19 1029 20 10000 7.2 340 23:36 01.06.2020
2211 Clouds 19 1029 20 10000 7.2 340 23:36 01.06.2020
2212 Clouds 19 1029 20 10000 7.2 340 23:18 01.06.2020
2213 Clouds 20 1029 22 10000 5.7 310 22:41 01.06.2020
2214 Clouds 20 1029 22 10000 5.7 310 22:20 01.06.2020
2215 Clouds 21 1030 19 10000 5.7 300 21:57 01.06.2020
2216 Clouds 20 1030 20 10000 5.1 320 21:37 01.06.2020
2217 Clouds 20 1030 20 10000 5.1 320 21:18 01.06.2020
2218 Clouds 20 1030 20 10000 4.1 330 20:55 01.06.2020
2219 Clouds 20 1033 20 10000 6.2 360 20:36 01.06.2020
2220 Clouds 20 1033 20 10000 6.2 360 20:36 01.06.2020
2221 Clouds 20 1033 20 10000 6.2 360 20:18 01.06.2020
2222 Clouds 19 1033 25 10000 5.7 290 19:43 01.06.2020
2223 Clouds 18 1033 31 10000 2.1 360 19:21 01.06.2020
2224 Clouds 18 1033 31 10000 2.1 360 18:59 01.06.2020
2225 Clouds 17 1034 37 10000 1.5 290 18:39 01.06.2020
2226 Clouds 16 1034 38 10000 1.5 0 18:19 01.06.2020
2227 Clouds 16 1034 38 10000 1.5 0 17:56 01.06.2020
2228 Clouds 14 1035 33 10000 1.5 0 17:38 01.06.2020
2229 Clouds 14 1035 33 10000 1.5 0 17:18 01.06.2020
2230 Clouds 11 1036 40 10000 1.16 263 16:40 01.06.2020
2231 Clouds 11 1036 40 10000 1.01 236 16:22 01.06.2020
2232 Clouds 10 1036 43 10000 1.5 0 15:56 01.06.2020
2233 Clouds 11 1022 45 0 1.01 236 15:37 01.06.2020
2234 Clouds 9 1022 52 0 0.78 214 15:18 01.06.2020
2235 Clouds 9 1022 52 0 0.78 214 14:56 01.06.2020
2236 Clouds 9 1022 53 0 0.82 216 14:38 01.06.2020
2237 Clouds 7 1023 60 0 0.54 211 14:20 01.06.2020
2238 Clouds 6 1023 61 0 0.65 215 13:43 01.06.2020
2239 Clouds 4 1023 72 0 0.56 235 13:22 01.06.2020
2240 Clouds 4 1023 72 0 0.56 235 12:58 01.06.2020
2241 Clouds 4 1023 72 0 0.56 235 12:40 01.06.2020
2242 Clouds 4 1023 72 0 0.56 235 12:40 01.06.2020
2243 Clouds 4 1023 72 0 0.56 235 12:40 01.06.2020
2244 Clouds 4 1023 71 0 0.69 258 12:21 01.06.2020
2245 Clouds 4 1023 71 0 0.69 258 11:58 01.06.2020
2246 Clouds 4 1023 71 0 0.69 258 11:37 01.06.2020
2247 Clouds 4 1022 70 0 0.84 277 11:19 01.06.2020
2248 Clouds 4 1022 70 0 0.84 277 11:19 01.06.2020
2249 Clouds 4 1022 70 0 0.84 277 10:56 01.06.2020
2250 Clouds 4 1022 70 0 0.84 277 10:36 01.06.2020
2251 Clouds 5 1023 68 0 0.86 287 10:18 01.06.2020
2252 Clouds 5 1023 68 0 0.86 287 09:44 01.06.2020
2253 Clouds 5 1022 67 0 0.75 318 09:25 01.06.2020
2254 Clouds 5 1022 67 0 0.75 318 08:57 01.06.2020
2255 Clouds 5 1022 67 0 0.75 318 08:34 01.06.2020
2256 Clouds 5 1023 65 0 0.85 324 07:59 01.06.2020
2257 Clouds 5 1023 65 0 0.85 324 07:40 01.06.2020
2258 Clouds 6 1023 63 0 1.07 340 07:22 01.06.2020
2259 Clouds 6 1023 63 0 1.07 340 06:49 01.06.2020
2260 Clouds 6 1023 62 0 1.2 344 05:57 01.06.2020
2261 Clouds 7 1023 60 0 1.47 354 04:58 01.06.2020
2262 Clear 7 1022 58 0 1.7 352 03:57 01.06.2020
2263 Clear 7 1022 58 0 1.7 352 03:37 01.06.2020
2264 Clear 8 1021 55 0 2.05 348 02:49 01.06.2020
2265 Clear 9 1019 50 0 2.34 337 01:40 01.06.2020
2266 Clear 10 1017 46 0 2.81 324 01:18 01.06.2020
2267 Clear 10 1017 46 0 2.81 324 00:46 01.06.2020
2268 Clear 19 1029 14 10000 7.2 290 00:21 01.06.2020
2269 Clear 19 1029 14 10000 7.2 290 23:59 31.05.2020
2270 Clear 19 1029 14 10000 7.2 290 23:40 31.05.2020
2271 Clear 19 1029 14 10000 7.2 290 23:22 31.05.2020
2272 Clear 21 1030 13 10000 7.2 290 22:58 31.05.2020
2273 Clear 21 1030 13 10000 7.2 290 22:40 31.05.2020
2274 Clear 21 1030 13 10000 7.2 290 22:21 31.05.2020
2275 Clear 21 1030 12 10000 8.7 290 21:57 31.05.2020
2276 Clear 21 1030 12 10000 6.2 290 21:38 31.05.2020
2277 Clouds 21 1030 12 10000 6.2 290 21:20 31.05.2020
2278 Clouds 20 1032 14 10000 1 0 20:42 31.05.2020
2279 Clouds 20 1032 14 10000 1 0 20:24 31.05.2020
2280 Clouds 19 1032 16 10000 2.6 170 19:56 31.05.2020
2281 Clouds 18 1033 20 10000 0.5 0 19:37 31.05.2020
2282 Clouds 18 1033 20 10000 0.5 0 19:19 31.05.2020
2283 Smoke 16 1034 23 10000 0.5 320 18:44 31.05.2020
2284 Smoke 16 1034 23 10000 0.5 320 18:25 31.05.2020
2285 Clouds 15 1035 26 10000 1.5 0 17:57 31.05.2020
2286 Clouds 12 1036 34 10000 0.5 0 17:39 31.05.2020
2287 Clouds 12 1036 34 10000 0.5 0 17:19 31.05.2020
2288 Clouds 10 1036 39 10000 1 0 16:41 31.05.2020
2289 Clouds 10 1036 39 10000 1 0 16:21 31.05.2020
2290 Clouds 10 1036 39 10000 1 0 16:21 31.05.2020
2291 Clouds 10 1036 39 10000 1 0 16:21 31.05.2020
2292 Haze 7 1036 48 10000 0.5 0 15:41 31.05.2020
2293 Haze 7 1036 48 10000 0.5 0 15:23 31.05.2020
2294 Clouds 9 1022 49 0 0.75 216 14:58 31.05.2020
2295 Clouds 9 1022 49 0 0.75 216 14:40 31.05.2020
2296 Clouds 7 1023 58 0 0.42 222 14:19 31.05.2020
2297 Clouds 7 1023 58 0 0.42 222 13:55 31.05.2020
2298 Clouds 7 1023 58 0 0.42 222 13:36 31.05.2020
2299 Clouds 4 1023 71 0 0.37 226 13:18 31.05.2020
2300 Clouds 4 1023 71 0 0.37 226 12:41 31.05.2020
2301 Clouds 4 1022 69 0 0.23 255 12:23 31.05.2020
2302 Clouds 4 1022 69 0 0.23 255 11:49 31.05.2020
2303 Clouds 4 1022 68 0 0.4 283 11:25 31.05.2020
2304 Clouds 4 1022 68 0 0.4 283 10:59 31.05.2020
2305 Clouds 4 1022 68 0 0.4 283 10:41 31.05.2020
2306 Clouds 4 1022 67 0 0.64 273 10:23 31.05.2020
2307 Clouds 4 1022 67 0 0.64 273 10:23 31.05.2020
2308 Clouds 4 1022 67 0 0.64 273 09:56 31.05.2020
2309 Clouds 4 1022 67 0 0.64 273 09:38 31.05.2020
2310 Clouds 4 1022 67 0 0.64 273 09:38 31.05.2020
2311 Clouds 5 1021 64 0 0.64 261 09:19 31.05.2020
2312 Clouds 5 1021 64 0 0.64 261 08:42 31.05.2020
2313 Clear 5 1022 62 0 0.74 303 08:23 31.05.2020
2314 Clear 5 1022 62 0 0.74 303 07:48 31.05.2020
2315 Clear 6 1022 60 0 1.16 326 07:21 31.05.2020
2316 Clear 6 1022 60 0 1.16 326 06:56 31.05.2020
2317 Clear 6 1022 60 0 1.16 326 06:34 31.05.2020
2318 Clear 6 1021 60 0 1.24 316 05:48 31.05.2020
2319 Clear 6 1021 60 0 1.24 316 05:30 31.05.2020
2320 Clouds 7 1020 56 0 1.75 335 03:57 31.05.2020
2321 Clouds 8 1020 54 0 1.89 344 02:59 31.05.2020
2322 Clear 8 1019 53 0 1.88 344 02:33 31.05.2020
2323 Clouds 9 1018 50 0 2.2 334 01:39 31.05.2020
2324 Clouds 21 1028 9 10000 6.7 290 00:37 31.05.2020
2325 Clouds 21 1028 9 10000 6.7 290 00:19 31.05.2020
2326 Clouds 21 1028 9 10000 6.7 290 23:41 30.05.2020
2327 Clouds 21 1028 9 10000 6.7 290 23:23 30.05.2020
2328 Clouds 22 1028 8 10000 5.1 270 22:42 30.05.2020
2329 Clouds 22 1028 8 10000 5.1 270 22:23 30.05.2020
2330 Clouds 21 1028 10 10000 4.1 290 21:58 30.05.2020
2331 Clouds 20 1029 11 10000 2.1 0 21:40 30.05.2020
2332 Clouds 20 1029 11 10000 2.1 0 21:22 30.05.2020
2333 Clouds 21 1030 12 10000 1 0 20:57 30.05.2020
2334 Clouds 20 1031 12 10000 3.6 270 20:39 30.05.2020
2335 Clouds 20 1031 12 10000 3.6 270 20:21 30.05.2020
2336 Clouds 19 1032 14 10000 1.5 0 19:44 30.05.2020
2337 Clouds 19 1032 14 10000 1.5 0 19:22 30.05.2020
2338 Clouds 18 1033 17 10000 2.1 80 18:59 30.05.2020
2339 Clouds 15 1034 26 10000 0.5 0 18:40 30.05.2020
2340 Clouds 15 1034 26 10000 0.5 0 18:18 30.05.2020
2341 Clouds 13 1035 35 10000 1 40 17:40 30.05.2020
2342 Clouds 13 1035 35 10000 1 40 17:22 30.05.2020
2343 Clouds 10 1036 43 10000 1 80 16:45 30.05.2020
2344 Clouds 10 1036 43 10000 1 80 16:24 30.05.2020
2345 Clouds 10 1036 43 10000 1 80 16:24 30.05.2020
2346 Clouds 9 1036 49 10000 1 0 15:59 30.05.2020
2347 Clouds 8 1036 49 10000 0.5 0 15:41 30.05.2020
2348 Clouds 8 1036 49 10000 0.5 0 15:41 30.05.2020
2349 Clouds 8 1036 49 10000 0.5 0 15:22 30.05.2020
2350 Clouds 9 1021 50 0 0.57 157 14:43 30.05.2020
2351 Clouds 7 1022 58 0 0.42 137 14:23 30.05.2020
2352 Clouds 7 1022 58 0 0.42 137 13:43 30.05.2020
2353 Clouds 4 1022 70 0 0.17 117 13:22 30.05.2020
2354 Clouds 4 1022 70 0 0.17 117 12:42 30.05.2020
2355 Clouds 4 1021 69 0 0.2 248 12:20 30.05.2020
2356 Clouds 4 1021 69 0 0.2 248 11:57 30.05.2020
2357 Clouds 4 1021 69 0 0.2 248 11:39 30.05.2020
2358 Clouds 4 1021 68 0 0.68 251 11:20 30.05.2020
2359 Clouds 4 1021 68 0 0.68 251 10:40 30.05.2020
2360 Clouds 5 1021 66 0 0.69 271 10:21 30.05.2020
2361 Clouds 5 1021 66 0 0.69 271 09:49 30.05.2020
2362 Clouds 5 1021 66 0 0.69 271 09:30 30.05.2020
2363 Clouds 6 1021 65 0 0.66 312 08:51 30.05.2020
2364 Clouds 6 1021 65 0 0.66 312 08:51 30.05.2020
2365 Clouds 6 1021 65 0 0.66 312 08:32 30.05.2020
2366 Clouds 6 1021 63 0 0.83 309 07:45 30.05.2020
2367 Clouds 7 1021 61 0 0.89 318 07:23 30.05.2020
2368 Clouds 7 1021 61 0 0.89 318 06:41 30.05.2020
2369 Clouds 7 1021 63 0 1.04 339 06:23 30.05.2020
2370 Clouds 7 1021 63 0 1.04 339 05:49 30.05.2020
2371 Clouds 9 1020 64 0 1.73 343 03:39 30.05.2020
2372 Clouds 9 1019 62 0 1.89 344 02:30 30.05.2020
2373 Clouds 11 1017 58 0 2.14 341 01:48 30.05.2020
2374 Clouds 19 1029 17 10000 2.6 60 00:38 30.05.2020
2375 Clouds 19 1029 17 10000 2.6 60 00:19 30.05.2020
2376 Clouds 19 1029 17 10000 2.6 60 23:57 29.05.2020
2377 Clouds 19 1029 17 10000 2.6 60 23:37 29.05.2020
2378 Clouds 19 1029 17 10000 2.6 60 23:18 29.05.2020
2379 Clouds 20 1029 19 10000 1.5 30 22:40 29.05.2020
2380 Clouds 20 1029 19 10000 1.5 30 22:19 29.05.2020
2381 Clouds 21 1029 18 10000 2.6 300 21:58 29.05.2020
2382 Clouds 20 1029 19 10000 3.1 290 21:37 29.05.2020
2383 Clouds 20 1029 19 10000 3.1 290 21:18 29.05.2020
2384 Clouds 20 1030 20 10000 3.1 260 20:45 29.05.2020
2385 Clouds 20 1030 20 10000 3.1 260 20:20 29.05.2020
2386 Clouds 21 1031 18 10000 1.5 0 19:59 29.05.2020
2387 Clouds 20 1032 19 10000 2.1 340 19:39 29.05.2020
2388 Clouds 20 1032 19 10000 2.1 340 19:21 29.05.2020
2389 Clouds 17 1033 27 10000 1.5 0 18:46 29.05.2020
2390 Clouds 17 1033 27 10000 1.5 0 18:20 29.05.2020
2391 Clouds 16 1034 29 10000 0.5 190 17:56 29.05.2020
2392 Clouds 14 1034 33 10000 1 40 17:38 29.05.2020
2393 Clouds 14 1034 33 10000 1 40 17:19 29.05.2020
2394 Clouds 12 1035 40 10000 1 0 16:43 29.05.2020
2395 Clouds 12 1035 40 10000 1 0 16:24 29.05.2020
2396 Clouds 9 1035 49 10000 1.5 90 15:56 29.05.2020
2397 Clouds 8 1035 54 10000 1 0 15:38 29.05.2020
2398 Clouds 8 1035 65 10000 1 0 15:19 29.05.2020
2399 Clouds 10 1021 65 0 0.6 179 14:43 29.05.2020
2400 Clouds 7 1021 74 0 0.52 210 14:22 29.05.2020
2401 Clouds 7 1021 75 0 0.52 198 13:44 29.05.2020
2402 Clouds 5 1021 79 0 0.53 184 13:25 29.05.2020
2403 Clouds 5 1021 79 0 0.53 184 12:59 29.05.2020
2404 Clouds 5 1021 79 0 0.53 184 12:41 29.05.2020
2405 Clouds 5 1020 78 0 0.5 181 12:22 29.05.2020
2406 Clouds 5 1020 78 0 0.5 181 11:45 29.05.2020
2407 Clouds 5 1020 77 0 0.34 219 11:26 29.05.2020
2408 Clouds 5 1020 77 0 0.34 219 10:57 29.05.2020
2409 Clouds 5 1020 77 0 0.34 219 10:37 29.05.2020
2410 Clouds 6 1020 76 0 0.45 256 10:18 29.05.2020
2411 Clouds 6 1020 76 0 0.45 256 09:43 29.05.2020
2412 Clouds 6 1019 76 0 0.7 281 09:20 29.05.2020
2413 Clouds 6 1019 76 0 0.7 279 08:49 29.05.2020
2414 Clouds 7 1020 76 0 0.71 293 08:26 29.05.2020
2415 Clouds 7 1020 76 0 0.71 293 07:59 29.05.2020
2416 Clouds 7 1020 76 0 0.71 293 07:59 29.05.2020
2417 Clouds 7 1020 76 0 0.71 293 07:59 29.05.2020
2418 Clouds 7 1020 76 0 0.71 293 07:39 29.05.2020
2419 Clouds 7 1020 75 0 0.6 297 07:21 29.05.2020
2420 Clouds 7 1020 75 0 0.6 297 06:46 29.05.2020
2421 Clouds 7 1020 74 0 0.58 277 06:27 29.05.2020
2422 Clouds 7 1020 74 0 0.58 277 05:46 29.05.2020
2423 Clear 9 1019 69 0 1.63 336 02:37 29.05.2020
2424 Clouds 10 1017 67 0 1.99 350 01:30 29.05.2020
2425 Clouds 11 1016 61 0 2.48 345 00:55 29.05.2020
2426 Clouds 21 1028 15 10000 1 0 00:34 29.05.2020
2427 Clouds 21 1028 15 10000 1 0 23:59 28.05.2020
2428 Clouds 21 1028 15 10000 1 0 23:39 28.05.2020
2429 Clouds 21 1028 15 10000 1 0 23:39 28.05.2020
2430 Clouds 21 1028 15 10000 1 0 23:19 28.05.2020
2431 Clouds 21 1028 15 10000 1 0 23:19 28.05.2020
2432 Clouds 22 1028 12 10000 3.6 300 22:44 28.05.2020
2433 Clouds 22 1028 12 10000 3.6 300 22:26 28.05.2020
2434 Clouds 22 1028 12 10000 2.1 270 21:57 28.05.2020
2435 Clouds 22 1029 12 10000 1.9 291 21:39 28.05.2020
2436 Clouds 22 1029 11 10000 1.5 260 21:20 28.05.2020
2437 Clouds 22 1029 11 10000 1.5 260 20:57 28.05.2020
2438 Clouds 22 1030 12 10000 1 240 20:38 28.05.2020
2439 Clouds 22 1030 12 10000 1 240 20:18 28.05.2020
2440 Clouds 20 1031 13 10000 2.6 0 19:54 28.05.2020
2441 Clouds 20 1031 13 10000 2.6 0 19:54 28.05.2020
2442 Clouds 19 1032 19 10000 1.5 0 19:36 28.05.2020
2443 Clouds 18 1032 22 10000 1.25 260 19:18 28.05.2020
2444 Clouds 17 1033 18 10000 1 90 18:41 28.05.2020
2445 Clouds 17 1033 18 10000 1 90 18:22 28.05.2020
2446 Clouds 14 1035 16 10000 1 50 17:43 28.05.2020
2447 Clouds 14 1035 16 10000 1 50 17:22 28.05.2020
2448 Clouds 12 1035 18 10000 1 60 16:58 28.05.2020
2449 Clouds 12 1035 18 10000 1 60 16:58 28.05.2020
2450 Clouds 11 1036 23 10000 1 0 16:38 28.05.2020
2451 Clouds 11 1036 23 10000 1 0 16:20 28.05.2020
2452 Clouds 6 1036 38 10000 1 100 15:42 28.05.2020
2453 Clouds 6 1036 38 10000 1 100 15:24 28.05.2020
2454 Clouds 9 1021 64 0 1.08 176 14:57 28.05.2020
2455 Clouds 9 1021 64 0 1.08 176 14:38 28.05.2020
2456 Clouds 7 1022 72 0 0.77 170 14:20 28.05.2020
2457 Clouds 7 1022 71 0 0.82 156 13:40 28.05.2020
2458 Clouds 7 1022 71 0 0.82 156 13:40 28.05.2020
2459 Clouds 5 1021 77 0 0.36 165 13:21 28.05.2020
2460 Clouds 5 1021 77 0 0.36 165 12:42 28.05.2020
2461 Clouds 5 1021 77 0 0.13 220 12:19 28.05.2020
2462 Clouds 5 1021 77 0 0.13 220 11:44 28.05.2020
2463 Clouds 5 1021 76 0 0.16 197 11:26 28.05.2020
2464 Clouds 5 1021 76 0 0.16 197 10:57 28.05.2020
2465 Clouds 5 1021 76 0 0.16 197 10:57 28.05.2020
2466 Clouds 5 1021 76 0 0.16 197 10:39 28.05.2020
2467 Clouds 5 1021 76 0 0.16 197 10:39 28.05.2020
2468 Clouds 6 1020 75 0 0.47 203 10:20 28.05.2020
2469 Clouds 6 1020 75 0 0.47 203 09:39 28.05.2020
2470 Clouds 6 1020 75 0 0.47 203 09:39 28.05.2020
2471 Clouds 6 1020 75 0 0.44 220 09:21 28.05.2020
2472 Clouds 6 1020 75 0 0.44 220 08:50 28.05.2020
2473 Clouds 6 1020 74 0 0.3 311 08:27 28.05.2020
2474 Clouds 6 1020 74 0 0.3 311 07:46 28.05.2020
2475 Clouds 7 1021 73 0 0.65 324 07:26 28.05.2020
2476 Clouds 7 1021 73 0 0.65 324 06:59 28.05.2020
2477 Clouds 7 1021 73 0 0.65 324 06:38 28.05.2020
2478 Clouds 7 1021 72 0 0.92 311 06:19 28.05.2020
2479 Clouds 7 1021 72 0 0.92 311 05:36 28.05.2020
2480 Clear 8 1021 70 0 0.92 315 04:32 28.05.2020
2481 Clear 8 1021 69 0 1.19 338 03:48 28.05.2020
2482 Clear 9 1020 66 0 1.68 343 02:45 28.05.2020
2483 Clear 10 1019 62 0 2.33 336 01:54 28.05.2020
2484 Clear 11 1017 53 0 2.39 323 00:56 28.05.2020
2485 Clear 21 1029 13 10000 1 310 00:38 28.05.2020
2486 Clear 21 1029 13 10000 1 310 00:18 28.05.2020
2487 Clear 21 1029 13 10000 1 310 23:39 27.05.2020
2488 Clear 21 1029 13 10000 1 310 23:21 27.05.2020
2489 Clear 21 1029 22 10000 1 0 22:59 27.05.2020
2490 Clear 21 1029 14 10000 1 140 22:40 27.05.2020
2491 Clear 21 1029 14 10000 1 140 22:21 27.05.2020
2492 Clear 21 1031 13 10000 1 0 21:42 27.05.2020
2493 Clouds 21 1031 13 10000 1 0 21:24 27.05.2020
2494 Clouds 21 1031 12 10000 2.1 0 20:59 27.05.2020
2495 Clouds 20 1032 16 10000 2.1 0 20:41 27.05.2020
2496 Clouds 20 1032 16 10000 2.1 0 20:41 27.05.2020
2497 Clear 20 1032 16 10000 2.1 0 20:22 27.05.2020
2498 Clear 20 1033 14 10000 1.5 320 19:59 27.05.2020
2499 Clear 19 1034 20 10000 1 0 19:40 27.05.2020
2500 Clear 19 1034 20 10000 1 0 19:19 27.05.2020
2501 Clear 15 1035 30 10000 1.5 0 18:41 27.05.2020
2502 Clear 15 1035 30 10000 1.5 0 18:20 27.05.2020
2503 Clear 14 1036 33 10000 1 0 17:56 27.05.2020
2504 Clear 13 1036 37 10000 1 90 17:37 27.05.2020
2505 Clear 13 1036 37 10000 1 90 17:19 27.05.2020
2506 Clear 11 1037 34 10000 1 40 16:55 27.05.2020
2507 Clear 9 1037 39 10000 1 0 16:36 27.05.2020
2508 Clouds 9 1037 39 10000 1 0 16:18 27.05.2020
2509 Clouds 11 1023 43 0 0.98 180 15:40 27.05.2020
2510 Clouds 9 1024 51 0 0.75 170 15:21 27.05.2020
2511 Clouds 9 1024 51 0 0.75 170 14:44 27.05.2020
2512 Clouds 7 1024 59 0 0.35 170 14:22 27.05.2020
2513 Clouds 7 1025 60 0 0.49 162 13:55 27.05.2020
2514 Clouds 7 1025 60 0 0.49 162 13:37 27.05.2020
2515 Clouds 7 1025 60 0 0.49 162 13:37 27.05.2020
2516 Clouds 4 1024 72 0 0.43 162 13:19 27.05.2020
2517 Clouds 4 1024 72 0 0.43 162 12:40 27.05.2020
2518 Clouds 4 1024 72 0 0.43 162 12:40 27.05.2020
2519 Clouds 4 1023 71 0 0.51 171 12:22 27.05.2020
2520 Clouds 4 1023 71 0 0.51 171 11:41 27.05.2020
2521 Clouds 4 1023 70 0 0.51 183 11:22 27.05.2020
2522 Clouds 4 1023 70 0 0.51 183 10:59 27.05.2020
2523 Clouds 4 1023 70 0 0.51 183 10:40 27.05.2020
2524 Clouds 4 1023 69 0 0.47 196 10:22 27.05.2020
2525 Clouds 4 1023 69 0 0.47 196 09:42 27.05.2020
2526 Clouds 5 1023 68 0 0.32 212 09:23 27.05.2020
2527 Clouds 5 1023 68 0 0.32 212 08:58 27.05.2020
2528 Clouds 5 1023 68 0 0.32 212 08:40 27.05.2020
2529 Clouds 5 1023 67 0 0.16 251 08:22 27.05.2020
2530 Clouds 5 1023 67 0 0.16 251 07:51 27.05.2020
2531 Clear 5 1024 65 0 0.44 319 07:33 27.05.2020
2532 Clear 5 1024 65 0 0.44 319 06:52 27.05.2020
2533 Clear 6 1024 63 0 0.8 334 06:24 27.05.2020
2534 Clear 6 1024 63 0 0.8 334 05:50 27.05.2020
2535 Clear 6 1024 61 0 0.94 352 05:23 27.05.2020
2536 Clear 7 1023 56 0 1.41 13 02:42 27.05.2020
2537 Clear 8 1022 52 0 1.57 16 02:18 27.05.2020
2538 Clear 8 1022 52 0 1.57 16 01:31 27.05.2020
2539 Clear 9 1021 46 0 1.96 33 00:47 27.05.2020
2540 Clear 19 1032 11 10000 3.6 40 00:20 27.05.2020
2541 Clear 19 1032 11 10000 3.6 40 23:57 26.05.2020
2542 Clear 19 1032 11 10000 3.6 40 23:39 26.05.2020
2543 Clear 19 1032 11 10000 3.6 40 23:20 26.05.2020
2544 Clear 19 1033 10 10000 4.6 30 22:41 26.05.2020
2545 Clear 19 1033 10 10000 4.6 30 22:23 26.05.2020
2546 Clear 19 1033 10 10000 4.6 30 22:23 26.05.2020
2547 Clear 19 1033 8 10000 4.6 360 21:59 26.05.2020
2548 Clear 20 1033 9 10000 3.6 360 21:40 26.05.2020
2549 Clear 20 1033 9 10000 3.6 360 21:22 26.05.2020
2550 Clear 19 1034 10 10000 5.1 20 20:57 26.05.2020
2551 Clear 18 1034 11 10000 0.5 0 20:39 26.05.2020
2552 Clear 18 1034 11 10000 0.5 0 20:39 26.05.2020
2553 Clear 18 1035 12 10000 2.1 0 20:19 26.05.2020
2554 Clear 18 1036 15 10000 1.5 0 19:40 26.05.2020
2555 Clear 18 1036 15 10000 1.5 0 19:20 26.05.2020
2556 Clear 18 1037 13 10000 1.5 0 18:58 26.05.2020
2557 Clear 16 1037 17 10000 1.5 0 18:39 26.05.2020
2558 Clear 16 1037 17 10000 1.5 0 18:20 26.05.2020
2559 Clear 12 1039 25 10000 1 110 17:40 26.05.2020
2560 Clear 12 1039 25 10000 1 110 17:21 26.05.2020
2561 Clear 10 1039 29 10000 1 0 16:48 26.05.2020
2562 Clear 9 1039 31 10000 1 0 16:23 26.05.2020
2563 Clear 8 1040 33 10000 1 0 15:58 26.05.2020
2564 Clear 7 1040 36 10000 0.5 0 15:39 26.05.2020
2565 Clear 7 1040 36 10000 0.5 0 15:19 26.05.2020
2566 Clear 10 1026 36 0 1.22 90 14:45 26.05.2020
2567 Clear 7 1027 46 0 1.13 89 14:27 26.05.2020
2568 Clear 7 1027 46 0 1.02 91 13:58 26.05.2020
2569 Clear 7 1027 46 0 1.02 91 13:58 26.05.2020
2570 Clear 7 1027 46 0 1.02 91 13:40 26.05.2020
2571 Clear 4 1026 51 0 0.89 91 13:21 26.05.2020
2572 Clear 4 1026 51 0 0.89 91 12:44 26.05.2020
2573 Clear 4 1026 50 0 0.83 91 12:22 26.05.2020
2574 Clear 4 1026 50 0 0.83 91 11:59 26.05.2020
2575 Clear 4 1026 50 0 0.83 91 11:40 26.05.2020
2576 Clear 4 1025 49 0 0.8 83 11:19 26.05.2020
2577 Clear 4 1025 49 0 0.8 83 11:19 26.05.2020
2578 Clear 4 1025 49 0 0.8 83 10:47 26.05.2020
2579 Clear 4 1025 47 0 0.87 74 10:19 26.05.2020
2580 Clear 4 1025 47 0 0.87 74 09:55 26.05.2020
2581 Clear 4 1025 47 0 0.87 74 09:37 26.05.2020
2582 Clear 5 1025 46 0 1.02 46 09:18 26.05.2020
2583 Clear 5 1025 46 0 1.02 46 08:39 26.05.2020
2584 Clear 5 1025 45 0 1.15 40 08:21 26.05.2020
2585 Clear 5 1025 45 0 1.15 40 07:42 26.05.2020
2586 Clear 6 1025 45 0 1.34 37 07:23 26.05.2020
2587 Clear 6 1025 45 0 1.34 37 06:52 26.05.2020
2588 Clear 7 1025 46 0 1.47 30 06:28 26.05.2020
2589 Clear 7 1025 46 0 1.47 30 05:41 26.05.2020
2590 Clear 7 1025 47 0 1.66 30 05:18 26.05.2020
2591 Clear 7 1025 47 0 1.66 30 04:47 26.05.2020
2592 Clear 8 1025 47 0 1.83 27 04:28 26.05.2020
2593 Clear 8 1025 47 0 1.83 27 03:45 26.05.2020
2594 Clear 8 1025 47 0 1.83 27 03:45 26.05.2020
2595 Clear 9 1024 45 0 1.87 29 02:34 26.05.2020
2596 Clear 9 1022 44 0 2.13 36 01:43 26.05.2020
2597 Clear 10 1020 40 0 2.65 34 00:40 26.05.2020
2598 Clear 18 1031 16 10000 7.7 20 00:21 26.05.2020
2599 Clear 18 1031 16 10000 7.7 20 23:59 25.05.2020
2600 Clear 18 1031 16 10000 7.7 20 23:38 25.05.2020
2601 Clear 18 1031 16 10000 7.7 20 23:20 25.05.2020
2602 Clear 19 1031 15 10000 7.2 20 22:56 25.05.2020
2603 Clear 20 1031 15 10000 6.2 20 22:37 25.05.2020
2604 Clear 20 1031 15 10000 6.2 20 22:37 25.05.2020
2605 Clear 20 1031 15 10000 6.2 20 22:19 25.05.2020
2606 Clear 21 1031 14 10000 5.1 20 21:58 25.05.2020
2607 Clear 22 1031 14 10000 1 90 21:38 25.05.2020
2608 Clear 22 1031 14 10000 1 90 21:19 25.05.2020
2609 Clear 21 1032 16 10000 2.6 0 20:58 25.05.2020
2610 Clear 21 1032 16 10000 2.6 0 20:58 25.05.2020
2611 Clear 22 1033 15 10000 1.5 100 20:40 25.05.2020
2612 Clear 22 1033 15 10000 1.5 100 20:20 25.05.2020
2613 Clear 20 1033 19 10000 0.5 0 19:55 25.05.2020
2614 Clear 20 1034 20 10000 0.5 190 19:37 25.05.2020
2615 Clear 18 1035 25 10000 0.5 0 19:18 25.05.2020
2616 Clear 17 1036 28 10000 1.5 0 18:42 25.05.2020
2617 Clear 17 1036 32 10000 1.5 0 18:21 25.05.2020
2618 Clear 17 1036 32 10000 1 310 17:54 25.05.2020
2619 Clear 14 1037 32 10000 1.5 70 17:36 25.05.2020
2620 Clouds 13 1037 43 10000 1.5 0 17:18 25.05.2020
2621 Clouds 11 1037 40 10000 1 0 16:40 25.05.2020
2622 Clouds 11 1037 52 10000 1 0 16:22 25.05.2020
2623 Clouds 10 1038 52 10000 1 0 15:58 25.05.2020
2624 Clouds 10 1038 52 10000 1 0 15:58 25.05.2020
2625 Clouds 8 1037 52 10000 0.5 0 15:40 25.05.2020
2626 Clouds 10 1023 62 0 0.83 166 15:18 25.05.2020
2627 Clouds 10 1023 62 0 0.83 166 14:43 25.05.2020
2628 Clouds 8 1024 69 0 0.15 185 14:24 25.05.2020
2629 Clouds 8 1024 69 0 0.28 213 13:57 25.05.2020
2630 Clouds 8 1024 69 0 0.28 213 13:37 25.05.2020
2631 Clouds 6 1024 74 0 0.25 277 13:19 25.05.2020
2632 Clouds 6 1024 74 0 0.25 277 12:54 25.05.2020
2633 Clouds 6 1024 74 0 0.25 277 12:36 25.05.2020
2634 Clouds 6 1023 74 0 0.33 197 12:18 25.05.2020
2635 Clouds 6 1023 74 0 0.33 197 11:38 25.05.2020
2636 Clouds 6 1022 72 0 0.63 187 11:19 25.05.2020
2637 Clouds 6 1022 72 0 0.63 187 10:43 25.05.2020
2638 Clouds 7 1023 69 0 0.42 178 10:21 25.05.2020
2639 Clouds 7 1023 69 0 0.42 178 09:57 25.05.2020
2640 Clouds 7 1023 69 0 0.42 178 09:38 25.05.2020
2641 Clouds 7 1022 69 0 0.08 271 09:19 25.05.2020
2642 Clouds 7 1022 69 0 0.08 271 08:57 25.05.2020
2643 Clouds 7 1022 69 0 0.08 271 08:36 25.05.2020
2644 Clouds 7 1023 68 0 0.24 305 08:18 25.05.2020
2645 Clouds 7 1023 68 0 0.24 305 07:43 25.05.2020
2646 Clouds 8 1023 67 0 0.33 328 07:21 25.05.2020
2647 Clouds 8 1023 67 0 0.33 328 06:50 25.05.2020
2648 Clouds 8 1023 67 0 0.33 328 06:31 25.05.2020
2649 Clouds 10 1024 68 0 1.6 29 04:18 25.05.2020
2650 Clouds 10 1023 65 0 1.69 30 03:23 25.05.2020
2651 Clouds 10 1023 65 0 1.69 30 02:45 25.05.2020
2652 Clouds 11 1022 59 0 1.7 64 01:51 25.05.2020
2653 Clouds 12 1020 56 0 1.6 20 01:28 25.05.2020
2654 Clouds 12 1020 56 0 1.6 20 00:37 25.05.2020
2655 Rain 15 1018 49 0 1.68 3 00:18 25.05.2020
2656 Rain 15 1018 49 0 1.68 3 23:43 24.05.2020
2657 Clouds 19 1031 20 10000 4.6 40 23:23 24.05.2020
2658 Clouds 19 1031 20 10000 4.6 40 22:59 24.05.2020
2659 Clouds 19 1031 20 10000 4.6 40 22:41 24.05.2020
2660 Clouds 19 1031 24 10000 2.1 10 22:19 24.05.2020
2661 Clouds 19 1031 24 10000 2.1 10 21:56 24.05.2020
2662 Clouds 19 1031 24 10000 2.1 10 21:56 24.05.2020
2663 Clouds 21 1032 22 10000 1.5 0 21:38 24.05.2020
2664 Clouds 21 1032 22 10000 1.5 0 21:19 24.05.2020
2665 Clouds 20 1033 22 10000 1.5 270 20:44 24.05.2020
2666 Clouds 20 1033 22 10000 1.5 270 20:22 24.05.2020
2667 Clouds 19 1034 24 10000 1.5 0 19:59 24.05.2020
2668 Clouds 19 1034 19 10000 1.5 0 19:41 24.05.2020
2669 Clouds 17 1035 23 10000 2.1 80 19:19 24.05.2020
2670 Clouds 17 1035 23 10000 2.1 80 18:57 24.05.2020
2671 Clouds 17 1036 29 10000 1.5 0 18:38 24.05.2020
2672 Clouds 17 1036 29 10000 1.5 0 18:20 24.05.2020
2673 Clouds 15 1037 38 10000 1 80 17:41 24.05.2020
2674 Clouds 15 1037 38 10000 1 80 17:22 24.05.2020
2675 Clouds 14 1037 50 10000 1.5 80 16:58 24.05.2020
2676 Clouds 11 1037 62 10000 1.5 80 16:39 24.05.2020
2677 Clouds 11 1037 62 10000 1.5 80 16:20 24.05.2020
2678 Clouds 9 1037 70 10000 1.5 100 15:57 24.05.2020
2679 Clouds 8 1036 70 10000 1 90 15:39 24.05.2020
2680 Clouds 8 1036 70 10000 1 90 15:19 24.05.2020
2681 Clouds 7 1037 81 10000 1 100 14:55 24.05.2020
2682 Clouds 5 1036 80 10000 0.5 280 14:37 24.05.2020
2683 Clouds 5 1036 80 10000 0.5 280 14:18 24.05.2020
2684 Clouds 8 1025 76 0 0.86 289 13:43 24.05.2020
2685 Clouds 6 1025 79 0 0.93 270 13:23 24.05.2020
2686 Clouds 6 1025 79 0 0.93 270 12:59 24.05.2020
2687 Clouds 6 1025 79 0 0.93 270 12:59 24.05.2020
2688 Clouds 6 1025 79 0 0.93 270 12:41 24.05.2020
2689 Clouds 6 1024 79 0 0.85 267 12:22 24.05.2020
2690 Clouds 6 1024 79 0 0.85 267 11:59 24.05.2020
2691 Clouds 6 1024 79 0 0.85 267 11:41 24.05.2020
2692 Clouds 6 1023 78 0 0.91 274 11:23 24.05.2020
2693 Clouds 6 1023 78 0 0.91 274 10:59 24.05.2020
2694 Clouds 6 1023 78 0 0.91 274 10:39 24.05.2020
2695 Clouds 7 1023 76 0 1.21 285 10:21 24.05.2020
2696 Clouds 7 1023 76 0 1.21 285 09:41 24.05.2020
2697 Clouds 8 1023 74 0 1.28 285 09:19 24.05.2020
2698 Clouds 8 1023 74 0 1.28 285 08:57 24.05.2020
2699 Clouds 8 1023 74 0 1.28 285 08:39 24.05.2020
2700 Clouds 8 1023 73 0 1.28 287 08:21 24.05.2020
2701 Clouds 8 1023 73 0 1.28 287 07:51 24.05.2020
2702 Clouds 8 1024 72 0 1.25 298 07:26 24.05.2020
2703 Clouds 8 1024 72 0 1.25 298 06:58 24.05.2020
2704 Clouds 8 1024 72 0 1.25 298 06:37 24.05.2020
2705 Clouds 9 1024 71 0 1.69 323 05:21 24.05.2020
2706 Clouds 10 1024 70 0 1.67 318 03:42 24.05.2020
2707 Clouds 10 1023 68 0 1.49 315 02:48 24.05.2020
2708 Clouds 11 1021 67 0 2.18 320 01:59 24.05.2020
2709 Clouds 12 1020 62 0 2.35 324 00:43 24.05.2020
2710 Rain 14 1018 55 0 2.23 316 00:25 24.05.2020
2711 Rain 14 1018 55 0 2.23 316 23:54 23.05.2020
2712 Clouds 19 1030 42 10000 2.6 130 23:36 23.05.2020
2713 Clouds 19 1030 42 10000 2.6 130 23:18 23.05.2020
2714 Clouds 19 1030 42 10000 2.6 130 22:55 23.05.2020
2715 Clouds 19 1030 42 10000 2.6 130 22:36 23.05.2020
2716 Rain 17 1031 45 10000 2.6 110 22:18 23.05.2020
2717 Clouds 18 1031 39 10000 2.6 150 21:42 23.05.2020
2718 Clouds 18 1031 39 10000 2.6 150 21:20 23.05.2020
2719 Clouds 19 1031 39 10000 3.1 190 20:59 23.05.2020
2720 Clouds 20 1032 32 10000 2.6 0 20:39 23.05.2020
2721 Clouds 20 1032 32 10000 2.6 0 20:19 23.05.2020
2722 Clouds 21 1033 30 10000 1.5 210 19:55 23.05.2020
2723 Clouds 20 1034 32 10000 2.1 0 19:37 23.05.2020
2724 Clouds 20 1034 32 10000 2.1 0 19:18 23.05.2020
2725 Clouds 19 1035 37 10000 2.1 90 18:41 23.05.2020
2726 Clouds 19 1035 37 10000 2.1 90 18:22 23.05.2020
2727 Clouds 16 1036 48 10000 0.98 251 17:58 23.05.2020
2728 Clouds 16 1036 48 10000 0.98 251 17:40 23.05.2020
2729 Clouds 14 1037 50 10000 0.7 219 17:19 23.05.2020
2730 Clouds 14 1037 50 10000 0.7 219 16:58 23.05.2020
2731 Clouds 14 1037 50 10000 0.7 219 16:40 23.05.2020
2732 Clouds 12 1038 58 10000 0.97 188 16:20 23.05.2020
2733 Clouds 12 1038 58 10000 0.97 188 15:44 23.05.2020
2734 Clouds 12 1038 58 10000 0.57 180 15:24 23.05.2020
2735 Clouds 12 1038 58 10000 0.57 180 15:24 23.05.2020
2736 Clouds 7 1037 81 10000 1.5 100 14:59 23.05.2020
2737 Clouds 7 1037 81 10000 1.5 100 14:41 23.05.2020
2738 Clouds 8 1025 72 0 0.66 191 14:22 23.05.2020
2739 Clouds 8 1025 72 0 0.66 191 13:42 23.05.2020
2740 Clouds 7 1024 76 0 0.45 189 13:19 23.05.2020
2741 Clouds 7 1024 76 0 0.45 189 12:58 23.05.2020
2742 Clouds 7 1024 75 0 0.08 280 12:39 23.05.2020
2743 Clouds 7 1024 75 0 0.08 280 12:19 23.05.2020
2744 Clouds 7 1024 75 0 0.08 280 11:43 23.05.2020
2745 Clouds 7 1024 74 0 0.52 358 11:22 23.05.2020
2746 Clouds 7 1024 74 0 0.52 358 10:58 23.05.2020
2747 Clouds 7 1024 74 0 0.52 358 10:39 23.05.2020
2748 Clouds 7 1023 75 0 0.73 16 10:20 23.05.2020
2749 Clouds 7 1023 75 0 0.73 16 09:59 23.05.2020
2750 Clouds 7 1023 75 0 0.73 16 09:41 23.05.2020
2751 Clouds 8 1023 75 0 0.98 21 09:22 23.05.2020
2752 Clouds 8 1023 74 0 1.05 354 08:44 23.05.2020
2753 Clouds 8 1023 74 0 1.02 353 08:20 23.05.2020
2754 Clouds 8 1023 74 0 1.02 353 08:20 23.05.2020
2755 Clouds 8 1023 74 0 1.02 353 07:59 23.05.2020
2756 Clouds 8 1023 74 0 1.02 353 07:39 23.05.2020
2757 Clouds 8 1023 75 0 1.14 360 07:21 23.05.2020
2758 Clouds 8 1023 75 0 1.14 360 06:40 23.05.2020
2759 Clouds 8 1024 75 0 1.29 3 05:46 23.05.2020
2760 Clouds 9 1022 73 0 1.84 5 03:51 23.05.2020
2761 Clouds 10 1021 71 0 2.03 353 03:21 23.05.2020
2762 Rain 11 1020 67 0 1.92 336 02:24 23.05.2020
2763 Rain 12 1018 64 0 1.49 357 01:27 23.05.2020
2764 Clouds 17 1032 36 10000 3.1 350 00:49 23.05.2020
2765 Clouds 17 1032 36 10000 3.1 350 00:29 23.05.2020
2766 Clouds 17 1032 36 10000 3.1 350 23:58 22.05.2020
2767 Clouds 17 1032 36 10000 3.1 350 23:58 22.05.2020
2768 Clouds 15 1032 44 10000 5.1 300 23:39 22.05.2020
2769 Clouds 15 1032 44 10000 5.1 300 23:19 22.05.2020
2770 Clouds 15 1032 47 10000 7.2 290 22:55 22.05.2020
2771 Clouds 15 1032 47 10000 7.2 290 22:55 22.05.2020
2772 Clouds 17 1032 39 10000 2.1 330 22:37 22.05.2020
2773 Clouds 17 1032 39 10000 2.1 330 22:18 22.05.2020
2774 Clouds 17 1032 33 10000 1.5 10 21:42 22.05.2020
2775 Clouds 17 1032 33 10000 1.5 10 21:21 22.05.2020
2776 Clouds 16 1034 44 10000 0.5 210 20:46 22.05.2020
2777 Clouds 16 1034 44 10000 0.5 210 20:22 22.05.2020
2778 Clouds 16 1034 44 10000 2.1 330 19:59 22.05.2020
2779 Clouds 14 1035 50 10000 1.5 90 19:41 22.05.2020
2780 Clouds 14 1035 50 10000 1.5 90 19:22 22.05.2020
2781 Clouds 13 1036 50 10000 0.5 0 18:40 22.05.2020
2782 Clouds 13 1036 50 10000 0.5 0 18:40 22.05.2020
2783 Clouds 13 1036 50 10000 0.5 0 18:21 22.05.2020
2784 Clouds 12 1036 54 10000 1 0 17:58 22.05.2020
2785 Clouds 11 1037 57 10000 0.5 100 17:38 22.05.2020
2786 Clouds 10 1037 61 10000 0.5 100 17:18 22.05.2020
2787 Clouds 9 1037 66 10000 1 0 16:44 22.05.2020
2788 Clouds 9 1037 66 10000 1 0 16:20 22.05.2020
2789 Clouds 8 1037 70 10000 1.5 80 15:59 22.05.2020
2790 Clouds 4 1036 86 10000 0.5 100 15:41 22.05.2020
2791 Clouds 4 1036 86 10000 0.5 100 15:20 22.05.2020
2792 Clouds 4 1036 86 10000 0.5 100 14:44 22.05.2020
2793 Clouds 4 1036 86 10000 0.5 100 14:24 22.05.2020
2794 Clouds 8 1023 72 0 0.52 67 13:49 22.05.2020
2795 Clouds 6 1023 77 0 0.35 62 13:21 22.05.2020
2796 Clouds 6 1023 77 0 0.35 62 12:56 22.05.2020
2797 Clouds 6 1023 77 0 0.35 62 12:37 22.05.2020
2798 Clouds 6 1022 77 0 0.07 185 12:19 22.05.2020
2799 Clouds 6 1022 77 0 0.07 185 11:44 22.05.2020
2800 Clear 6 1022 76 0 0.46 270 11:21 22.05.2020
2801 Clear 6 1022 76 0 0.46 270 11:21 22.05.2020
2802 Clear 6 1022 76 0 0.46 270 10:55 22.05.2020
2803 Clear 6 1022 76 0 0.46 270 10:37 22.05.2020
2804 Clear 7 1022 75 0 0.55 284 10:18 22.05.2020
2805 Clear 7 1022 75 0 0.55 284 09:42 22.05.2020
2806 Clouds 7 1022 75 0 0.76 298 09:19 22.05.2020
2807 Clouds 7 1022 75 0 0.76 298 08:45 22.05.2020
2808 Clouds 7 1022 74 0 0.91 283 08:22 22.05.2020
2809 Clouds 7 1022 74 0 0.91 283 07:58 22.05.2020
2810 Clouds 7 1022 74 0 0.91 283 07:39 22.05.2020
2811 Clouds 8 1023 73 0 1.13 307 07:21 22.05.2020
2812 Clouds 8 1023 73 0 1.13 307 06:40 22.05.2020
2813 Clouds 8 1023 72 0 1.24 332 05:58 22.05.2020
2814 Clouds 8 1023 72 0 1.24 332 05:34 22.05.2020
2815 Clouds 9 1022 72 0 1.48 340 04:45 22.05.2020
2816 Clouds 9 1022 71 0 1.59 329 03:49 22.05.2020
2817 Clear 10 1020 70 0 1.72 324 03:28 22.05.2020
2818 Clouds 10 1018 67 0 1.9 317 01:57 22.05.2020
2819 Clouds 17 1031 39 10000 4.1 310 01:30 22.05.2020
2820 Clouds 17 1031 39 10000 4.1 310 00:50 22.05.2020
2821 Clouds 17 1031 39 10000 4.1 310 00:28 22.05.2020
2822 Clouds 18 1031 36 10000 4.6 310 23:54 21.05.2020
2823 Clouds 20 1031 30 10000 7.2 290 23:36 21.05.2020
2824 Clouds 20 1031 30 10000 5.7 280 23:18 21.05.2020
2825 Clouds 20 1031 30 10000 5.7 280 22:55 21.05.2020
2826 Clouds 19 1031 34 10000 5.7 290 22:36 21.05.2020
2827 Clouds 19 1031 32 10000 5.7 290 22:18 21.05.2020
2828 Clouds 18 1032 36 10000 4.1 300 21:43 21.05.2020
2829 Clouds 18 1032 36 10000 4.1 300 21:25 21.05.2020
2830 Clouds 18 1033 36 10000 5.7 290 20:46 21.05.2020
2831 Clouds 18 1033 36 10000 5.7 290 20:22 21.05.2020
2832 Clouds 18 1033 36 10000 4.6 290 19:57 21.05.2020
2833 Clouds 17 1034 39 10000 3.1 360 19:38 21.05.2020
2834 Clouds 17 1034 39 10000 3.1 360 19:19 21.05.2020
2835 Clouds 17 1035 39 10000 1 10 18:40 21.05.2020
2836 Clouds 17 1035 39 10000 1 10 18:20 21.05.2020
2837 Clouds 17 1035 39 10000 1 10 18:20 21.05.2020
2838 Clouds 16 1036 44 10000 1 50 17:58 21.05.2020
2839 Clouds 15 1037 47 10000 1.5 0 17:40 21.05.2020
2840 Clouds 15 1037 47 10000 1.5 0 17:22 21.05.2020
2841 Clouds 13 1037 62 10000 0.5 0 16:47 21.05.2020
2842 Clouds 13 1037 62 10000 0.5 0 16:25 21.05.2020
2843 Clouds 12 1037 66 10000 1 100 15:54 21.05.2020
2844 Clouds 11 1036 75 10000 1 100 15:36 21.05.2020
2845 Clouds 8 1036 75 10000 1 100 15:18 21.05.2020
2846 Clouds 7 1036 75 10000 1 0 14:39 21.05.2020
2847 Clouds 8 1023 69 0 0.28 282 14:18 21.05.2020
2848 Clouds 8 1023 69 0 0.28 282 13:41 21.05.2020
2849 Clouds 6 1023 75 0 0.42 263 13:22 21.05.2020
2850 Clouds 6 1023 75 0 0.42 263 12:57 21.05.2020
2851 Clouds 6 1023 75 0 0.42 263 12:37 21.05.2020
2852 Clouds 6 1022 74 0 0.62 248 12:19 21.05.2020
2853 Clouds 6 1022 74 0 0.62 248 11:42 21.05.2020
2854 Clouds 6 1022 74 0 0.59 266 11:23 21.05.2020
2855 Clouds 6 1022 74 0 0.59 266 11:23 21.05.2020
2856 Clouds 6 1022 74 0 0.59 266 10:58 21.05.2020
2857 Clouds 6 1022 74 0 0.59 266 10:39 21.05.2020
2858 Clouds 6 1021 73 0 0.82 272 10:19 21.05.2020
2859 Clouds 6 1021 73 0 0.82 272 09:54 21.05.2020
2860 Clouds 6 1021 73 0 0.82 272 09:36 21.05.2020
2861 Clouds 7 1022 72 0 0.95 295 09:18 21.05.2020
2862 Clouds 7 1022 73 0 0.98 288 08:42 21.05.2020
2863 Clouds 7 1022 72 0 1.01 303 08:23 21.05.2020
2864 Clouds 7 1022 72 0 1.01 303 07:44 21.05.2020
2865 Clouds 7 1022 72 0 1.22 325 07:25 21.05.2020
2866 Clouds 7 1022 72 0 1.22 325 06:52 21.05.2020
2867 Clouds 8 1022 72 0 1.29 343 05:54 21.05.2020
2868 Clouds 8 1022 73 0 1.4 349 04:56 21.05.2020
2869 Clouds 9 1021 70 0 1.89 0 03:22 21.05.2020
2870 Clouds 9 1021 70 0 1.89 0 02:38 21.05.2020
2871 Clouds 10 1019 67 0 2 342 02:20 21.05.2020
2872 Clouds 10 1019 67 0 2 342 01:42 21.05.2020
2873 Clouds 11 1018 62 0 1.92 327 01:19 21.05.2020
2874 Clouds 11 1018 62 0 1.92 327 00:45 21.05.2020
2875 Clouds 11 1018 62 0 1.92 327 00:45 21.05.2020
2876 Rain 14 1016 55 0 1.76 315 00:22 21.05.2020
2877 Rain 14 1016 55 0 1.76 315 23:41 20.05.2020
2878 Clouds 20 1030 28 10000 4.6 290 23:20 20.05.2020
2879 Clouds 20 1030 28 10000 4.6 290 22:57 20.05.2020
2880 Clouds 20 1030 28 10000 4.6 290 22:38 20.05.2020
2881 Clouds 20 1030 28 10000 4.6 290 22:20 20.05.2020
2882 Clouds 20 1031 30 10000 3.1 0 21:40 20.05.2020
2883 Clouds 20 1031 30 10000 3.1 0 21:21 20.05.2020
2884 Clouds 19 1033 32 10000 1.5 20 20:44 20.05.2020
2885 Clouds 19 1033 32 10000 1.5 20 20:24 20.05.2020
2886 Clouds 19 1033 32 10000 1.5 20 20:24 20.05.2020
2887 Clouds 19 1033 34 10000 1.5 0 19:56 20.05.2020
2888 Clouds 18 1034 34 10000 2.1 0 19:37 20.05.2020
2889 Clouds 18 1034 34 10000 2.1 0 19:19 20.05.2020
2890 Clouds 15 1036 44 10000 2.6 0 18:43 20.05.2020
2891 Clouds 15 1036 44 10000 2.6 0 18:23 20.05.2020
2892 Clouds 13 1036 50 10000 2.6 100 17:43 20.05.2020
2893 Clouds 14 1036 50 10000 2.6 100 17:22 20.05.2020
2894 Clouds 13 1037 54 10000 2.1 110 16:58 20.05.2020
2895 Clouds 13 1037 57 10000 1.5 0 16:39 20.05.2020
2896 Clouds 13 1037 57 10000 1.5 0 16:21 20.05.2020
2897 Clouds 10 1036 75 10000 1.5 300 15:44 20.05.2020
2898 Clouds 7 1036 75 10000 1.5 300 15:25 20.05.2020
2899 Clouds 7 1036 75 10000 1.5 300 14:59 20.05.2020
2900 Clouds 6 1035 75 10000 1 110 14:37 20.05.2020
2901 Clouds 6 1035 75 10000 1 110 14:19 20.05.2020
2902 Clear 8 1023 71 0 0.77 246 13:39 20.05.2020
2903 Clear 6 1022 75 0 0.7 267 13:18 20.05.2020
2904 Clear 6 1022 75 0 0.7 267 12:42 20.05.2020
2905 Clear 6 1021 74 0 0.63 308 12:21 20.05.2020
2906 Clear 6 1021 74 0 0.63 308 11:39 20.05.2020
2907 Clouds 6 1021 74 0 0.78 325 11:20 20.05.2020
2908 Clouds 6 1021 74 0 0.78 325 10:55 20.05.2020
2909 Clouds 6 1021 74 0 0.78 325 10:55 20.05.2020
2910 Clouds 6 1021 74 0 0.78 325 10:37 20.05.2020
2911 Clouds 7 1021 72 0 0.89 317 10:18 20.05.2020
2912 Clouds 7 1021 72 0 0.89 317 09:41 20.05.2020
2913 Clouds 7 1021 72 0 0.78 331 09:20 20.05.2020
2914 Clouds 7 1021 72 0 0.78 331 08:42 20.05.2020
2915 Clouds 8 1021 72 0 0.94 4 08:19 20.05.2020
2916 Clouds 8 1021 72 0 0.94 4 07:50 20.05.2020
2917 Clouds 8 1021 72 0 1 1 07:25 20.05.2020
2918 Clouds 8 1021 72 0 1 1 06:55 20.05.2020
2919 Clouds 8 1022 72 0 1 356 06:20 20.05.2020
2920 Clouds 9 1022 72 0 1.38 356 04:40 20.05.2020
2921 Clear 9 1021 71 0 1.57 358 04:19 20.05.2020
2922 Clear 9 1021 71 0 1.57 358 03:35 20.05.2020
2923 Clouds 11 1018 63 0 1.79 332 01:45 20.05.2020
2924 Clouds 19 1029 25 10000 5.1 290 01:23 20.05.2020
2925 Clouds 19 1029 25 10000 5.1 290 00:41 20.05.2020
2926 Rain 19 1029 25 10000 5.1 290 00:21 20.05.2020
2927 Clouds 21 1029 22 10000 3.6 330 23:37 19.05.2020
2928 Clouds 21 1029 22 10000 3.6 330 23:19 19.05.2020
2929 Clouds 21 1029 22 10000 5.1 290 22:55 19.05.2020
2930 Clouds 19 1029 22 10000 3.6 290 22:36 19.05.2020
2931 Clouds 19 1029 22 10000 3.6 290 22:18 19.05.2020
2932 Clouds 19 1030 22 10000 4.1 290 21:55 19.05.2020
2933 Clouds 19 1031 21 10000 4.1 280 21:36 19.05.2020
2934 Clouds 19 1031 28 10000 2.6 280 21:18 19.05.2020
2935 Clouds 19 1031 28 10000 2.6 280 20:55 19.05.2020
2936 Clouds 19 1032 28 10000 2.1 0 20:37 19.05.2020
2937 Clouds 19 1032 28 10000 2.1 0 20:19 19.05.2020
2938 Clouds 18 1033 29 10000 2.6 0 19:38 19.05.2020
2939 Clouds 18 1033 29 10000 2.6 0 19:20 19.05.2020
2940 Rain 17 1035 33 10000 1.5 0 18:44 19.05.2020
2941 Clouds 17 1035 33 10000 1.5 0 18:23 19.05.2020
2942 Clear 17 1035 36 10000 2.1 360 17:58 19.05.2020
2943 Clear 15 1036 44 10000 1 90 17:39 19.05.2020
2944 Clear 15 1036 44 10000 1 90 17:20 19.05.2020
2945 Clear 12 1036 54 10000 0.5 0 16:42 19.05.2020
2946 Clear 12 1036 54 10000 0.5 0 16:23 19.05.2020
2947 Clear 11 1036 57 10000 0.5 120 15:58 19.05.2020
2948 Clear 9 1036 66 10000 1 70 15:39 19.05.2020
2949 Clear 9 1036 66 10000 1 70 15:20 19.05.2020
2950 Clear 9 1036 61 10000 0.5 90 14:54 19.05.2020
2951 Clear 5 1036 80 10000 0.5 290 14:36 19.05.2020
2952 Clouds 5 1036 80 10000 0.5 290 14:18 19.05.2020
2953 Clouds 8 1023 66 0 0.43 211 13:55 19.05.2020
2954 Clouds 8 1023 66 0 0.43 211 13:36 19.05.2020
2955 Clouds 6 1023 72 0 0.51 229 13:18 19.05.2020
2956 Clouds 6 1023 72 0 0.51 229 12:40 19.05.2020
2957 Clouds 6 1023 70 0 0.78 250 12:22 19.05.2020
2958 Clouds 6 1023 70 0 0.78 250 11:59 19.05.2020
2959 Clouds 6 1023 70 0 0.78 250 11:40 19.05.2020
2960 Clouds 6 1022 69 0 0.69 284 11:21 19.05.2020
2961 Clouds 6 1022 69 0 0.69 284 10:49 19.05.2020
2962 Clouds 6 1022 69 0 0.69 284 10:30 19.05.2020
2963 Clouds 7 1022 68 0 0.91 286 09:59 19.05.2020
2964 Clouds 7 1022 68 0 0.91 286 09:41 19.05.2020
2965 Clear 7 1022 69 0 0.87 305 09:23 19.05.2020
2966 Clear 7 1022 69 0 0.87 305 08:44 19.05.2020
2967 Clouds 7 1022 69 0 1.14 327 08:24 19.05.2020
2968 Clouds 7 1022 69 0 1.14 327 07:45 19.05.2020
2969 Clouds 8 1023 69 0 1.41 317 07:27 19.05.2020
2970 Clouds 8 1023 69 0 1.41 317 06:54 19.05.2020
2971 Clouds 8 1023 70 0 1.36 323 06:25 19.05.2020
2972 Clouds 8 1023 70 0 1.36 323 05:42 19.05.2020
2973 Clouds 9 1023 70 0 1.22 324 04:57 19.05.2020
2974 Clouds 9 1023 70 0 1.22 324 04:35 19.05.2020
2975 Clouds 11 1019 61 0 1.66 329 02:21 19.05.2020
2976 Clouds 12 1017 59 0 1.49 319 00:48 19.05.2020
2977 Rain 14 1016 55 0 1.74 317 00:26 19.05.2020
2978 Rain 14 1016 55 0 1.74 317 23:58 18.05.2020
2979 Rain 14 1016 55 0 1.74 317 23:40 18.05.2020
2980 Rain 19 1030 29 10000 5.1 320 23:20 18.05.2020
2981 Rain 19 1030 29 10000 5.1 320 22:41 18.05.2020
2982 Rain 19 1030 29 10000 5.1 320 22:22 18.05.2020
2983 Clouds 19 1030 43 10000 6.7 280 21:58 18.05.2020
2984 Clouds 21 1030 26 10000 2.1 320 21:40 18.05.2020
2985 Clouds 21 1030 26 10000 2.1 320 21:19 18.05.2020
2986 Clouds 21 1031 34 10000 3.1 270 20:56 18.05.2020
2987 Clouds 21 1032 26 10000 2.6 280 20:36 18.05.2020
2988 Clouds 19 1032 29 10000 2.6 40 20:18 18.05.2020
2989 Clouds 20 1033 28 10000 1.5 0 19:41 18.05.2020
2990 Clouds 19 1034 29 10000 2.1 30 19:19 18.05.2020
2991 Clouds 19 1035 34 10000 1.52 285 18:46 18.05.2020
2992 Clouds 19 1035 34 10000 1.15 268 18:25 18.05.2020
2993 Clouds 17 1036 39 10000 1.5 350 17:55 18.05.2020
2994 Clouds 16 1036 41 10000 1.15 268 17:37 18.05.2020
2995 Clouds 14 1034 50 10000 1 0 17:18 18.05.2020
2996 Clouds 12 1037 58 10000 2.1 90 16:44 18.05.2020
2997 Clouds 12 1037 58 10000 2.1 90 16:22 18.05.2020
2998 Clouds 11 1037 57 10000 2.1 90 16:00 18.05.2020
2999 Clouds 9 1037 66 10000 1.5 90 15:41 18.05.2020
3000 Clouds 9 1037 66 10000 1.5 90 15:22 18.05.2020
3001 Clouds 9 1037 66 10000 1 110 14:58 18.05.2020
3002 Clouds 5 1036 80 10000 0.81 223 14:39 18.05.2020
3003 Clouds 5 1036 80 10000 0.65 242 14:20 18.05.2020
3004 Clear 8 1024 74 0 0.65 242 13:42 18.05.2020
3005 Clear 5 1023 77 0 0.65 254 13:21 18.05.2020
3006 Clear 5 1023 77 0 0.65 254 13:21 18.05.2020
3007 Clear 5 1023 77 0 0.65 254 12:58 18.05.2020
3008 Clear 5 1023 77 0 0.65 254 12:40 18.05.2020
3009 Clear 6 1023 77 0 0.31 253 12:20 18.05.2020
3010 Clear 6 1023 77 0 0.31 253 11:59 18.05.2020
3011 Clear 6 1023 77 0 0.31 253 11:40 18.05.2020
3012 Clear 6 1023 76 0 0.72 231 11:22 18.05.2020
3013 Clear 6 1023 76 0 0.72 231 10:46 18.05.2020
3014 Clear 6 1022 75 0 0.7 231 10:23 18.05.2020
3015 Clear 6 1022 75 0 0.7 231 09:46 18.05.2020
3016 Clear 6 1022 74 0 0.52 267 09:27 18.05.2020
3017 Clear 6 1022 74 0 0.56 250 08:57 18.05.2020
3018 Clear 6 1022 74 0 0.56 250 08:39 18.05.2020
3019 Clear 7 1023 74 0 0.61 315 08:20 18.05.2020
3020 Clear 7 1023 74 0 0.61 315 07:42 18.05.2020
3021 Clouds 7 1023 74 0 0.85 328 07:21 18.05.2020
3022 Clouds 7 1023 74 0 0.85 328 06:47 18.05.2020
3023 Clouds 7 1023 74 0 1.14 335 06:21 18.05.2020
3024 Clouds 7 1023 74 0 1.14 335 05:42 18.05.2020
3025 Clouds 9 1022 72 0 1.45 341 03:38 18.05.2020
3026 Clouds 9 1022 71 0 1.64 343 02:35 18.05.2020
3027 Clouds 10 1020 65 0 1.67 302 01:45 18.05.2020
3028 Clouds 11 1018 61 0 1.59 296 00:38 18.05.2020
3029 Clouds 14 1016 54 0 1.74 296 00:18 18.05.2020
3030 Clouds 14 1016 54 0 1.74 296 00:18 18.05.2020
3031 Clouds 20 1029 54 10000 3.1 260 23:42 17.05.2020
3032 Clouds 20 1029 54 10000 3.1 260 23:42 17.05.2020
3033 Clouds 20 1029 47 10000 3.1 260 23:21 17.05.2020
3034 Clouds 20 1029 47 10000 3.1 260 22:59 17.05.2020
3035 Clouds 20 1029 47 10000 3.1 260 22:39 17.05.2020
3036 Clouds 20 1029 46 10000 3.1 260 22:21 17.05.2020
3037 Clouds 21 1029 26 10000 3.1 0 21:59 17.05.2020
3038 Clouds 21 1031 22 10000 1.5 310 21:41 17.05.2020
3039 Clouds 21 1031 22 10000 1.5 310 21:19 17.05.2020
3040 Clouds 19 1031 24 10000 2.1 310 20:55 17.05.2020
3041 Clouds 20 1032 24 10000 2.1 250 20:37 17.05.2020
3042 Clouds 20 1032 24 10000 2.1 250 20:18 17.05.2020
3043 Clouds 19 1033 42 10000 1 0 19:42 17.05.2020
3044 Clouds 19 1033 42 10000 1 0 19:42 17.05.2020
3045 Clouds 19 1033 44 10000 1 0 19:23 17.05.2020
3046 Clouds 18 1034 44 10000 1.5 310 18:56 17.05.2020
3047 Clouds 17 1035 33 10000 1.5 50 18:37 17.05.2020
3048 Clouds 17 1035 33 10000 1.5 50 18:19 17.05.2020
3049 Clouds 15 1036 44 10000 0.5 0 17:40 17.05.2020
3050 Clouds 15 1036 44 10000 0.5 0 17:21 17.05.2020
3051 Clouds 13 1036 43 10000 1 0 16:57 17.05.2020
3052 Clouds 11 1037 50 10000 1.5 0 16:38 17.05.2020
3053 Clouds 11 1037 50 10000 1.5 0 16:19 17.05.2020
3054 Clouds 8 1037 61 10000 1 0 15:46 17.05.2020
3055 Clouds 8 1037 61 10000 1 0 15:24 17.05.2020
3056 Clouds 6 1036 70 10000 1.5 80 14:58 17.05.2020
3057 Clouds 9 1023 69 0 0.96 221 14:39 17.05.2020
3058 Clouds 7 1024 74 0 0.72 218 14:19 17.05.2020
3059 Clouds 7 1024 74 0 0.72 218 13:41 17.05.2020
3060 Clouds 5 1023 78 0 0.7 214 13:20 17.05.2020
3061 Clouds 8 1023 71 0 1.13 357 05:22 17.05.2020
3062 Clouds 9 1022 69 0 1.49 15 03:31 17.05.2020
3063 Clouds 10 1021 69 0 1.56 6 02:26 17.05.2020
3064 Clouds 10 1021 69 0 1.56 6 01:54 17.05.2020
3065 Rain 10 1019 67 0 1.47 0 00:52 17.05.2020
3066 Rain 10 1019 67 0 1.47 0 00:30 17.05.2020
3067 Rain 13 1017 60 0 1.57 345 23:56 16.05.2020
3068 Clouds 16 1031 36 10000 2.1 0 23:38 16.05.2020
3069 Clouds 16 1031 36 10000 2.1 0 23:18 16.05.2020
3070 Clouds 16 1031 36 10000 2.1 0 22:41 16.05.2020
3071 Clouds 16 1031 36 10000 2.1 0 22:22 16.05.2020
3072 Clouds 17 1031 36 10000 2.13 325 21:56 16.05.2020
3073 Clouds 17 1032 39 10000 2.1 0 21:38 16.05.2020
3074 Clouds 17 1032 39 10000 2.1 0 21:19 16.05.2020
3075 Clouds 16 1032 41 10000 2.1 60 20:56 16.05.2020
3076 Clouds 16 1032 41 10000 2.1 60 20:56 16.05.2020
3077 Clouds 16 1033 41 10000 4.1 40 20:38 16.05.2020
3078 Clouds 16 1033 41 10000 4.1 40 20:19 16.05.2020
3079 Clouds 17 1034 36 10000 2.1 260 19:43 16.05.2020
3080 Clouds 17 1034 36 10000 1 240 19:23 16.05.2020
3081 Clouds 17 1034 36 10000 1 240 18:58 16.05.2020
3082 Clouds 16 1035 41 10000 1 90 18:40 16.05.2020
3083 Clouds 16 1035 44 10000 1 0 18:21 16.05.2020
3084 Clouds 14 1036 47 10000 0.5 0 17:42 16.05.2020
3085 Clouds 14 1036 47 10000 0.5 0 17:21 16.05.2020
3086 Clouds 13 1036 50 10000 1 0 16:55 16.05.2020
3087 Clouds 12 1036 58 10000 1 100 16:37 16.05.2020
3088 Clouds 11 1036 57 10000 1.5 0 16:18 16.05.2020
3089 Clouds 10 1036 61 10000 1 0 15:42 16.05.2020
3090 Clouds 10 1036 61 10000 1 0 15:21 16.05.2020
3091 Clouds 8 1036 70 10000 1 0 14:58 16.05.2020
3092 Mist 4 1035 80 10000 1 300 14:38 16.05.2020
3093 Mist 4 1035 80 10000 1 300 14:20 16.05.2020
3094 Clouds 8 1023 75 0 0.61 260 13:43 16.05.2020
3095 Clouds 6 1023 78 0 0.51 273 13:24 16.05.2020
3096 Clouds 6 1023 78 0 0.51 273 12:59 16.05.2020
3097 Clouds 6 1023 78 0 0.51 273 12:40 16.05.2020
3098 Clouds 6 1022 77 0 0.52 280 12:19 16.05.2020
3099 Clouds 6 1022 77 0 0.52 280 11:42 16.05.2020
3100 Clouds 6 1022 76 0 0.44 337 11:23 16.05.2020
3101 Clouds 6 1022 76 0 0.44 337 10:58 16.05.2020
3102 Clouds 6 1022 76 0 0.44 337 10:40 16.05.2020
3103 Clouds 7 1022 75 0 0.68 356 10:21 16.05.2020
3104 Clouds 7 1022 75 0 0.68 356 09:47 16.05.2020
3105 Clouds 7 1021 75 0 0.44 14 09:29 16.05.2020
3106 Clouds 7 1022 75 0 0.62 344 09:29 16.05.2020
3107 Clouds 7 1022 75 0 0.62 344 08:59 16.05.2020
3108 Clouds 7 1022 75 0 0.62 344 08:40 16.05.2020
3109 Clear 7 1022 74 0 0.8 350 08:19 16.05.2020
3110 Clear 7 1022 74 0 0.8 350 07:43 16.05.2020
3111 Clear 7 1022 74 0 0.8 350 07:43 16.05.2020
3112 Clear 8 1022 74 0 0.8 348 07:21 16.05.2020
3113 Clear 8 1022 74 0 0.8 348 06:47 16.05.2020
3114 Clear 8 1022 74 0 0.66 338 06:21 16.05.2020
3115 Clear 8 1022 74 0 0.66 338 05:49 16.05.2020
3116 Clear 8 1022 73 0 0.84 346 05:27 16.05.2020
3117 Clear 9 1021 72 0 1.1 353 03:33 16.05.2020
3118 Clouds 10 1020 71 0 1.59 341 02:49 16.05.2020
3119 Clouds 11 1019 68 0 1.97 344 02:20 16.05.2020
3120 Clouds 11 1019 69 0 1.69 351 01:43 16.05.2020
3121 Rain 12 1018 64 0 2.25 340 00:59 16.05.2020
3122 Rain 12 1018 64 0 2.25 340 00:41 16.05.2020
3123 Rain 14 1016 55 0 2.51 330 00:20 16.05.2020
3124 Rain 14 1016 55 0 2.51 330 23:40 15.05.2020
3125 Clouds 19 1029 25 10000 2.6 70 23:20 15.05.2020
3126 Clouds 19 1029 25 10000 2.6 70 22:42 15.05.2020
3127 Clouds 19 1029 25 10000 2.6 70 22:23 15.05.2020
3128 Clouds 19 1029 25 10000 2.6 110 21:59 15.05.2020
3129 Clouds 19 1030 24 10000 3.1 200 21:39 15.05.2020
3130 Clouds 19 1030 24 10000 3.1 200 21:39 15.05.2020
3131 Clouds 19 1030 24 10000 3.1 200 21:21 15.05.2020
3132 Clouds 20 1030 22 10000 3.1 180 20:58 15.05.2020
3133 Clouds 20 1031 24 10000 2.6 0 20:40 15.05.2020
3134 Clouds 20 1031 24 10000 2.6 0 20:21 15.05.2020
3135 Clouds 20 1031 24 10000 2.6 340 19:55 15.05.2020
3136 Clouds 19 1032 22 10000 1.5 0 19:36 15.05.2020
3137 Clouds 19 1033 29 10000 1.5 0 19:18 15.05.2020
3138 Clouds 17 1034 29 10000 1.5 0 18:41 15.05.2020
3139 Clouds 17 1034 29 10000 1.5 0 18:23 15.05.2020
3140 Clouds 15 1035 44 10000 1 240 17:39 15.05.2020
3141 Clouds 15 1035 44 10000 1 240 17:19 15.05.2020
3142 Clouds 14 1035 47 10000 1.5 0 16:57 15.05.2020
3143 Clouds 13 1035 54 10000 0.5 0 16:38 15.05.2020
3144 Clouds 13 1035 54 10000 0.5 0 16:19 15.05.2020
3145 Clouds 10 1035 66 10000 1.5 80 15:42 15.05.2020
3146 Clouds 10 1035 66 10000 1.5 80 15:23 15.05.2020
3147 Clouds 8 1035 75 10000 1.5 90 14:59 15.05.2020
3148 Clouds 6 1035 81 10000 1.5 90 14:41 15.05.2020
3149 Clouds 6 1035 81 10000 1.5 90 14:23 15.05.2020
3150 Clouds 7 1023 71 0 0.51 210 13:58 15.05.2020
3151 Clouds 7 1023 71 0 0.51 210 13:38 15.05.2020
3152 Clouds 5 1023 75 0 0.39 196 13:19 15.05.2020
3153 Clouds 5 1023 75 0 0.39 196 12:39 15.05.2020
3154 Clouds 5 1023 74 0 0.59 203 12:18 15.05.2020
3155 Clouds 5 1023 74 0 0.59 203 11:56 15.05.2020
3156 Clouds 5 1023 74 0 0.59 203 11:38 15.05.2020
3157 Clouds 6 1023 73 0 0.6 245 11:19 15.05.2020
3158 Clouds 6 1023 73 0 0.6 245 10:57 15.05.2020
3159 Clouds 6 1023 73 0 0.6 245 10:38 15.05.2020
3160 Clear 6 1022 72 0 0.64 273 10:20 15.05.2020
3161 Clear 6 1022 72 0 0.64 273 09:56 15.05.2020
3162 Clouds 6 1022 72 0 0.73 276 09:36 15.05.2020
3163 Clear 6 1022 72 0 0.85 293 09:18 15.05.2020
3164 Clear 6 1022 71 0 0.92 294 08:38 15.05.2020
3165 Clouds 7 1023 70 0 1.05 304 08:20 15.05.2020
3166 Clouds 7 1023 70 0 1.05 304 07:47 15.05.2020
3167 Clouds 7 1023 71 0 0.93 326 07:28 15.05.2020
3168 Clouds 7 1023 71 0 0.93 326 06:59 15.05.2020
3169 Clouds 7 1023 72 0 0.98 351 06:28 15.05.2020
3170 Clouds 8 1023 72 0 1.12 356 04:39 15.05.2020
3171 Clouds 9 1022 70 0 1.55 2 03:51 15.05.2020
3172 Clouds 9 1021 67 0 1.9 2 02:55 15.05.2020
3173 Clouds 10 1020 65 0 1.81 349 01:37 15.05.2020
3174 Rain 12 1018 63 0 1.75 354 01:18 15.05.2020
3175 Rain 12 1018 63 0 1.75 354 00:40 15.05.2020
3176 Rain 14 1016 58 0 1.48 356 00:22 15.05.2020
3177 Rain 14 1016 58 0 1.48 356 23:41 14.05.2020
3178 Clouds 20 1028 19 10000 5.1 320 23:19 14.05.2020
3179 Clouds 20 1028 19 10000 5.1 320 22:55 14.05.2020
3180 Clouds 20 1028 19 10000 5.1 320 22:37 14.05.2020
3181 Clouds 21 1028 19 10000 3.6 340 22:18 14.05.2020
3182 Clouds 21 1029 14 10000 2.6 0 21:41 14.05.2020
3183 Clouds 21 1030 14 10000 2.6 0 21:20 14.05.2020
3184 Clouds 21 1030 14 10000 2.6 0 20:58 14.05.2020
3185 Clouds 20 1031 18 10000 2.1 0 20:39 14.05.2020
3186 Clouds 20 1031 18 10000 2.1 0 20:20 14.05.2020
3187 Clouds 20 1031 18 10000 2.1 0 20:20 14.05.2020
3188 Clouds 20 1031 24 10000 1.5 270 19:57 14.05.2020
3189 Clouds 19 1032 24 10000 1 70 19:39 14.05.2020
3190 Clouds 19 1032 24 10000 1 70 19:20 14.05.2020
3191 Clouds 19 1032 24 10000 1 70 19:20 14.05.2020
3192 Clouds 18 1033 38 10000 1 70 18:57 14.05.2020
3193 Clouds 17 1034 38 10000 0.5 240 18:38 14.05.2020
3194 Clouds 17 1034 41 10000 0.5 240 18:19 14.05.2020
3195 Clouds 17 1034 25 10000 1 0 17:57 14.05.2020
3196 Clouds 16 1034 41 10000 1.5 0 17:37 14.05.2020
3197 Clouds 16 1034 48 10000 1.5 0 17:18 14.05.2020
3198 Clouds 13 1035 50 10000 1 100 16:41 14.05.2020
3199 Clouds 13 1035 50 10000 1 100 16:23 14.05.2020
3200 Clouds 11 1035 57 10000 1.5 90 15:59 14.05.2020
3201 Clouds 10 1035 61 10000 1 90 15:40 14.05.2020
3202 Clouds 10 1035 61 10000 1 90 15:40 14.05.2020
3203 Clouds 10 1035 61 10000 1 90 15:21 14.05.2020
3204 Clouds 9 1035 61 10000 1 90 14:57 14.05.2020
3205 Clouds 7 1035 70 10000 0.5 120 14:38 14.05.2020
3206 Clouds 7 1035 70 10000 0.5 120 14:20 14.05.2020
3207 Clouds 7 1035 70 10000 0.5 120 14:20 14.05.2020
3208 Clouds 8 1022 73 0 0.42 159 13:57 14.05.2020
3209 Clouds 8 1025 97 0 0.42 159 13:38 14.05.2020
3210 Clouds 8 1025 97 0 0.42 159 13:38 14.05.2020
3211 Clouds 8 1024 97 0 0.06 103 13:19 14.05.2020
3212 Clouds 7 1024 96 0 0.06 103 12:57 14.05.2020
3213 Clouds 7 1024 96 0 0.06 103 12:37 14.05.2020
3214 Clouds 7 1024 96 0 0.2 251 12:18 14.05.2020
3215 Clouds 7 1023 96 0 0.2 251 11:56 14.05.2020
3216 Clouds 7 1023 96 0 0.2 251 11:37 14.05.2020
3217 Clouds 7 1023 96 0 0.2 251 11:37 14.05.2020
3218 Clouds 6 1020 76 0 0.38 267 11:19 14.05.2020
3219 Clouds 6 1020 76 0 0.38 267 10:42 14.05.2020
3220 Clouds 7 1023 95 0 0.59 306 10:24 14.05.2020
3221 Clouds 7 1020 75 0 0.59 306 09:56 14.05.2020
3222 Clouds 6 1020 76 0 0.43 337 09:37 14.05.2020
3223 Clouds 7 1020 75 0 0.78 339 09:18 14.05.2020
3224 Clouds 7 1020 75 0 0.77 351 08:39 14.05.2020
3225 Clouds 7 1020 75 0 1.05 358 08:19 14.05.2020
3226 Clouds 7 1020 75 0 1.05 358 07:45 14.05.2020
3227 Clouds 8 1020 74 0 1.06 349 07:22 14.05.2020
3228 Clouds 8 1020 74 0 1.06 349 06:48 14.05.2020
3229 Clouds 8 1021 73 0 0.96 354 06:26 14.05.2020
3230 Clouds 8 1021 73 0 0.96 354 05:42 14.05.2020
3231 Clouds 9 1021 72 0 1.1 13 04:56 14.05.2020
3232 Clouds 9 1021 69 0 1.43 27 03:44 14.05.2020
3233 Clouds 10 1019 64 0 1.63 20 03:20 14.05.2020
3234 Clouds 10 1019 64 0 1.63 20 02:39 14.05.2020
3235 Clear 10 1017 48 0 1.67 343 01:52 14.05.2020
3236 Clear 15 1024 87 0 1.57 315 00:58 14.05.2020
3237 Clear 15 1024 88 0 1.57 315 00:29 14.05.2020
3238 Clear 15 1024 87 0 1.75 273 23:55 13.05.2020
3239 Clouds 18 1029 14 10000 4.6 290 23:37 13.05.2020
3240 Clouds 18 1029 14 10000 4.6 290 23:18 13.05.2020
3241 Clouds 18 1029 14 10000 4.6 290 22:41 13.05.2020
3242 Clouds 18 1029 14 10000 4.6 290 22:22 13.05.2020
3243 Clouds 18 1030 18 10000 5.7 300 21:59 13.05.2020
3244 Clouds 18 1031 19 10000 3.1 280 21:40 13.05.2020
3245 Clouds 18 1031 19 10000 3.1 280 21:19 13.05.2020
3246 Clouds 18 1031 19 10000 3.1 280 21:19 13.05.2020
3247 Clouds 18 1030 20 10000 1 0 20:56 13.05.2020
3248 Clouds 17 1031 20 10000 2.6 50 20:38 13.05.2020
3249 Clouds 17 1031 20 10000 2.6 50 20:19 13.05.2020
3250 Clouds 17 1033 18 10000 1.89 266 19:42 13.05.2020
3251 Clouds 17 1033 18 10000 1.38 247 19:24 13.05.2020
3252 Clouds 16 1034 21 10000 1.5 300 18:45 13.05.2020
3253 Clouds 16 1034 21 10000 1.5 300 18:22 13.05.2020
3254 Clouds 15 1035 23 10000 2.6 70 17:58 13.05.2020
3255 Clouds 15 1035 21 10000 1 60 17:38 13.05.2020
3256 Clouds 15 1035 21 10000 1 60 17:18 13.05.2020
3257 Clouds 12 1036 37 10000 1 0 16:41 13.05.2020
3258 Clouds 12 1036 37 10000 1 50 16:20 13.05.2020
3259 Clouds 12 1036 37 10000 1 50 15:57 13.05.2020
3260 Clouds 11 1036 46 10000 1 90 15:39 13.05.2020
3261 Clouds 10 1036 46 10000 1 90 15:18 13.05.2020
3262 Clouds 8 1036 47 10000 1 90 14:55 13.05.2020
3263 Clouds 7 1035 56 10000 1.44 175 14:36 13.05.2020
3264 Clouds 8 1022 55 0 1.15 178 14:18 13.05.2020
3265 Clouds 8 1022 55 0 1.15 178 13:42 13.05.2020
3266 Clouds 5 1022 66 0 1.06 175 13:22 13.05.2020
3267 Clouds 5 1022 66 0 1.06 175 12:59 13.05.2020
3268 Clouds 5 1022 66 0 1.06 175 12:41 13.05.2020
3269 Clouds 6 1021 65 0 1.17 187 12:20 13.05.2020
3270 Clouds 6 1021 65 0 1.17 187 11:56 13.05.2020
3271 Clouds 6 1021 65 0 1.17 187 11:37 13.05.2020
3272 Clouds 6 1021 66 0 1.27 199 11:19 13.05.2020
3273 Clouds 6 1021 66 0 1.27 199 10:57 13.05.2020
3274 Clouds 6 1021 66 0 1.27 199 10:38 13.05.2020
3275 Clouds 7 1021 69 0 1.38 196 10:19 13.05.2020
3276 Clouds 7 1021 69 0 1.38 196 09:46 13.05.2020
3277 Clouds 7 1020 71 0 1.08 197 09:24 13.05.2020
3278 Clouds 7 1020 71 0 1.08 197 08:58 13.05.2020
3279 Clouds 7 1020 71 0 1.08 197 08:39 13.05.2020
3280 Clouds 8 1020 71 0 1.08 205 08:20 13.05.2020
3281 Clouds 8 1020 71 0 1.08 205 07:51 13.05.2020
3282 Clouds 8 1020 71 0 1.08 205 07:32 13.05.2020
3283 Clouds 8 1021 71 0 1.12 242 06:52 13.05.2020
3284 Clouds 8 1021 71 0 1.12 242 06:33 13.05.2020
3285 Clouds 9 1021 70 0 1.27 271 05:37 13.05.2020
3286 Clear 10 1020 68 0 1.22 305 03:49 13.05.2020
3287 Clear 10 1019 66 0 1.66 318 02:37 13.05.2020
3288 Clouds 11 1017 61 0 2.21 306 01:46 13.05.2020
3289 Clouds 12 1015 55 0 2.57 304 00:58 13.05.2020
3290 Clouds 16 1023 48 0 2.5 293 00:23 13.05.2020
3291 Clouds 17 1023 46 0 2.5 293 23:58 12.05.2020
3292 Clouds 19 1029 17 10000 4.6 290 23:39 12.05.2020
3293 Clouds 19 1029 17 10000 4.6 290 23:18 12.05.2020
3294 Clouds 19 1029 17 10000 4.6 290 22:42 12.05.2020
3295 Clouds 19 1029 17 10000 4.6 290 22:22 12.05.2020
3296 Clouds 19 1029 21 10000 5.7 290 21:56 12.05.2020
3297 Clouds 19 1030 22 10000 3.1 290 21:38 12.05.2020
3298 Clouds 18 1030 22 10000 3.1 290 21:19 12.05.2020
3299 Clouds 18 1030 21 10000 6.2 290 20:58 12.05.2020
3300 Clouds 18 1031 28 10000 1.5 0 20:39 12.05.2020
3301 Clouds 18 1031 28 10000 1.5 0 20:20 12.05.2020
3302 Clouds 18 1032 28 10000 1.5 0 19:57 12.05.2020
3303 Clouds 17 1033 29 10000 1.5 0 19:39 12.05.2020
3304 Clouds 17 1033 29 10000 1.5 0 19:20 12.05.2020
3305 Clouds 16 1033 29 10000 1.5 0 18:55 12.05.2020
3306 Clouds 16 1034 32 10000 2.1 0 18:36 12.05.2020
3307 Clouds 16 1034 34 10000 1 0 18:18 12.05.2020
3308 Clouds 14 1035 41 10000 1 0 17:42 12.05.2020
3309 Clouds 14 1035 41 10000 1 0 17:23 12.05.2020
3310 Clouds 12 1035 58 10000 1 0 16:47 12.05.2020
3311 Clouds 12 1035 58 10000 1 0 16:26 12.05.2020
3312 Clouds 11 1035 62 10000 0.78 218 15:56 12.05.2020
3313 Clouds 9 1035 66 10000 1 0 15:38 12.05.2020
3314 Clouds 8 1035 70 10000 0.5 0 15:19 12.05.2020
3315 Clouds 7 1035 70 10000 0.5 0 14:57 12.05.2020
3316 Clouds 5 1026 94 0 0.79 217 14:37 12.05.2020
3317 Clouds 4 1026 95 0 0.84 266 14:19 12.05.2020
3318 Clouds 4 1026 96 0 0.84 266 13:57 12.05.2020
3319 Clouds 4 1026 95 0 0.84 266 13:57 12.05.2020
3320 Clouds 3 1026 96 0 0.84 266 13:39 12.05.2020
3321 Clear 3 1026 96 0 0.7 259 13:19 12.05.2020
3322 Clear 3 1025 95 0 0.7 259 12:57 12.05.2020
3323 Clear 3 1025 96 0 0.7 259 12:39 12.05.2020
3324 Clear 2 1025 95 0 0.86 244 12:21 12.05.2020
3325 Clear 2 1025 95 0 0.86 244 12:21 12.05.2020
3326 Clear 2 1024 95 0 0.86 244 11:57 12.05.2020
3327 Clear 2 1024 95 0 0.86 244 11:38 12.05.2020
3328 Clear 2 1024 95 0 0.8 242 11:20 12.05.2020
3329 Clear 2 1024 95 0 0.8 242 10:57 12.05.2020
3330 Clear 2 1023 94 0 0.8 242 10:39 12.05.2020
3331 Clear 2 1023 95 0 0.76 248 10:19 12.05.2020
3332 Clear 2 1023 95 0 0.76 248 09:57 12.05.2020
3333 Clear 2 1024 94 0 0.76 248 09:38 12.05.2020
3334 Clear 2 1024 94 0 0.76 248 09:38 12.05.2020
3335 Clear 7 1020 76 0 0.87 260 09:20 12.05.2020
3336 Clear 7 1020 75 0 0.94 254 08:42 12.05.2020
3337 Clear 8 1020 74 0 0.97 274 08:21 12.05.2020
3338 Clear 8 1020 74 0 0.97 274 07:57 12.05.2020
3339 Clear 8 1020 74 0 0.97 274 07:39 12.05.2020
3340 Clear 3 1023 92 0 1.25 292 07:19 12.05.2020
3341 Clear 3 1023 91 0 1.25 292 06:38 12.05.2020
3342 Clear 3 1023 91 0 1.25 292 06:38 12.05.2020
3343 Clear 9 1020 73 0 1.06 307 06:19 12.05.2020
3344 Clear 4 1023 90 0 1.06 307 05:45 12.05.2020
3345 Clear 6 1023 83 0 1.24 326 03:57 12.05.2020
3346 Clear 7 1023 77 0 1.7 336 03:19 12.05.2020
3347 Clouds 9 1022 69 0 1.96 331 02:27 12.05.2020
3348 Clouds 12 1022 57 0 2.11 322 01:40 12.05.2020
3349 Rain 13 1022 51 0 2.11 315 00:58 12.05.2020
3350 Rain 14 1021 49 0 2.22 318 00:24 12.05.2020
3351 Rain 14 1021 48 0 2.22 318 23:57 11.05.2020
3352 Clouds 17 1028 28 10000 4.6 280 23:37 11.05.2020
3353 Clouds 17 1028 28 10000 4.6 280 23:19 11.05.2020
3354 Clouds 18 1028 28 10000 4.6 280 22:56 11.05.2020
3355 Clouds 18 1028 28 10000 4.6 280 22:56 11.05.2020
3356 Clouds 18 1028 28 10000 4.6 280 22:38 11.05.2020
3357 Clouds 18 1028 28 10000 4.6 280 22:19 11.05.2020
3358 Clouds 19 1029 25 10000 4.1 290 21:55 11.05.2020
3359 Clouds 19 1029 23 10000 0.5 0 21:36 11.05.2020
3360 Clouds 19 1029 23 10000 0.5 0 21:36 11.05.2020
3361 Clouds 19 1029 23 10000 0.5 0 21:18 11.05.2020
3362 Clouds 22 1029 21 10000 5.1 280 20:54 11.05.2020
3363 Clouds 19 1030 28 10000 1.5 0 20:36 11.05.2020
3364 Clouds 18 1031 28 10000 3.1 0 20:18 11.05.2020
3365 Clouds 18 1032 30 10000 1 90 19:41 11.05.2020
3366 Clouds 17 1032 30 10000 1 90 19:22 11.05.2020
3367 Clouds 17 1033 32 10000 2.1 110 18:57 11.05.2020
3368 Clouds 17 1033 34 10000 1 10 18:38 11.05.2020
3369 Clouds 19 1033 34 10000 1 10 18:19 11.05.2020
3370 Clouds 15 1034 39 10000 1.5 0 17:57 11.05.2020
3371 Clouds 15 1034 42 10000 1.5 0 17:39 11.05.2020
3372 Clouds 14 1034 42 10000 1.5 0 17:21 11.05.2020
3373 Clouds 14 1035 48 10000 3.1 20 16:56 11.05.2020
3374 Clouds 14 1035 54 10000 1 0 16:37 11.05.2020
3375 Clouds 12 1035 58 10000 0.5 310 16:19 11.05.2020
3376 Clouds 11 1035 71 10000 1 0 15:42 11.05.2020
3377 Clouds 11 1035 71 10000 1 0 15:20 11.05.2020
3378 Clouds 9 1035 76 10000 1 0 14:59 11.05.2020
3379 Mist 7 1034 87 10000 2.1 280 14:41 11.05.2020
3380 Mist 6 1034 87 10000 2.1 280 14:21 11.05.2020
3381 Clouds 3 1023 93 0 0.78 243 13:54 11.05.2020
3382 Clouds 9 1021 79 0 0.78 243 13:36 11.05.2020
3383 Clouds 8 1020 81 0 0.57 244 13:18 11.05.2020
3384 Clouds 8 1020 81 0 0.57 244 12:54 11.05.2020
3385 Clouds 8 1020 81 0 0.57 244 12:54 11.05.2020
3386 Clouds 2 1022 91 0 0.57 244 12:36 11.05.2020
3387 Clouds 2 1022 90 0 0.72 249 12:18 11.05.2020
3388 Clouds 3 1022 88 0 0.72 249 11:41 11.05.2020
3389 Clouds 4 1022 86 0 1.01 237 11:22 11.05.2020
3390 Clouds 4 1021 84 0 1.01 237 10:58 11.05.2020
3391 Clouds 5 1021 84 0 1.01 237 10:40 11.05.2020
3392 Clear 5 1021 81 0 1.06 253 10:21 11.05.2020
3393 Clear 6 1021 78 0 1.06 253 09:58 11.05.2020
3394 Clear 7 1021 73 0 1.06 253 09:39 11.05.2020
3395 Clear 7 1021 74 0 0.91 290 09:19 11.05.2020
3396 Clear 7 1021 73 0 0.45 21 09:19 11.05.2020
3397 Clear 7 1021 75 0 0.91 290 08:55 11.05.2020
3398 Clear 8 1021 76 0 0.91 290 08:37 11.05.2020
3399 Clouds 8 1020 77 0 1.21 282 08:18 11.05.2020
3400 Clouds 8 1020 78 0 1.21 282 07:42 11.05.2020
3401 Clouds 9 1021 77 0 1.4 294 07:23 11.05.2020
3402 Clouds 9 1021 77 0 1.4 294 06:41 11.05.2020
3403 Clouds 9 1021 76 0 1.58 297 05:56 11.05.2020
3404 Clouds 8 1018 85 0 0.45 311 05:24 11.05.2020
3405 Clouds 9 1017 81 0 1.53 312 04:24 11.05.2020
3406 Rain 11 1019 73 0 1.77 338 02:47 11.05.2020
3407 Rain 11 1017 70 0 2.43 336 02:29 11.05.2020
3408 Rain 11 1017 70 0 2.43 336 01:34 11.05.2020
3409 Rain 12 1016 67 0 2.76 335 00:52 11.05.2020
3410 Rain 14 1014 63 0 2.54 331 00:19 11.05.2020
3411 Rain 14 1014 63 0 2.54 331 23:43 10.05.2020
3412 Clouds 23 1028 27 10000 2.1 300 23:24 10.05.2020
3413 Clouds 23 1028 27 10000 2.1 300 22:55 10.05.2020
3414 Clouds 23 1028 27 10000 2.1 300 22:37 10.05.2020
3415 Clouds 23 1028 27 10000 2.1 300 22:19 10.05.2020
3416 Clouds 22 1030 26 10000 2.1 0 21:44 10.05.2020
3417 Clouds 22 1030 26 10000 2.1 0 21:19 10.05.2020
3418 Clouds 21 1030 32 10000 2.1 0 20:55 10.05.2020
3419 Clouds 20 1031 32 10000 3.6 280 20:36 10.05.2020
3420 Clouds 20 1031 32 10000 3.6 280 20:36 10.05.2020
3421 Clouds 20 1032 30 10000 0.5 20 20:18 10.05.2020
3422 Clouds 19 1032 32 10000 1 70 19:40 10.05.2020
3423 Clouds 19 1032 32 10000 1 70 19:22 10.05.2020
3424 Clouds 19 1033 34 10000 1 30 18:57 10.05.2020
3425 Clouds 19 1033 34 10000 1 30 18:57 10.05.2020
3426 Clouds 19 1034 39 10000 2.6 10 18:37 10.05.2020
3427 Clouds 19 1034 39 10000 2.6 10 18:19 10.05.2020
3428 Clouds 18 1034 45 10000 2.6 10 17:59 10.05.2020
3429 Clouds 17 1035 45 10000 1.5 290 17:40 10.05.2020
3430 Clouds 16 1035 45 10000 1.5 290 17:21 10.05.2020
3431 Clouds 15 1035 51 10000 1 0 16:56 10.05.2020
3432 Clouds 14 1035 54 10000 0.5 0 16:38 10.05.2020
3433 Clouds 13 1035 54 10000 0.5 0 16:19 10.05.2020
3434 Clouds 13 1035 54 10000 0.5 0 16:19 10.05.2020
3435 Clouds 11 1035 62 10000 1 290 15:44 10.05.2020
3436 Clouds 10 1035 62 10000 1 290 15:24 10.05.2020
3437 Clouds 7 1035 76 10000 2.1 270 14:57 10.05.2020
3438 Mist 8 1035 87 10000 2.6 280 14:38 10.05.2020
3439 Mist 8 1035 87 10000 2.6 280 14:38 10.05.2020
3440 Clouds 9 1022 78 0 0.4 245 14:19 10.05.2020
3441 Clouds 9 1022 78 0 0.4 245 13:58 10.05.2020
3442 Clouds 9 1022 78 0 0.4 245 13:58 10.05.2020
3443 Clouds 9 1022 78 0 0.4 245 13:38 10.05.2020
3444 Clouds 8 1021 81 0 0.7 250 13:20 10.05.2020
3445 Clouds 8 1021 81 0 0.7 250 12:57 10.05.2020
3446 Clouds 8 1021 81 0 0.7 250 12:38 10.05.2020
3447 Clouds 7 1021 81 0 0.83 253 12:20 10.05.2020
3448 Clouds 7 1021 81 0 0.83 253 11:56 10.05.2020
3449 Clouds 7 1021 81 0 0.83 253 11:38 10.05.2020
3450 Clouds 7 1020 80 0 0.57 256 11:19 10.05.2020
3451 Clouds 7 1020 80 0 0.57 256 10:46 10.05.2020
3452 Clouds 8 1020 79 0 0.7 256 10:27 10.05.2020
3453 Clouds 8 1020 79 0 0.7 256 09:58 10.05.2020
3454 Clouds 8 1020 79 0 0.7 256 09:39 10.05.2020
3455 Clouds 8 1021 78 0 1.04 264 09:20 10.05.2020
3456 Clouds 8 1020 78 0 0.96 252 08:48 10.05.2020
3457 Clouds 8 1021 77 0 0.77 264 08:24 10.05.2020
3458 Clouds 8 1021 77 0 0.77 264 07:45 10.05.2020
3459 Clouds 9 1021 76 0 1.02 280 07:21 10.05.2020
3460 Clouds 9 1021 76 0 1.02 280 06:56 10.05.2020
3461 Clouds 9 1021 76 0 1.02 280 06:30 10.05.2020
3462 Clouds 9 1021 76 0 1.16 300 05:50 10.05.2020
3463 Clouds 10 1021 75 0 1.58 301 04:54 10.05.2020
3464 Clouds 10 1021 75 0 1.58 301 04:34 10.05.2020
3465 Clouds 5 1023 85 0 1.95 313 03:54 10.05.2020
3466 Clouds 6 1023 83 0 1.95 313 03:36 10.05.2020
3467 Rain 8 1022 74 0 2.16 322 02:41 10.05.2020
3468 Clouds 9 1022 68 0 2.25 321 02:19 10.05.2020
3469 Clouds 10 1022 58 0 2.25 321 01:41 10.05.2020
3470 Clouds 12 1022 51 0 2.09 318 01:19 10.05.2020
3471 Clouds 12 1022 52 0 2.09 318 00:54 10.05.2020
3472 Rain 13 1022 47 0 1.85 320 00:24 10.05.2020
3473 Rain 14 1022 43 0 1.85 320 23:58 09.05.2020
3474 Rain 14 1022 43 0 1.85 320 23:39 09.05.2020
3475 Clouds 18 1029 25 10000 2.6 260 23:20 09.05.2020
3476 Clouds 18 1029 25 10000 2.6 260 22:42 09.05.2020
3477 Clouds 18 1029 25 10000 2.6 260 22:23 09.05.2020
3478 Clouds 18 1029 25 10000 3.1 30 21:58 09.05.2020
3479 Clouds 18 1030 25 10000 0.5 40 21:40 09.05.2020
3480 Clouds 18 1030 25 10000 0.5 40 21:21 09.05.2020
3481 Clouds 18 1031 24 10000 1 280 20:58 09.05.2020
3482 Clouds 17 1032 28 10000 1 130 20:38 09.05.2020
3483 Clouds 17 1032 28 10000 1 130 20:38 09.05.2020
3484 Clouds 17 1032 28 10000 1 130 20:20 09.05.2020
3485 Clouds 17 1032 28 10000 1 10 19:56 09.05.2020
3486 Clouds 20 1033 30 10000 1 0 19:38 09.05.2020
3487 Clouds 16 1034 30 10000 1.5 30 19:18 09.05.2020
3488 Clouds 15 1035 32 10000 0.5 30 18:43 09.05.2020
3489 Clouds 15 1035 32 10000 0.5 30 18:24 09.05.2020
3490 Clouds 13 1036 39 10000 1.5 10 17:46 09.05.2020
3491 Clouds 13 1036 39 10000 1.5 10 17:23 09.05.2020
3492 Clouds 13 1036 42 10000 0.5 300 16:57 09.05.2020
3493 Clouds 11 1037 54 10000 0.5 360 16:38 09.05.2020
3494 Clouds 11 1037 54 10000 0.5 360 16:19 09.05.2020
3495 Clouds 11 1037 71 10000 1.5 90 15:44 09.05.2020
3496 Rain 7 1037 71 10000 1.5 90 15:26 09.05.2020
3497 Clouds 9 1037 87 10000 2.1 90 14:56 09.05.2020
3498 Clouds 8 1037 87 10000 2.1 100 14:38 09.05.2020
3499 Clouds 9 1023 74 0 0.57 167 14:18 09.05.2020
3500 Clouds 9 1023 74 0 0.57 167 14:18 09.05.2020
3501 Clouds 9 1023 74 0 0.57 158 14:18 09.05.2020
3502 Clouds 9 1023 74 0 0.57 167 13:56 09.05.2020
3503 Clouds 9 1023 74 0 0.57 167 13:38 09.05.2020
3504 Clouds 7 1022 77 0 0.6 155 13:18 09.05.2020
3505 Clouds 7 1022 77 0 0.6 155 12:40 09.05.2020
3506 Clouds 7 1022 77 0 0.25 158 12:22 09.05.2020
3507 Clouds 7 1022 77 0 0.25 158 11:45 09.05.2020
3508 Clouds 8 1022 75 0 0.14 261 11:20 09.05.2020
3509 Clouds 8 1022 75 0 0.14 261 10:56 09.05.2020
3510 Clouds 8 1022 75 0 0.14 261 10:38 09.05.2020
3511 Clouds 2 1020 95 0 0.43 327 10:19 09.05.2020
3512 Clouds 2 1020 95 0 0.43 327 09:47 09.05.2020
3513 Clouds 3 1020 95 0 0.44 300 09:20 09.05.2020
3514 Clouds 4 1019 96 0 0.44 300 08:58 09.05.2020
3515 Clouds 4 1019 96 0 0.44 300 08:40 09.05.2020
3516 Clouds 5 1019 96 0 0.68 345 08:21 09.05.2020
3517 Rain 4 1018 96 0 0.68 345 07:45 09.05.2020
3518 Rain 4 1018 96 0 1.24 352 07:27 09.05.2020
3519 Clouds 3 1018 96 0 1.24 352 06:44 09.05.2020
3520 Clouds 9 1023 76 0 1.43 358 06:20 09.05.2020
3521 Clouds 9 1023 76 0 1.43 358 05:42 09.05.2020
3522 Rain 6 1016 94 0 1.86 13 03:41 09.05.2020
3523 Rain 10 1022 75 0 2.26 3 02:55 09.05.2020
3524 Rain 10 1022 75 0 2.26 3 02:30 09.05.2020
3525 Rain 11 1020 72 0 2.28 356 01:51 09.05.2020
3526 Rain 12 1018 67 0 2.16 356 01:22 09.05.2020
3527 Rain 12 1018 67 0 2.16 356 01:22 09.05.2020
3528 Rain 12 1018 67 0 2.16 356 00:43 09.05.2020
3529 Rain 14 1017 61 0 2.13 337 00:20 09.05.2020
3530 Rain 14 1017 61 0 2.13 337 23:45 08.05.2020
3531 Rain 15 1030 32 10000 1.5 300 23:27 08.05.2020
3532 Rain 15 1030 32 10000 1.5 300 22:56 08.05.2020
3533 Rain 15 1030 32 10000 1.5 300 22:38 08.05.2020
3534 Rain 15 1030 32 10000 1.5 300 22:19 08.05.2020
3535 Rain 15 1031 37 10000 2.1 0 21:55 08.05.2020
3536 Clouds 20 1031 40 10000 2.1 300 21:37 08.05.2020
3537 Clouds 20 1032 40 10000 2.1 310 21:18 08.05.2020
3538 Clouds 20 1032 40 10000 2.1 310 20:56 08.05.2020
3539 Clouds 20 1033 40 10000 2.1 20 20:38 08.05.2020
3540 Clouds 20 1033 40 10000 2.1 20 20:19 08.05.2020
3541 Clouds 20 1033 40 10000 2.1 20 20:19 08.05.2020
3542 Clouds 18 1034 42 10000 2.1 240 19:42 08.05.2020
3543 Rain 14 1034 42 10000 2.1 240 19:22 08.05.2020
3544 Rain 13 1036 51 10000 1.5 0 18:50 08.05.2020
3545 Rain 13 1036 51 10000 1.5 0 18:31 08.05.2020
3546 Clouds 13 1036 54 10000 1 0 17:43 08.05.2020
3547 Clouds 13 1036 54 10000 1 0 17:20 08.05.2020
3548 Clouds 13 1037 54 10000 1 0 16:58 08.05.2020
3549 Clouds 12 1037 66 10000 1.3 203 16:39 08.05.2020
3550 Clouds 11 1037 66 10000 1.2 209 16:21 08.05.2020
3551 Clouds 10 1037 66 10000 1.2 209 15:54 08.05.2020
3552 Clouds 9 1036 71 10000 1.5 290 15:36 08.05.2020
3553 Clouds 9 1036 76 10000 0.97 224 15:18 08.05.2020
3554 Clouds 7 1036 87 10000 0.97 224 14:40 08.05.2020
3555 Clouds 7 1036 87 10000 0.79 237 14:20 08.05.2020
3556 Clouds 7 1014 96 0 0.79 237 13:57 08.05.2020
3557 Clouds 7 1014 96 0 0.79 237 13:39 08.05.2020
3558 Clouds 6 1014 96 0 0.85 249 13:19 08.05.2020
3559 Clouds 6 1015 96 0 0.85 249 12:45 08.05.2020
3560 Clouds 6 1015 96 0 0.8 267 12:23 08.05.2020
3561 Clouds 5 1015 95 0 0.8 267 11:55 08.05.2020
3562 Clouds 5 1015 96 0 0.8 267 11:36 08.05.2020
3563 Clouds 5 1015 95 0 0.79 286 11:18 08.05.2020
3564 Clouds 5 1016 95 0 0.79 286 10:43 08.05.2020
3565 Clouds 5 1016 95 0 0.77 300 10:22 08.05.2020
3566 Clouds 4 1017 94 0 0.77 300 10:00 08.05.2020
3567 Clouds 4 1016 94 0 0.77 300 09:40 08.05.2020
3568 Clouds 5 1017 94 0 0.67 306 09:19 08.05.2020
3569 Clouds 5 1017 94 0 0.68 312 09:19 08.05.2020
3570 Clouds 5 1017 94 0 0.68 312 08:50 08.05.2020
3571 Clouds 6 1016 94 0 0.83 306 08:24 08.05.2020
3572 Clouds 6 1017 94 0 0.83 306 07:46 08.05.2020
3573 Clouds 6 1017 93 0 1.09 316 07:26 08.05.2020
3574 Clouds 6 1017 93 0 1.09 316 06:53 08.05.2020
3575 Clouds 6 1017 93 0 1.55 309 06:25 08.05.2020
3576 Clouds 6 1017 91 0 1.55 309 05:59 08.05.2020
3577 Clouds 7 1018 90 0 1.91 319 05:24 08.05.2020
3578 Rain 11 1017 77 0 1.78 325 02:59 08.05.2020
3579 Rain 11 1020 69 0 2.08 328 02:24 08.05.2020
3580 Clouds 12 1019 67 0 1.18 333 01:38 08.05.2020
3581 Clouds 12 1019 67 0 1.18 333 01:19 08.05.2020
3582 Clouds 12 1019 67 0 1.18 333 00:46 08.05.2020
3583 Clouds 14 1018 62 0 1.68 337 00:24 08.05.2020
3584 Clouds 14 1018 62 0 1.68 337 23:46 07.05.2020
3585 Clouds 18 1031 45 10000 2.1 0 23:24 07.05.2020
3586 Clouds 18 1031 45 10000 2.1 0 22:59 07.05.2020
3587 Clouds 18 1031 45 10000 2.1 0 22:41 07.05.2020
3588 Clouds 18 1031 45 10000 2.1 0 22:20 07.05.2020
3589 Clouds 18 1031 45 10000 2.1 0 22:20 07.05.2020
3590 Clouds 19 1031 37 10000 1 50 21:56 07.05.2020
3591 Clouds 19 1032 37 10000 1.5 0 21:37 07.05.2020
3592 Clouds 19 1032 37 10000 1.5 0 21:37 07.05.2020
3593 Clouds 19 1032 37 10000 1.5 0 21:19 07.05.2020
3594 Clouds 19 1033 37 10000 1.5 0 20:55 07.05.2020
3595 Clouds 16 1034 48 10000 1.5 0 20:36 07.05.2020
3596 Clouds 16 1034 48 10000 1.5 0 20:18 07.05.2020
3597 Clouds 15 1035 51 10000 0.5 120 19:43 07.05.2020
3598 Clouds 15 1035 51 10000 0.5 120 19:21 07.05.2020
3599 Clouds 14 1036 58 10000 0.5 0 18:46 07.05.2020
3600 Clouds 14 1036 58 10000 0.5 0 18:28 07.05.2020
3601 Clouds 13 1036 62 10000 0.5 0 17:57 07.05.2020
3602 Clouds 13 1036 66 10000 1 0 17:37 07.05.2020
3603 Clouds 13 1036 66 10000 1 0 17:19 07.05.2020
3604 Clouds 12 1037 66 10000 0.5 0 16:41 07.05.2020
3605 Clouds 12 1037 66 10000 0.5 0 16:19 07.05.2020
3606 Clouds 11 1036 71 10000 1 290 15:57 07.05.2020
3607 Clouds 10 1036 76 10000 0.5 0 15:37 07.05.2020
3608 Clouds 10 1036 76 10000 0.5 0 15:18 07.05.2020
3609 Clouds 10 1036 76 10000 0.5 0 15:18 07.05.2020
3610 Clouds 9 1035 81 10000 1 90 14:45 07.05.2020
3611 Clouds 10 1023 72 0 0.79 277 14:22 07.05.2020
3612 Clouds 10 1023 72 0 0.79 277 13:57 07.05.2020
3613 Clouds 10 1023 72 0 0.79 277 13:39 07.05.2020
3614 Clouds 9 1023 74 0 0.74 211 13:20 07.05.2020
3615 Clouds 9 1023 74 0 0.74 211 13:20 07.05.2020
3616 Clouds 9 1023 74 0 0.74 211 12:40 07.05.2020
3617 Clouds 9 1022 75 0 0.75 242 12:20 07.05.2020
3618 Clouds 9 1022 75 0 0.75 242 11:39 07.05.2020
3619 Clouds 9 1022 75 0 0.7 215 11:21 07.05.2020
3620 Clouds 9 1022 75 0 0.7 215 10:55 07.05.2020
3621 Clouds 9 1022 75 0 0.7 215 10:37 07.05.2020
3622 Clouds 8 1022 75 0 0.15 204 10:18 07.05.2020
3623 Clouds 8 1022 75 0 0.15 204 09:39 07.05.2020
3624 Clouds 8 1022 76 0 0.41 66 09:19 07.05.2020
3625 Clouds 8 1022 76 0 0.41 66 08:45 07.05.2020
3626 Clouds 8 1023 76 0 0.65 9 08:24 07.05.2020
3627 Clouds 8 1023 76 0 0.65 9 07:59 07.05.2020
3628 Clouds 8 1023 76 0 0.65 9 07:40 07.05.2020
3629 Clouds 9 1023 75 0 1.28 5 07:20 07.05.2020
3630 Clouds 9 1023 75 0 1.28 5 06:37 07.05.2020
3631 Clouds 9 1023 75 0 1.34 14 06:19 07.05.2020
3632 Clouds 9 1023 74 0 1.45 13 04:41 07.05.2020
3633 Rain 10 1022 73 0 1.89 14 03:40 07.05.2020
3634 Rain 10 1021 72 0 2.39 12 03:18 07.05.2020
3635 Rain 10 1021 72 0 2.39 12 02:35 07.05.2020
3636 Rain 11 1019 70 0 2.78 16 01:38 07.05.2020
3637 Rain 12 1017 67 0 2.59 14 01:20 07.05.2020
3638 Rain 12 1017 67 0 2.59 14 00:43 07.05.2020
3639 Rain 14 1015 60 0 2.81 1 00:22 07.05.2020
3640 Rain 14 1015 60 0 2.81 1 23:45 06.05.2020
3641 Rain 16 1029 48 10000 5.1 10 23:23 06.05.2020
3642 Rain 16 1029 48 10000 5.1 10 22:56 06.05.2020
3643 Rain 16 1029 48 10000 5.1 10 22:38 06.05.2020
3644 Rain 16 1029 48 10000 5.1 10 22:19 06.05.2020
3645 Rain 18 1029 42 10000 5.1 10 21:55 06.05.2020
3646 Clouds 21 1030 28 10000 1.5 270 21:37 06.05.2020
3647 Clouds 20 1030 28 10000 1 40 21:18 06.05.2020
3648 Clouds 20 1031 28 10000 1.5 100 20:42 06.05.2020
3649 Clouds 20 1031 28 10000 1.5 100 20:22 06.05.2020
3650 Clouds 20 1032 37 10000 1.5 360 19:57 06.05.2020
3651 Clouds 19 1033 39 10000 1.5 80 19:38 06.05.2020
3652 Clouds 19 1033 39 10000 1.5 80 19:19 06.05.2020
3653 Clouds 19 1033 45 10000 1.5 310 18:58 06.05.2020
3654 Clouds 18 1034 39 10000 1.5 60 18:38 06.05.2020
3655 Clouds 18 1034 39 10000 1.5 60 18:20 06.05.2020
3656 Clouds 17 1034 48 10000 1.5 270 17:55 06.05.2020
3657 Clouds 15 1035 54 10000 1.5 70 17:37 06.05.2020
3658 Clouds 15 1035 54 10000 1.5 70 17:18 06.05.2020
3659 Clouds 15 1035 58 10000 1 160 16:58 06.05.2020
3660 Clouds 13 1035 62 10000 1 100 16:40 06.05.2020
3661 Clouds 13 1035 62 10000 1 100 16:20 06.05.2020
3662 Clouds 12 1035 66 10000 2.6 90 15:57 06.05.2020
3663 Clouds 11 1035 76 10000 1.5 100 15:39 06.05.2020
3664 Clouds 9 1035 81 10000 2.1 90 15:19 06.05.2020
3665 Clouds 8 1034 87 10000 2.1 120 14:41 06.05.2020
3666 Clouds 8 1034 87 10000 2.1 120 14:19 06.05.2020
3667 Clouds 9 1022 68 0 0.27 72 13:59 06.05.2020
3668 Clouds 9 1022 68 0 0.27 72 13:39 06.05.2020
3669 Clouds 7 1021 74 0 0.32 243 13:20 06.05.2020
3670 Clouds 7 1021 74 0 0.32 243 12:44 06.05.2020
3671 Clouds 7 1020 74 0 0.19 225 12:26 06.05.2020
3672 Clouds 7 1020 74 0 0.19 225 11:59 06.05.2020
3673 Clouds 7 1020 74 0 0.19 225 11:39 06.05.2020
3674 Clouds 8 1020 73 0 0.1 303 11:21 06.05.2020
3675 Clouds 8 1020 73 0 0.1 303 10:56 06.05.2020
3676 Clouds 8 1020 73 0 0.1 303 10:37 06.05.2020
3677 Clouds 8 1020 73 0 0.28 3 10:18 06.05.2020
3678 Clouds 8 1020 73 0 0.28 3 09:40 06.05.2020
3679 Clouds 8 1020 72 0 0.93 24 09:21 06.05.2020
3680 Clouds 8 1020 72 0 0.93 24 08:45 06.05.2020
3681 Clouds 9 1020 72 0 1.14 17 08:22 06.05.2020
3682 Clouds 9 1020 72 0 1.14 17 07:58 06.05.2020
3683 Clouds 9 1020 72 0 1.14 17 07:39 06.05.2020
3684 Clouds 9 1021 73 0 1.31 5 07:20 06.05.2020
3685 Clouds 9 1021 73 0 1.31 5 06:49 06.05.2020
3686 Rain 10 1020 73 0 1.64 1 06:21 06.05.2020
3687 Rain 10 1020 73 0 1.64 1 05:51 06.05.2020
3688 Rain 10 1020 73 0 1.64 1 05:32 06.05.2020
3689 Rain 10 1019 72 0 2.08 354 04:22 06.05.2020
3690 Rain 10 1019 72 0 2.08 354 03:36 06.05.2020
3691 Rain 11 1018 69 0 2.13 347 02:58 06.05.2020
3692 Rain 13 1016 64 0 1.79 332 02:29 06.05.2020
3693 Rain 13 1016 64 0 1.79 332 01:53 06.05.2020
3694 Rain 13 1014 64 0 1.43 330 01:28 06.05.2020
3695 Rain 11 1028 62 10000 3.6 110 00:46 06.05.2020
3696 Rain 11 1028 62 10000 3.6 110 00:23 06.05.2020
3697 Rain 18 1027 45 10000 3.1 170 23:43 05.05.2020
3698 Rain 18 1027 45 10000 3.1 170 23:21 05.05.2020
3699 Clouds 18 1027 45 10000 3.1 110 22:59 05.05.2020
3700 Clouds 19 1027 37 10000 3.1 70 22:40 05.05.2020
3701 Clouds 20 1027 32 10000 2.1 360 22:19 05.05.2020
3702 Clouds 20 1027 32 10000 2.1 360 21:56 05.05.2020
3703 Clouds 20 1028 32 10000 1.5 350 21:38 05.05.2020
3704 Clouds 22 1028 28 10000 2.6 260 21:19 05.05.2020
3705 Clouds 22 1028 28 10000 2.6 260 20:56 05.05.2020
3706 Clouds 22 1029 26 10000 2.1 0 20:37 05.05.2020
3707 Clouds 21 1029 28 10000 2.6 200 20:18 05.05.2020
3708 Clouds 20 1030 30 10000 1.5 0 19:41 05.05.2020
3709 Clouds 20 1030 30 10000 1.5 0 19:23 05.05.2020
3710 Clouds 19 1031 34 10000 2.6 110 18:57 05.05.2020
3711 Clouds 18 1032 34 10000 2.1 0 18:39 05.05.2020
3712 Clouds 18 1032 34 10000 2.1 0 18:20 05.05.2020
3713 Clouds 19 1033 32 10000 0.5 0 17:57 05.05.2020
3714 Clouds 19 1033 32 10000 0.5 0 17:57 05.05.2020
3715 Clouds 17 1033 36 10000 1.5 0 17:38 05.05.2020
3716 Clouds 17 1034 33 10000 1 360 17:20 05.05.2020
3717 Clouds 15 1034 44 10000 1 80 16:40 05.05.2020
3718 Clouds 15 1034 44 10000 1 80 16:21 05.05.2020
3719 Clouds 14 1034 50 10000 1.5 0 15:59 05.05.2020
3720 Clouds 13 1034 54 10000 0.5 0 15:39 05.05.2020
3721 Clouds 13 1034 54 10000 0.5 0 15:39 05.05.2020
3722 Clouds 13 1034 54 10000 0.5 0 15:21 05.05.2020
3723 Clouds 12 1034 58 10000 0.5 0 14:55 05.05.2020
3724 Clouds 8 1033 75 10000 0.5 0 14:37 05.05.2020
3725 Clouds 8 1033 75 10000 0.5 0 14:19 05.05.2020
3726 Clouds 10 1020 63 0 0.42 188 13:56 05.05.2020
3727 Clouds 10 1020 63 0 0.42 188 13:38 05.05.2020
3728 Clouds 9 1019 70 0 0.74 107 13:18 05.05.2020
3729 Clouds 9 1019 70 0 0.74 107 12:55 05.05.2020
3730 Clouds 9 1019 27 0 0.74 107 12:37 05.05.2020
3731 Clouds 9 1018 27 0 0.79 91 12:19 05.05.2020
3732 Clouds 9 1018 27 0 0.79 91 11:41 05.05.2020
3733 Clouds 9 1018 27 0 0.51 66 11:20 05.05.2020
3734 Clouds 9 1018 27 0 0.51 66 10:56 05.05.2020
3735 Clouds 9 1018 27 0 0.51 66 10:37 05.05.2020
3736 Clouds 10 1018 27 0 0.48 66 10:18 05.05.2020
3737 Clouds 10 1018 27 0 0.48 66 09:44 05.05.2020
3738 Clouds 9 1019 27 0 0.92 12 09:26 05.05.2020
3739 Clouds 9 1019 27 0 0.92 12 08:59 05.05.2020
3740 Clouds 9 1019 27 0 0.92 12 08:59 05.05.2020
3741 Clouds 9 1019 27 0 0.92 12 08:39 05.05.2020
3742 Clouds 10 1019 28 0 1.47 0 08:18 05.05.2020
3743 Clouds 10 1019 28 0 1.47 0 08:18 05.05.2020
3744 Clouds 10 1019 28 0 1.47 0 07:44 05.05.2020
3745 Rain 10 1019 28 0 1.52 4 07:22 05.05.2020
3746 Rain 10 1019 28 0 1.52 4 06:58 05.05.2020
3747 Rain 10 1019 28 0 1.52 4 06:58 05.05.2020
3748 Rain 10 1019 28 0 1.52 4 06:39 05.05.2020
3749 Clouds 9 1020 28 0 1.61 40 05:56 05.05.2020
3750 Rain 9 1020 29 0 2.99 83 05:25 05.05.2020
3751 Rain 11 1018 28 0 3.29 92 02:41 05.05.2020
3752 Rain 13 1016 24 0 1.47 12 01:19 05.05.2020
3753 Rain 13 1016 24 0 1.47 12 00:47 05.05.2020
3754 Rain 15 1014 21 0 1.17 357 23:55 04.05.2020
3755 Clouds 17 1029 45 10000 3.1 360 23:36 04.05.2020
3756 Clouds 17 1029 45 10000 3.1 360 23:18 04.05.2020
3757 Clouds 17 1029 45 10000 3.1 360 23:18 04.05.2020
3758 Clouds 17 1029 45 10000 3.1 360 22:54 04.05.2020
3759 Clouds 17 1029 45 10000 3.1 360 22:36 04.05.2020
3760 Clouds 17 1030 45 10000 1 0 22:18 04.05.2020
3761 Clouds 17 1030 45 10000 1 0 22:18 04.05.2020
3762 Clouds 16 1030 48 10000 0.5 70 21:41 04.05.2020
3763 Clouds 16 1030 48 10000 0.5 70 21:41 04.05.2020
3764 Clouds 16 1030 48 10000 0.5 70 21:20 04.05.2020
3765 Clouds 16 1030 48 10000 0.5 70 21:20 04.05.2020
3766 Clouds 16 1031 41 10000 1 60 20:41 04.05.2020
3767 Clouds 16 1031 41 10000 1 60 20:21 04.05.2020
3768 Clouds 15 1032 47 10000 1.5 100 19:58 04.05.2020
3769 Clouds 15 1033 47 10000 0.5 310 19:40 04.05.2020
3770 Clouds 15 1033 54 10000 0.5 250 19:18 04.05.2020
3771 Clouds 12 1034 62 10000 1.5 150 18:39 04.05.2020
3772 Clouds 12 1034 62 10000 1.5 150 18:20 04.05.2020
3773 Clouds 12 1035 62 10000 1.5 0 17:57 04.05.2020
3774 Clouds 10 1035 71 10000 1.5 40 17:39 04.05.2020
3775 Clouds 10 1035 71 10000 1.5 40 17:21 04.05.2020
3776 Clouds 10 1036 71 10000 1 0 16:58 04.05.2020
3777 Clouds 8 1036 75 10000 1 0 16:40 04.05.2020
3778 Clouds 8 1036 75 10000 1 0 16:19 04.05.2020
3779 Clouds 7 1036 75 10000 1 110 15:42 04.05.2020
3780 Clouds 7 1036 75 10000 1 110 15:22 04.05.2020
3781 Clouds 7 1036 81 10000 0.5 360 14:54 04.05.2020
3782 Clouds 7 1036 81 10000 0.5 360 14:54 04.05.2020
3783 Clouds 7 1036 81 10000 0.5 360 14:54 04.05.2020
3784 Clouds 7 1036 81 10000 0.5 360 14:54 04.05.2020
3785 Clouds 7 1036 75 10000 0.5 210 14:26 04.05.2020
3786 Rain 8 1022 29 0 1.4 319 13:31 04.05.2020
3787 Rain 8 1022 29 0 1.4 319 13:31 04.05.2020
3788 Rain 8 1022 29 0 1.4 319 13:31 04.05.2020
3789 Rain 8 1022 29 0 1.4 319 13:31 04.05.2020
3790 Rain 8 1022 29 0 1.4 319 13:31 04.05.2020
3791 Rain 7 1021 30 0 1.75 220 12:44 04.05.2020
3792 Rain 7 1021 30 0 1.75 220 12:44 04.05.2020
3793 Rain 7 1021 30 0 1.75 220 12:44 04.05.2020
3794 Rain 7 1021 30 0 1.75 220 12:44 04.05.2020
3795 Rain 7 1021 30 0 1.75 220 12:44 04.05.2020
3796 Rain 9 1020 31 0 2.75 183 11:28 04.05.2020
3797 Rain 9 1020 31 0 2.75 183 11:28 04.05.2020
3798 Rain 9 1020 31 0 2.75 183 11:28 04.05.2020
3799 Rain 9 1020 31 0 2.75 183 11:28 04.05.2020
3800 Rain 9 1020 30 0 2.09 112 09:31 04.05.2020
3801 Rain 10 1020 30 0 1.95 132 07:54 04.05.2020
3802 Rain 10 1020 30 0 1.95 132 07:35 04.05.2020
3803 Rain 11 1021 29 0 0.99 158 05:55 04.05.2020
3804 Rain 11 1020 29 0 0.81 80 04:52 04.05.2020
3805 Rain 11 1019 29 0 2.22 37 02:57 04.05.2020
3806 Rain 11 1018 27 0 2.42 15 02:19 04.05.2020
3807 Rain 15 1015 23 0 2.57 1 00:23 04.05.2020
3808 Rain 15 1015 23 0 2.57 1 00:23 04.05.2020
3809 Rain 15 1015 23 0 2.57 1 00:23 04.05.2020
3810 Rain 15 1015 23 0 2.57 1 23:44 03.05.2020
3811 Clouds 17 1031 45 10000 2.47 349 23:24 03.05.2020
3812 Clouds 17 1031 45 10000 2.47 349 22:44 03.05.2020
3813 Clouds 17 1031 45 10000 2.47 349 22:44 03.05.2020
3814 Clouds 17 1031 45 10000 2.09 342 22:25 03.05.2020
3815 Clouds 17 1031 48 10000 2.1 290 21:56 03.05.2020
3816 Clouds 15 1032 54 10000 3.1 30 21:38 03.05.2020
3817 Clouds 15 1032 54 10000 3.1 30 21:20 03.05.2020
3818 Rain 14 1033 62 10000 4.1 290 20:43 03.05.2020
3819 Rain 14 1033 62 10000 4.1 290 20:43 03.05.2020
3820 Rain 14 1033 62 10000 4.1 290 20:21 03.05.2020
3821 Rain 15 1034 58 10000 1 0 19:50 03.05.2020
3822 Rain 15 1034 58 10000 1 0 19:31 03.05.2020
3823 Clouds 14 1035 67 10000 2.6 330 18:58 03.05.2020
3824 Rain 14 1035 58 10000 1.5 0 18:38 03.05.2020
3825 Rain 14 1035 58 10000 1.5 0 18:38 03.05.2020
3826 Rain 14 1035 58 10000 1.5 0 18:38 03.05.2020
3827 Rain 14 1035 58 10000 1.5 0 18:38 03.05.2020
3828 Rain 14 1035 58 10000 1.5 0 18:38 03.05.2020
3829 Rain 14 1035 58 10000 1.5 0 18:19 03.05.2020
3830 Clouds 14 1035 58 10000 0.5 254 17:41 03.05.2020
3831 Clouds 14 1035 58 10000 0.64 242 17:21 03.05.2020
3832 Clouds 12 1036 71 10000 1.5 80 16:46 03.05.2020
3833 Clouds 12 1036 71 10000 1.5 80 16:21 03.05.2020
3834 Clouds 12 1036 71 10000 1.5 80 15:59 03.05.2020
3835 Clouds 11 1036 76 10000 1 90 15:40 03.05.2020
3836 Clouds 11 1036 76 10000 1 90 15:20 03.05.2020
3837 Clouds 10 1036 81 10000 1.5 90 14:58 03.05.2020
3838 Rain 10 1035 81 10000 1 140 14:40 03.05.2020
3839 Rain 10 1035 81 10000 1 140 14:40 03.05.2020
3840 Rain 10 1035 81 10000 1 140 14:21 03.05.2020
3841 Clouds 10 1024 28 0 0.84 309 13:55 03.05.2020
3842 Clouds 10 1018 96 0 0.94 306 13:22 03.05.2020
3843 Clouds 10 1018 96 0 0.94 306 13:22 03.05.2020
3844 Clouds 10 1018 96 0 0.94 306 13:22 03.05.2020
3845 Clouds 10 1018 96 0 0.94 306 12:45 03.05.2020
3846 Clouds 9 1022 29 0 1.01 314 12:18 03.05.2020
3847 Clouds 9 1022 29 0 1.01 314 11:56 03.05.2020
3848 Clouds 9 1022 29 0 1.01 314 11:37 03.05.2020
3849 Clouds 9 1022 29 0 0.82 297 11:19 03.05.2020
3850 Clouds 9 1022 29 0 0.82 297 11:19 03.05.2020
3851 Clouds 9 1022 29 0 0.82 297 10:47 03.05.2020
3852 Clouds 9 1022 29 0 0.82 297 10:47 03.05.2020
3853 Clouds 9 1022 29 0 0.82 297 10:47 03.05.2020
3854 Clouds 9 1022 29 0 0.82 297 10:47 03.05.2020
3855 Clouds 9 1022 29 0 0.71 250 09:58 03.05.2020
3856 Clouds 9 1022 29 0 0.71 250 09:38 03.05.2020
3857 Rain 10 1022 29 0 1.66 328 08:56 03.05.2020
3858 Rain 10 1022 29 0 1.29 322 08:27 03.05.2020
3859 Rain 10 1022 29 0 1.29 322 07:40 03.05.2020
3860 Clouds 10 1023 29 0 1.05 336 06:29 03.05.2020
3861 Clouds 10 1023 29 0 1.05 336 06:29 03.05.2020
3862 Clouds 10 1023 29 0 1.05 336 06:29 03.05.2020
3863 Clouds 10 1023 29 0 1.05 336 06:29 03.05.2020
3864 Clouds 10 1023 29 0 1.05 336 06:29 03.05.2020
3865 Clouds 10 1023 29 0 1.4 14 05:49 03.05.2020
3866 Clouds 10 1023 29 0 1.4 14 05:49 03.05.2020
3867 Clouds 10 1024 29 0 1.8 22 05:28 03.05.2020
3868 Clouds 10 1024 29 0 1.8 22 05:28 03.05.2020
3869 Clouds 10 1024 29 0 1.8 22 05:28 03.05.2020
3870 Clouds 10 1023 29 0 1.97 28 04:27 03.05.2020
3871 Rain 10 1022 29 0 2.06 21 03:25 03.05.2020
3872 Rain 10 1022 29 0 2.06 21 03:25 03.05.2020
3873 Rain 11 1020 28 0 1.59 29 02:25 03.05.2020
3874 Rain 11 1020 28 0 1.59 29 01:46 03.05.2020
3875 Rain 11 1019 28 0 1.68 355 01:27 03.05.2020
3876 Rain 11 1019 28 0 1.68 355 00:56 03.05.2020
3877 Rain 11 1019 28 0 1.68 355 00:38 03.05.2020
3878 Rain 12 1017 28 0 3.07 330 00:19 03.05.2020
3879 Rain 12 1017 28 0 3.07 330 00:19 03.05.2020
3880 Rain 12 1017 28 0 3.07 330 23:43 02.05.2020
3881 Clouds 19 1032 42 10000 2.1 0 23:25 02.05.2020
3882 Clouds 19 1032 42 10000 2.1 0 22:44 02.05.2020
3883 Clouds 19 1032 42 10000 2.1 0 22:24 02.05.2020
3884 Clouds 18 1032 42 10000 2.1 0 21:57 02.05.2020
3885 Clouds 17 1034 45 10000 0.5 270 21:39 02.05.2020
3886 Clouds 17 1034 45 10000 0.5 270 21:19 02.05.2020
3887 Clouds 16 1034 55 10000 1.5 0 20:57 02.05.2020
3888 Clouds 15 1035 58 10000 1 0 20:37 02.05.2020
3889 Clouds 15 1036 54 10000 1 240 20:19 02.05.2020
3890 Clouds 15 1036 54 10000 1 240 19:57 02.05.2020
3891 Rain 14 1037 62 10000 1 0 19:38 02.05.2020
3892 Rain 14 1037 62 10000 1 0 19:38 02.05.2020
3893 Rain 14 1037 67 10000 0.5 120 19:19 02.05.2020
3894 Rain 14 1037 67 10000 0.5 120 18:55 02.05.2020
3895 Rain 14 1037 67 10000 0.5 120 18:55 02.05.2020
3896 Rain 12 1038 76 10000 1.5 100 18:36 02.05.2020
3897 Rain 12 1038 76 8000 0.77 227 18:18 02.05.2020
3898 Rain 11 1038 76 10000 1.5 80 17:39 02.05.2020
3899 Rain 11 1038 76 10000 1.5 80 17:20 02.05.2020
3900 Rain 11 1038 76 8000 1.5 110 16:59 02.05.2020
3901 Rain 11 1038 71 10000 0.63 195 16:40 02.05.2020
3902 Rain 11 1038 71 10000 0.27 114 16:22 02.05.2020
3903 Drizzle 12 1037 66 10000 0.27 114 15:43 02.05.2020
3904 Drizzle 11 1037 66 10000 0.52 129 15:20 02.05.2020
3905 Drizzle 10 1037 71 10000 0.5 110 14:58 02.05.2020
3906 Clouds 11 1024 25 0 0.52 129 14:40 02.05.2020
3907 Clouds 7 1022 97 0 0.53 104 14:21 02.05.2020
3908 Clouds 4 1022 96 0 0.53 104 13:40 02.05.2020
3909 Clouds 4 1022 96 0 0.42 64 13:22 02.05.2020
3910 Clouds 4 1022 95 0 0.42 64 12:55 02.05.2020
3911 Clouds 4 1021 95 0 0.42 64 12:37 02.05.2020
3912 Clouds 4 1021 95 0 0.47 31 12:18 02.05.2020
3913 Clouds 4 1021 95 0 0.47 31 11:41 02.05.2020
3914 Clouds 4 1020 95 0 0.56 19 11:22 02.05.2020
3915 Clouds 7 1023 28 0 0.56 19 10:59 02.05.2020
3916 Clouds 5 1020 95 0 0.56 19 10:39 02.05.2020
3917 Clouds 5 1019 95 0 0.59 11 10:21 02.05.2020
3918 Clouds 5 1019 95 0 0.59 11 09:57 02.05.2020
3919 Clouds 5 1019 95 0 0.59 11 09:38 02.05.2020
3920 Clouds 6 1019 94 0 0.83 25 09:20 02.05.2020
3921 Clouds 6 1019 94 0 0.83 25 09:20 02.05.2020
3922 Clouds 6 1019 94 0 0.83 25 08:50 02.05.2020
3923 Clouds 6 1020 94 0 0.83 25 08:30 02.05.2020
3924 Clouds 6 1020 94 0 0.89 27 07:49 02.05.2020
3925 Clouds 6 1020 94 0 1.18 28 07:29 02.05.2020
3926 Clouds 9 1024 28 0 1.18 28 06:53 02.05.2020
3927 Clouds 9 1024 28 0 1.58 29 06:18 02.05.2020
3928 Clouds 9 1024 28 0 1.79 29 05:27 02.05.2020
3929 Clouds 10 1024 27 0 1.97 31 04:25 02.05.2020
3930 Clouds 10 1024 27 0 1.97 31 03:34 02.05.2020
3931 Clouds 10 1022 27 0 2.13 33 02:37 02.05.2020
3932 Rain 12 1021 26 0 2.2 37 01:51 02.05.2020
3933 Rain 13 1019 26 0 2.45 30 00:58 02.05.2020
3934 Rain 13 1019 26 0 2.45 30 00:36 02.05.2020
3935 Rain 14 1017 24 0 2.85 20 00:18 02.05.2020
3936 Rain 14 1017 24 0 2.85 20 23:39 01.05.2020
3937 Clouds 21 1031 28 10000 4.1 290 23:20 01.05.2020
3938 Clouds 21 1031 28 10000 4.1 290 22:56 01.05.2020
3939 Clouds 21 1031 28 10000 4.1 290 22:37 01.05.2020
3940 Clouds 21 1031 30 10000 1 120 22:18 01.05.2020
3941 Clouds 21 1031 30 10000 1 120 22:18 01.05.2020
3942 Clouds 21 1031 30 10000 1 120 21:56 01.05.2020
3943 Clouds 22 1032 28 10000 3.6 110 21:38 01.05.2020
3944 Clouds 23 1032 25 10000 2.1 340 21:18 01.05.2020
3945 Clouds 23 1032 25 10000 2.1 340 20:56 01.05.2020
3946 Clouds 19 1034 32 10000 2.1 260 20:37 01.05.2020
3947 Clouds 21 1034 30 10000 2.6 300 20:18 01.05.2020
3948 Clouds 18 1035 36 10000 1.5 70 19:42 01.05.2020
3949 Clouds 18 1035 36 10000 1.5 70 19:42 01.05.2020
3950 Clouds 18 1035 36 10000 1.5 70 19:22 01.05.2020
3951 Clouds 19 1036 37 10000 2.1 80 18:58 01.05.2020
3952 Clouds 18 1036 39 10000 1.5 30 18:39 01.05.2020
3953 Clouds 18 1036 39 10000 1.5 30 18:20 01.05.2020
3954 Clouds 16 1037 48 10000 1 10 17:57 01.05.2020
3955 Clouds 16 1037 44 10000 1 300 17:38 01.05.2020
3956 Clouds 16 1037 44 10000 1 300 17:20 01.05.2020
3957 Clouds 15 1038 47 10000 1 340 16:55 01.05.2020
3958 Clouds 14 1038 50 10000 1.5 20 16:37 01.05.2020
3959 Clouds 14 1038 50 10000 1 60 16:18 01.05.2020
3960 Clouds 12 1037 62 10000 1.5 110 15:42 01.05.2020
3961 Clouds 12 1037 62 10000 1.5 110 15:24 01.05.2020
3962 Clouds 12 1037 62 10000 2.1 90 14:58 01.05.2020
3963 Clouds 11 1037 66 10000 2.1 110 14:39 01.05.2020
3964 Clouds 11 1037 66 10000 2.1 110 14:21 01.05.2020
3965 Clouds 9 1025 29 0 0.4 234 13:41 01.05.2020
3966 Clouds 7 1024 30 0 0.48 175 13:22 01.05.2020
3967 Clouds 7 1024 30 0 0.48 175 12:58 01.05.2020
3968 Clouds 7 1024 30 0 0.48 175 12:39 01.05.2020
3969 Clouds 7 1023 30 0 0.63 169 12:19 01.05.2020
3970 Clouds 7 1023 30 0 0.63 169 11:57 01.05.2020
3971 Clouds 7 1023 30 0 0.63 169 11:39 01.05.2020
3972 Clouds 7 1023 29 0 0.64 131 11:19 01.05.2020
3973 Clouds 7 1023 29 0 0.64 131 10:40 01.05.2020
3974 Clouds 8 1023 29 0 0.6 74 10:20 01.05.2020
3975 Clouds 8 1023 29 0 0.6 74 09:54 01.05.2020
3976 Clouds 8 1023 29 0 0.6 74 09:36 01.05.2020
3977 Clouds 8 1022 30 0 1.17 39 09:18 01.05.2020
3978 Clouds 8 1022 30 0 1.17 39 08:42 01.05.2020
3979 Clouds 8 1022 29 0 1.32 34 08:24 01.05.2020
3980 Clouds 8 1022 29 0 1.32 34 07:46 01.05.2020
3981 Clouds 9 1023 29 0 1.57 25 07:23 01.05.2020
3982 Clouds 9 1023 29 0 1.57 25 06:56 01.05.2020
3983 Rain 9 1023 29 0 1.94 23 05:39 01.05.2020
3984 Rain 10 1023 29 0 2.2 21 05:19 01.05.2020
3985 Rain 10 1023 29 0 2.15 20 03:41 01.05.2020
3986 Rain 11 1021 28 0 1.83 19 02:48 01.05.2020
3987 Rain 11 1021 28 0 2.13 27 02:30 01.05.2020
3988 Rain 12 1020 28 0 1.91 32 01:37 01.05.2020
3989 Rain 13 1018 26 0 1.66 9 01:18 01.05.2020
3990 Rain 13 1018 26 0 1.66 9 00:38 01.05.2020
3991 Rain 15 1016 23 0 2.09 339 00:20 01.05.2020
3992 Rain 15 1016 23 0 2.09 339 23:57 30.04.2020
3993 Clouds 21 1030 26 10000 2.1 0 23:38 30.04.2020
3994 Clouds 17 1030 26 10000 2.1 0 23:19 30.04.2020
3995 Clouds 16 1030 26 10000 2.1 0 22:42 30.04.2020
3996 Clouds 17 1030 26 10000 2.1 0 22:21 30.04.2020
3997 Clouds 17 1030 26 10000 1.5 0 21:58 30.04.2020
3998 Clouds 17 1031 26 10000 1 360 21:40 30.04.2020
3999 Clouds 17 1031 26 10000 1 360 21:21 30.04.2020
4000 Clouds 17 1032 26 10000 2.6 310 20:56 30.04.2020
4001 Clouds 16 1033 32 10000 1.5 0 20:38 30.04.2020
4002 Clouds 17 1034 30 10000 2.1 10 20:18 30.04.2020
4003 Clouds 17 1035 28 10000 1 0 19:45 30.04.2020
4004 Clouds 17 1035 28 10000 1 0 19:25 30.04.2020
4005 Clouds 17 1035 30 10000 0.5 30 18:57 30.04.2020
4006 Clouds 16 1036 36 10000 1.5 360 18:39 30.04.2020
4007 Clouds 16 1037 39 10000 1.5 320 18:20 30.04.2020
4008 Clouds 15 1037 39 10000 1.5 320 17:57 30.04.2020
4009 Clouds 15 1037 39 10000 1.5 320 17:57 30.04.2020
4010 Clouds 15 1037 42 10000 2.1 0 17:39 30.04.2020
4011 Clouds 14 1037 51 10000 1.5 50 17:20 30.04.2020
4012 Clouds 14 1037 51 10000 1.5 50 16:55 30.04.2020
4013 Clouds 12 1037 58 10000 1.5 80 16:37 30.04.2020
4014 Clouds 11 1037 62 10000 1 0 16:18 30.04.2020
4015 Clouds 11 1037 66 10000 0.5 0 15:44 30.04.2020
4016 Clouds 11 1037 66 10000 0.5 0 15:23 30.04.2020
4017 Clouds 11 1037 66 10000 0.5 0 15:23 30.04.2020
4018 Clouds 8 1036 75 10000 1 100 14:43 30.04.2020
4019 Clouds 8 1036 75 10000 1 100 14:22 30.04.2020
4020 Clouds 9 1023 28 0 0.52 63 13:59 30.04.2020
4021 Clouds 9 1023 28 0 0.52 63 13:41 30.04.2020
4022 Clouds 7 1023 29 0 0.59 98 13:23 30.04.2020
4023 Clouds 7 1023 29 0 0.59 98 12:59 30.04.2020
4024 Clouds 7 1023 29 0 0.59 98 12:41 30.04.2020
4025 Clouds 7 1022 29 0 0.5 111 12:19 30.04.2020
4026 Clouds 7 1022 29 0 0.5 111 11:54 30.04.2020
4027 Clouds 7 1022 29 0 0.5 111 11:36 30.04.2020
4028 Clouds 8 1022 29 0 0.56 86 11:18 30.04.2020
4029 Clouds 8 1022 29 0 0.56 86 10:40 30.04.2020
4030 Clouds 8 1022 29 0 0.6 54 10:21 30.04.2020
4031 Clouds 8 1022 29 0 0.6 54 09:57 30.04.2020
4032 Clouds 8 1022 29 0 0.65 71 09:38 30.04.2020
4033 Clouds 8 1022 29 0 0.77 51 09:20 30.04.2020
4034 Clouds 8 1022 29 0 0.77 51 08:46 30.04.2020
4035 Clouds 9 1022 29 0 1.03 32 08:26 30.04.2020
4036 Clouds 9 1022 29 0 1.03 32 07:44 30.04.2020
4037 Clouds 9 1023 29 0 1.34 31 07:26 30.04.2020
4038 Clouds 9 1023 29 0 1.34 31 06:54 30.04.2020
4039 Clouds 9 1023 28 0 1.63 24 06:26 30.04.2020
4040 Clouds 9 1023 28 0 1.63 24 05:46 30.04.2020
4041 Clouds 10 1023 28 0 1.84 20 04:43 30.04.2020
4042 Clouds 10 1022 28 0 2.01 21 04:19 30.04.2020
4043 Clouds 11 1021 27 0 2.25 28 02:48 30.04.2020
4044 Rain 12 1020 27 0 2.34 37 02:26 30.04.2020
4045 Rain 12 1020 27 0 2.34 37 01:37 30.04.2020
4046 Rain 13 1018 26 0 2.61 40 00:42 30.04.2020
4047 Rain 15 1016 24 0 2.56 28 00:20 30.04.2020
4048 Rain 15 1016 24 0 2.56 28 23:58 29.04.2020
4049 Clouds 20 1030 30 10000 4.1 20 23:39 29.04.2020
4050 Clouds 20 1030 30 10000 4.1 20 23:21 29.04.2020
4051 Clouds 20 1030 30 10000 4.1 20 22:54 29.04.2020
4052 Clouds 20 1030 30 10000 4.1 20 22:36 29.04.2020
4053 Clouds 20 1030 30 10000 5.7 10 22:18 29.04.2020
4054 Clouds 21 1030 30 10000 4.6 20 21:37 29.04.2020
4055 Clouds 21 1030 30 10000 4.6 20 21:19 29.04.2020
4056 Clouds 21 1031 26 10000 3.1 90 20:57 29.04.2020
4057 Clouds 20 1031 32 10000 2.1 0 20:38 29.04.2020
4058 Clouds 19 1032 39 10000 2.1 0 20:18 29.04.2020
4059 Clouds 19 1032 39 10000 2.1 0 20:18 29.04.2020
4060 Clouds 21 1033 35 10000 2.1 0 19:43 29.04.2020
4061 Clouds 21 1033 35 10000 2.1 0 19:22 29.04.2020
4062 Clouds 18 1034 45 10000 1.5 0 18:57 29.04.2020
4063 Clouds 16 1034 51 10000 1.5 60 18:38 29.04.2020
4064 Clouds 15 1035 54 10000 2.6 90 18:18 29.04.2020
4065 Clouds 17 1035 51 10000 2.6 80 17:42 29.04.2020
4066 Clouds 15 1035 58 10000 1.5 0 17:21 29.04.2020
4067 Clouds 15 1035 58 10000 1.5 0 16:56 29.04.2020
4068 Clouds 13 1036 62 10000 0.5 0 16:36 29.04.2020
4069 Clouds 12 1036 71 10000 0.5 0 16:18 29.04.2020
4070 Clouds 12 1036 71 10000 0.5 0 15:55 29.04.2020
4071 Clouds 9 1036 81 10000 0.5 0 15:36 29.04.2020
4072 Clouds 9 1036 81 10000 1.5 90 15:18 29.04.2020
4073 Clouds 9 1035 81 10000 1.5 100 14:42 29.04.2020
4074 Clouds 9 1035 81 10000 1.5 100 14:23 29.04.2020
4075 Clouds 9 1022 29 0 0.61 59 13:56 29.04.2020
4076 Clouds 9 1022 29 0 0.61 59 13:38 29.04.2020
4077 Clouds 9 1022 29 0 0.61 59 13:38 29.04.2020
4078 Clouds 7 1021 30 0 0.24 59 13:18 29.04.2020
4079 Clouds 7 1021 30 0 0.24 59 12:41 29.04.2020
4080 Clouds 7 1021 30 0 0.22 351 12:19 29.04.2020
4081 Clouds 7 1021 30 0 0.22 351 12:19 29.04.2020
4082 Clouds 7 1021 30 0 0.22 351 11:58 29.04.2020
4083 Clouds 7 1021 30 0 0.22 351 11:38 29.04.2020
4084 Clouds 8 1020 30 0 0.66 359 11:20 29.04.2020
4085 Clouds 8 1020 30 0 0.66 359 10:39 29.04.2020
4086 Clouds 8 1020 30 0 0.96 2 10:20 29.04.2020
4087 Clouds 8 1020 30 0 0.96 2 09:59 29.04.2020
4088 Clouds 8 1020 30 0 0.96 2 09:40 29.04.2020
4089 Clouds 8 1020 30 0 0.85 351 09:19 29.04.2020
4090 Clouds 8 1020 30 0 0.85 351 08:43 29.04.2020
4091 Clouds 9 1020 30 0 0.76 356 08:25 29.04.2020
4092 Clouds 9 1020 30 0 0.76 356 07:53 29.04.2020
4093 Clouds 9 1020 30 0 0.81 13 07:28 29.04.2020
4094 Clouds 9 1020 30 0 0.81 13 06:52 29.04.2020
4095 Clouds 9 1020 30 0 0.81 13 06:32 29.04.2020
4096 Clouds 9 1020 30 0 1.17 344 05:43 29.04.2020
4097 Clouds 10 1020 29 0 1.25 350 05:19 29.04.2020
4098 Rain 10 1020 29 0 1.53 348 04:20 29.04.2020
4099 Rain 11 1019 28 0 1.84 338 03:28 29.04.2020
4100 Clouds 12 1017 26 0 1.76 323 01:56 29.04.2020
4101 Clouds 13 1016 25 0 1.49 305 01:28 29.04.2020
4102 Clouds 13 1016 25 0 1.49 305 00:56 29.04.2020
4103 Clouds 13 1016 25 0 1.49 305 00:37 29.04.2020
4104 Rain 16 1014 22 0 1.6 294 00:18 29.04.2020
4105 Rain 16 1014 22 0 1.6 294 23:43 28.04.2020
4106 Clouds 20 1029 34 10000 5.1 350 23:20 28.04.2020
4107 Clouds 20 1029 34 10000 5.1 350 22:39 28.04.2020
4108 Clouds 20 1029 34 10000 5.1 350 22:20 28.04.2020
4109 Clouds 21 1029 32 10000 2.1 0 21:59 28.04.2020
4110 Clouds 22 1030 28 10000 1 0 21:40 28.04.2020
4111 Clouds 22 1030 28 10000 1 0 21:40 28.04.2020
4112 Clouds 22 1030 28 10000 1 0 21:22 28.04.2020
4113 Clouds 21 1031 32 10000 2.6 330 20:59 28.04.2020
4114 Clouds 19 1032 34 10000 3.6 80 20:40 28.04.2020
4115 Clouds 19 1032 34 10000 3.6 80 20:40 28.04.2020
4116 Clouds 19 1032 34 10000 3.6 80 20:40 28.04.2020
4117 Clouds 19 1032 34 10000 3.6 80 20:20 28.04.2020
4118 Clouds 20 1032 32 10000 3.1 150 19:56 28.04.2020
4119 Clouds 20 1033 32 10000 3.1 0 19:38 28.04.2020
4120 Clouds 20 1033 32 10000 3.1 0 19:38 28.04.2020
4121 Clouds 20 1033 32 10000 3.1 0 19:19 28.04.2020
4122 Clouds 21 1033 30 10000 2.1 340 18:55 28.04.2020
4123 Clouds 19 1034 37 10000 1.5 170 18:37 28.04.2020
4124 Clouds 18 1035 36 10000 2.1 60 18:18 28.04.2020
4125 Clouds 17 1035 42 10000 0.7 265 17:37 28.04.2020
4126 Clouds 17 1035 42 10000 0.35 244 17:19 28.04.2020
4127 Clouds 17 1035 42 10000 0.35 244 17:19 28.04.2020
4128 Clouds 16 1036 44 10000 1 40 16:57 28.04.2020
4129 Clouds 15 1036 51 10000 1 40 16:38 28.04.2020
4130 Clouds 15 1036 51 10000 1 40 16:20 28.04.2020
4131 Clouds 12 1036 66 10000 2.1 90 15:55 28.04.2020
4132 Clouds 11 1037 71 10000 2.1 120 15:37 28.04.2020
4133 Clouds 11 1037 71 10000 2.1 120 15:19 28.04.2020
4134 Clouds 10 1036 76 10000 1.5 110 14:43 28.04.2020
4135 Clouds 10 1036 76 10000 1.5 110 14:43 28.04.2020
4136 Clouds 10 1036 76 10000 1.5 110 14:22 28.04.2020
4137 Clear 9 1023 27 0 0.76 62 13:59 28.04.2020
4138 Clear 9 1023 27 0 0.76 62 13:59 28.04.2020
4139 Clear 9 1023 27 0 0.76 62 13:40 28.04.2020
4140 Clear 6 1023 29 0 0.5 66 13:22 28.04.2020
4141 Clear 6 1023 29 0 0.5 66 12:58 28.04.2020
4142 Clear 6 1023 29 0 0.5 66 12:39 28.04.2020
4143 Clear 6 1022 29 0 0.25 58 12:21 28.04.2020
4144 Clear 6 1022 29 0 0.25 58 11:42 28.04.2020
4145 Clear 7 1022 29 0 0.27 2 11:21 28.04.2020
4146 Clear 7 1022 29 0 0.27 2 10:57 28.04.2020
4147 Clear 7 1022 29 0 0.27 2 10:38 28.04.2020
4148 Clear 7 1022 29 0 0.27 2 10:38 28.04.2020
4149 Clear 7 1022 29 0 0.61 18 10:18 28.04.2020
4150 Clear 7 1022 29 0 0.61 18 10:18 28.04.2020
4151 Clear 7 1022 29 0 0.61 18 09:43 28.04.2020
4152 Clear 7 1022 29 0 0.65 32 09:24 28.04.2020
4153 Clear 7 1022 29 0 0.65 32 08:54 28.04.2020
4154 Clear 7 1022 29 0 0.65 32 08:36 28.04.2020
4155 Clouds 8 1023 28 0 0.84 13 08:18 28.04.2020
4156 Clouds 8 1023 28 0 0.84 13 07:41 28.04.2020
4157 Clouds 9 1023 28 0 1.33 13 07:18 28.04.2020
4158 Clouds 9 1023 28 0 1.33 13 06:40 28.04.2020
4159 Clouds 9 1023 28 0 1.55 16 05:51 28.04.2020
4160 Clouds 9 1023 28 0 1.55 16 05:33 28.04.2020
4161 Clouds 10 1023 28 0 1.64 26 04:33 28.04.2020
4162 Clouds 10 1023 28 0 1.69 20 04:33 28.04.2020
4163 Clouds 10 1022 27 0 1.69 21 02:38 28.04.2020
4164 Clouds 11 1020 27 0 1.87 30 01:51 28.04.2020
4165 Rain 12 1018 26 0 1.74 19 01:22 28.04.2020
4166 Rain 12 1018 26 0 1.74 19 00:32 28.04.2020
4167 Rain 14 1017 23 0 1.85 11 23:56 27.04.2020
4168 Clouds 20 1031 28 10000 3.6 340 23:38 27.04.2020
4169 Clouds 20 1031 28 10000 3.6 340 23:20 27.04.2020
4170 Clouds 20 1031 28 10000 3.6 340 22:43 27.04.2020
4171 Clouds 20 1031 28 10000 3.6 340 22:23 27.04.2020
4172 Clouds 19 1032 29 10000 4.1 20 21:57 27.04.2020
4173 Clouds 20 1033 28 10000 5.1 10 21:39 27.04.2020
4174 Clouds 20 1033 28 10000 5.1 10 21:39 27.04.2020
4175 Clouds 20 1033 28 10000 5.1 10 21:19 27.04.2020
4176 Clouds 19 1033 32 10000 5.1 20 20:56 27.04.2020
4177 Clouds 19 1034 34 10000 5.1 10 20:38 27.04.2020
4178 Clouds 19 1034 34 10000 5.1 10 20:19 27.04.2020
4179 Clouds 17 1034 36 10000 1.5 80 19:55 27.04.2020
4180 Clouds 18 1035 39 10000 2.1 0 19:36 27.04.2020
4181 Clouds 18 1035 36 10000 2.1 0 19:18 27.04.2020
4182 Clouds 16 1037 44 10000 2.1 0 18:40 27.04.2020
4183 Clouds 16 1037 44 10000 2.1 0 18:20 27.04.2020
4184 Clouds 16 1036 44 10000 1.5 0 17:59 27.04.2020
4185 Clouds 16 1037 48 10000 1.5 40 17:40 27.04.2020
4186 Clouds 16 1037 48 10000 1.5 40 17:19 27.04.2020
4187 Clouds 15 1036 54 10000 2.6 90 16:41 27.04.2020
4188 Clouds 15 1036 54 10000 2.6 90 16:22 27.04.2020
4189 Clouds 11 1036 66 10000 0.5 0 15:58 27.04.2020
4190 Clouds 11 1036 66 10000 0.5 0 15:40 27.04.2020
4191 Clouds 11 1036 66 10000 0.5 0 15:21 27.04.2020
4192 Clouds 11 1036 66 10000 0.5 0 14:58 27.04.2020
4193 Clouds 10 1023 26 0 0.75 40 14:40 27.04.2020
4194 Clouds 10 1023 26 0 0.71 77 14:19 27.04.2020
4195 Clouds 10 1023 26 0 0.71 77 13:57 27.04.2020
4196 Clouds 10 1023 26 0 0.71 77 13:37 27.04.2020
4197 Clouds 10 1023 26 0 0.71 77 13:18 27.04.2020
4198 Clouds 10 1023 26 0 0.71 77 12:43 27.04.2020
4199 Rain 10 1022 28 0 0.66 333 12:21 27.04.2020
4200 Rain 10 1022 28 0 0.66 333 11:43 27.04.2020
4201 Rain 10 1022 28 0 0.66 333 11:22 27.04.2020
4202 Rain 10 1022 28 0 0.66 333 10:59 27.04.2020
4203 Rain 10 1022 28 0 0.66 333 10:41 27.04.2020
4204 Rain 10 1022 28 0 0.66 333 10:23 27.04.2020
4205 Rain 10 1022 28 0 0.66 333 09:56 27.04.2020
4206 Rain 10 1022 28 0 0.66 333 09:36 27.04.2020
4207 Rain 10 1023 28 0 0.8 15 09:18 27.04.2020
4208 Rain 10 1023 28 0 0.8 15 08:46 27.04.2020
4209 Rain 10 1023 28 0 0.8 15 08:27 27.04.2020
4210 Rain 10 1023 28 0 0.8 15 07:45 27.04.2020
4211 Rain 10 1023 28 0 0.8 15 07:23 27.04.2020
4212 Rain 10 1023 28 0 0.8 15 06:58 27.04.2020
4213 Clouds 10 1023 28 0 1.44 40 06:28 27.04.2020
4214 Clouds 10 1023 28 0 1.44 40 05:55 27.04.2020
4215 Clouds 10 1023 28 0 1.44 40 04:59 27.04.2020
4216 Clouds 10 1023 28 0 1.44 40 04:37 27.04.2020
4217 Clouds 10 1023 28 0 1.44 40 03:45 27.04.2020
4218 Rain 11 1020 27 0 2.03 28 01:53 27.04.2020
4219 Rain 11 1020 27 0 2.03 28 01:20 27.04.2020
4220 Rain 15 1016 22 0 3.09 19 00:21 27.04.2020
4221 Rain 15 1016 22 0 3.09 19 00:21 27.04.2020
4222 Rain 15 1016 22 0 3.09 19 23:59 26.04.2020
4223 Rain 15 1016 22 0 3.09 19 23:41 26.04.2020
4224 Clouds 16 1032 55 10000 1 290 23:22 26.04.2020
4225 Clouds 16 1032 55 10000 1 290 22:59 26.04.2020
4226 Clouds 16 1032 55 10000 1 290 22:40 26.04.2020
4227 Clouds 16 1032 55 10000 1 290 22:21 26.04.2020
4228 Clouds 14 1032 67 10000 1 330 21:58 26.04.2020
4229 Rain 13 1032 71 10000 2.6 190 21:39 26.04.2020
4230 Rain 13 1032 71 10000 2.6 190 21:19 26.04.2020
4231 Rain 13 1033 71 10000 3.6 140 21:19 26.04.2020
4232 Rain 13 1033 71 10000 3.6 140 20:55 26.04.2020
4233 Rain 16 1033 51 10000 2.1 60 20:37 26.04.2020
4234 Rain 16 1033 51 10000 2.1 60 20:37 26.04.2020
4235 Rain 16 1033 51 10000 2.1 60 20:19 26.04.2020
4236 Clouds 17 1033 48 10000 1.5 60 19:57 26.04.2020
4237 Clouds 16 1034 55 10000 1.5 260 19:36 26.04.2020
4238 Clouds 15 1034 58 10000 1 270 19:18 26.04.2020
4239 Rain 14 1035 58 10000 2.6 360 18:43 26.04.2020
4240 Rain 14 1035 58 10000 2.6 360 18:24 26.04.2020
4241 Clouds 15 1035 54 10000 1 110 17:44 26.04.2020
4242 Clouds 15 1035 54 10000 1 110 17:24 26.04.2020
4243 Clouds 15 1035 54 10000 1 90 16:59 26.04.2020
4244 Clouds 14 1035 58 10000 1.5 100 16:40 26.04.2020
4245 Clouds 14 1035 58 10000 1.5 100 16:20 26.04.2020
4246 Clouds 13 1035 62 10000 1 90 15:58 26.04.2020
4247 Clouds 13 1034 62 10000 1.5 160 15:37 26.04.2020
4248 Clouds 13 1034 62 10000 1.5 160 15:19 26.04.2020
4249 Clouds 11 1034 71 10000 0.88 137 14:41 26.04.2020
4250 Clouds 11 1034 71 10000 0.53 54 14:20 26.04.2020
4251 Clouds 10 1021 29 0 0.53 54 13:59 26.04.2020
4252 Clouds 10 1021 29 0 0.53 54 13:40 26.04.2020
4253 Clouds 10 1021 29 0 0.53 54 13:22 26.04.2020
4254 Clouds 10 1021 29 0 0.53 54 12:57 26.04.2020
4255 Clouds 10 1021 29 0 0.53 54 12:39 26.04.2020
4256 Clouds 10 1021 29 0 0.53 54 12:39 26.04.2020
4257 Clouds 9 1020 29 0 0.07 199 12:20 26.04.2020
4258 Clouds 9 1020 29 0 0.07 199 11:55 26.04.2020
4259 Clouds 9 1020 29 0 0.07 199 11:37 26.04.2020
4260 Clouds 9 1020 29 0 0.07 199 11:18 26.04.2020
4261 Clouds 9 1020 29 0 0.07 199 10:43 26.04.2020
4262 Clouds 9 1020 29 0 0.07 199 10:24 26.04.2020
4263 Clouds 9 1020 29 0 0.07 199 09:58 26.04.2020
4264 Clouds 9 1020 29 0 0.07 199 09:39 26.04.2020
4265 Rain 9 1020 29 0 0.14 57 09:20 26.04.2020
4266 Rain 9 1020 29 0 0.14 57 08:41 26.04.2020
4267 Rain 9 1020 29 0 0.14 57 08:23 26.04.2020
4268 Rain 9 1020 29 0 0.14 57 07:50 26.04.2020
4269 Rain 9 1020 29 0 0.14 57 07:25 26.04.2020
4270 Rain 9 1020 29 0 0.14 57 06:55 26.04.2020
4271 Rain 10 1021 29 0 1.86 19 06:32 26.04.2020
4272 Rain 10 1021 29 0 1.86 19 05:54 26.04.2020
4273 Rain 10 1021 29 0 1.86 19 05:34 26.04.2020
4274 Rain 10 1021 29 0 1.86 19 04:42 26.04.2020
4275 Rain 10 1021 29 0 1.86 19 03:49 26.04.2020
4276 Rain 12 1017 26 0 2.16 18 02:40 26.04.2020
4277 Rain 12 1017 25 0 2.02 11 02:20 26.04.2020
4278 Rain 12 1017 25 0 2.02 11 01:38 26.04.2020
4279 Rain 15 1005 95 0 2.02 11 01:19 26.04.2020
4280 Rain 15 1006 93 0 0.45 234 00:38 26.04.2020
4281 Rain 16 1006 90 0 2.37 344 00:18 26.04.2020
4282 Clouds 17 1029 37 10000 2.1 270 23:38 25.04.2020
4283 Clouds 18 1029 37 10000 2.1 270 23:19 25.04.2020
4284 Rain 17 1029 37 10000 2.1 270 22:43 25.04.2020
4285 Rain 17 1029 32 10000 1 0 22:21 25.04.2020
4286 Rain 18 1029 32 10000 1 0 21:59 25.04.2020
4287 Rain 17 1029 37 10000 2.6 10 21:39 25.04.2020
4288 Rain 17 1029 37 10000 2.6 10 21:20 25.04.2020
4289 Rain 18 1030 34 10000 4.1 360 20:55 25.04.2020
4290 Clouds 20 1030 35 10000 3.1 350 20:37 25.04.2020
4291 Clouds 19 1031 34 10000 1.5 10 20:19 25.04.2020
4292 Rain 19 1031 32 10000 0.5 50 19:41 25.04.2020
4293 Rain 18 1031 32 10000 0.5 50 19:22 25.04.2020
4294 Clouds 18 1032 32 10000 0.5 0 18:57 25.04.2020
4295 Clouds 17 1033 34 10000 1 280 18:39 25.04.2020
4296 Clouds 17 1033 34 10000 1 280 18:20 25.04.2020
4297 Clouds 16 1033 42 10000 1.5 0 17:56 25.04.2020
4298 Clouds 16 1034 45 10000 1 40 17:37 25.04.2020
4299 Clouds 15 1034 48 10000 1.5 80 17:19 25.04.2020
4300 Clouds 13 1034 54 10000 1 0 16:48 25.04.2020
4301 Clouds 13 1034 54 10000 1 0 16:29 25.04.2020
4302 Clouds 12 1034 58 10000 1 0 15:59 25.04.2020
4303 Clouds 11 1034 71 10000 1 0 15:39 25.04.2020
4304 Clouds 10 1034 71 10000 1 0 15:19 25.04.2020
4305 Clouds 8 1034 81 10000 1 0 14:58 25.04.2020
4306 Mist 5 1034 86 10000 1.5 290 14:38 25.04.2020
4307 Clouds 9 1012 97 0 0.77 178 14:19 25.04.2020
4308 Clouds 9 1012 97 0 0.77 178 13:43 25.04.2020
4309 Clouds 8 1011 97 0 0.77 178 13:19 25.04.2020
4310 Clouds 8 1011 97 0 0.77 178 12:58 25.04.2020
4311 Clouds 7 1011 96 0 0.77 178 12:39 25.04.2020
4312 Clouds 7 1011 96 0 0.33 270 12:20 25.04.2020
4313 Clouds 7 1012 96 0 0.33 270 11:55 25.04.2020
4314 Clouds 8 1012 96 0 0.33 270 11:37 25.04.2020
4315 Clouds 7 1012 96 0 0.33 270 11:19 25.04.2020
4316 Clouds 7 1011 96 0 0.33 270 10:42 25.04.2020
4317 Clouds 7 1011 96 0 0.33 270 10:22 25.04.2020
4318 Clouds 8 1011 96 0 0.33 270 09:47 25.04.2020
4319 Clouds 8 1011 96 0 0.74 342 09:28 25.04.2020
4320 Clouds 8 1011 96 0 0.89 320 08:58 25.04.2020
4321 Clouds 8 1012 95 0 0.89 320 08:38 25.04.2020
4322 Clouds 8 1012 95 0 0.89 320 08:20 25.04.2020
4323 Clouds 8 1011 95 0 0.89 320 07:50 25.04.2020
4324 Clouds 8 1012 95 0 0.89 320 07:28 25.04.2020
4325 Clouds 9 1012 95 0 0.89 320 06:47 25.04.2020
4326 Rain 9 1012 94 0 1.32 9 06:18 25.04.2020
4327 Rain 9 1019 28 0 1.3 15 05:39 25.04.2020
4328 Rain 9 1019 28 0 1.32 9 04:57 25.04.2020
4329 Rain 11 1016 26 0 1.95 17 02:59 25.04.2020
4330 Rain 11 1016 26 0 2.12 357 02:20 25.04.2020
4331 Rain 11 1016 26 0 2.12 357 01:52 25.04.2020
4332 Rain 11 1016 26 0 2.12 357 01:27 25.04.2020
4333 Rain 11 1016 26 0 2.12 357 00:55 25.04.2020
4334 Rain 11 1016 26 0 2.12 357 00:32 25.04.2020
4335 Rain 16 1011 20 0 2.76 345 23:44 24.04.2020
4336 Clouds 20 1028 32 10000 4.6 10 23:24 24.04.2020
4337 Clouds 20 1028 32 10000 4.6 10 22:58 24.04.2020
4338 Clouds 20 1028 32 10000 4.6 10 22:38 24.04.2020
4339 Clouds 20 1028 32 10000 4.6 10 22:19 24.04.2020
4340 Clouds 20 1028 32 10000 3.6 30 21:55 24.04.2020
4341 Clouds 19 1029 34 10000 3.1 340 21:36 24.04.2020
4342 Clouds 19 1029 34 10000 3.1 40 21:18 24.04.2020
4343 Clouds 19 1029 34 10000 3.1 40 20:55 24.04.2020
4344 Clouds 19 1030 37 10000 3.1 350 20:36 24.04.2020
4345 Clouds 19 1030 28 10000 2.6 0 20:18 24.04.2020
4346 Clouds 19 1031 32 10000 2.6 320 19:40 24.04.2020
4347 Clouds 18 1031 32 10000 2.6 320 19:21 24.04.2020
4348 Clouds 17 1032 37 10000 3.1 90 18:44 24.04.2020
4349 Clouds 17 1032 37 10000 3.1 90 18:26 24.04.2020
4350 Clouds 16 1032 44 10000 2.6 80 17:55 24.04.2020
4351 Clouds 16 1033 42 10000 2.1 50 17:37 24.04.2020
4352 Clouds 16 1033 45 10000 1 0 17:19 24.04.2020
4353 Clouds 16 1033 45 10000 1 0 16:57 24.04.2020
4354 Clouds 15 1033 51 10000 1 80 16:38 24.04.2020
4355 Clouds 15 1033 51 10000 1 80 16:20 24.04.2020
4356 Clouds 14 1033 58 10000 0.5 80 15:41 24.04.2020
4357 Clouds 13 1033 58 10000 0.5 80 15:21 24.04.2020
4358 Clouds 9 1033 70 10000 0.5 360 14:41 24.04.2020
4359 Clouds 9 1033 70 10000 0.5 360 14:23 24.04.2020
4360 Clouds 9 1019 28 0 0.12 107 13:59 24.04.2020
4361 Clouds 9 1019 28 0 0.12 107 13:41 24.04.2020
4362 Clouds 9 1019 28 0 0.12 107 13:21 24.04.2020
4363 Clouds 9 1019 28 0 0.12 107 13:21 24.04.2020
4364 Clouds 9 1019 28 0 0.12 107 12:58 24.04.2020
4365 Clouds 9 1019 28 0 0.12 107 12:39 24.04.2020
4366 Clouds 7 1018 29 0 0.36 199 12:19 24.04.2020
4367 Clouds 7 1018 29 0 0.36 199 11:43 24.04.2020
4368 Clouds 7 1018 29 0 0.36 199 11:22 24.04.2020
4369 Clouds 7 1018 29 0 0.36 199 10:57 24.04.2020
4370 Clouds 7 1018 29 0 0.36 199 10:38 24.04.2020
4371 Clouds 7 1018 29 0 0.36 199 10:20 24.04.2020
4372 Clouds 7 1018 29 0 0.36 199 09:55 24.04.2020
4373 Clouds 7 1018 29 0 0.36 199 09:36 24.04.2020
4374 Clear 8 1019 29 0 0.41 353 09:18 24.04.2020
4375 Clear 8 1019 29 0 0.41 353 08:42 24.04.2020
4376 Clear 8 1019 29 0 0.41 353 08:20 24.04.2020
4377 Clear 8 1019 29 0 0.41 353 07:56 24.04.2020
4378 Clear 8 1019 29 0 0.41 353 07:56 24.04.2020
4379 Clear 8 1019 29 0 0.41 353 07:38 24.04.2020
4380 Clear 8 1019 29 0 0.41 353 07:19 24.04.2020
4381 Clear 8 1019 29 0 0.41 353 06:42 24.04.2020
4382 Clouds 9 1020 29 0 1.07 354 05:50 24.04.2020
4383 Clouds 9 1020 29 0 1.07 354 05:18 24.04.2020
4384 Rain 11 1017 27 0 1.81 360 03:28 24.04.2020
4385 Rain 11 1017 27 0 1.81 360 02:49 24.04.2020
4386 Rain 10 1017 28 0 1.92 355 02:24 24.04.2020
4387 Rain 10 1017 28 0 1.92 355 01:37 24.04.2020
4388 Rain 10 1017 28 0 1.92 355 00:50 24.04.2020
4389 Rain 15 1013 22 0 2.6 347 00:19 24.04.2020
4390 Rain 15 1013 22 0 2.6 347 23:46 23.04.2020
4391 Clouds 18 1029 45 10000 7.2 290 23:27 23.04.2020
4392 Clouds 18 1029 45 10000 7.2 290 22:57 23.04.2020
4393 Clouds 18 1029 45 10000 7.2 290 22:38 23.04.2020
4394 Clouds 19 1029 39 10000 6.7 290 22:19 23.04.2020
4395 Clouds 19 1029 39 10000 6.7 290 21:57 23.04.2020
4396 Clouds 17 1030 45 10000 6.2 290 21:38 23.04.2020
4397 Clouds 17 1030 45 10000 6.2 290 21:38 23.04.2020
4398 Clouds 18 1031 42 10000 7.7 290 21:20 23.04.2020
4399 Clouds 18 1031 42 10000 7.7 290 20:56 23.04.2020
4400 Clouds 18 1031 45 10000 7.7 290 20:37 23.04.2020
4401 Clouds 17 1031 42 10000 1 120 20:18 23.04.2020
4402 Clouds 16 1033 48 10000 2.1 80 19:42 23.04.2020
4403 Clouds 15 1033 48 10000 2.1 80 19:23 23.04.2020
4404 -273 0 0 0 0 0 19:01 23.04.2020
4405 Clouds 14 1033 51 10000 3.1 90 19:00 23.04.2020
4406 Clouds 14 1034 58 10000 2.6 100 18:40 23.04.2020
4407 Clouds 14 1034 58 10000 2.6 100 18:21 23.04.2020
4408 Clouds 14 1034 58 10000 2.1 90 17:57 23.04.2020
4409 Rain 13 1035 62 10000 2.6 100 17:38 23.04.2020
4410 Rain 13 1035 62 10000 2.6 100 17:20 23.04.2020
4411 Drizzle 12 1035 76 10000 2.6 110 16:44 23.04.2020
4412 Drizzle 12 1035 76 10000 2.6 110 16:44 23.04.2020
4413 Drizzle 12 1035 76 10000 2.6 110 16:21 23.04.2020
4414 Rain 11 1035 71 10000 2.6 110 15:59 23.04.2020
4415 Rain 11 1034 71 10000 1.5 100 15:40 23.04.2020
4416 Rain 11 1034 71 10000 1.5 100 15:21 23.04.2020
4417 Clouds 10 1023 76 10000 1 0 14:41 23.04.2020
4418 Clouds 10 1023 76 10000 1 0 14:22 23.04.2020
4419 Clouds 9 1021 28 0 0.34 116 13:59 23.04.2020
4420 Clouds 9 1021 28 0 0.34 116 13:40 23.04.2020
4421 Clouds 9 1021 28 0 0.34 116 13:22 23.04.2020
4422 Clouds 9 1021 28 0 0.34 116 12:57 23.04.2020
4423 Clouds 9 1021 28 0 0.34 116 12:38 23.04.2020
4424 Clouds 7 1020 29 0 0.44 357 12:20 23.04.2020
4425 Clouds 7 1020 29 0 0.44 357 11:47 23.04.2020
4426 Clouds 7 1020 29 0 0.44 357 11:27 23.04.2020
4427 Clouds 7 1020 29 0 0.44 357 10:58 23.04.2020
4428 Clouds 7 1020 29 0 0.44 357 10:39 23.04.2020
4429 Clouds 7 1020 29 0 0.44 357 10:20 23.04.2020
4430 Clouds 7 1020 29 0 0.28 342 09:40 23.04.2020
4431 Clouds 8 1020 29 0 0.95 346 09:18 23.04.2020
4432 Clouds 8 1020 29 0 0.95 346 08:48 23.04.2020
4433 Clouds 8 1020 29 0 0.95 346 08:29 23.04.2020
4434 Clouds 8 1020 29 0 0.95 346 07:56 23.04.2020
4435 Clouds 8 1020 29 0 0.95 346 07:38 23.04.2020
4436 Clouds 8 1020 29 0 0.95 346 07:18 23.04.2020
4437 Clouds 8 1020 29 0 0.95 346 06:43 23.04.2020
4438 Rain 9 1020 28 0 1.55 0 05:39 23.04.2020
4439 Rain 9 1020 28 0 1.55 0 05:21 23.04.2020
4440 Rain 11 1018 27 0 2.32 354 02:52 23.04.2020
4441 Rain 11 1018 27 0 2.06 347 02:23 23.04.2020
4442 Rain 11 1018 27 0 2.06 347 01:38 23.04.2020
4443 Rain 11 1018 27 0 2.06 347 00:54 23.04.2020
4444 Rain 15 1013 21 0 2.53 335 00:26 23.04.2020
4445 Clouds 22 1028 26 10000 2.6 350 23:57 22.04.2020
4446 Clouds 22 1028 26 10000 2.6 350 23:38 22.04.2020
4447 Clouds 22 1028 26 10000 2.6 350 23:19 22.04.2020
4448 Clouds 22 1029 26 10000 3.6 310 22:39 22.04.2020
4449 Clouds 22 1029 26 10000 3.6 310 22:20 22.04.2020
4450 Clouds 22 1029 24 10000 4.1 0 21:58 22.04.2020
4451 Clouds 19 1030 29 10000 1 90 21:40 22.04.2020
4452 Clouds 19 1030 29 10000 1 90 21:21 22.04.2020
4453 Clouds 19 1030 29 10000 2.1 0 20:56 22.04.2020
4454 Clouds 21 1031 17 10000 3.1 0 20:37 22.04.2020
4455 Clouds 20 1032 28 10000 2.6 0 20:18 22.04.2020
4456 Clouds 20 1032 28 10000 2.6 0 19:56 22.04.2020
4457 Clouds 20 1033 32 10000 2.6 0 19:37 22.04.2020
4458 Clouds 19 1034 34 10000 3.1 0 19:18 22.04.2020
4459 Clouds 19 1034 34 10000 3.1 0 18:55 22.04.2020
4460 Clouds 19 1034 17 10000 0.5 40 18:37 22.04.2020
4461 Clouds 18 1035 36 10000 2.6 80 18:19 22.04.2020
4462 Clouds 17 1035 36 10000 2.6 80 17:42 22.04.2020
4463 Clouds 15 1036 44 10000 2.6 70 17:24 22.04.2020
4464 Clouds 15 1036 44 10000 2.6 70 16:56 22.04.2020
4465 Clouds 14 1036 54 10000 2.1 90 16:36 22.04.2020
4466 Clouds 14 1036 58 10000 2.1 90 16:18 22.04.2020
4467 Clouds 11 1036 62 10000 0.5 0 15:38 22.04.2020
4468 Clouds 9 1036 66 10000 0.45 18 15:20 22.04.2020
4469 Clouds 7 1036 66 10000 0.45 18 14:56 22.04.2020
4470 Clouds 4 1020 89 0 0.45 18 14:37 22.04.2020
4471 Clouds 2 1020 95 0 0.33 95 14:18 22.04.2020
4472 Clouds 2 1020 95 0 0.33 95 14:18 22.04.2020
4473 Clouds 9 1023 27 0 0.33 95 13:44 22.04.2020
4474 Clouds 9 1023 27 0 0.33 95 13:20 22.04.2020
4475 Clouds 9 1023 27 0 0.33 95 12:44 22.04.2020
4476 Rain 8 1021 29 0 0.45 314 12:26 22.04.2020
4477 Rain 8 1021 29 0 0.45 314 11:59 22.04.2020
4478 Rain 8 1021 29 0 0.45 314 11:39 22.04.2020
4479 Rain 2 1018 92 0 0.45 314 11:20 22.04.2020
4480 Rain 3 1017 91 0 0.45 314 10:46 22.04.2020
4481 Rain 3 1017 89 0 0.45 314 10:25 22.04.2020
4482 Rain 3 1017 89 0 0.45 314 09:56 22.04.2020
4483 Rain 3 1017 88 0 0.16 3 09:38 22.04.2020
4484 Clouds 4 1017 86 0 0.51 267 09:19 22.04.2020
4485 Clouds 4 1017 84 0 0.51 267 08:54 22.04.2020
4486 Clouds 5 1017 83 0 0.51 267 08:36 22.04.2020
4487 Clouds 5 1017 82 0 0.51 267 08:18 22.04.2020
4488 Clouds 6 1017 81 0 0.51 267 07:44 22.04.2020
4489 Clouds 6 1017 80 0 0.51 267 07:21 22.04.2020
4490 Clouds 7 1017 74 0 0.51 267 06:45 22.04.2020
4491 Rain 8 1017 69 0 1.02 355 05:45 22.04.2020
4492 Rain 9 1016 63 0 1.02 355 05:23 22.04.2020
4493 Rain 9 1023 28 0 1.02 355 03:54 22.04.2020
4494 Rain 11 1020 26 0 1.99 330 02:37 22.04.2020
4495 Rain 11 1020 26 0 1.99 330 01:42 22.04.2020
4496 Rain 11 1020 26 0 1.99 330 01:23 22.04.2020
4497 Rain 11 1020 26 0 1.99 330 00:45 22.04.2020
4498 Rain 16 1014 19 0 3.23 297 00:20 22.04.2020
4499 Rain 16 1014 19 0 3.23 297 23:45 21.04.2020
4500 Clouds 21 1030 22 10000 4.1 20 23:23 21.04.2020
4501 Clouds 21 1030 22 10000 4.1 20 22:59 21.04.2020
4502 Clouds 21 1030 22 10000 4.1 20 22:39 21.04.2020
4503 Clouds 21 1030 22 10000 4.1 20 22:20 21.04.2020
4504 Clouds 20 1030 24 10000 3.1 360 21:57 21.04.2020
4505 Clouds 20 1031 22 10000 2.6 80 21:39 21.04.2020
4506 Clouds 20 1031 22 10000 2.6 80 21:21 21.04.2020
4507 Clouds 21 1033 18 10000 2.6 50 20:41 21.04.2020
4508 Clouds 21 1033 18 10000 2.6 50 20:23 21.04.2020
4509 Clouds 20 1033 20 10000 2.1 170 19:59 21.04.2020
4510 Clouds 19 1034 22 10000 1.5 140 19:39 21.04.2020
4511 Clouds 19 1034 22 10000 1.5 140 19:39 21.04.2020
4512 Clouds 19 1034 22 10000 1.5 140 19:19 21.04.2020
4513 Clouds 19 1035 22 10000 1 60 18:56 21.04.2020
4514 Clouds 18 1035 29 10000 2.1 90 18:37 21.04.2020
4515 Clouds 18 1035 29 10000 2.1 90 18:37 21.04.2020
4516 Clouds 18 1035 29 10000 2.1 90 18:37 21.04.2020
4517 Clouds 17 1036 29 10000 0.89 50 18:18 21.04.2020
4518 Clouds 15 1037 33 10000 0.89 50 17:40 21.04.2020
4519 Rain 14 1037 35 10000 0.9 55 17:20 21.04.2020
4520 Clear 14 1037 35 10000 0.89 50 16:58 21.04.2020
4521 Rain 12 1037 40 10000 1 10 16:37 21.04.2020
4522 Rain 13 1037 16 10000 0.9 55 16:18 21.04.2020
4523 Rain 13 1037 16 10000 0.9 55 15:55 21.04.2020
4524 Rain 13 1037 16 10000 0.9 55 15:55 21.04.2020
4525 Rain 11 1037 16 10000 1 90 15:37 21.04.2020
4526 Rain 11 1037 16 10000 1 90 15:37 21.04.2020
4527 Rain 11 1037 16 10000 1 90 15:37 21.04.2020
4528 Clouds 7 1037 65 10000 1 100 15:19 21.04.2020
4529 Clouds 5 1037 75 10000 1 80 14:45 21.04.2020
4530 Clouds 5 1037 75 10000 1 80 14:24 21.04.2020
4531 Clouds 9 1024 23 0 0.59 140 13:57 21.04.2020
4532 Clouds 9 1010 97 0 0.59 140 13:38 21.04.2020
4533 Clouds 9 1010 97 0 0.59 140 13:18 21.04.2020
4534 Clouds 9 1010 97 0 0.59 140 13:18 21.04.2020
4535 Clouds 8 1010 96 0 0.59 140 12:39 21.04.2020
4536 Clouds 7 1009 96 0 0.66 81 12:19 21.04.2020
4537 Clouds 7 1009 96 0 0.66 81 11:57 21.04.2020
4538 Clouds 7 1009 96 0 0.66 81 11:39 21.04.2020
4539 Clouds 7 1009 96 0 0.66 81 11:19 21.04.2020
4540 Clouds 6 1009 96 0 0.66 81 10:59 21.04.2020
4541 Clouds 6 1009 95 0 0.66 81 10:39 21.04.2020
4542 Clouds 6 1009 95 0 0.66 81 10:21 21.04.2020
4543 Clouds 6 1009 95 0 0.66 81 09:57 21.04.2020
4544 Clouds 6 1009 95 0 0.67 90 09:36 21.04.2020
4545 Clear 6 1009 94 0 0.31 101 09:18 21.04.2020
4546 Clear 6 1009 94 0 0.31 101 08:43 21.04.2020
4547 Clear 6 1010 94 0 0.31 101 08:25 21.04.2020
4548 Clear 6 1010 93 0 0.31 101 07:52 21.04.2020
4549 Clear 7 1010 93 0 0.31 101 07:27 21.04.2020
4550 Clear 7 1010 93 0 0.31 101 06:50 21.04.2020
4551 Clear 7 1010 93 0 0.31 101 06:50 21.04.2020
4552 Clear 7 1010 92 0 0.31 101 06:32 21.04.2020
4553 Clear 8 1010 91 0 1.07 24 05:50 21.04.2020
4554 Clear 8 1010 89 0 1.07 24 04:57 21.04.2020
4555 Clear 9 1023 28 0 1.07 24 03:46 21.04.2020
4556 Clouds 11 1019 25 0 1.64 332 02:41 21.04.2020
4557 Clouds 11 1019 25 0 1.64 332 01:30 21.04.2020
4558 Clouds 11 1019 25 0 1.64 332 00:38 21.04.2020
4559 Clouds 17 1015 16 0 2.84 328 23:58 20.04.2020
4560 Clouds 17 1015 16 0 2.84 328 23:40 20.04.2020
4561 Clouds 21 1031 13 10000 2.6 0 23:19 20.04.2020
4562 Clouds 21 1031 13 10000 2.6 0 22:54 20.04.2020
4563 Clouds 21 1031 13 10000 2.6 0 22:36 20.04.2020
4564 Clouds 21 1031 16 10000 2.6 0 22:18 20.04.2020
4565 Clouds 21 1031 16 10000 2.6 0 21:54 20.04.2020
4566 Clouds 20 1032 19 10000 4.1 360 21:36 20.04.2020
4567 Clouds 19 1032 20 10000 2.6 0 21:18 20.04.2020
4568 Clouds 20 1033 22 10000 2.6 0 20:41 20.04.2020
4569 Clouds 19 1033 22 10000 2.6 0 20:20 20.04.2020
4570 Clouds 19 1034 11 10000 3.1 340 19:59 20.04.2020
4571 Clouds 19 1034 24 10000 1 130 19:40 20.04.2020
4572 Clouds 19 1034 24 10000 1 130 19:20 20.04.2020
4573 Clouds 18 1035 25 10000 0.5 310 18:56 20.04.2020
4574 Clouds 17 1036 27 10000 1 120 18:38 20.04.2020
4575 Clouds 18 1036 27 10000 1 120 18:19 20.04.2020
4576 Clear 15 1037 41 10000 1.5 0 17:44 20.04.2020
4577 Clear 15 1037 41 10000 1.5 0 17:23 20.04.2020
4578 Clear 14 1037 41 10000 1.5 40 16:59 20.04.2020
4579 Clear 14 1037 41 10000 1.5 40 16:59 20.04.2020
4580 Clear 12 1037 54 10000 1 0 16:41 20.04.2020
4581 Clear 12 1037 54 10000 1 0 16:20 20.04.2020
4582 Clear 11 1037 53 10000 0.5 50 15:55 20.04.2020
4583 Clear 11 1037 61 10000 0.3 67 15:37 20.04.2020
4584 Clear 8 1037 70 10000 0.98 83 15:19 20.04.2020
4585 Clear 4 1037 80 10000 1.5 110 14:41 20.04.2020
4586 Clear 4 1037 80 10000 1.5 110 14:19 20.04.2020
4587 Clear 8 1024 23 0 0.79 96 13:58 20.04.2020
4588 Clear 8 1024 23 0 0.79 96 13:38 20.04.2020
4589 Clear 8 1024 23 0 0.79 96 13:20 20.04.2020
4590 Clear 8 1024 23 0 0.79 96 12:44 20.04.2020
4591 Clear 6 1023 26 0 0.62 68 12:22 20.04.2020
4592 Clear 6 1023 26 0 0.62 68 11:54 20.04.2020
4593 Clear 6 1023 26 0 0.62 68 11:36 20.04.2020
4594 Clear 6 1023 26 0 0.62 68 11:18 20.04.2020
4595 Clear 6 1023 26 0 0.62 68 10:54 20.04.2020
4596 Clear 6 1023 26 0 0.62 68 10:36 20.04.2020
4597 Clear 6 1023 26 0 0.62 68 10:18 20.04.2020
4598 Clear 6 1023 26 0 0.62 68 09:41 20.04.2020
4599 Clear 7 1023 27 0 1.1 25 09:23 20.04.2020
4600 Clear 7 1023 27 0 1.1 25 08:56 20.04.2020
4601 Clear 7 1023 27 0 1.1 25 08:38 20.04.2020
4602 Clear 7 1023 27 0 1.1 25 08:18 20.04.2020
4603 Clear 7 1023 27 0 1.1 25 07:42 20.04.2020
4604 Clear 7 1023 27 0 1.1 25 07:20 20.04.2020
4605 Clear 7 1023 27 0 1.1 25 06:38 20.04.2020
4606 Clear 8 1023 27 0 1.04 19 05:58 20.04.2020
4607 Clear 8 1023 27 0 1.04 19 04:49 20.04.2020
4608 Rain 10 1020 26 0 1.98 2 02:52 20.04.2020
4609 Rain 10 1019 26 0 1.67 345 02:33 20.04.2020
4610 Rain 10 1019 26 0 1.67 345 01:30 20.04.2020
4611 Rain 10 1019 26 0 1.67 345 00:45 20.04.2020
4612 Rain 15 1016 19 0 3.38 340 00:22 20.04.2020
4613 Rain 15 1016 19 0 3.38 340 23:40 19.04.2020
4614 Clouds 18 1030 34 10000 2.1 320 23:21 19.04.2020
4615 Clouds 18 1030 34 10000 2.1 320 22:57 19.04.2020
4616 Clouds 18 1030 34 10000 2.1 320 22:37 19.04.2020
4617 Clouds 18 1030 34 10000 2.1 320 22:19 19.04.2020
4618 Clouds 19 1031 32 10000 3.1 330 21:42 19.04.2020
4619 Clouds 19 1031 32 10000 3.1 330 21:24 19.04.2020
4620 Clouds 19 1031 37 10000 3.6 300 20:59 19.04.2020
4621 Clouds 21 1032 26 10000 0.5 340 20:41 19.04.2020
4622 Clouds 19 1032 26 10000 0.5 340 20:20 19.04.2020
4623 Clouds 19 1032 26 10000 0.5 340 20:20 19.04.2020
4624 Clouds 17 1034 45 10000 1.5 0 19:57 19.04.2020
4625 Clouds 17 1034 39 10000 1.5 0 19:38 19.04.2020
4626 Clouds 17 1034 39 10000 1.5 0 19:20 19.04.2020
4627 Clouds 17 1034 31 10000 2.1 70 18:57 19.04.2020
4628 Clouds 16 1035 38 10000 1.5 0 18:38 19.04.2020
4629 Clouds 15 1036 41 10000 1 50 18:19 19.04.2020
4630 Clouds 15 1036 41 10000 1 50 18:19 19.04.2020
4631 Clouds 15 1036 41 10000 1 50 18:19 19.04.2020
4632 Clouds 14 1036 41 10000 1 50 17:56 19.04.2020
4633 Clouds 13 1037 41 10000 1.5 330 17:38 19.04.2020
4634 Clouds 12 1037 41 10000 1.5 330 17:19 19.04.2020
4635 Clouds 10 1037 58 10000 1 290 16:41 19.04.2020
4636 Clouds 9 1037 58 10000 1 290 16:21 19.04.2020
4637 Clear 7 1037 66 10000 1 0 15:59 19.04.2020
4638 Clear 7 1037 66 10000 1 90 15:40 19.04.2020
4639 Clouds 7 1037 66 10000 1 90 15:19 19.04.2020
4640 Clouds 4 1037 75 10000 0.5 360 14:39 19.04.2020
4641 Clear 4 1037 75 10000 0.5 360 14:21 19.04.2020
4642 Clear 2 1014 96 0 0.48 49 13:58 19.04.2020
4643 Clear 1 1014 96 0 0.48 49 13:37 19.04.2020
4644 Clear 1 1014 96 0 0.48 49 13:19 19.04.2020
4645 Clear 0 1014 95 0 0.48 49 12:46 19.04.2020
4646 Clear 0 1014 95 0 0.58 347 12:24 19.04.2020
4647 Clear 0 1014 95 0 0.58 347 11:55 19.04.2020
4648 Clear 0 1014 95 0 0.58 347 11:37 19.04.2020
4649 Clear 1 1014 95 0 0.58 347 11:18 19.04.2020
4650 Clear 1 1014 95 0 0.58 347 10:41 19.04.2020
4651 Clear 1 1014 95 0 0.58 347 10:21 19.04.2020
4652 Clear 1 1015 94 0 0.58 347 09:59 19.04.2020
4653 Clear 1 1015 94 0 0.58 347 09:59 19.04.2020
4654 Clear 1 1015 94 0 0.58 347 09:59 19.04.2020
4655 Clear 1 1015 95 0 0.58 347 09:41 19.04.2020
4656 Clouds 1 1015 94 0 0.98 22 09:20 19.04.2020
4657 Clouds 2 1015 94 0 0.98 22 08:40 19.04.2020
4658 Clouds 2 1015 94 0 1.2 359 08:21 19.04.2020
4659 Clouds 2 1015 94 0 1.2 359 07:56 19.04.2020
4660 Clouds 2 1016 94 0 0.98 22 07:38 19.04.2020
4661 Clouds 2 1016 94 0 1.2 359 07:19 19.04.2020
4662 Clouds 3 1016 93 0 1.44 19 06:26 19.04.2020
4663 Clouds 3 1016 92 0 1.28 22 05:43 19.04.2020
4664 Clouds 4 1017 89 0 1.28 22 04:22 19.04.2020
4665 Rain 7 1016 83 0 2.2 18 02:52 19.04.2020
4666 Rain 8 1015 78 0 2.1 21 02:19 19.04.2020
4667 Rain 10 1016 68 0 2.1 21 01:31 19.04.2020
4668 Rain 11 1016 56 0 2.1 21 00:41 19.04.2020
4669 Rain 13 1030 50 10000 4.6 360 00:20 19.04.2020
4670 Rain 13 1030 50 10000 4.6 360 23:44 18.04.2020
4671 Rain 13 1030 50 10000 4.6 360 23:21 18.04.2020
4672 Thunderstorm 15 1030 48 10000 4.1 10 22:56 18.04.2020
4673 Rain 15 1030 36 10000 4.1 350 22:38 18.04.2020
4674 Rain 15 1030 36 10000 4.1 350 22:19 18.04.2020
4675 Clouds 15 1030 31 10000 2.6 300 21:55 18.04.2020
4676 Clouds 16 1031 28 10000 1.5 280 21:36 18.04.2020
4677 Clouds 16 1031 34 10000 2.6 0 21:18 18.04.2020
4678 Clouds 18 1032 31 10000 1.5 120 20:40 18.04.2020
4679 Clouds 14 1032 31 10000 1.5 120 20:21 18.04.2020
4680 Clouds 13 1034 36 10000 2.1 100 19:44 18.04.2020
4681 Clouds 13 1034 36 10000 2.1 100 19:44 18.04.2020
4682 Clouds 17 1034 36 10000 2.1 100 19:25 18.04.2020
4683 Clouds 16 1034 44 10000 2.1 0 18:59 18.04.2020
4684 Clouds 17 1035 42 10000 2.1 0 18:37 18.04.2020
4685 Clouds 12 1036 41 10000 2.6 80 18:19 18.04.2020
4686 Clouds 15 1036 44 10000 2.1 120 17:41 18.04.2020
4687 Clouds 10 1037 62 10000 2.1 100 17:21 18.04.2020
4688 Clouds 10 1037 62 10000 2.1 100 16:56 18.04.2020
4689 Clouds 10 1037 62 10000 2.1 100 16:37 18.04.2020
4690 Clouds 10 1037 62 10000 2.1 100 16:19 18.04.2020
4691 Clouds 9 1037 76 10000 2.1 90 15:38 18.04.2020
4692 Clouds 9 1037 76 10000 2.1 90 15:20 18.04.2020
4693 Clouds 7 1037 75 10000 1.5 110 14:45 18.04.2020
4694 Clouds 7 1037 75 10000 1.5 110 14:26 18.04.2020
4695 Rain 8 1016 94 0 1.36 5 13:56 18.04.2020
4696 Rain 8 1016 93 0 1.36 5 13:38 18.04.2020
4697 Rain 8 1015 93 0 1.36 5 13:18 18.04.2020
4698 Rain 9 1014 94 0 1.36 5 12:41 18.04.2020
4699 Clouds 8 1024 26 0 1.35 65 12:22 18.04.2020
4700 Clouds 8 1024 26 0 1.35 65 11:43 18.04.2020
4701 Clouds 8 1024 26 0 1.35 65 11:25 18.04.2020
4702 Clouds 8 1024 26 0 1.35 65 10:58 18.04.2020
4703 Clouds 8 1024 26 0 1.35 65 10:39 18.04.2020
4704 Clouds 8 1024 26 0 1.35 65 10:19 18.04.2020
4705 Clouds 8 1024 26 0 1.35 65 09:55 18.04.2020
4706 Clouds 8 1024 26 0 1.35 65 09:36 18.04.2020
4707 Clouds 8 1024 27 0 1.82 40 09:18 18.04.2020
4708 Clouds 8 1024 27 0 1.82 40 08:39 18.04.2020
4709 Clouds 8 1024 27 0 1.82 40 08:20 18.04.2020
4710 Clouds 8 1024 27 0 1.82 40 07:37 18.04.2020
4711 Clouds 8 1024 27 0 1.82 40 07:19 18.04.2020
4712 Clouds 7 1024 29 0 1.66 22 06:29 18.04.2020
4713 Clouds 7 1024 29 0 1.66 22 05:42 18.04.2020
4714 Clouds 7 1024 29 0 1.66 22 04:47 18.04.2020
4715 Clouds 7 1024 29 0 1.66 22 04:27 18.04.2020
4716 Rain 9 1021 27 0 2.07 16 02:49 18.04.2020
4717 Rain 11 1021 26 0 1.94 357 02:23 18.04.2020
4718 Rain 11 1021 26 0 1.94 357 01:57 18.04.2020
4719 Rain 11 1021 26 0 1.94 357 01:35 18.04.2020
4720 Rain 11 1021 26 0 1.94 357 01:35 18.04.2020
4721 Rain 11 1021 26 0 1.94 357 00:44 18.04.2020
4722 Rain 14 1017 21 0 2.23 344 00:22 18.04.2020
4723 Rain 14 1017 21 0 2.23 344 00:22 18.04.2020
4724 Rain 14 1017 21 0 2.23 344 23:55 17.04.2020
4725 Rain 12 1032 58 10000 8.2 300 23:37 17.04.2020
4726 Rain 12 1032 58 10000 8.2 300 23:18 17.04.2020
4727 Rain 12 1032 58 10000 8.2 300 22:56 17.04.2020
4728 Rain 12 1032 58 10000 8.2 300 22:37 17.04.2020
4729 Rain 16 1032 41 10000 1.5 130 22:18 17.04.2020
4730 Clouds 16 1032 41 10000 1.5 90 21:42 17.04.2020
4731 Clouds 16 1032 41 10000 1.5 90 21:21 17.04.2020
4732 Clouds 17 1033 42 10000 2.6 270 20:56 17.04.2020
4733 Rain 15 1034 51 10000 4.6 300 20:38 17.04.2020
4734 Rain 15 1034 51 10000 4.6 300 20:18 17.04.2020
4735 Rain 16 1034 44 10000 4.1 360 19:57 17.04.2020
4736 Rain 16 1034 41 10000 2.6 100 19:38 17.04.2020
4737 Rain 16 1034 41 10000 2.6 100 19:20 17.04.2020
4738 Rain 17 1035 39 10000 2.1 0 18:44 17.04.2020
4739 Rain 17 1035 39 10000 2.1 0 18:23 17.04.2020
4740 Clouds 15 1036 47 10000 2.1 80 17:55 17.04.2020
4741 Clouds 15 1036 44 10000 2.1 0 17:36 17.04.2020
4742 Clouds 15 1037 47 10000 1.5 0 17:18 17.04.2020
4743 Clouds 12 1037 62 10000 1 0 16:41 17.04.2020
4744 Clouds 12 1037 62 10000 1 0 16:22 17.04.2020
4745 Clouds 10 1037 62 10000 0.5 100 15:41 17.04.2020
4746 Clouds 9 1037 62 10000 0.5 100 15:23 17.04.2020
4747 Clouds 7 1036 71 10000 1.21 358 14:55 17.04.2020
4748 Rain 3 1023 95 0 1.21 358 14:37 17.04.2020
4749 Rain 9 1025 25 0 0.71 359 14:19 17.04.2020
4750 Rain 9 1025 25 0 0.71 359 13:40 17.04.2020
4751 Rain 9 1025 25 0 0.71 359 13:20 17.04.2020
4752 Rain 9 1025 25 0 0.71 359 12:58 17.04.2020
4753 Rain 9 1025 25 0 0.71 359 12:40 17.04.2020
4754 Clouds 9 1024 26 0 1.11 86 12:21 17.04.2020
4755 Clouds 9 1024 26 0 1.11 86 11:40 17.04.2020
4756 Clouds 9 1024 26 0 1.11 86 11:19 17.04.2020
4757 Clouds 9 1024 26 0 1.11 86 10:44 17.04.2020
4758 Clouds 9 1024 26 0 1.11 86 10:23 17.04.2020
4759 Clouds 9 1024 26 0 1.11 86 09:57 17.04.2020
4760 Clouds 9 1024 26 0 1.11 86 09:39 17.04.2020
4761 Clouds 7 1024 28 0 1.59 22 09:19 17.04.2020
4762 Clouds 7 1024 28 0 1.59 22 08:48 17.04.2020
4763 Clouds 7 1024 28 0 1.59 22 08:28 17.04.2020
4764 Clouds 2 1025 91 0 1.59 22 07:58 17.04.2020
4765 Clouds 2 1025 91 0 1.59 22 07:40 17.04.2020
4766 Clouds 2 1025 90 0 1.59 22 07:19 17.04.2020
4767 Clouds 3 1025 89 0 1.59 22 06:44 17.04.2020
4768 Clouds 3 1025 87 0 1.65 11 05:58 17.04.2020
4769 Rain 7 1024 71 0 2.14 5 03:27 17.04.2020
4770 Rain 8 1024 66 0 2.14 5 02:55 17.04.2020
4771 Rain 10 1020 27 0 1.96 3 01:46 17.04.2020
4772 Rain 13 1023 45 0 1.96 3 01:22 17.04.2020
4773 Rain 15 1023 36 0 0.45 82 00:21 17.04.2020
4774 Clouds 17 1030 33 10000 7.2 290 23:55 16.04.2020
4775 Clouds 17 1030 33 10000 7.2 290 23:37 16.04.2020
4776 Clouds 16 1030 33 10000 7.2 290 23:19 16.04.2020
4777 Clouds 17 1030 27 10000 6.2 300 22:40 16.04.2020
4778 Clouds 17 1030 27 10000 6.2 300 22:22 16.04.2020
4779 Clouds 17 1030 29 10000 6.2 280 21:59 16.04.2020
4780 Clouds 17 1030 28 10000 4.1 290 21:40 16.04.2020
4781 Clouds 18 1030 28 10000 4.1 290 21:19 16.04.2020
4782 Clouds 16 1031 25 10000 2.1 340 20:43 16.04.2020
4783 Clouds 15 1032 27 10000 3.1 320 20:23 16.04.2020
4784 Clouds 15 1032 27 10000 3.1 320 19:59 16.04.2020
4785 Clouds 15 1033 31 10000 2.1 120 19:39 16.04.2020
4786 Clouds 15 1033 39 10000 2.1 330 19:19 16.04.2020
4787 Clouds 15 1033 39 10000 2.1 330 18:56 16.04.2020
4788 Clouds 14 1034 13 10000 1.5 320 18:37 16.04.2020
4789 Clouds 14 1034 33 10000 1.5 20 18:19 16.04.2020
4790 Clouds 13 1035 36 10000 1 360 17:42 16.04.2020
4791 Clouds 13 1035 36 10000 1 360 17:24 16.04.2020
4792 Clouds 12 1035 51 10000 1 180 16:55 16.04.2020
4793 Clouds 12 1035 51 10000 1 180 16:37 16.04.2020
4794 Clouds 11 1035 51 10000 1 180 16:18 16.04.2020
4795 Clouds 9 1035 66 10000 0.84 249 15:41 16.04.2020
4796 Clouds 9 1035 66 10000 1.5 315 15:19 16.04.2020
4797 Clouds 8 1035 66 10000 1.5 315 14:58 16.04.2020
4798 Clouds 8 1035 66 10000 1.5 315 14:58 16.04.2020
4799 Clouds 8 1034 75 10000 2.1 290 14:38 16.04.2020
4800 Clouds 9 1023 26 0 1.35 307 14:19 16.04.2020
4801 Clouds 9 1023 26 0 1.35 307 13:55 16.04.2020
4802 Clouds 9 1023 26 0 1.35 307 13:36 16.04.2020
4803 Clouds 9 1023 26 0 1.35 307 13:18 16.04.2020
4804 Clouds 9 1023 26 0 1.35 307 12:55 16.04.2020
4805 Clouds 9 1023 26 0 1.35 307 12:36 16.04.2020
4806 Clouds 7 1021 27 0 0.81 304 12:18 16.04.2020
4807 Clouds 7 1021 27 0 0.81 304 11:41 16.04.2020
4808 Clouds 7 1021 27 0 0.81 304 11:22 16.04.2020
4809 Clouds 7 1021 27 0 0.81 304 10:57 16.04.2020
4810 Clouds 7 1021 27 0 0.81 304 10:38 16.04.2020
4811 Clouds 7 1021 27 0 0.81 304 10:19 16.04.2020
4812 Clouds 7 1021 27 0 0.81 304 09:55 16.04.2020
4813 Clouds 7 1021 27 0 0.81 304 09:37 16.04.2020
4814 Rain 8 1020 28 0 1.13 340 09:18 16.04.2020
4815 Rain 8 1020 28 0 1.13 340 09:18 16.04.2020
4816 Clouds 8 1021 28 0 1.51 323 08:41 16.04.2020
4817 Clouds 8 1021 28 0 1.51 323 08:22 16.04.2020
4818 Clouds 8 1021 28 0 1.51 323 07:46 16.04.2020
4819 Clouds 8 1021 28 0 1.51 323 07:26 16.04.2020
4820 Clouds 8 1021 28 0 1.51 323 06:43 16.04.2020
4821 Clouds 9 1021 28 0 1.8 1 06:25 16.04.2020
4822 Clouds 9 1021 28 0 1.8 1 05:34 16.04.2020
4823 Clouds 9 1021 28 0 1.8 1 03:53 16.04.2020
4824 Rain 10 1017 27 0 2.51 6 03:23 16.04.2020
4825 Rain 10 1017 27 0 2.51 6 02:47 16.04.2020
4826 Rain 11 1017 26 0 2.37 1 02:28 16.04.2020
4827 Rain 11 1017 26 0 2.37 1 01:18 16.04.2020
4828 Rain 11 1017 26 0 2.37 1 00:32 16.04.2020
4829 Rain 17 1013 17 0 2.74 290 23:58 15.04.2020
4830 Rain 17 1013 17 0 2.74 290 23:58 15.04.2020
4831 Rain 17 1013 17 0 2.74 290 23:40 15.04.2020
4832 Clouds 21 1026 26 10000 4.1 280 23:21 15.04.2020
4833 Clouds 21 1026 26 10000 4.1 280 22:40 15.04.2020
4834 Clouds 21 1026 26 10000 4.1 280 22:22 15.04.2020
4835 Clouds 22 1027 28 10000 5.1 290 21:59 15.04.2020
4836 Clouds 22 1027 17 10000 3.1 0 21:40 15.04.2020
4837 Clouds 22 1027 16 10000 3.1 0 21:22 15.04.2020
4838 Clouds 21 1028 22 10000 4.1 0 20:58 15.04.2020
4839 Clouds 21 1028 28 10000 3.6 0 20:40 15.04.2020
4840 Clouds 21 1028 28 10000 3.6 0 20:21 15.04.2020
4841 Clouds 19 1030 16 10000 1.5 240 19:45 15.04.2020
4842 Clouds 18 1031 34 10000 2.6 0 19:21 15.04.2020
4843 Clouds 19 1032 34 10000 0.5 360 18:56 15.04.2020
4844 Clouds 19 1032 34 10000 0.5 360 18:38 15.04.2020
4845 Clouds 17 1032 33 10000 1.5 0 18:20 15.04.2020
4846 Clouds 16 1033 44 10000 1 110 17:40 15.04.2020
4847 Clouds 16 1033 44 10000 1 110 17:40 15.04.2020
4848 Clouds 16 1033 44 10000 1 110 17:21 15.04.2020
4849 Clouds 15 1033 47 10000 2.1 140 16:58 15.04.2020
4850 Clouds 15 1033 44 10000 1.5 0 16:40 15.04.2020
4851 Clouds 15 1033 44 10000 1.5 0 16:20 15.04.2020
4852 Clouds 14 1033 50 10000 0.5 30 15:59 15.04.2020
4853 Clouds 14 1033 50 10000 0.5 30 15:59 15.04.2020
4854 Clouds 11 1033 66 10000 1.19 275 15:40 15.04.2020
4855 Clouds 11 1033 66 10000 1.19 275 15:40 15.04.2020
4856 Clouds 11 1033 66 10000 0.58 325 15:20 15.04.2020
4857 Clouds 9 1033 76 10000 0.58 325 14:59 15.04.2020
4858 Mist 8 1033 81 10000 1.5 110 14:41 15.04.2020
4859 Mist 8 1033 81 10000 1.5 110 14:23 15.04.2020
4860 Clouds 9 1020 26 0 1.18 272 13:59 15.04.2020
4861 Clouds 9 1020 26 0 1.18 272 13:40 15.04.2020
4862 Clouds 9 1020 26 0 1.18 272 13:21 15.04.2020
4863 Clouds 9 1020 26 0 1.18 272 12:57 15.04.2020
4864 Clouds 9 1020 26 0 1.18 272 12:39 15.04.2020
4865 Clouds 8 1018 27 0 1.57 292 12:21 15.04.2020
4866 Clouds 8 1018 27 0 1.57 292 11:45 15.04.2020
4867 Clouds 8 1018 27 0 1.57 292 11:25 15.04.2020
4868 Clouds 8 1018 27 0 1.57 292 10:59 15.04.2020
4869 Clouds 8 1018 27 0 1.57 292 10:37 15.04.2020
4870 Clouds 8 1018 27 0 1.57 292 10:19 15.04.2020
4871 Clouds 8 1018 27 0 1.57 292 09:56 15.04.2020
4872 Clouds 8 1018 27 0 1.57 292 09:37 15.04.2020
4873 Clouds 9 1018 28 0 1.54 348 09:19 15.04.2020
4874 Clouds 9 1018 28 0 1.54 348 08:42 15.04.2020
4875 Clouds 9 1018 28 0 1.54 348 08:23 15.04.2020
4876 Clouds 9 1018 28 0 1.54 348 07:58 15.04.2020
4877 Clouds 9 1018 28 0 1.54 348 07:39 15.04.2020
4878 Clouds 9 1018 28 0 1.54 348 06:59 15.04.2020
4879 Clouds 10 1018 29 0 1.87 19 06:24 15.04.2020
4880 Clouds 10 1018 29 0 1.87 19 05:23 15.04.2020
4881 Clouds 10 1018 29 0 1.87 19 04:46 15.04.2020
4882 Clouds 10 1018 29 0 1.87 19 04:18 15.04.2020
4883 Rain 12 1014 25 0 1.9 344 03:22 15.04.2020
4884 Rain 12 1014 25 0 1.9 344 02:40 15.04.2020
4885 Rain 12 1014 25 0 1.9 344 01:50 15.04.2020
4886 Rain 12 1014 25 0 1.9 344 01:24 15.04.2020
4887 Rain 12 1014 25 0 1.9 344 00:46 15.04.2020
4888 Rain 17 1010 18 0 3.24 296 00:23 15.04.2020
4889 Rain 17 1010 18 0 3.24 296 23:55 14.04.2020
4890 Rain 22 1026 18 10000 3.6 280 23:37 14.04.2020
4891 Rain 22 1026 18 10000 3.6 280 23:19 14.04.2020
4892 Rain 22 1026 18 10000 3.6 280 22:56 14.04.2020
4893 Rain 22 1026 18 10000 3.6 280 22:38 14.04.2020
4894 Rain 22 1026 18 10000 3.6 280 22:20 14.04.2020
4895 Rain 22 1026 21 10000 4.1 280 21:56 14.04.2020
4896 Rain 22 1026 21 10000 4.1 280 21:56 14.04.2020
4897 Rain 22 1027 17 10000 3.6 0 21:37 14.04.2020
4898 Clouds 22 1027 17 10000 3.6 0 21:19 14.04.2020
4899 Clouds 21 1028 16 10000 2.1 330 20:41 14.04.2020
4900 Clouds 21 1028 16 10000 2.1 330 20:41 14.04.2020
4901 Rain 21 1028 16 10000 2.1 330 20:23 14.04.2020
4902 Rain 21 1029 32 10000 2.6 0 19:59 14.04.2020
4903 Rain 21 1029 22 10000 1.5 230 19:40 14.04.2020
4904 Rain 21 1029 22 10000 1.5 230 19:40 14.04.2020
4905 Rain 21 1029 22 10000 1.5 230 19:21 14.04.2020
4906 Clouds 19 1030 34 10000 0.5 0 18:57 14.04.2020
4907 Clouds 19 1031 34 10000 1.5 300 18:39 14.04.2020
4908 Clouds 19 1031 34 10000 1.5 300 18:20 14.04.2020
4909 Clouds 18 1032 42 10000 0.5 240 17:57 14.04.2020
4910 Clouds 17 1033 42 10000 1 0 17:38 14.04.2020
4911 Clouds 17 1033 42 10000 1 0 17:19 14.04.2020
4912 Clouds 17 1033 42 10000 1 0 17:19 14.04.2020
4913 Clouds 17 1033 42 10000 1 0 17:19 14.04.2020
4914 Clouds 16 1033 48 10000 1 0 16:55 14.04.2020
4915 Clouds 15 1033 51 10000 1 40 16:36 14.04.2020
4916 Clouds 15 1033 51 10000 1 40 16:18 14.04.2020
4917 Clouds 13 1033 54 10000 0.5 70 15:42 14.04.2020
4918 Clouds 13 1033 54 10000 0.5 70 15:23 14.04.2020
4919 Clouds 10 1034 66 10000 1 60 14:59 14.04.2020
4920 Clouds 10 1034 66 10000 1 60 14:59 14.04.2020
4921 Clouds 7 1033 81 10000 0.5 280 14:40 14.04.2020
4922 Clouds 7 1033 81 10000 0.5 280 14:22 14.04.2020
4923 Clouds 10 1020 28 0 0.83 220 13:57 14.04.2020
4924 Clouds 10 1020 28 0 0.83 220 13:39 14.04.2020
4925 Clouds 10 1020 28 0 0.83 220 13:20 14.04.2020
4926 Clouds 10 1020 28 0 0.83 220 12:42 14.04.2020
4927 Clouds 8 1018 30 0 0.72 238 12:21 14.04.2020
4928 Clouds 8 1018 30 0 0.72 238 11:56 14.04.2020
4929 Clouds 8 1018 30 0 0.72 238 11:37 14.04.2020
4930 Clouds 8 1018 30 0 0.72 238 11:19 14.04.2020
4931 Clouds 8 1018 30 0 0.72 238 10:45 14.04.2020
4932 Clouds 8 1018 30 0 0.72 238 10:26 14.04.2020
4933 Clouds 8 1018 30 0 0.72 238 09:55 14.04.2020
4934 Clouds 8 1018 30 0 0.72 238 09:37 14.04.2020
4935 Clouds 8 1018 29 0 0.75 326 09:19 14.04.2020
4936 Clouds 8 1018 29 0 0.75 326 08:41 14.04.2020
4937 Clouds 8 1018 29 0 0.75 326 08:22 14.04.2020
4938 Clouds 8 1018 29 0 0.75 326 08:22 14.04.2020
4939 Clouds 8 1018 29 0 0.75 326 07:55 14.04.2020
4940 Clouds 8 1018 29 0 0.75 326 07:31 14.04.2020
4941 Clouds 8 1018 29 0 0.75 326 06:51 14.04.2020
4942 Clouds 10 1019 29 0 1.46 348 06:24 14.04.2020
4943 Clouds 10 1019 29 0 1.46 348 04:43 14.04.2020
4944 Clouds 12 1015 26 0 2.22 339 02:56 14.04.2020
4945 Clouds 12 1014 25 0 2.11 323 02:18 14.04.2020
4946 Clouds 12 1014 25 0 2.11 323 01:25 14.04.2020
4947 Clouds 12 1014 25 0 2.11 323 00:39 14.04.2020
4948 Clouds 19 1010 13 0 3.25 266 00:19 14.04.2020
4949 Clouds 19 1010 13 0 3.25 266 23:45 13.04.2020
4950 Clouds 22 1028 21 10000 5.1 270 23:26 13.04.2020
4951 Clouds 22 1028 21 10000 5.1 270 22:59 13.04.2020
4952 Clouds 22 1028 21 10000 5.1 270 22:41 13.04.2020
4953 Clouds 22 1028 21 10000 5.1 270 22:22 13.04.2020
4954 Clouds 22 1028 21 10000 5.1 280 21:56 13.04.2020
4955 Clouds 22 1029 19 10000 6.7 300 21:37 13.04.2020
4956 Clouds 22 1029 19 10000 6.7 300 21:37 13.04.2020
4957 Clouds 22 1029 19 10000 6.7 300 21:37 13.04.2020
4958 Clouds 22 1029 19 10000 6.7 300 21:37 13.04.2020
4959 Clouds 22 1029 19 10000 6.7 300 21:19 13.04.2020
4960 Clouds 22 1029 24 10000 2.1 30 20:54 13.04.2020
4961 Clouds 22 1029 24 10000 2.1 30 20:54 13.04.2020
4962 Clouds 19 1030 34 10000 1 110 20:36 13.04.2020
4963 Clouds 20 1031 32 10000 1 170 20:18 13.04.2020
4964 Clouds 20 1031 32 10000 1 170 20:18 13.04.2020
4965 Clouds 20 1032 32 10000 1 330 19:39 13.04.2020
4966 Clouds 20 1032 32 10000 1 330 19:39 13.04.2020
4967 Clouds 19 1033 34 10000 1 180 19:20 13.04.2020
4968 Clouds 19 1033 34 10000 1 180 18:59 13.04.2020
4969 Clouds 18 1033 36 10000 1 320 18:39 13.04.2020
4970 Clouds 17 1034 45 10000 2.6 20 18:20 13.04.2020
4971 Clouds 17 1034 45 10000 2.6 20 17:58 13.04.2020
4972 Clouds 17 1035 45 10000 1 90 17:38 13.04.2020
4973 Clouds 17 1035 45 10000 1 90 17:38 13.04.2020
4974 Clouds 17 1035 45 10000 1 90 17:19 13.04.2020
4975 Clouds 16 1035 48 10000 1.98 199 16:58 13.04.2020
4976 Clouds 14 1035 54 10000 1.98 199 16:40 13.04.2020
4977 Clouds 14 1035 54 10000 1.98 199 16:40 13.04.2020
4978 Clouds 14 1035 54 10000 1.98 199 16:21 13.04.2020
4979 Clouds 13 1035 62 10000 1.98 199 15:58 13.04.2020
4980 Clouds 12 1036 62 10000 1.98 199 15:39 13.04.2020
4981 Clouds 12 1036 62 10000 1.33 197 15:21 13.04.2020
4982 Haze 11 1036 62 10000 1.33 197 14:56 13.04.2020
4983 Haze 8 1035 75 10000 1.5 110 14:38 13.04.2020
4984 Haze 8 1035 75 10000 1.5 110 14:38 13.04.2020
4985 Haze 8 1035 75 10000 1.5 110 14:20 13.04.2020
4986 Clouds 9 1021 26 0 1.42 198 13:55 13.04.2020
4987 Clouds 9 1021 26 0 1.42 198 13:37 13.04.2020
4988 Clouds 9 1021 26 0 1.42 198 13:18 13.04.2020
4989 Clouds 9 1021 26 0 1.42 198 12:56 13.04.2020
4990 Clouds 9 1021 26 0 1.42 198 12:38 13.04.2020
4991 Clouds 9 1020 27 0 1.3 229 12:19 13.04.2020
4992 Clouds 9 1020 27 0 1.3 229 11:42 13.04.2020
4993 Clouds 8 1020 28 0 1.11 226 11:19 13.04.2020
4994 Clouds 9 1020 27 0 1.3 229 10:56 13.04.2020
4995 Clouds 9 1020 27 0 1.3 229 10:38 13.04.2020
4996 Clouds 8 1020 28 0 1.11 226 10:19 13.04.2020
4997 Clouds 9 1020 27 0 1.3 229 09:46 13.04.2020
4998 Clouds 8 1021 29 0 1.54 317 09:26 13.04.2020
4999 Clouds 8 1021 29 0 1.51 298 08:52 13.04.2020
5000 Clouds 8 1021 29 0 1.51 298 08:32 13.04.2020
5001 Clouds 8 1021 29 0 1.51 298 07:59 13.04.2020
5002 Clouds 8 1021 29 0 1.51 298 07:41 13.04.2020
5003 Clouds 8 1021 29 0 1.51 298 07:20 13.04.2020
5004 Clouds 8 1021 29 0 1.51 298 06:47 13.04.2020
5005 Clear 9 1021 28 0 2.07 342 06:25 13.04.2020
5006 Clear 9 1021 28 0 2.07 342 05:32 13.04.2020
5007 Clear 9 1021 28 0 2.07 342 04:53 13.04.2020
5008 Clear 9 1021 28 0 2.07 342 04:24 13.04.2020
5009 Clear 9 1021 28 0 2.07 342 03:47 13.04.2020
5010 Rain 11 1018 26 0 2.79 336 02:59 13.04.2020
5011 Rain 12 1017 26 0 2.55 327 02:25 13.04.2020
5012 Rain 12 1017 26 0 2.55 327 01:42 13.04.2020
5013 Rain 12 1017 26 0 2.55 327 01:23 13.04.2020
5014 Rain 12 1017 26 0 2.55 327 00:42 13.04.2020
5015 Rain 17 1012 19 0 3.35 295 00:20 13.04.2020
5016 Rain 17 1012 19 0 3.35 295 00:20 13.04.2020
5017 Rain 17 1012 19 0 3.35 295 23:48 12.04.2020
5018 Clouds 22 1028 26 10000 6.7 310 23:23 12.04.2020
5019 Clouds 22 1028 26 10000 6.7 310 22:58 12.04.2020
5020 Clouds 22 1028 26 10000 6.7 310 22:37 12.04.2020
5021 Clouds 22 1028 26 10000 6.7 310 22:19 12.04.2020
5022 Clouds 23 1029 25 10000 4.6 300 21:41 12.04.2020
5023 Clouds 23 1029 25 10000 4.6 300 21:22 12.04.2020
5024 Clouds 23 1030 20 10000 2.1 310 20:58 12.04.2020
5025 Clouds 22 1031 24 10000 1 340 20:39 12.04.2020
5026 Clouds 22 1031 24 10000 1 340 20:39 12.04.2020
5027 Clouds 22 1031 24 10000 1 340 20:21 12.04.2020
5028 Clouds 22 1031 24 10000 2.1 310 19:56 12.04.2020
5029 Clouds 22 1031 24 10000 2.1 310 19:37 12.04.2020
5030 Clouds 20 1032 28 10000 2.1 0 19:18 12.04.2020
5031 Clouds 20 1032 28 10000 2.1 0 18:40 12.04.2020
5032 Clouds 19 1033 34 10000 2.6 20 18:22 12.04.2020
5033 Clouds 19 1033 34 10000 2.6 20 17:57 12.04.2020
5034 Clouds 17 1034 42 10000 1 0 17:38 12.04.2020
5035 Clouds 17 1034 42 10000 1 0 17:20 12.04.2020
5036 Clouds 16 1034 44 10000 1 0 16:56 12.04.2020
5037 Clouds 15 1035 47 10000 0.5 20 16:37 12.04.2020
5038 Clouds 15 1035 47 10000 0.5 20 16:19 12.04.2020
5039 Clouds 11 1035 57 10000 1 0 15:42 12.04.2020
5040 Clear 10 1035 57 10000 1 0 15:24 12.04.2020
5041 Clouds 8 1016 85 0 0.93 265 14:41 12.04.2020
5042 Clouds 8 1016 85 0 0.93 265 14:22 12.04.2020
5043 Clouds 8 1016 85 0 0.93 265 13:59 12.04.2020
5044 Clouds 8 1016 83 0 0.93 265 13:40 12.04.2020
5045 Clouds 8 1016 83 0 0.93 265 13:22 12.04.2020
5046 Clouds 8 1015 84 0 0.93 265 12:48 12.04.2020
5047 Clear 6 1019 28 0 1.04 303 12:23 12.04.2020
5048 Clear 6 1019 28 0 1.04 303 11:59 12.04.2020
5049 Clear 6 1019 28 0 1.04 303 11:40 12.04.2020
5050 Clear 7 1014 84 0 1.04 303 11:21 12.04.2020
5051 Clear 7 1014 84 0 1.04 303 11:21 12.04.2020
5052 Clear 7 1014 84 0 1.04 303 10:58 12.04.2020
5053 Clear 7 1014 83 0 1.04 303 10:39 12.04.2020
5054 Clear 7 1014 83 0 1.04 303 10:21 12.04.2020
5055 Clear 7 1014 83 0 1.04 303 10:21 12.04.2020
5056 Clear 7 1014 82 0 1.04 303 09:59 12.04.2020
5057 Clear 7 1014 82 0 1.04 303 09:39 12.04.2020
5058 Clear 7 1014 81 0 1.49 324 09:20 12.04.2020
5059 Clear 7 1014 80 0 1.49 324 08:51 12.04.2020
5060 Clear 7 1014 78 0 1.49 324 08:32 12.04.2020
5061 Clear 8 1014 74 0 1.49 324 07:55 12.04.2020
5062 Clear 8 1014 73 0 1.49 324 07:36 12.04.2020
5063 Clear 8 1014 72 0 1.49 324 07:18 12.04.2020
5064 Clear 8 1015 70 0 1.49 324 06:31 12.04.2020
5065 Clear 9 1015 67 0 1.39 351 05:49 12.04.2020
5066 Clear 9 1015 65 0 1.39 351 05:27 12.04.2020
5067 Clear 10 1020 27 0 1.39 351 03:32 12.04.2020
5068 Clear 12 1016 24 0 2.27 314 02:51 12.04.2020
5069 Clear 12 1016 24 0 2.27 314 02:30 12.04.2020
5070 Rain 12 1016 23 0 1.96 310 01:31 12.04.2020
5071 Rain 12 1016 23 0 1.96 310 00:56 12.04.2020
5072 Rain 12 1016 23 0 1.96 310 00:38 12.04.2020
5073 Rain 12 1016 23 0 1.96 310 00:38 12.04.2020
5074 Clouds 18 1012 15 0 3.11 269 00:19 12.04.2020
5075 Clouds 18 1012 15 0 3.11 269 23:44 11.04.2020
5076 Clouds 21 1028 15 10000 4.1 340 23:23 11.04.2020
5077 Clouds 21 1028 15 10000 4.1 340 22:39 11.04.2020
5078 Clouds 21 1028 15 10000 4.1 340 22:21 11.04.2020
5079 Clouds 21 1028 19 10000 3.6 310 21:56 11.04.2020
5080 Clouds 20 1029 30 10000 2.1 180 21:37 11.04.2020
5081 Clouds 20 1029 30 10000 2.1 180 21:37 11.04.2020
5082 Clouds 20 1029 30 10000 2.1 180 21:18 11.04.2020
5083 Clouds 20 1029 30 10000 2.1 180 21:18 11.04.2020
5084 Clouds 20 1030 24 10000 2.6 100 20:56 11.04.2020
5085 Clouds 19 1031 32 10000 2.1 200 20:38 11.04.2020
5086 Clouds 19 1031 32 10000 2.1 200 20:38 11.04.2020
5087 Clouds 19 1031 32 10000 2.1 200 20:19 11.04.2020
5088 Clouds 19 1031 37 10000 2.1 330 19:57 11.04.2020
5089 Clouds 19 1031 37 10000 2.1 330 19:57 11.04.2020
5090 Clouds 18 1032 32 10000 2.6 320 19:38 11.04.2020
5091 Clouds 17 1032 32 10000 2.1 70 19:18 11.04.2020
5092 Clouds 17 1032 32 10000 2.1 70 18:55 11.04.2020
5093 Clouds 17 1033 32 10000 1.5 10 18:37 11.04.2020
5094 Clouds 16 1033 39 10000 1 270 18:18 11.04.2020
5095 Clouds 15 1033 39 10000 1 270 17:58 11.04.2020
5096 Clouds 15 1034 36 10000 1 50 17:38 11.04.2020
5097 Clouds 15 1034 36 10000 1 50 17:19 11.04.2020
5098 Clouds 13 1034 54 10000 1 70 16:43 11.04.2020
5099 Clouds 13 1034 54 10000 1 70 16:22 11.04.2020
5100 Clouds 12 1034 58 10000 1 80 15:56 11.04.2020
5101 Clouds 9 1035 62 10000 1.15 234 15:36 11.04.2020
5102 Clouds 8 1035 62 10000 0.6 283 15:18 11.04.2020
5103 Clouds 9 1034 76 10000 0.6 283 14:42 11.04.2020
5104 Clouds 9 1034 76 10000 0.6 283 14:42 11.04.2020
5105 Clouds 9 1034 76 10000 0.5 272 14:23 11.04.2020
5106 Clouds 9 1021 28 0 0.5 272 13:58 11.04.2020
5107 Clouds 9 1021 28 0 0.5 272 13:38 11.04.2020
5108 Clouds 9 1021 28 0 0.5 272 13:18 11.04.2020
5109 Clouds 9 1021 28 0 0.5 272 12:41 11.04.2020
5110 Clouds 7 1019 29 0 0.8 251 12:18 11.04.2020
5111 Clouds 7 1019 29 0 0.8 251 11:56 11.04.2020
5112 Clouds 7 1019 29 0 0.8 251 11:38 11.04.2020
5113 Clouds 7 1019 29 0 0.8 251 11:18 11.04.2020
5114 Clouds 7 1019 29 0 0.8 251 10:43 11.04.2020
5115 Clouds 7 1019 29 0 0.8 251 10:43 11.04.2020
5116 Clouds 7 1019 29 0 0.8 251 10:22 11.04.2020
5117 Clouds 7 1019 29 0 0.8 251 09:59 11.04.2020
5118 Clouds 7 1019 29 0 0.8 251 09:39 11.04.2020
5119 Clouds 7 1019 29 0 0.75 271 09:39 11.04.2020
5120 Rain 8 1020 28 0 1.06 316 09:21 11.04.2020
5121 Rain 8 1020 28 0 1.06 316 08:47 11.04.2020
5122 Rain 8 1020 28 0 1.06 316 08:28 11.04.2020
5123 Rain 8 1020 28 0 1.06 316 07:52 11.04.2020
5124 Rain 8 1020 28 0 1.06 316 07:34 11.04.2020
5125 Rain 8 1020 28 0 1.06 316 06:50 11.04.2020
5126 Rain 10 1020 28 0 1.07 336 06:20 11.04.2020
5127 Rain 10 1020 28 0 1.07 336 05:55 11.04.2020
5128 Rain 4 1016 72 0 1.07 336 03:41 11.04.2020
5129 Rain 8 1016 56 0 1.8 305 02:24 11.04.2020
5130 Rain 11 1015 44 0 1.8 305 01:24 11.04.2020
5131 Rain 12 1015 32 0 1.8 305 00:44 11.04.2020
5132 Rain 18 1012 18 0 2.63 273 00:20 11.04.2020
5133 Rain 13 1015 29 0 2.63 273 23:58 10.04.2020
5134 Clouds 16 1029 32 10000 6.2 310 23:39 10.04.2020
5135 Clouds 16 1029 32 10000 6.2 310 23:19 10.04.2020
5136 Clouds 16 1029 32 10000 6.2 310 22:44 10.04.2020
5137 Clouds 20 1029 32 10000 6.2 310 22:22 10.04.2020
5138 Clouds 20 1029 32 10000 6.2 310 22:22 10.04.2020
5139 Clouds 17 1029 28 10000 6.7 300 21:58 10.04.2020
5140 Clouds 16 1029 32 10000 3.1 90 21:40 10.04.2020
5141 Clouds 16 1029 32 10000 3.1 90 21:20 10.04.2020
5142 Clouds 20 1030 40 10000 4.1 100 20:55 10.04.2020
5143 Rain 15 1031 37 10000 2.6 100 20:37 10.04.2020
5144 Rain 19 1031 37 10000 2.6 100 20:18 10.04.2020
5145 Clouds 19 1032 39 10000 1 0 19:41 10.04.2020
5146 Clouds 15 1032 40 10000 2.1 140 19:21 10.04.2020
5147 Clouds 20 1032 40 10000 2.1 140 18:58 10.04.2020
5148 Clouds 19 1033 42 10000 1.5 50 18:40 10.04.2020
5149 Clouds 19 1033 42 10000 1.5 50 18:40 10.04.2020
5150 Clouds 14 1033 42 10000 1.5 50 18:22 10.04.2020
5151 Clouds 19 1034 45 10000 0.5 320 17:59 10.04.2020
5152 Clouds 17 1034 51 10000 0.5 220 17:40 10.04.2020
5153 Clouds 12 1034 51 10000 0.5 220 17:21 10.04.2020
5154 Clouds 17 1034 51 10000 0.5 90 16:57 10.04.2020
5155 Clouds 17 1034 51 10000 0.5 90 16:57 10.04.2020
5156 Clouds 15 1035 54 10000 0.5 220 16:38 10.04.2020
5157 Clouds 10 1035 54 10000 0.5 220 16:20 10.04.2020
5158 Clouds 9 1035 62 10000 0.5 210 15:57 10.04.2020
5159 Mist 8 1034 81 10000 0.87 244 15:38 10.04.2020
5160 Mist 8 1034 81 10000 0.34 24 15:19 10.04.2020
5161 Mist 6 1034 87 10000 0.34 24 14:58 10.04.2020
5162 Mist 6 1034 87 10000 1 0 14:39 10.04.2020
5163 Mist 5 1034 87 10000 1 0 14:19 10.04.2020
5164 Clouds 3 1016 57 0 0.44 18 13:43 10.04.2020
5165 Clouds 4 1015 55 0 0.89 208 13:22 10.04.2020
5166 Clouds 5 1014 61 0 0.45 69 12:44 10.04.2020
5167 Clear 6 1013 63 0 0.45 78 12:24 10.04.2020
5168 Clear 6 1013 65 0 1.34 132 11:58 10.04.2020
5169 Clear 7 1012 65 0 0.45 111 11:40 10.04.2020
5170 Clear 7 1012 62 0 0.89 238 11:22 10.04.2020
5171 Clear 7 1012 62 0 0.96 14 10:47 10.04.2020
5172 Clear 7 1012 62 0 0.96 14 10:47 10.04.2020
5173 Clear 7 1011 61 0 0.45 38 10:24 10.04.2020
5174 Clear 7 1010 61 0 0.96 14 09:59 10.04.2020
5175 Clouds 8 1010 62 0 0.24 329 09:40 10.04.2020
5176 Rain 8 1009 59 0 1.79 28 09:20 10.04.2020
5177 Rain 8 1009 63 0 1.79 28 08:44 10.04.2020
5178 Rain 8 1009 69 0 1.79 28 08:24 10.04.2020
5179 Rain 7 1009 76 0 1.79 28 07:47 10.04.2020
5180 Rain 8 1009 73 0 1.79 28 07:27 10.04.2020
5181 Rain 8 1009 73 0 1.79 28 06:59 10.04.2020
5182 Rain 9 1009 64 0 1.79 28 06:30 10.04.2020
5183 Rain 9 1009 64 0 1.79 28 06:30 10.04.2020
5184 Rain 9 1009 57 0 1.26 348 05:56 10.04.2020
5185 Rain 9 1009 59 0 1.26 348 05:19 10.04.2020
5186 Rain 10 1020 28 0 1.26 348 03:55 10.04.2020
5187 Rain 10 1020 28 0 1.26 348 03:32 10.04.2020
5188 Rain 10 1020 28 0 1.26 348 03:32 10.04.2020
5189 Rain 12 1017 27 0 1.43 338 02:50 10.04.2020
5190 Rain 12 1017 27 0 1.43 338 02:31 10.04.2020
5191 Rain 16 1006 33 0 1.59 341 01:30 10.04.2020
5192 Rain 12 1016 26 0 1.59 341 00:55 10.04.2020
5193 Rain 12 1016 26 0 1.59 341 00:37 10.04.2020
5194 Rain 17 1012 21 0 2.13 325 00:18 10.04.2020
5195 Rain 17 1012 21 0 2.13 325 23:41 09.04.2020
5196 Clouds 19 1028 42 10000 3.6 280 23:20 09.04.2020
5197 Clouds 19 1028 42 10000 3.6 280 22:54 09.04.2020
5198 Clouds 19 1028 42 10000 3.6 280 22:36 09.04.2020
5199 Clouds 19 1028 42 10000 3.6 280 22:18 09.04.2020
5200 Clouds 21 1029 30 10000 2.1 220 21:38 09.04.2020
5201 Clouds 21 1029 30 10000 2.1 220 21:19 09.04.2020
5202 Clouds 22 1030 33 10000 2.1 0 20:45 09.04.2020
5203 Clouds 22 1030 33 10000 2.1 0 20:21 09.04.2020
5204 Clouds 21 1031 32 10000 2.1 0 19:58 09.04.2020
5205 Clouds 20 1032 37 10000 1 0 19:37 09.04.2020
5206 Clouds 21 1033 37 10000 2.6 280 19:18 09.04.2020
5207 Clouds 19 1034 39 10000 2.6 290 18:42 09.04.2020
5208 Clouds 19 1034 39 10000 2.6 290 18:20 09.04.2020
5209 Clouds 17 1035 45 10000 1 0 17:43 09.04.2020
5210 Clouds 17 1035 45 10000 1 0 17:24 09.04.2020
5211 Clouds 16 1035 55 10000 1 330 16:57 09.04.2020
5212 Clouds 14 1035 62 10000 1 60 16:38 09.04.2020
5213 Clouds 14 1035 62 10000 1 60 16:19 09.04.2020
5214 Clouds 12 1035 71 10000 1.5 90 15:55 09.04.2020
5215 Clouds 10 1033 81 10000 1.5 100 15:37 09.04.2020
5216 Clouds 10 1033 81 10000 1.5 100 15:18 09.04.2020
5217 Clouds 10 1034 81 10000 0.5 360 14:41 09.04.2020
5218 Clouds 10 1022 27 0 0.53 25 14:21 09.04.2020
5219 Clouds 10 1022 27 0 0.53 25 13:54 09.04.2020
5220 Clouds 10 1022 27 0 0.53 25 13:36 09.04.2020
5221 Clouds 10 1022 27 0 0.53 25 13:18 09.04.2020
5222 Clouds 10 1022 27 0 0.53 25 12:42 09.04.2020
5223 Clouds 9 1020 29 0 1.15 336 12:23 09.04.2020
5224 Clouds 9 1020 29 0 1.15 336 11:58 09.04.2020
5225 Clouds 9 1020 29 0 1.15 336 11:38 09.04.2020
5226 Clouds 9 1020 29 0 1.15 336 11:20 09.04.2020
5227 Clouds 9 1020 29 0 1.15 336 10:57 09.04.2020
5228 Clouds 9 1020 29 0 1.15 336 10:38 09.04.2020
5229 Clouds 9 1020 29 0 1.15 336 10:19 09.04.2020
5230 Clouds 9 1020 29 0 1.15 336 09:55 09.04.2020
5231 Clouds 9 1020 29 0 1.15 336 09:37 09.04.2020
5232 Rain 10 1022 29 0 0.67 296 09:19 09.04.2020
5233 Rain 10 1022 29 0 0.67 296 08:42 09.04.2020
5234 Rain 10 1022 29 0 0.67 296 08:23 09.04.2020
5235 Rain 10 1022 29 0 0.67 296 07:51 09.04.2020
5236 Rain 10 1022 29 0 0.67 296 07:23 09.04.2020
5237 Rain 10 1022 29 0 0.67 296 06:51 09.04.2020
5238 Rain 10 1021 29 0 1.03 32 05:56 09.04.2020
5239 Rain 10 1021 29 0 1.03 32 05:37 09.04.2020
5240 Rain 12 1018 28 0 2.06 358 03:20 09.04.2020
5241 Rain 12 1018 27 0 2.06 351 02:21 09.04.2020
5242 Rain 12 1018 27 0 2.06 351 01:40 09.04.2020
5243 Rain 12 1018 27 0 2.06 351 01:19 09.04.2020
5244 Rain 12 1018 27 0 2.06 351 00:39 09.04.2020
5245 Rain 16 1014 22 0 2.51 343 00:19 09.04.2020
5246 Rain 16 1014 22 0 2.51 343 00:19 09.04.2020
5247 Rain 16 1014 22 0 2.51 343 23:56 08.04.2020
5248 Clouds 20 1029 37 10000 7.2 290 23:37 08.04.2020
5249 Clouds 20 1029 37 10000 7.2 290 23:19 08.04.2020
5250 Clouds 20 1029 37 10000 7.2 290 22:42 08.04.2020
5251 Clouds 22 1030 30 10000 1.5 330 22:23 08.04.2020
5252 Clouds 22 1030 30 10000 1.5 330 21:56 08.04.2020
5253 Clouds 22 1030 30 10000 1.5 330 21:37 08.04.2020
5254 Clouds 22 1030 30 10000 1.5 330 21:37 08.04.2020
5255 Clouds 22 1030 33 10000 2.1 0 21:19 08.04.2020
5256 Clouds 21 1031 32 10000 1.5 0 20:56 08.04.2020
5257 Clouds 21 1031 32 10000 1.5 0 20:38 08.04.2020
5258 Clouds 19 1032 39 10000 1 0 20:19 08.04.2020
5259 Clouds 20 1033 34 10000 1.5 0 19:41 08.04.2020
5260 Clouds 19 1034 39 10000 1.66 300 19:21 08.04.2020
5261 Clouds 19 1034 39 10000 1.66 300 18:55 08.04.2020
5262 Clouds 18 1035 45 10000 1 350 18:37 08.04.2020
5263 Clouds 18 1035 39 10000 0.5 140 18:19 08.04.2020
5264 Clouds 17 1035 48 10000 1 290 17:42 08.04.2020
5265 Clouds 17 1035 48 10000 1 290 17:22 08.04.2020
5266 Clouds 16 1036 48 10000 1 90 16:57 08.04.2020
5267 Clouds 15 1036 51 10000 0.5 320 16:39 08.04.2020
5268 Clouds 14 1036 62 10000 1 350 16:20 08.04.2020
5269 Clouds 12 1036 66 10000 1.5 110 15:39 08.04.2020
5270 Clouds 12 1036 66 10000 1.5 110 15:21 08.04.2020
5271 Clouds 12 1035 66 10000 2.6 110 14:58 08.04.2020
5272 Clouds 12 1035 66 10000 2.6 110 14:58 08.04.2020
5273 Clouds 12 1035 66 10000 2.6 110 14:39 08.04.2020
5274 Clouds 12 1035 66 10000 2.6 110 14:21 08.04.2020
5275 Clouds 10 1023 29 0 0.76 148 13:44 08.04.2020
5276 Clouds 10 1023 29 0 0.76 148 13:21 08.04.2020
5277 Clouds 10 1023 29 0 0.76 148 12:57 08.04.2020
5278 Clouds 10 1023 29 0 0.76 148 12:39 08.04.2020
5279 Clouds 9 1021 30 0 0.35 262 12:18 08.04.2020
5280 Clouds 9 1021 30 0 0.35 262 12:18 08.04.2020
5281 Clouds 9 1021 30 0 0.35 262 12:18 08.04.2020
5282 Clouds 9 1021 30 0 0.35 262 12:18 08.04.2020
5283 Clouds 9 1021 30 0 0.35 262 11:42 08.04.2020
5284 Clouds 9 1021 30 0 0.35 262 11:23 08.04.2020
5285 Clouds 9 1021 30 0 0.35 262 10:58 08.04.2020
5286 Clouds 9 1021 30 0 0.35 262 10:39 08.04.2020
5287 Clouds 9 1021 30 0 0.35 262 10:21 08.04.2020
5288 Clouds 9 1021 30 0 0.35 262 09:57 08.04.2020
5289 Clouds 9 1021 30 0 0.35 262 09:39 08.04.2020
5290 Clouds 10 1022 29 0 0.69 320 09:18 08.04.2020
5291 Clouds 10 1022 29 0 0.69 320 09:18 08.04.2020
5292 Clouds 10 1022 29 0 0.69 320 09:18 08.04.2020
5293 Clouds 10 1022 29 0 0.69 320 08:56 08.04.2020
5294 Clouds 10 1022 29 0 0.69 320 08:38 08.04.2020
5295 Clouds 10 1022 29 0 0.69 320 08:20 08.04.2020
5296 Clouds 10 1022 29 0 0.69 320 07:42 08.04.2020
5297 Clouds 10 1022 29 0 0.69 320 07:20 08.04.2020
5298 Clouds 10 1023 29 0 1.63 2 06:23 08.04.2020
5299 Clouds 10 1023 29 0 1.63 2 04:54 08.04.2020
5300 Rain 12 1019 28 0 2.07 29 02:50 08.04.2020
5301 Rain 12 1019 27 0 2.2 33 02:21 08.04.2020
5302 Rain 12 1019 27 0 2.2 33 01:56 08.04.2020
5303 Rain 12 1019 27 0 2.2 33 01:27 08.04.2020
5304 Rain 12 1019 27 0 2.2 33 01:27 08.04.2020
5305 Rain 12 1019 27 0 2.2 33 00:44 08.04.2020
5306 Rain 16 1014 22 0 2.56 355 00:23 08.04.2020
5307 Clouds 21 1031 35 10000 4.6 20 23:40 07.04.2020
5308 Clouds 21 1031 35 10000 4.6 20 23:22 07.04.2020
5309 Clouds 21 1031 35 10000 4.6 20 22:59 07.04.2020
5310 Clouds 21 1031 35 10000 4.6 20 22:40 07.04.2020
5311 Clouds 23 1031 31 10000 2.1 0 22:21 07.04.2020
5312 Clouds 23 1031 31 10000 2.1 0 21:59 07.04.2020
5313 Clouds 23 1031 31 10000 2.1 0 21:41 07.04.2020
5314 Clouds 21 1032 35 10000 2.1 150 21:21 07.04.2020
5315 Clouds 21 1032 35 10000 2.1 150 21:21 07.04.2020
5316 Clouds 21 1033 37 10000 2.6 50 20:58 07.04.2020
5317 Clouds 21 1033 37 10000 2.6 50 20:39 07.04.2020
5318 Clouds 21 1033 37 10000 2.6 50 20:20 07.04.2020
5319 Clouds 20 1033 37 10000 2.1 170 19:57 07.04.2020
5320 Clouds 20 1033 37 10000 2.1 170 19:37 07.04.2020
5321 Clouds 20 1035 40 10000 1.5 0 19:19 07.04.2020
5322 Clouds 20 1035 40 10000 1 0 18:57 07.04.2020
5323 Clouds 18 1036 42 10000 1.5 0 18:39 07.04.2020
5324 -273 0 0 0 0 0 18:19 07.04.2020
5325 Clouds 16 1037 51 10000 1 100 17:45 07.04.2020
5326 Clouds 16 1037 51 10000 2.6 0 17:21 07.04.2020
5327 Clouds 15 1037 62 10000 2.1 90 16:48 07.04.2020
5328 Rain 14 1037 62 10000 2.1 90 16:29 07.04.2020
5329 -273 0 0 0 0 0 15:59 07.04.2020
5330 Clouds 14 1037 66 10000 2.1 100 15:41 07.04.2020
5331 Clouds 10 1036 76 10000 0.46 285 15:23 07.04.2020
5332 Clouds 10 1036 76 10000 0.46 285 15:23 07.04.2020
5333 Clouds 10 1023 27 0 0.46 285 14:42 07.04.2020
5334 Clouds 10 1023 27 0 0.27 258 14:23 07.04.2020
5335 Clouds 10 1023 27 0 0.27 258 13:57 07.04.2020
5336 Clouds 10 1023 27 0 0.27 258 13:39 07.04.2020
5337 Rain 10 1016 96 0 0.27 258 13:18 07.04.2020
5338 Rain 10 1016 96 0 0.27 258 12:55 07.04.2020
5339 Clouds 10 1016 96 0 0.27 258 12:37 07.04.2020
5340 Clear 7 1021 28 0 0.36 294 12:18 07.04.2020
5341 Clear 7 1021 28 0 0.36 294 11:44 07.04.2020
5342 Clear 7 1021 28 0 0.36 294 11:26 07.04.2020
5343 Clear 7 1021 28 0 0.36 294 10:59 07.04.2020
5344 Clear 7 1021 28 0 0.36 294 10:38 07.04.2020
5345 Clear 7 1021 28 0 0.36 294 10:19 07.04.2020
5346 Clear 7 1021 28 0 0.36 294 09:46 07.04.2020
5347 Clouds 9 1021 28 0 0.85 335 09:20 07.04.2020
5348 Clouds 9 1021 28 0 0.85 335 08:59 07.04.2020
5349 Clouds 9 1021 28 0 0.85 335 08:39 07.04.2020
5350 Clouds 9 1021 28 0 0.85 335 08:19 07.04.2020
5351 Clouds 9 1021 28 0 0.85 335 07:44 07.04.2020
5352 Clouds 9 1021 28 0 0.85 335 07:26 07.04.2020
5353 Clouds 9 1021 28 0 0.85 335 06:52 07.04.2020
5354 Clouds 11 1021 27 0 1.56 5 06:25 07.04.2020
5355 Clouds 11 1021 27 0 1.56 5 05:48 07.04.2020
5356 Clouds 11 1021 27 0 1.56 5 05:23 07.04.2020
5357 Clouds 11 1021 27 0 1.56 5 03:34 07.04.2020
5358 Rain 12 1018 26 0 1.63 19 02:59 07.04.2020
5359 Rain 12 1018 26 0 1.63 19 02:35 07.04.2020
5360 Rain 12 1018 27 0 1.87 16 01:34 07.04.2020
5361 Rain 12 1018 27 0 1.87 16 00:52 07.04.2020
5362 Rain 17 1013 22 0 2.6 1 00:25 07.04.2020
5363 Rain 17 1013 22 0 2.6 1 23:40 06.04.2020
5364 Clouds 16 1032 55 10000 5.1 270 23:21 06.04.2020
5365 Clouds 16 1032 55 10000 5.1 270 22:42 06.04.2020
5366 Rain 17 1032 55 10000 5.1 270 22:23 06.04.2020
5367 Rain 15 1032 54 10000 4.6 280 21:59 06.04.2020
5368 Thunderstorm 17 1032 42 10000 4.1 20 21:41 06.04.2020
5369 Thunderstorm 17 1032 42 10000 4.1 20 21:19 06.04.2020
5370 Rain 18 1032 42 10000 2.6 70 20:56 06.04.2020
5371 Rain 18 1032 42 10000 2.6 70 20:56 06.04.2020
5372 Rain 19 1032 48 10000 4.1 100 20:38 06.04.2020
5373 Rain 19 1032 48 10000 4.1 100 20:19 06.04.2020
5374 Clouds 19 1032 39 10000 2.6 110 19:56 06.04.2020
5375 Clouds 20 1033 45 10000 1 110 19:38 06.04.2020
5376 Clouds 19 1034 45 10000 2.19 353 19:19 06.04.2020
5377 Clouds 19 1034 45 10000 2.19 353 19:19 06.04.2020
5378 Clouds 18 1035 45 10000 1.5 340 18:42 06.04.2020
5379 Clouds 17 1035 45 10000 1 70 18:23 06.04.2020
5380 Clouds 17 1035 45 10000 1 70 17:56 06.04.2020
5381 Clouds 16 1036 51 10000 2.1 80 17:38 06.04.2020
5382 Clouds 16 1036 51 10000 2.1 80 17:18 06.04.2020
5383 Clouds 15 1036 54 10000 1 220 16:47 06.04.2020
5384 Clouds 15 1036 54 10000 1 220 16:29 06.04.2020
5385 Clouds 15 1036 54 10000 1 220 16:29 06.04.2020
5386 Clouds 11 1036 76 10000 0.92 181 14:46 06.04.2020
5387 Clouds 11 1036 76 10000 0.92 181 14:46 06.04.2020
5388 Clouds 11 1036 76 10000 0.92 181 14:46 06.04.2020
5389 Clouds 11 1036 76 10000 0.92 181 14:46 06.04.2020
5390 Clouds 11 1036 76 10000 0.92 181 14:46 06.04.2020
5391 Clouds 8 1019 95 0 0.58 177 13:44 06.04.2020
5392 Clouds 8 1019 94 0 0.58 177 13:21 06.04.2020
5393 Clouds 9 1018 95 0 0.58 177 12:41 06.04.2020
5394 Clouds 8 1020 29 0 0.22 225 12:19 06.04.2020
5395 Clouds 8 1020 29 0 0.22 225 12:19 06.04.2020
5396 Clouds 8 1020 29 0 0.22 225 12:19 06.04.2020
5397 Clouds 8 1020 29 0 0.22 225 11:40 06.04.2020
5398 Clouds 8 1020 29 0 0.22 225 10:56 06.04.2020
5399 Clouds 8 1020 29 0 0.22 225 10:37 06.04.2020
5400 Clouds 8 1020 29 0 0.22 225 10:19 06.04.2020
5401 Clouds 8 1020 29 0 0.22 225 10:19 06.04.2020
5402 Clouds 8 1020 29 0 0.22 225 10:19 06.04.2020
5403 Clouds 8 1020 29 0 0.22 225 10:19 06.04.2020
5404 Clouds 8 1020 29 0 0.22 225 10:19 06.04.2020
5405 Clouds 9 1018 93 0 0.22 225 09:38 06.04.2020
5406 Clouds 9 1018 93 0 0.22 225 09:38 06.04.2020
5407 Clouds 9 1018 93 0 0.22 225 09:38 06.04.2020
5408 Clouds 9 1018 93 0 0.22 225 09:38 06.04.2020
5409 Rain 9 1018 93 0 0.37 341 09:19 06.04.2020
5410 Rain 9 1018 92 0 0.61 353 08:43 06.04.2020
5411 Rain 9 1018 92 0 0.61 353 08:43 06.04.2020
5412 Rain 9 1018 92 0 0.61 353 08:43 06.04.2020
5413 Rain 9 1018 92 0 0.61 353 08:43 06.04.2020
5414 Rain 9 1018 92 0 0.61 353 08:43 06.04.2020
5415 Rain 10 1018 91 0 0.61 353 07:59 06.04.2020
5416 Rain 10 1018 91 0 0.61 353 07:59 06.04.2020
5417 Rain 9 1021 28 0 0.61 353 07:20 06.04.2020
5418 Rain 9 1021 28 0 0.61 353 06:26 06.04.2020
5419 Rain 11 1020 28 0 1.48 5 05:43 06.04.2020
5420 Rain 11 1020 28 0 1.48 5 05:43 06.04.2020
5421 Rain 11 1020 28 0 1.48 5 05:43 06.04.2020
5422 Rain 11 1020 28 0 1.48 5 03:35 06.04.2020
5423 Rain 12 1018 26 0 2.04 356 02:49 06.04.2020
5424 Rain 12 1017 25 0 1.77 335 01:53 06.04.2020
5425 Rain 12 1017 25 0 1.77 335 00:52 06.04.2020
5426 Rain 12 1017 25 0 1.77 335 00:27 06.04.2020
5427 Rain 17 1013 19 0 1.84 331 23:50 05.04.2020
5428 Rain 17 1013 19 0 1.84 331 23:32 05.04.2020
5429 Rain 17 1013 19 0 1.84 331 23:32 05.04.2020
5430 Clouds 18 1030 45 10000 1.5 30 22:57 05.04.2020
5431 Clouds 18 1030 45 10000 1.5 30 22:38 05.04.2020
5432 Clouds 18 1030 45 10000 1.5 30 22:19 05.04.2020
5433 Clouds 17 1031 48 10000 3.6 30 21:59 05.04.2020
5434 Rain 15 1031 54 10000 6.7 20 21:40 05.04.2020
5435 Rain 15 1031 54 10000 6.7 20 21:22 05.04.2020
5436 Clouds 18 1032 45 10000 3.1 10 20:22 05.04.2020
5437 Clouds 18 1032 45 10000 3.1 10 20:22 05.04.2020
5438 Clouds 18 1032 45 10000 2.1 220 19:42 05.04.2020
5439 Clouds 16 1033 48 10000 2.1 210 19:22 05.04.2020
5440 Clouds 16 1033 51 10000 1 0 18:47 05.04.2020
5441 Clouds 16 1034 55 10000 1 0 18:18 05.04.2020
5442 Clouds 15 1034 54 10000 0.5 0 17:41 05.04.2020
5443 Clouds 15 1034 54 10000 0.5 0 17:41 05.04.2020
5444 Clouds 15 1034 54 10000 0.5 0 17:41 05.04.2020
5445 Clouds 14 1034 62 10000 2.43 187 17:20 05.04.2020
5446 Clouds 13 1034 66 10000 0.5 0 16:47 05.04.2020
5447 Clouds 13 1034 66 10000 0.5 0 16:18 05.04.2020
5448 Clouds 13 1034 66 10000 1 0 15:45 05.04.2020
5449 Clouds 12 1034 71 10000 1 0 15:25 05.04.2020
5450 Clouds 10 1034 71 10000 1 0 14:48 05.04.2020
5451 Clouds 10 1034 71 10000 1 0 14:48 05.04.2020
5452 Clouds 10 1034 71 10000 1 0 14:48 05.04.2020
5453 Rain 6 1016 95 0 1.62 142 13:47 05.04.2020
5454 Rain 6 1016 95 0 1.62 142 13:47 05.04.2020
5455 Rain 6 1016 94 0 1.62 142 13:01 05.04.2020
5456 Rain 7 1015 93 0 0.57 148 11:58 05.04.2020
5457 Rain 7 1015 93 0 0.57 148 11:38 05.04.2020
5458 Rain 7 1015 93 0 0.57 148 11:19 05.04.2020
5459 Rain 7 1015 92 0 0.57 148 10:45 05.04.2020
5460 Rain 8 1015 92 0 0.57 148 10:21 05.04.2020
5461 Rain 8 1015 91 0 0.57 148 09:52 05.04.2020
5462 Rain 8 1015 91 0 0.57 148 09:52 05.04.2020
5463 Rain 8 1015 91 0 0.61 153 09:25 05.04.2020
5464 Rain 8 1015 91 0 0.57 148 09:25 05.04.2020
5465 Rain 8 1015 91 0 0.57 148 09:25 05.04.2020
5466 Rain 8 1015 91 0 0.57 148 09:25 05.04.2020
5467 Rain 8 1015 91 0 0.57 148 09:25 05.04.2020
5468 Rain 9 1020 29 0 0.98 175 07:58 05.04.2020
5469 Rain 9 1020 29 0 1.4 17 05:09 05.04.2020
5470 Rain 9 1020 29 0 1.4 17 03:35 05.04.2020
5471 Rain 11 1016 27 0 2.77 9 02:56 05.04.2020
5472 Rain 11 1016 28 0 2.78 2 01:52 05.04.2020
5473 Rain 11 1016 28 0 2.78 2 01:52 05.04.2020
5474 Rain 11 1016 28 0 2.78 2 01:33 05.04.2020
5475 Rain 11 1016 28 0 2.78 2 00:52 05.04.2020
5476 Rain 11 1016 28 0 2.78 2 00:22 05.04.2020
5477 Rain 17 1010 21 0 2.9 353 23:58 04.04.2020
5478 Rain 17 1010 21 0 2.9 353 23:58 04.04.2020
5479 Rain 17 1010 21 0 2.9 353 23:38 04.04.2020
5480 Clouds 16 1029 51 10000 9.3 290 23:20 04.04.2020
5481 Clouds 16 1029 51 10000 9.3 290 22:56 04.04.2020
5482 Clouds 16 1029 51 10000 9.3 290 22:38 04.04.2020
5483 Clouds 16 1029 51 10000 9.3 290 22:19 04.04.2020
5484 Clouds 16 1029 51 10000 9.3 290 22:19 04.04.2020
5485 Clouds 19 1029 37 10000 0.5 0 21:55 04.04.2020
5486 Clouds 19 1029 37 10000 0.5 0 21:37 04.04.2020
5487 Clouds 17 1030 45 10000 3.1 10 21:18 04.04.2020
5488 Clouds 16 1030 48 10000 3.6 10 20:43 04.04.2020
5489 Clouds 18 1031 48 10000 1.5 30 20:23 04.04.2020
5490 Clouds 16 1032 55 10000 2.6 310 19:59 04.04.2020
5491 Clouds 16 1032 55 10000 2.6 310 19:39 04.04.2020
5492 Clouds 16 1032 51 10000 2.6 270 19:20 04.04.2020
5493 Clouds 16 1032 55 10000 1 300 18:59 04.04.2020
5494 Clouds 15 1033 51 10000 0.5 80 18:39 04.04.2020
5495 Clouds 15 1033 51 10000 0.5 80 18:20 04.04.2020
5496 Clouds 15 1033 51 10000 1.5 110 17:58 04.04.2020
5497 Clouds 15 1033 51 10000 1.5 110 17:38 04.04.2020
5498 Clouds 16 1034 55 10000 1.5 70 17:19 04.04.2020
5499 Clouds 14 1034 58 10000 1 260 16:42 04.04.2020
5500 Clouds 14 1034 58 10000 0.5 350 16:24 04.04.2020
5501 Clouds 12 1034 66 10000 0.5 0 15:58 04.04.2020
5502 Clouds 12 1034 66 10000 0.5 0 15:38 04.04.2020
5503 Clouds 11 1034 76 10000 2.6 110 15:19 04.04.2020
5504 Clouds 10 1033 81 10000 0.5 110 14:46 04.04.2020
5505 Clouds 10 1033 76 10000 0.5 110 14:25 04.04.2020
5506 Clouds 9 1020 27 0 0.53 43 14:00 04.04.2020
5507 Clouds 9 1020 27 0 0.53 43 13:41 04.04.2020
5508 Clouds 9 1020 27 0 0.53 43 13:41 04.04.2020
5509 Clouds 9 1020 27 0 0.53 43 13:20 04.04.2020
5510 Clouds 9 1020 27 0 0.53 43 12:58 04.04.2020
5511 Clouds 9 1020 27 0 0.53 43 12:39 04.04.2020
5512 Clouds 7 1018 29 0 0.22 263 12:20 04.04.2020
5513 Clouds 7 1018 29 0 0.22 263 11:41 04.04.2020
5514 Clouds 7 1018 29 0 0.22 263 11:23 04.04.2020
5515 Clouds 7 1018 29 0 0.22 263 10:58 04.04.2020
5516 Clouds 7 1018 29 0 0.22 263 10:40 04.04.2020
5517 Clouds 7 1018 29 0 0.22 263 10:22 04.04.2020
5518 Clouds 7 1018 29 0 0.22 263 09:55 04.04.2020
5519 Clouds 7 1018 29 0 0.22 263 09:37 04.04.2020
5520 Clouds 8 1020 28 0 0.83 356 09:19 04.04.2020
5521 Clouds 8 1020 28 0 0.86 3 08:42 04.04.2020
5522 Clouds 8 1020 28 0 0.86 3 08:23 04.04.2020
5523 Clouds 8 1020 28 0 0.86 3 07:57 04.04.2020
5524 Clouds 8 1020 28 0 0.86 3 07:38 04.04.2020
5525 Clouds 8 1020 28 0 0.86 3 07:20 04.04.2020
5526 Clouds 8 1020 28 0 0.86 3 06:29 04.04.2020
5527 Clouds 9 1021 27 0 1.75 28 05:52 04.04.2020
5528 Clouds 9 1021 27 0 1.75 28 05:32 04.04.2020
5529 Clouds 9 1021 27 0 1.75 28 04:34 04.04.2020
5530 Clouds 9 1021 27 0 1.75 28 03:56 04.04.2020
5531 Clouds 9 1021 27 0 1.75 28 03:29 04.04.2020
5532 Rain 10 1018 27 0 2.12 36 02:45 04.04.2020
5533 Clouds 10 1018 27 0 2.22 42 02:25 04.04.2020
5534 Clouds 10 1018 27 0 2.22 42 01:27 04.04.2020
5535 Clouds 10 1018 27 0 2.22 42 00:58 04.04.2020
5536 Clouds 10 1018 27 0 2.22 42 00:31 04.04.2020
5537 Rain 14 1014 22 0 2.89 38 23:57 03.04.2020
5538 Rain 14 1014 22 0 2.89 38 23:38 03.04.2020
5539 Clouds 20 1029 32 10000 2.89 38 23:19 03.04.2020
5540 Clouds 20 1029 32 10000 2.89 38 22:40 03.04.2020
5541 Clouds 20 1029 32 10000 2.89 38 22:19 03.04.2020
5542 Clouds 20 1029 32 10000 2.89 38 22:19 03.04.2020
5543 Clouds 20 1029 32 10000 2.89 38 22:19 03.04.2020
5544 Clouds 19 1031 32 10000 1.5 0 21:57 03.04.2020
5545 Clouds 19 1031 32 10000 1.5 0 21:38 03.04.2020
5546 Clouds 19 1031 32 10000 1.5 0 21:20 03.04.2020
5547 Clouds 19 1031 32 10000 1.5 0 20:55 03.04.2020
5548 Clouds 19 1032 34 10000 3.56 36 20:36 03.04.2020
5549 Clouds 19 1032 34 10000 3.56 36 20:18 03.04.2020
5550 Clouds 19 1033 32 10000 1.5 70 19:55 03.04.2020
5551 Clouds 19 1034 34 10000 1.5 100 19:36 03.04.2020
5552 Clouds 19 1034 34 10000 1.5 100 19:36 03.04.2020
5553 Clouds 19 1034 34 10000 1.5 100 19:18 03.04.2020
5554 Clouds 19 1034 34 10000 1.5 100 19:18 03.04.2020
5555 Clouds 18 1034 42 10000 2.6 280 18:56 03.04.2020
5556 Clouds 18 1035 36 10000 1 210 18:38 03.04.2020
5557 Clouds 17 1036 39 10000 1 0 18:19 03.04.2020
5558 Clouds 17 1036 39 10000 1 0 17:40 03.04.2020
5559 Clouds 16 1036 41 10000 1.5 120 17:19 03.04.2020
5560 Clouds 15 1037 51 10000 2.6 110 16:55 03.04.2020
5561 Clouds 14 1037 58 10000 2.1 100 16:36 03.04.2020
5562 Clouds 14 1037 58 10000 2.1 100 16:18 03.04.2020
5563 Clouds 13 1037 58 10000 1.25 255 15:41 03.04.2020
5564 Clouds 11 1037 66 10000 1.5 80 15:22 03.04.2020
5565 Clouds 10 1023 25 0 0.51 166 14:58 03.04.2020
5566 Clouds 10 1023 25 0 0.51 166 14:40 03.04.2020
5567 Clear 10 1023 24 0 0.72 116 14:21 03.04.2020
5568 Clear 10 1023 24 0 0.72 116 13:46 03.04.2020
5569 Clear 10 1023 24 0 0.72 116 13:27 03.04.2020
5570 Clear 10 1023 24 0 0.72 116 12:57 03.04.2020
5571 Clear 10 1023 24 0 0.72 116 12:39 03.04.2020
5572 Clear 7 1021 26 0 0.2 103 12:18 03.04.2020
5573 Clear 7 1021 26 0 0.2 103 11:55 03.04.2020
5574 Clear 7 1021 26 0 0.2 103 11:37 03.04.2020
5575 Clear 7 1021 26 0 0.2 103 11:18 03.04.2020
5576 Clear 7 1021 26 0 0.2 103 10:56 03.04.2020
5577 Clear 7 1021 26 0 0.2 103 10:37 03.04.2020
5578 Clear 7 1021 26 0 0.2 103 10:18 03.04.2020
5579 Clear 7 1021 26 0 0.2 103 09:55 03.04.2020
5580 Clear 7 1021 26 0 0.2 103 09:37 03.04.2020
5581 Clouds 8 1023 26 0 1.27 34 09:18 03.04.2020
5582 Clouds 8 1023 26 0 1.27 34 08:43 03.04.2020
5583 Clouds 8 1023 26 0 1.27 34 08:23 03.04.2020
5584 Clouds 8 1023 26 0 1.27 34 07:51 03.04.2020
5585 Clouds 8 1023 26 0 1.27 34 07:33 03.04.2020
5586 Clouds 8 1023 26 0 1.27 34 06:57 03.04.2020
5587 Clouds 4 1018 92 0 1.27 34 06:27 03.04.2020
5588 Clouds 10 1023 25 0 1.71 32 05:42 03.04.2020
5589 Clouds 7 1018 85 0 1.71 32 03:52 03.04.2020
5590 Clouds 7 1018 83 0 1.71 32 03:31 03.04.2020
5591 Rain 10 1017 75 0 1.63 19 02:30 03.04.2020
5592 Rain 11 1019 25 0 1.63 19 01:24 03.04.2020
5593 Rain 14 1017 55 0 1.63 19 00:46 03.04.2020
5594 Rain 15 1017 51 0 1.63 19 00:27 03.04.2020
5595 Rain 16 1017 45 0 0.45 75 23:43 02.04.2020
5596 Clouds 18 1031 30 10000 5.7 20 23:24 02.04.2020
5597 Clouds 18 1031 30 10000 5.7 20 23:00 02.04.2020
5598 Clouds 18 1031 30 10000 5.7 20 22:41 02.04.2020
5599 Clouds 18 1031 30 10000 5.7 20 22:22 02.04.2020
5600 Clouds 18 1032 32 10000 5.1 10 21:57 02.04.2020
5601 Clouds 17 1033 32 10000 6.2 20 21:37 02.04.2020
5602 Clouds 17 1033 32 10000 6.2 20 21:18 02.04.2020
5603 Clouds 17 1033 30 10000 5.7 20 20:44 02.04.2020
5604 Clouds 17 1033 32 10000 3.6 360 20:24 02.04.2020
5605 Clouds 16 1034 37 10000 2.6 0 19:56 02.04.2020
5606 Clouds 15 1035 36 10000 2.1 170 19:37 02.04.2020
5607 Clouds 15 1035 36 10000 2.1 170 19:19 02.04.2020
5608 Clouds 14 1036 48 10000 2.1 90 18:42 02.04.2020
5609 Clouds 14 1036 48 10000 2.1 90 18:21 02.04.2020
5610 Clouds 13 1037 51 10000 1.5 90 17:59 02.04.2020
5611 Clouds 13 1037 51 10000 1.5 90 17:59 02.04.2020
5612 Clouds 13 1037 51 10000 1.5 90 17:40 02.04.2020
5613 Clouds 13 1037 51 10000 2.6 90 17:22 02.04.2020
5614 Clouds 13 1037 51 10000 0.5 0 16:57 02.04.2020
5615 Clouds 13 1037 51 10000 0.5 0 16:39 02.04.2020
5616 Clouds 13 1037 51 10000 0.5 0 16:39 02.04.2020
5617 Clouds 15 1038 51 10000 1 0 16:21 02.04.2020
5618 Clouds 11 1038 58 10000 1 0 15:56 02.04.2020
5619 Clouds 9 1037 62 10000 1 70 15:38 02.04.2020
5620 Clouds 12 1037 62 10000 1 70 15:18 02.04.2020
5621 Clouds 11 1037 66 10000 0.5 0 14:41 02.04.2020
5622 Clouds 10 1024 26 0 0.37 125 14:21 02.04.2020
5623 Clouds 10 1024 26 0 0.91 103 13:59 02.04.2020
5624 Clouds 10 1024 26 0 0.91 103 13:40 02.04.2020
5625 Clouds 10 1024 26 0 0.91 103 13:21 02.04.2020
5626 Clouds 10 1024 26 0 0.91 103 12:57 02.04.2020
5627 Clouds 10 1024 26 0 0.91 103 12:39 02.04.2020
5628 Clouds 7 1022 28 0 0.92 65 12:19 02.04.2020
5629 Clouds 7 1022 28 0 0.92 65 11:57 02.04.2020
5630 Clouds 7 1022 28 0 0.92 65 11:38 02.04.2020
5631 Clouds 7 1022 28 0 0.92 65 11:19 02.04.2020
5632 Clouds 7 1022 28 0 0.92 65 10:55 02.04.2020
5633 Clouds 7 1022 28 0 0.92 65 10:37 02.04.2020
5634 Clouds 7 1022 28 0 0.92 65 10:19 02.04.2020
5635 Clouds 7 1022 28 0 0.92 65 09:55 02.04.2020
5636 Clouds 7 1022 28 0 0.92 65 09:37 02.04.2020
5637 Clouds 7 1022 27 0 0.89 27 09:18 02.04.2020
5638 Clouds 7 1022 27 0 0.89 27 08:45 02.04.2020
5639 Clouds 7 1022 27 0 0.89 27 08:26 02.04.2020
5640 Clouds 2 1018 94 0 0.89 27 07:45 02.04.2020
5641 Clouds 2 1018 94 0 0.89 27 07:20 02.04.2020
5642 Clouds 3 1018 93 0 0.89 27 06:58 02.04.2020
5643 Clouds 3 1018 93 0 0.89 27 06:21 02.04.2020
5644 Clear 4 1018 92 0 1.75 28 05:45 02.04.2020
5645 Clear 6 1018 92 0 1.75 28 04:35 02.04.2020
5646 Rain 9 1017 78 0 2.54 39 01:51 02.04.2020
5647 Rain 10 1016 66 0 2.54 39 00:48 02.04.2020
5648 Rain 11 1016 66 0 2.54 39 00:27 02.04.2020
5649 Rain 11 1015 67 0 3.9 26 23:55 01.04.2020
5650 Rain 16 1012 21 0 3.9 26 23:37 01.04.2020
5651 Clouds 14 1029 32 10000 5.7 20 23:18 01.04.2020
5652 Clouds 19 1029 32 10000 5.7 20 22:41 01.04.2020
5653 Clouds 19 1029 32 10000 5.7 20 22:22 01.04.2020
5654 Clouds 15 1029 34 10000 5.7 20 21:57 01.04.2020
5655 Clouds 20 1029 34 10000 5.7 20 21:38 01.04.2020
5656 Clouds 19 1030 34 10000 5.7 10 21:18 01.04.2020
5657 Clouds 19 1030 34 10000 5.7 20 20:55 01.04.2020
5658 Clouds 19 1030 34 10000 5.7 20 20:37 01.04.2020
5659 Clouds 18 1031 36 10000 5.7 20 20:18 01.04.2020
5660 Clouds 19 1032 34 10000 7.2 20 19:43 01.04.2020
5661 Clouds 17 1033 42 10000 5.7 20 19:22 01.04.2020
5662 Clouds 17 1033 42 10000 1.5 150 18:59 01.04.2020
5663 Clouds 17 1033 42 10000 1.5 150 18:40 01.04.2020
5664 Clouds 17 1033 45 10000 2.1 80 18:21 01.04.2020
5665 Clouds 17 1034 42 10000 1 100 17:55 01.04.2020
5666 Clouds 16 1034 48 10000 1 100 17:36 01.04.2020
5667 Clouds 16 1034 48 10000 1 100 17:18 01.04.2020
5668 Clouds 16 1034 48 10000 1 100 17:18 01.04.2020
5669 Clouds 15 1035 54 10000 1 360 16:42 01.04.2020
5670 Clouds 12 1035 66 10000 1.5 80 16:24 01.04.2020
5671 Clouds 9 1035 71 10000 2.1 90 15:59 01.04.2020
5672 Clouds 8 1035 71 10000 2.1 90 15:41 01.04.2020
5673 Clouds 8 1035 71 10000 2.1 120 15:21 01.04.2020
5674 Clouds 8 1034 71 10000 2.1 100 14:57 01.04.2020
5675 Clouds 8 1034 71 10000 2.1 100 14:38 01.04.2020
5676 Clouds 8 1034 71 10000 2.1 100 14:38 01.04.2020
5677 Clouds 8 1034 76 10000 2.1 110 14:19 01.04.2020
5678 Rain 5 1013 90 0 1.51 111 13:58 01.04.2020
5679 Rain 5 1012 92 0 1.51 111 13:38 01.04.2020
5680 Rain 5 1012 93 0 1.51 111 13:19 01.04.2020
5681 Rain 5 1012 93 0 1.51 111 12:56 01.04.2020
5682 Rain 5 1012 93 0 1.51 111 12:36 01.04.2020
5683 Rain 5 1012 93 0 1.52 62 12:18 01.04.2020
5684 Rain 5 1011 92 0 1.52 62 11:44 01.04.2020
5685 Rain 5 1011 93 0 1.52 62 11:24 01.04.2020
5686 Rain 5 1011 93 0 1.52 62 10:59 01.04.2020
5687 Rain 5 1011 92 0 1.52 62 10:38 01.04.2020
5688 Rain 5 1011 93 0 1.52 62 10:19 01.04.2020
5689 Rain 5 1010 92 0 1.52 62 09:57 01.04.2020
5690 Rain 5 1010 93 0 1.52 62 09:39 01.04.2020
5691 Clouds 6 1010 92 0 1.19 50 09:18 01.04.2020
5692 Clouds 6 1010 93 0 1.13 47 08:42 01.04.2020
5693 Clouds 6 1010 93 0 1.13 47 08:18 01.04.2020
5694 Clouds 6 1011 94 0 1.13 47 07:46 01.04.2020
5695 Clouds 6 1011 94 0 1.13 47 07:21 01.04.2020
5696 Clouds 6 1011 94 0 1.13 47 06:52 01.04.2020
5697 Clouds 6 1011 94 0 1.97 35 06:27 01.04.2020
5698 Clouds 6 1011 95 0 1.97 35 05:58 01.04.2020
5699 Clouds 6 1010 95 0 1.97 35 04:33 01.04.2020
5700 Clouds 6 1010 95 0 1.97 35 03:32 01.04.2020
5701 Rain 7 1009 94 0 2.35 26 02:56 01.04.2020
5702 Rain 7 1009 94 0 2.3 27 01:59 01.04.2020
5703 Rain 7 1008 94 0 2.3 27 01:39 01.04.2020
5704 Rain 7 1008 94 0 2.3 27 01:18 01.04.2020
5705 Rain 8 1007 94 0 2.3 27 00:46 01.04.2020
5706 Rain 11 1016 23 0 2.3 27 00:21 01.04.2020
5707 Rain 17 1012 19 0 3.94 19 23:48 31.03.2020
5708 Clouds 20 1028 37 10000 5.7 20 23:27 31.03.2020
5709 Clouds 20 1028 37 10000 5.7 20 22:58 31.03.2020
5710 Clouds 20 1028 37 10000 5.7 20 22:37 31.03.2020
5711 Clouds 20 1028 37 10000 5.7 20 22:19 31.03.2020
5712 Clouds 20 1028 37 10000 5.7 20 21:56 31.03.2020
5713 Clouds 20 1029 40 10000 3.1 360 21:38 31.03.2020
5714 Rain 14 1029 40 10000 3.1 360 21:19 31.03.2020
5715 Clouds 13 1031 42 10000 1 0 20:55 31.03.2020
5716 Clouds 13 1031 42 10000 1 0 20:36 31.03.2020
5717 Clouds 13 1031 42 10000 1 0 20:18 31.03.2020
5718 Clouds 13 1032 52 10000 2.6 360 19:42 31.03.2020
5719 Clouds 13 1032 52 10000 2.6 360 19:42 31.03.2020
5720 Clouds 13 1032 52 10000 2.6 360 19:23 31.03.2020
5721 Rain 12 1033 48 10000 0.5 0 18:58 31.03.2020
5722 Clouds 17 1033 48 10000 0.5 0 18:39 31.03.2020
5723 Clouds 14 1034 58 10000 1.5 350 18:18 31.03.2020
5724 Clouds 14 1034 58 10000 1.5 350 17:55 31.03.2020
5725 Clouds 14 1034 58 10000 1.5 350 17:55 31.03.2020
5726 Clouds 13 1035 62 10000 2.6 90 17:37 31.03.2020
5727 Rain 10 1035 62 10000 2.6 90 17:18 31.03.2020
5728 Rain 10 1035 58 10000 1.5 80 16:40 31.03.2020
5729 Rain 10 1035 62 10000 0.78 318 16:19 31.03.2020
5730 Rain 10 1035 66 10000 0.78 318 15:57 31.03.2020
5731 Rain 10 1035 66 10000 0.78 318 15:39 31.03.2020
5732 Rain 9 1034 76 10000 0.5 0 15:21 31.03.2020
5733 Rain 9 1034 76 10000 1 0 14:57 31.03.2020
5734 Rain 10 1034 76 10000 1 0 14:38 31.03.2020
5735 Rain 9 1034 81 10000 1.5 90 14:20 31.03.2020
5736 Rain 10 1021 28 0 0.93 349 13:43 31.03.2020
5737 Rain 10 1021 28 0 0.93 349 13:20 31.03.2020
5738 Rain 10 1021 28 0 0.93 349 12:57 31.03.2020
5739 Rain 10 1021 28 0 0.93 349 12:39 31.03.2020
5740 Rain 9 1018 30 0 2.07 354 12:19 31.03.2020
5741 Rain 9 1018 30 0 2.07 354 11:40 31.03.2020
5742 Rain 9 1018 30 0 2.07 354 11:20 31.03.2020
5743 Rain 9 1018 30 0 2.07 354 10:58 31.03.2020
5744 Rain 9 1018 30 0 2.07 354 10:58 31.03.2020
5745 Rain 9 1018 30 0 2.07 354 10:40 31.03.2020
5746 Rain 9 1018 30 0 2.07 354 10:21 31.03.2020
5747 Rain 9 1018 30 0 2.07 354 09:57 31.03.2020
5748 Rain 9 1018 30 0 2.07 354 09:39 31.03.2020
5749 Rain 10 1019 28 0 0.54 177 09:21 31.03.2020
5750 Rain 10 1019 28 0 0.54 177 08:57 31.03.2020
5751 Rain 10 1019 28 0 0.54 177 08:38 31.03.2020
5752 Rain 10 1015 72 0 0.54 177 08:19 31.03.2020
5753 Rain 10 1014 76 0 0.54 177 07:55 31.03.2020
5754 Rain 10 1014 76 0 0.54 177 07:55 31.03.2020
5755 Rain 10 1015 76 0 0.54 177 07:37 31.03.2020
5756 Rain 10 1019 28 0 0.54 177 07:18 31.03.2020
5757 Rain 10 1015 76 0 0.54 177 06:42 31.03.2020
5758 Clouds 10 1020 28 0 1.73 28 05:57 31.03.2020
5759 Clouds 10 1020 28 0 1.73 28 05:38 31.03.2020
5760 Clouds 10 1020 28 0 1.73 28 03:27 31.03.2020
5761 Rain 12 1016 26 0 2.3 24 01:52 31.03.2020
5762 Rain 12 1016 26 0 2.3 24 01:33 31.03.2020
5763 Rain 12 1016 26 0 2.3 24 00:46 31.03.2020
5764 Rain 12 1016 26 0 2.3 24 00:24 31.03.2020
5765 Rain 17 1011 20 0 3.18 11 23:41 30.03.2020
5766 Clouds 17 1030 48 10000 3.1 260 23:20 30.03.2020
5767 Clouds 17 1030 48 10000 3.1 260 22:58 30.03.2020
5768 Clouds 17 1030 48 10000 3.1 260 22:39 30.03.2020
5769 Clouds 17 1030 48 10000 3.1 260 22:20 30.03.2020
5770 Clouds 17 1030 48 10000 2.1 210 21:58 30.03.2020
5771 Clouds 17 1030 48 10000 2.1 210 21:39 30.03.2020
5772 Clouds 17 1030 48 10000 2.1 210 21:39 30.03.2020
5773 Clouds 18 1031 52 10000 2.6 270 21:20 30.03.2020
5774 Clouds 16 1031 55 10000 1.5 290 20:59 30.03.2020
5775 Clouds 16 1031 55 10000 1.5 290 20:39 30.03.2020
5776 Clouds 16 1031 55 10000 1.5 290 20:39 30.03.2020
5777 Clouds 13 1033 62 10000 1.5 290 20:20 30.03.2020
5778 Clouds 13 1033 62 10000 1.5 290 20:20 30.03.2020
5779 Drizzle 13 1033 66 10000 2.6 130 19:56 30.03.2020
5780 Drizzle 13 1033 66 10000 2.6 130 19:38 30.03.2020
5781 Drizzle 13 1034 66 10000 6.2 120 19:20 30.03.2020
5782 Rain 15 1034 62 10000 2.6 120 18:43 30.03.2020
5783 Rain 15 1034 58 10000 3.1 110 18:25 30.03.2020
5784 Rain 15 1034 54 10000 1.5 140 17:58 30.03.2020
5785 Clouds 16 1034 48 10000 1 180 17:39 30.03.2020
5786 Clouds 16 1034 48 10000 1 180 17:20 30.03.2020
5787 Clouds 15 1034 54 10000 0.5 0 16:58 30.03.2020
5788 Clouds 14 1034 58 10000 2.1 80 16:39 30.03.2020
5789 Clouds 15 1034 58 10000 2.1 80 16:20 30.03.2020
5790 Clouds 15 1034 62 10000 2.6 100 15:55 30.03.2020
5791 Clouds 14 1034 62 10000 2.6 100 15:37 30.03.2020
5792 Clouds 13 1034 66 10000 1 140 15:19 30.03.2020
5793 Clouds 13 1034 66 10000 1 140 15:19 30.03.2020
5794 Clouds 11 1034 71 10000 0.5 120 14:56 30.03.2020
5795 Clouds 9 1033 81 10000 1 100 14:37 30.03.2020
5796 Clouds 9 1033 81 10000 1 100 14:18 30.03.2020
5797 Clouds 6 1022 91 0 1.09 85 13:55 30.03.2020
5798 Clouds 6 1022 90 0 1.09 85 13:37 30.03.2020
5799 Clouds 6 1022 89 0 1.09 85 13:19 30.03.2020
5800 Clouds 7 1021 88 0 1.09 85 12:44 30.03.2020
5801 Clouds 7 1021 88 0 1.09 85 12:21 30.03.2020
5802 Rain 7 1021 86 0 0.94 56 11:57 30.03.2020
5803 Rain 8 1021 84 0 0.94 56 11:39 30.03.2020
5804 Rain 8 1021 84 0 0.94 56 11:21 30.03.2020
5805 Rain 9 1021 81 0 0.94 56 10:41 30.03.2020
5806 Rain 9 1021 79 0 0.94 56 10:23 30.03.2020
5807 Rain 10 1020 77 0 0.94 56 09:59 30.03.2020
5808 Rain 11 1020 75 0 0.94 56 09:40 30.03.2020
5809 Rain 11 1020 30 0 1.39 17 09:19 30.03.2020
5810 Rain 10 1020 30 0 1.17 11 08:47 30.03.2020
5811 Rain 10 1020 30 0 1.17 11 08:28 30.03.2020
5812 Rain 10 1020 30 0 1.17 11 08:28 30.03.2020
5813 Rain 10 1020 30 0 1.17 11 07:58 30.03.2020
5814 Rain 10 1020 30 0 1.17 11 07:39 30.03.2020
5815 Rain 10 1020 30 0 1.17 11 07:18 30.03.2020
5816 Rain 10 1020 30 0 1.17 11 06:37 30.03.2020
5817 Rain 10 1021 29 0 2.1 18 06:18 30.03.2020
5818 Rain 10 1021 29 0 2.1 18 05:38 30.03.2020
5819 Rain 10 1021 29 0 2.1 18 04:27 30.03.2020
5820 Rain 10 1021 29 0 2.1 18 03:50 30.03.2020
5821 Rain 11 1017 29 0 2.27 16 02:43 30.03.2020
5822 Rain 11 1017 28 0 2.12 20 01:54 30.03.2020
5823 Rain 11 1017 28 0 2.12 20 00:56 30.03.2020
5824 Rain 11 1017 28 0 2.12 20 00:25 30.03.2020
5825 Rain 11 1017 28 0 2.12 20 00:25 30.03.2020
5826 Rain 16 1012 23 0 3.17 20 23:55 29.03.2020
5827 Rain 16 1012 23 0 3.17 20 23:36 29.03.2020
5828 Clouds 18 1028 45 10000 1 0 23:18 29.03.2020
5829 Clouds 18 1028 45 10000 1 0 22:39 29.03.2020
5830 Clouds 18 1028 45 10000 1 0 22:39 29.03.2020
5831 Clouds 18 1028 45 10000 1 0 22:20 29.03.2020
5832 Clouds 18 1029 45 10000 1.5 70 21:59 29.03.2020
5833 Clouds 18 1029 45 10000 1.5 70 21:37 29.03.2020
5834 Clouds 18 1029 48 10000 4.1 120 21:19 29.03.2020
5835 Clouds 17 1030 48 10000 3.1 130 20:55 29.03.2020
5836 Clouds 16 1030 51 10000 4.1 120 20:37 29.03.2020
5837 Clouds 16 1030 51 10000 4.1 120 20:37 29.03.2020
5838 Clouds 16 1030 51 10000 4.1 120 20:18 29.03.2020
5839 Clouds 17 1031 48 10000 4.1 170 19:55 29.03.2020
5840 Clouds 17 1031 48 10000 4.1 170 19:55 29.03.2020
5841 Clouds 17 1031 48 10000 4.1 170 19:37 29.03.2020
5842 Clouds 16 1032 51 10000 4.1 130 19:18 29.03.2020
5843 Clouds 16 1032 51 10000 4.1 130 18:55 29.03.2020
5844 Clouds 15 1032 62 10000 1.5 80 18:36 29.03.2020
5845 Clouds 15 1033 58 10000 1.5 100 18:18 29.03.2020
5846 Clouds 14 1033 62 10000 2.6 110 17:42 29.03.2020
5847 Clouds 14 1033 62 10000 2.6 110 17:23 29.03.2020
5848 Clouds 14 1033 58 10000 1.07 4 16:59 29.03.2020
5849 Clouds 14 1033 58 10000 1.07 4 16:40 29.03.2020
5850 Clouds 13 1033 66 10000 1 0 16:21 29.03.2020
5851 Clouds 12 1033 76 10000 1 110 15:58 29.03.2020
5852 Clouds 12 1033 76 10000 1 110 15:40 29.03.2020
5853 Clouds 11 1033 81 10000 1 90 15:20 29.03.2020
5854 Fog 11 1032 81 10000 0.5 90 14:56 29.03.2020
5855 Clouds 10 1032 87 10000 1 110 14:37 29.03.2020
5856 Clouds 10 1032 87 10000 1 110 14:19 29.03.2020
5857 Clouds 10 1019 28 0 0.71 1 13:55 29.03.2020
5858 Clouds 10 1019 28 0 0.71 1 13:37 29.03.2020
5859 Clouds 10 1019 28 0 0.71 1 13:18 29.03.2020
5860 Clouds 10 1019 28 0 0.71 1 12:54 29.03.2020
5861 Clouds 10 1019 28 0 0.71 1 12:54 29.03.2020
5862 Clouds 10 1019 28 0 0.71 1 12:36 29.03.2020
5863 Rain 10 1017 29 0 0.61 14 12:18 29.03.2020
5864 Rain 10 1017 29 0 0.61 14 11:38 29.03.2020
5865 Rain 10 1017 29 0 0.61 14 11:20 29.03.2020
5866 Rain 10 1017 29 0 0.61 14 10:40 29.03.2020
5867 Rain 10 1017 29 0 0.61 14 10:21 29.03.2020
5868 Rain 10 1017 29 0 0.61 14 09:59 29.03.2020
5869 Rain 10 1017 29 0 0.61 14 09:38 29.03.2020
5870 Rain 11 1018 29 0 1.01 6 09:19 29.03.2020
5871 Rain 11 1018 29 0 1.01 6 08:48 29.03.2020
5872 Rain 11 1018 29 0 1.01 6 08:27 29.03.2020
5873 Rain 11 1018 29 0 1.01 6 07:56 29.03.2020
5874 Rain 11 1018 29 0 1.01 6 07:37 29.03.2020
5875 Rain 11 1018 29 0 1.01 6 07:19 29.03.2020
5876 Clouds 10 1018 29 0 1.67 0 04:58 29.03.2020
5877 Clouds 10 1018 29 0 1.67 0 03:42 29.03.2020
5878 Clouds 10 1018 29 0 1.67 0 03:23 29.03.2020
5879 Rain 12 1015 27 0 1.73 27 01:50 29.03.2020
5880 Clouds 11 1029 76 10000 4.6 290 01:23 29.03.2020
5881 Clouds 11 1029 76 10000 4.6 290 00:48 29.03.2020
5882 Clouds 11 1029 76 10000 4.6 290 00:29 29.03.2020
5883 Rain 12 1028 76 10000 4.6 280 23:41 28.03.2020
5884 Rain 12 1028 76 10000 4.6 280 23:41 28.03.2020
5885 Rain 12 1028 76 10000 4.6 280 23:23 28.03.2020
5886 Rain 12 1028 71 10000 5.7 290 22:56 28.03.2020
5887 Rain 14 1027 58 10000 6.7 290 22:37 28.03.2020
5888 Rain 14 1027 58 10000 6.7 290 22:18 28.03.2020
5889 Clouds 16 1027 51 10000 3.6 310 21:41 28.03.2020
5890 Clouds 15 1027 47 10000 5.1 20 21:23 28.03.2020
5891 Clouds 16 1027 51 10000 6.7 10 20:58 28.03.2020
5892 Clouds 16 1027 51 10000 6.7 10 20:39 28.03.2020
5893 Clouds 17 1027 45 10000 2.1 90 20:20 28.03.2020
5894 Clouds 16 1027 44 10000 3.6 120 19:56 28.03.2020
5895 Thunderstorm 16 1029 51 10000 6.2 110 19:36 28.03.2020
5896 Thunderstorm 16 1029 51 10000 6.2 110 19:18 28.03.2020
5897 Rain 19 1027 42 10000 4.1 100 18:47 28.03.2020
5898 Clouds 20 1028 37 10000 2.1 0 18:22 28.03.2020
5899 Clouds 18 1029 42 10000 2.1 270 17:58 28.03.2020
5900 Clouds 18 1029 42 10000 2.1 270 17:38 28.03.2020
5901 Clouds 18 1030 52 10000 2.1 270 17:18 28.03.2020
5902 Clouds 16 1030 55 10000 2.1 160 16:42 28.03.2020
5903 Clouds 16 1030 55 10000 2.1 160 16:20 28.03.2020
5904 Clouds 15 1030 58 10000 2.1 60 15:56 28.03.2020
5905 Clouds 14 1031 67 10000 3.1 100 15:37 28.03.2020
5906 Clouds 14 1031 67 10000 3.1 100 15:18 28.03.2020
5907 Clouds 13 1031 76 10000 2.6 100 14:42 28.03.2020
5908 Clouds 12 1031 76 10000 1.5 90 14:22 28.03.2020
5909 Clouds 10 1030 87 10000 1 110 13:55 28.03.2020
5910 Clouds 11 1016 27 0 0.93 285 13:36 28.03.2020
5911 Clouds 11 1016 27 0 0.93 285 13:18 28.03.2020
5912 Clouds 10 1016 27 0 0.81 288 12:37 28.03.2020
5913 Clouds 10 1016 27 0 0.81 288 12:19 28.03.2020
5914 Clouds 10 1016 27 0 0.81 288 11:42 28.03.2020
5915 Clouds 10 1016 27 0 0.81 288 11:21 28.03.2020
5916 Clouds 9 1014 29 0 0.91 304 10:43 28.03.2020
5917 Clouds 9 1014 29 0 0.91 304 10:24 28.03.2020
5918 Clouds 9 1014 29 0 0.91 304 09:59 28.03.2020
5919 Clouds 9 1014 29 0 0.91 304 09:39 28.03.2020
5920 Clouds 9 1014 29 0 0.91 304 09:21 28.03.2020
5921 Clouds 9 1015 29 0 1.2 325 08:42 28.03.2020
5922 Clouds 9 1014 29 0 0.91 304 08:24 28.03.2020
5923 Clouds 9 1015 29 0 1.17 311 07:52 28.03.2020
5924 Clouds 9 1015 29 0 1.17 311 07:34 28.03.2020
5925 Clouds 9 1015 29 0 1.17 311 06:45 28.03.2020
5926 Clouds 9 1015 29 0 1.17 311 06:20 28.03.2020
5927 Clouds 9 1015 29 0 1.17 311 05:24 28.03.2020
5928 Clouds 10 1016 29 0 1.05 348 04:48 28.03.2020
5929 Clouds 10 1016 29 0 1.05 348 04:28 28.03.2020
5930 Clouds 10 1016 29 0 1.05 348 02:46 28.03.2020
5931 Rain 12 1012 27 0 1.2 14 01:46 28.03.2020
5932 Clouds 15 1025 62 10000 4.1 110 01:20 28.03.2020
5933 Clouds 15 1025 62 10000 4.1 110 00:47 28.03.2020
5934 Clouds 15 1025 62 10000 4.1 110 00:20 28.03.2020
5935 Clouds 18 1024 45 10000 2.1 170 23:43 27.03.2020
5936 Clouds 18 1024 45 10000 2.1 170 23:24 27.03.2020
5937 Clouds 19 1024 39 10000 0.5 0 22:56 27.03.2020
5938 Clouds 19 1024 39 10000 2.1 230 22:38 27.03.2020
5939 Clouds 19 1024 39 10000 2.1 230 22:20 27.03.2020
5940 Clouds 19 1024 42 10000 2.1 260 21:56 27.03.2020
5941 Clouds 18 1025 39 10000 2.1 310 21:38 27.03.2020
5942 Clouds 18 1025 39 10000 2.1 310 21:20 27.03.2020
5943 Clouds 18 1026 52 10000 4.6 340 20:43 27.03.2020
5944 Rain 18 1026 52 10000 3.1 280 20:22 27.03.2020
5945 Rain 19 1027 42 10000 2.1 90 19:59 27.03.2020
5946 Rain 19 1027 42 10000 2.1 90 19:41 27.03.2020
5947 Clouds 18 1027 48 10000 4.6 110 19:22 27.03.2020
5948 Clouds 18 1028 52 10000 6.7 110 18:56 27.03.2020
5949 Clouds 20 1028 42 10000 0.5 0 18:38 27.03.2020
5950 Clouds 20 1028 42 10000 0.5 0 18:19 27.03.2020
5951 Clouds 17 1030 55 10000 1 0 17:40 27.03.2020
5952 Clouds 17 1030 55 10000 1 0 17:20 27.03.2020
5953 Clouds 16 1030 55 10000 1.5 130 16:54 27.03.2020
5954 Clouds 15 1030 58 10000 2.6 80 16:36 27.03.2020
5955 Clouds 15 1030 58 10000 2.6 80 16:36 27.03.2020
5956 Clouds 15 1030 58 10000 2.6 80 16:18 27.03.2020
5957 Clouds 14 1031 67 10000 1.5 110 15:41 27.03.2020
5958 Clouds 14 1031 67 10000 1.5 110 15:22 27.03.2020
5959 Clouds 13 1031 66 10000 1.5 120 14:46 27.03.2020
5960 Clouds 11 1030 81 9000 0.5 0 14:25 27.03.2020
5961 Clouds 11 1030 81 9000 0.5 0 14:25 27.03.2020
5962 Mist 10 1030 81 9000 1.5 100 13:56 27.03.2020
5963 Rain 9 1030 87 9000 2.1 120 13:37 27.03.2020
5964 Rain 11 1016 28 0 0.12 16 13:18 27.03.2020
5965 Rain 11 1016 28 0 0.12 16 12:49 27.03.2020
5966 Rain 11 1016 28 0 0.12 16 12:21 27.03.2020
5967 Rain 11 1016 28 0 0.12 16 11:59 27.03.2020
5968 Rain 11 1016 28 0 0.12 16 11:59 27.03.2020
5969 Rain 11 1016 28 0 0.12 16 11:41 27.03.2020
5970 Rain 11 1016 28 0 0.12 16 11:22 27.03.2020
5971 Rain 10 1014 29 0 0.71 312 10:54 27.03.2020
5972 Rain 10 1014 29 0 0.71 312 10:36 27.03.2020
5973 Rain 10 1014 29 0 0.71 312 10:18 27.03.2020
5974 Rain 10 1014 29 0 0.71 312 09:55 27.03.2020
5975 Rain 10 1014 29 0 0.71 312 09:36 27.03.2020
5976 Rain 10 1014 29 0 0.71 312 09:18 27.03.2020
5977 Rain 10 1014 29 0 0.71 312 08:54 27.03.2020
5978 Rain 10 1014 29 0 0.71 312 08:36 27.03.2020
5979 Rain 10 1015 29 0 0.82 18 08:18 27.03.2020
5980 Rain 10 1015 29 0 0.87 39 07:43 27.03.2020
5981 Rain 10 1015 29 0 0.87 39 07:21 27.03.2020
5982 Rain 10 1015 29 0 0.87 39 06:41 27.03.2020
5983 Rain 10 1015 29 0 0.87 39 06:18 27.03.2020
5984 Rain 11 1016 28 0 1.78 28 03:42 27.03.2020
5985 Rain 13 1013 26 0 2.38 18 02:19 27.03.2020
5986 Clouds 16 1026 48 10000 5.1 290 01:21 27.03.2020
5987 Clouds 16 1026 48 10000 5.1 290 00:45 27.03.2020
5988 Clouds 16 1026 48 10000 5.1 290 00:21 27.03.2020
5989 Clouds 18 1025 42 10000 2.1 360 23:42 26.03.2020
5990 Clouds 19 1025 37 10000 4.6 20 23:19 26.03.2020
5991 Clouds 19 1025 37 10000 4.6 20 22:57 26.03.2020
5992 Clouds 21 1024 32 10000 4.6 20 22:37 26.03.2020
5993 Clouds 21 1024 32 10000 4.6 20 22:18 26.03.2020
5994 Clouds 21 1024 35 10000 6.7 20 21:40 26.03.2020
5995 Clouds 22 1025 33 10000 4.1 110 21:22 26.03.2020
5996 Clouds 21 1025 35 10000 3.1 100 20:59 26.03.2020
5997 Clouds 21 1025 35 10000 3.1 100 20:40 26.03.2020
5998 Clouds 22 1026 28 10000 1.5 0 20:22 26.03.2020
5999 Clouds 22 1027 30 10000 2.1 190 19:58 26.03.2020
6000 Clouds 21 1028 37 10000 3.1 100 19:40 26.03.2020
6001 Clouds 22 1029 35 10000 3.6 100 19:21 26.03.2020
6002 Clouds 22 1029 35 10000 3.6 100 18:58 26.03.2020
6003 Clouds 22 1029 35 10000 3.6 100 18:40 26.03.2020
6004 Clouds 22 1029 35 10000 3.6 100 18:22 26.03.2020
6005 Clouds 18 1031 48 10000 4.1 120 17:45 26.03.2020
6006 Clouds 18 1031 45 10000 1 30 17:20 26.03.2020
6007 Clouds 18 1031 45 10000 1 30 16:57 26.03.2020
6008 Clouds 18 1031 45 10000 1 30 16:57 26.03.2020
6009 Clouds 17 1031 55 10000 1.5 0 16:38 26.03.2020
6010 Clouds 17 1031 55 10000 1.5 0 16:19 26.03.2020
6011 Clouds 16 1032 55 10000 0.5 0 15:56 26.03.2020
6012 Clouds 15 1032 58 10000 1.5 350 15:38 26.03.2020
6013 Clouds 15 1032 58 10000 1.5 350 15:18 26.03.2020
6014 Clouds 12 1032 71 10000 1.5 160 14:43 26.03.2020
6015 Clouds 11 1032 76 10000 1.5 100 14:24 26.03.2020
6016 Clouds 10 1031 81 10000 0.5 80 13:56 26.03.2020
6017 Clouds 10 1031 81 10000 0.5 80 13:56 26.03.2020
6018 Clouds 10 1031 81 10000 0.5 80 13:38 26.03.2020
6019 Clouds 11 1017 26 0 0.23 242 13:20 26.03.2020
6020 Clouds 11 1017 26 0 0.23 242 12:39 26.03.2020
6021 Clouds 11 1017 26 0 0.23 242 12:20 26.03.2020
6022 Clouds 11 1017 26 0 0.23 242 11:55 26.03.2020
6023 Clouds 11 1017 26 0 0.23 242 11:36 26.03.2020
6024 Clouds 9 1015 28 0 0.43 254 11:18 26.03.2020
6025 Clouds 9 1015 28 0 0.43 254 10:42 26.03.2020
6026 Clouds 9 1015 28 0 0.43 254 10:20 26.03.2020
6027 Clouds 9 1015 28 0 0.43 254 10:20 26.03.2020
6028 Clouds 9 1015 28 0 0.43 254 09:45 26.03.2020
6029 Clouds 9 1015 28 0 0.43 254 09:24 26.03.2020
6030 Clouds 9 1015 28 0 0.43 254 08:57 26.03.2020
6031 Clouds 9 1015 28 0 0.43 254 08:39 26.03.2020
6032 Clouds 10 1016 27 0 0.73 327 08:20 26.03.2020
6033 Rain 10 1016 28 0 0.47 303 07:46 26.03.2020
6034 Rain 10 1016 28 0 0.47 303 07:24 26.03.2020
6035 Rain 10 1016 28 0 0.47 303 06:59 26.03.2020
6036 Rain 10 1016 28 0 0.47 303 06:32 26.03.2020
6037 Rain 10 1016 28 0 0.47 303 05:29 26.03.2020
6038 Rain 10 1017 28 0 0.41 247 03:45 26.03.2020
6039 Rain 10 1017 28 0 0.41 247 02:57 26.03.2020
6040 Rain 13 1014 28 0 1.12 272 01:51 26.03.2020
6041 Clouds 16 1028 48 10000 2.6 80 01:18 26.03.2020
6042 Clouds 16 1028 48 10000 2.6 80 00:30 26.03.2020
6043 Clouds 17 1028 48 10000 3.1 110 23:42 25.03.2020
6044 Clouds 17 1028 48 10000 3.1 110 23:24 25.03.2020
6045 Clouds 17 1027 45 10000 3.6 20 22:42 25.03.2020
6046 Clouds 19 1027 42 10000 4.1 40 22:22 25.03.2020
6047 Clouds 19 1027 42 10000 2.1 30 21:59 25.03.2020
6048 Clouds 19 1027 42 10000 2.1 30 21:40 25.03.2020
6049 Clouds 17 1027 51 10000 4.1 360 21:22 25.03.2020
6050 Rain 17 1028 48 10000 4.1 10 20:57 25.03.2020
6051 Clouds 19 1028 39 10000 4.1 80 20:37 25.03.2020
6052 Clouds 19 1028 39 10000 4.1 80 20:18 25.03.2020
6053 Clouds 20 1029 40 10000 2.6 360 19:43 25.03.2020
6054 Clouds 20 1029 40 10000 2.6 360 19:24 25.03.2020
6055 Clouds 19 1030 39 10000 0.5 0 18:59 25.03.2020
6056 Clouds 19 1030 39 10000 0.5 0 18:40 25.03.2020
6057 Rain 18 1032 48 10000 2.1 350 18:22 25.03.2020
6058 Rain 18 1032 48 10000 2.1 350 17:57 25.03.2020
6059 Clouds 18 1033 45 10000 1.5 210 17:39 25.03.2020
6060 Clouds 18 1033 45 10000 1.5 210 17:21 25.03.2020
6061 Clouds 16 1033 59 10000 1.5 0 16:55 25.03.2020
6062 Clouds 17 1034 51 10000 1.5 30 16:36 25.03.2020
6063 Clouds 17 1034 51 10000 1.5 30 16:18 25.03.2020
6064 Clouds 16 1034 51 10000 1.5 20 15:41 25.03.2020
6065 Clouds 15 1034 62 10000 1 40 15:20 25.03.2020
6066 Clouds 14 1034 67 10000 2.1 80 14:56 25.03.2020
6067 Clouds 12 1034 76 10000 2.1 110 14:37 25.03.2020
6068 Clouds 12 1034 76 10000 2.1 110 14:19 25.03.2020
6069 Clouds 11 1034 81 10000 2.6 110 13:42 25.03.2020
6070 Clouds 11 1018 27 0 0.92 154 13:22 25.03.2020
6071 Clouds 11 1019 28 0 0.99 172 12:38 25.03.2020
6072 Clouds 11 1019 28 0 0.99 172 12:20 25.03.2020
6073 Clouds 11 1018 27 0 0.92 154 11:57 25.03.2020
6074 Clouds 11 1019 28 0 0.99 172 11:39 25.03.2020
6075 Rain 10 1018 29 0 0.8 226 11:20 25.03.2020
6076 Rain 10 1018 29 0 0.8 226 10:57 25.03.2020
6077 Rain 10 1018 29 0 0.8 226 10:39 25.03.2020
6078 Rain 10 1018 29 0 0.8 226 10:18 25.03.2020
6079 Rain 10 1018 29 0 0.8 226 09:43 25.03.2020
6080 Rain 10 1018 29 0 0.8 226 09:25 25.03.2020
6081 Rain 10 1018 29 0 0.8 226 08:58 25.03.2020
6082 Rain 10 1018 29 0 0.8 226 08:58 25.03.2020
6083 Rain 10 1018 29 0 0.8 226 08:39 25.03.2020
6084 Rain 10 1019 29 0 1.11 180 08:19 25.03.2020
6085 Rain 10 1019 29 0 1.11 180 07:41 25.03.2020
6086 Rain 10 1019 29 0 1.11 180 07:41 25.03.2020
6087 Rain 10 1019 29 0 1.11 180 07:23 25.03.2020
6088 Rain 10 1019 29 0 1.11 180 06:50 25.03.2020
6089 Rain 10 1019 29 0 1.11 180 06:29 25.03.2020
6090 Rain 10 1019 29 0 1.11 180 05:58 25.03.2020
6091 Rain 10 1019 29 0 1.11 180 05:37 25.03.2020
6092 Rain 11 1019 28 0 1.04 24 04:41 25.03.2020
6093 Rain 11 1019 28 0 1.04 24 03:52 25.03.2020
6094 Rain 11 1019 28 0 1.04 24 03:29 25.03.2020
6095 Rain 13 1008 96 0 1.56 43 01:31 25.03.2020
6096 Clouds 15 1029 48 10000 6.7 290 00:49 25.03.2020
6097 Rain 15 1029 48 10000 6.7 290 00:26 25.03.2020
6098 Rain 15 1029 48 10000 7.2 290 23:50 24.03.2020
6099 Clouds 15 1029 48 10000 7.7 300 23:28 24.03.2020
6100 Clouds 19 1029 39 10000 3.1 350 22:57 24.03.2020
6101 Clouds 19 1029 39 10000 4.6 360 22:38 24.03.2020
6102 Clouds 19 1029 39 10000 4.6 360 22:19 24.03.2020
6103 Clouds 19 1029 39 10000 4.6 360 22:19 24.03.2020
6104 Clouds 20 1029 34 10000 6.7 20 21:57 24.03.2020
6105 Clouds 20 1029 34 10000 6.7 20 21:38 24.03.2020
6106 Clouds 20 1029 40 10000 3.1 20 21:18 24.03.2020
6107 Clouds 20 1029 40 10000 3.1 20 21:18 24.03.2020
6108 Clouds 19 1030 42 10000 4.1 50 20:57 24.03.2020
6109 Rain 15 1030 42 10000 4.1 50 20:39 24.03.2020
6110 Clouds 18 1030 45 10000 2.6 20 20:21 24.03.2020
6111 Clouds 18 1030 45 10000 1.5 0 19:45 24.03.2020
6112 Rain 14 1031 41 10000 2.6 0 19:19 24.03.2020
6113 Drizzle 15 1032 62 10000 5.7 30 18:56 24.03.2020
6114 Drizzle 15 1032 62 10000 5.7 30 18:37 24.03.2020
6115 Drizzle 15 1032 62 10000 5.7 30 18:37 24.03.2020
6116 Rain 16 1033 40 10000 1.5 0 18:19 24.03.2020
6117 Clouds 16 1033 40 10000 1.5 0 17:43 24.03.2020
6118 Rain 16 1033 40 10000 1.5 0 17:24 24.03.2020
6119 Rain 16 1034 52 10000 1.5 0 16:59 24.03.2020
6120 Rain 16 1034 52 10000 1.5 0 16:41 24.03.2020
6121 Rain 16 1034 52 10000 1.5 0 16:41 24.03.2020
6122 Clouds 15 1035 48 10000 0.5 0 16:23 24.03.2020
6123 Clouds 15 1035 55 10000 1 0 15:59 24.03.2020
6124 Clouds 15 1035 55 10000 1 0 15:40 24.03.2020
6125 Clouds 13 1035 58 10000 1.5 90 15:22 24.03.2020
6126 Clouds 13 1035 62 10000 2.1 150 14:43 24.03.2020
6127 Clouds 13 1035 62 10000 2.1 150 14:43 24.03.2020
6128 Clouds 11 1035 71 10000 0.5 270 14:22 24.03.2020
6129 Clouds 11 1035 76 10000 1 50 13:56 24.03.2020
6130 Clouds 10 1018 97 0 1.09 30 13:38 24.03.2020
6131 Clouds 10 1017 97 0 0.77 31 13:20 24.03.2020
6132 Clouds 10 1018 97 0 0.77 31 12:42 24.03.2020
6133 Clouds 10 1018 96 0 0.77 31 12:23 24.03.2020
6134 Clouds 10 1018 96 0 0.77 31 11:41 24.03.2020
6135 Clouds 10 1018 96 0 0.82 30 11:21 24.03.2020
6136 Clouds 7 1020 82 0 0.92 345 10:59 24.03.2020
6137 Clouds 7 1020 82 0 0.92 345 10:40 24.03.2020
6138 Clouds 7 1020 82 0 0.92 345 10:40 24.03.2020
6139 Clouds 7 1020 82 0 0.92 345 10:18 24.03.2020
6140 Clouds 7 1020 82 0 0.92 345 09:44 24.03.2020
6141 Clouds 7 1020 82 0 0.92 345 09:25 24.03.2020
6142 Clouds 7 1020 82 0 0.92 345 08:57 24.03.2020
6143 Clouds 7 1020 82 0 0.92 345 08:37 24.03.2020
6144 Clouds 6 1020 84 0 1.43 357 08:18 24.03.2020
6145 Clouds 5 1021 85 0 1.19 14 07:44 24.03.2020
6146 Clouds 5 1021 85 0 1.19 14 07:22 24.03.2020
6147 Clouds 5 1021 85 0 1.19 14 07:22 24.03.2020
6148 Clouds 5 1021 85 0 1.19 14 06:38 24.03.2020
6149 Clouds 5 1021 85 0 1.19 14 05:42 24.03.2020
6150 Clouds 7 1021 81 0 1.72 15 04:51 24.03.2020
6151 Clouds 7 1021 81 0 1.72 15 03:22 24.03.2020
6152 Clouds 7 1021 81 0 1.72 15 02:41 24.03.2020
6153 Clouds 16 1031 48 10000 3.6 360 00:54 24.03.2020
6154 Clouds 16 1031 48 10000 3.6 360 00:27 24.03.2020
6155 Clouds 16 1030 48 10000 4.1 10 23:56 23.03.2020
6156 Clouds 17 1030 45 10000 2.6 330 23:37 23.03.2020
6157 Clouds 17 1030 45 10000 2.6 330 23:19 23.03.2020
6158 Clouds 18 1030 39 10000 3.6 340 22:44 23.03.2020
6159 Clouds 18 1030 39 10000 3.1 350 22:23 23.03.2020
6160 Clouds 18 1030 39 10000 3.1 70 21:55 23.03.2020
6161 Clouds 20 1031 37 10000 5.1 90 21:37 23.03.2020
6162 Clouds 20 1031 37 10000 5.1 90 21:18 23.03.2020
6163 Clouds 19 1031 42 10000 5.1 80 20:44 23.03.2020
6164 Clouds 20 1032 34 10000 4.1 90 20:26 23.03.2020
6165 Clouds 20 1032 34 10000 2.1 0 19:59 23.03.2020
6166 Clouds 19 1033 48 10000 2.6 20 19:41 23.03.2020
6167 Clouds 19 1033 48 10000 2.6 20 19:22 23.03.2020
6168 Clouds 18 1033 42 10000 2.6 90 18:54 23.03.2020
6169 Clouds 18 1033 42 10000 2.6 90 18:36 23.03.2020
6170 Clouds 19 1034 48 10000 1.5 80 18:18 23.03.2020
6171 Clouds 18 1034 48 10000 2.1 70 17:41 23.03.2020
6172 Rain 17 1035 55 10000 1 0 17:20 23.03.2020
6173 Clouds 15 1035 58 10000 1.58 83 16:44 23.03.2020
6174 Clouds 15 1035 58 10000 1.58 83 16:26 23.03.2020
6175 Clouds 14 1036 62 10000 1.58 83 15:59 23.03.2020
6176 Clouds 14 1036 62 10000 1.58 83 15:39 23.03.2020
6177 Clouds 14 1036 67 10000 0.5 0 15:19 23.03.2020
6178 Rain 12 1035 76 10000 1.58 83 14:37 23.03.2020
6179 Rain 12 1035 76 10000 1.7 121 14:19 23.03.2020
6180 Clouds 12 1035 76 10000 1.7 121 13:57 23.03.2020
6181 Rain 8 1021 86 0 1.7 121 13:38 23.03.2020
6182 Clouds 8 1021 82 0 0.97 128 13:20 23.03.2020
6183 Clouds 8 1021 82 0 0.97 128 12:43 23.03.2020
6184 Clouds 8 1021 82 0 0.97 128 12:23 23.03.2020
6185 Clouds 8 1021 82 0 0.97 128 11:56 23.03.2020
6186 Clouds 8 1021 82 0 0.97 128 11:37 23.03.2020
6187 Rain 7 1019 85 0 0.86 99 11:19 23.03.2020
6188 Rain 7 1019 85 0 0.86 99 10:56 23.03.2020
6189 Rain 7 1019 85 0 0.86 99 10:36 23.03.2020
6190 Rain 7 1019 85 0 0.86 99 10:18 23.03.2020
6191 Rain 7 1019 85 0 0.86 99 09:42 23.03.2020
6192 Rain 7 1019 85 0 0.86 99 09:20 23.03.2020
6193 Rain 7 1019 85 0 0.86 99 08:38 23.03.2020
6194 Rain 8 1020 85 0 1.02 135 08:20 23.03.2020
6195 Rain 8 1020 85 0 1.02 135 07:54 23.03.2020
6196 Rain 8 1020 85 0 1.02 135 07:34 23.03.2020
6197 Rain 8 1020 85 0 1.02 135 06:58 23.03.2020
6198 Rain 8 1020 85 0 1.02 135 06:40 23.03.2020
6199 Rain 8 1020 85 0 1.02 135 05:44 23.03.2020
6200 Clouds 7 1020 81 0 1.71 26 04:41 23.03.2020
6201 Clouds 7 1020 81 0 1.71 26 02:59 23.03.2020
6202 Rain 9 1016 77 0 2.78 32 01:50 23.03.2020
6203 Clouds 16 1029 48 10000 4.1 20 00:50 23.03.2020
6204 Clouds 16 1029 48 10000 4.1 20 00:31 23.03.2020
6205 Clouds 16 1028 48 10000 2.6 80 23:45 22.03.2020
6206 Clouds 16 1028 48 10000 2.6 80 23:25 22.03.2020
6207 Clouds 19 1027 42 10000 6.2 10 22:44 22.03.2020
6208 Clouds 19 1027 42 10000 6.2 10 22:22 22.03.2020
6209 Clouds 20 1027 40 10000 4.6 20 21:55 22.03.2020
6210 Clouds 20 1027 34 10000 6.7 20 21:36 22.03.2020
6211 Clouds 20 1027 34 10000 6.7 20 21:18 22.03.2020
6212 Clouds 20 1027 40 10000 5.7 20 20:45 22.03.2020
6213 Clouds 20 1027 37 10000 8.7 30 20:24 22.03.2020
6214 Clouds 20 1028 37 10000 6.7 10 19:57 22.03.2020
6215 Clouds 20 1028 37 10000 6.7 10 19:39 22.03.2020
6216 Clouds 20 1028 42 10000 2.6 220 19:20 22.03.2020
6217 Clouds 20 1029 37 10000 2.1 120 18:58 22.03.2020
6218 Clouds 18 1029 45 10000 0.5 0 18:40 22.03.2020
6219 Clouds 18 1029 45 10000 0.5 0 18:21 22.03.2020
6220 Clouds 17 1030 51 10000 1.5 100 17:57 22.03.2020
6221 Clouds 17 1031 48 10000 1.5 80 17:38 22.03.2020
6222 Clouds 17 1031 48 10000 1.5 80 17:20 22.03.2020
6223 Clouds 17 1031 48 10000 1 70 16:57 22.03.2020
6224 Clouds 16 1032 51 10000 2.1 20 16:39 22.03.2020
6225 Clouds 16 1032 51 10000 2.1 20 16:21 22.03.2020
6226 Clouds 16 1032 51 10000 2.1 20 16:21 22.03.2020
6227 Clouds 15 1032 58 10000 0.5 120 15:40 22.03.2020
6228 Clouds 15 1032 58 10000 1 40 15:21 22.03.2020
6229 Clouds 14 1032 58 10000 1 210 14:46 22.03.2020
6230 Clouds 12 1032 76 10000 0.5 360 14:19 22.03.2020
6231 Clouds 11 1032 81 10000 1 90 13:44 22.03.2020
6232 Clouds 6 1019 84 0 1.6 167 13:21 22.03.2020
6233 Clouds 6 1019 84 0 1.6 167 12:59 22.03.2020
6234 Clouds 6 1019 84 0 1.6 167 12:41 22.03.2020
6235 Clouds 6 1019 84 0 1.6 167 12:19 22.03.2020
6236 Clouds 6 1019 84 0 1.6 167 11:43 22.03.2020
6237 Clouds 6 1019 84 0 1.6 167 11:25 22.03.2020
6238 Rain 6 1017 88 0 2.09 195 10:58 22.03.2020
6239 Rain 6 1017 88 0 2.09 195 10:40 22.03.2020
6240 Rain 6 1017 88 0 2.09 195 10:22 22.03.2020
6241 Rain 6 1017 88 0 2.09 195 10:22 22.03.2020
6242 Rain 6 1017 88 0 2.09 195 09:47 22.03.2020
6243 Rain 6 1017 88 0 2.09 195 09:28 22.03.2020
6244 Rain 6 1017 88 0 2.09 195 08:51 22.03.2020
6245 Rain 6 1017 88 0 2.09 195 08:32 22.03.2020
6246 Rain 6 1017 88 0 2.09 195 08:32 22.03.2020
6247 Rain 8 1019 83 0 1.14 224 07:56 22.03.2020
6248 Rain 8 1019 83 0 1.14 224 07:38 22.03.2020
6249 Rain 8 1019 83 0 1.14 224 06:48 22.03.2020
6250 Rain 8 1019 83 0 1.14 224 05:52 22.03.2020
6251 Clouds 8 1019 81 0 1.61 357 04:39 22.03.2020
6252 Rain 9 1016 79 0 2.61 8 01:49 22.03.2020
6253 Clouds 14 1027 67 10000 2.6 90 00:51 22.03.2020
6254 Clouds 14 1027 67 10000 2.6 90 00:32 22.03.2020
6255 Clouds 14 1026 62 10000 1.5 110 23:47 21.03.2020
6256 Clouds 14 1026 62 10000 1.5 110 23:23 21.03.2020
6257 Clouds 15 1026 54 10000 2.1 150 22:59 21.03.2020
6258 Rain 15 1026 62 10000 2.6 90 22:38 21.03.2020
6259 Rain 15 1026 62 10000 2.6 90 22:20 21.03.2020
6260 Rain 16 1026 55 10000 4.6 110 21:59 21.03.2020
6261 Rain 16 1026 55 10000 4.6 110 21:39 21.03.2020
6262 Rain 16 1027 51 10000 2.1 120 21:20 21.03.2020
6263 Rain 16 1027 51 10000 2.1 120 21:20 21.03.2020
6264 Clouds 16 1028 55 10000 1 50 20:44 21.03.2020
6265 Clouds 16 1028 55 10000 1 50 20:22 21.03.2020
6266 Clouds 16 1028 55 10000 0.76 231 19:56 21.03.2020
6267 Clouds 16 1028 55 10000 0.76 231 19:38 21.03.2020
6268 Clouds 16 1029 51 10000 1.5 150 19:18 21.03.2020
6269 Clouds 14 1030 62 10000 1 80 18:41 21.03.2020
6270 Clouds 14 1030 62 10000 1 80 18:21 21.03.2020
6271 Clouds 14 1030 62 10000 1 80 17:59 21.03.2020
6272 Clouds 14 1031 54 10000 2.1 100 17:41 21.03.2020
6273 Clouds 14 1031 54 10000 2.6 90 17:22 21.03.2020
6274 Clouds 15 1032 54 10000 1 40 16:43 21.03.2020
6275 Clouds 15 1032 54 10000 1 40 16:24 21.03.2020
6276 Clouds 15 1032 54 10000 1 40 16:24 21.03.2020
6277 Clouds 13 1032 58 10000 1 70 15:59 21.03.2020
6278 Clouds 12 1032 62 10000 1 250 15:40 21.03.2020
6279 Clouds 12 1032 62 10000 1 250 15:22 21.03.2020
6280 Clouds 11 1032 76 10000 0.47 266 14:57 21.03.2020
6281 Clouds 11 1032 76 10000 0.47 266 14:39 21.03.2020
6282 Clouds 10 1032 76 10000 1 300 14:20 21.03.2020
6283 Clouds 9 1032 81 10000 1 260 13:58 21.03.2020
6284 Clouds 9 1032 81 10000 1 260 13:39 21.03.2020
6285 Rain 6 1018 87 0 1.43 113 13:21 21.03.2020
6286 Rain 6 1019 84 0 1.66 118 12:57 21.03.2020
6287 Rain 6 1019 84 0 1.66 118 12:37 21.03.2020
6288 Rain 6 1019 84 0 1.66 118 12:19 21.03.2020
6289 Rain 6 1019 84 0 1.66 118 11:55 21.03.2020
6290 Rain 6 1019 84 0 1.66 118 11:37 21.03.2020
6291 Rain 5 1016 90 0 2.54 146 11:18 21.03.2020
6292 Rain 5 1016 90 0 2.54 146 10:56 21.03.2020
6293 Rain 5 1016 90 0 2.54 146 10:38 21.03.2020
6294 Rain 5 1016 90 0 2.54 146 10:18 21.03.2020
6295 Rain 5 1016 90 0 2.54 146 09:40 21.03.2020
6296 Rain 5 1016 90 0 2.54 146 09:21 21.03.2020
6297 Rain 5 1016 90 0 2.54 146 08:58 21.03.2020
6298 Rain 5 1016 90 0 2.54 146 08:39 21.03.2020
6299 Rain 6 1016 89 0 2.36 164 08:21 21.03.2020
6300 Rain 8 1017 85 0 0.78 253 07:39 21.03.2020
6301 Rain 8 1017 85 0 0.78 253 07:20 21.03.2020
6302 Rain 8 1017 85 0 0.78 253 06:45 21.03.2020
6303 Rain 8 1017 85 0 0.78 253 06:26 21.03.2020
6304 Rain 8 1017 85 0 0.78 253 05:41 21.03.2020
6305 Rain 9 1018 79 0 1.28 38 04:34 21.03.2020
6306 Rain 9 1018 79 0 1.28 38 02:39 21.03.2020
6307 Rain 10 1015 77 0 1.06 67 01:54 21.03.2020
6308 Clouds 15 1027 54 10000 2.1 350 01:28 21.03.2020
6309 Clouds 15 1027 54 10000 2.1 350 00:43 21.03.2020
6310 Clouds 15 1027 54 10000 2.1 350 00:24 21.03.2020
6311 Clouds 16 1026 44 10000 2.1 330 23:46 20.03.2020
6312 Clouds 16 1026 44 10000 2.1 330 23:24 20.03.2020
6313 Clouds 16 1026 51 10000 4.6 280 22:44 20.03.2020
6314 Clouds 18 1026 42 10000 5.1 20 22:25 20.03.2020
6315 -273 0 0 0 0 0 21:59 20.03.2020
6316 Clouds 20 1026 37 10000 2.1 320 21:41 20.03.2020
6317 Clouds 19 1027 34 10000 1.5 0 21:20 20.03.2020
6318 Rain 17 1027 45 10000 3.1 280 20:59 20.03.2020
6319 Rain 17 1027 45 10000 3.1 280 20:41 20.03.2020
6320 Rain 16 1029 51 10000 6.2 280 20:21 20.03.2020
6321 Rain 16 1029 51 10000 3.1 350 19:58 20.03.2020
6322 Clouds 18 1029 45 10000 3.1 100 19:39 20.03.2020
6323 Clouds 18 1029 45 10000 3.1 100 19:18 20.03.2020
6324 Rain 17 1030 51 10000 2.1 90 18:39 20.03.2020
6325 Rain 17 1030 51 10000 2.1 90 18:39 20.03.2020
6326 Rain 17 1030 51 10000 2.1 90 18:20 20.03.2020
6327 Rain 17 1031 48 10000 1.5 100 17:57 20.03.2020
6328 Rain 17 1031 48 10000 1.5 100 17:39 20.03.2020
6329 Clouds 17 1032 48 10000 0.5 50 17:20 20.03.2020
6330 Clouds 17 1032 48 10000 0.5 50 16:43 20.03.2020
6331 Clouds 17 1032 48 10000 0.5 50 16:21 20.03.2020
6332 Clouds 17 1032 48 10000 0.5 50 15:59 20.03.2020
6333 Clouds 17 1032 48 10000 0.5 50 15:41 20.03.2020
6334 Clouds 14 1033 67 10000 0.5 0 15:20 20.03.2020
6335 Clouds 14 1033 67 10000 0.5 0 14:42 20.03.2020
6336 Clouds 10 1033 76 10000 1 100 14:21 20.03.2020
6337 Clouds 10 1033 76 10000 1 100 13:55 20.03.2020
6338 Rain 8 1019 82 0 1.52 165 13:37 20.03.2020
6339 Rain 8 1019 82 0 1.52 165 13:19 20.03.2020
6340 Rain 8 1019 84 0 1.27 180 12:39 20.03.2020
6341 Rain 8 1019 84 0 1.27 180 12:20 20.03.2020
6342 Rain 8 1019 84 0 1.27 180 11:54 20.03.2020
6343 Rain 8 1019 84 0 1.27 180 11:36 20.03.2020
6344 Rain 7 1017 85 0 0.32 86 11:18 20.03.2020
6345 Rain 7 1017 85 0 0.32 86 10:41 20.03.2020
6346 -273 0 0 0 0 0 10:20 20.03.2020
6347 Rain 7 1017 85 0 0.32 86 10:20 20.03.2020
6348 Rain 7 1017 85 0 0.32 86 09:55 20.03.2020
6349 Rain 7 1017 85 0 0.32 86 09:37 20.03.2020
6350 Rain 7 1017 85 0 0.32 86 09:18 20.03.2020
6351 Rain 7 1017 85 0 0.32 86 08:41 20.03.2020
6352 Rain 7 1017 85 0 1.19 97 08:22 20.03.2020
6353 Rain 8 1019 84 0 1.17 14 07:48 20.03.2020
6354 Rain 8 1019 84 0 1.17 14 07:26 20.03.2020
6355 -273 0 0 0 0 0 06:51 20.03.2020
6356 Rain 8 1019 84 0 1.17 14 06:32 20.03.2020
6357 Rain 8 1019 83 0 1.26 2 04:51 20.03.2020
6358 Rain 8 1019 83 0 1.26 2 03:20 20.03.2020
6359 Rain 10 1015 76 0 1.95 28 01:51 20.03.2020
6360 Clouds 17 1028 42 10000 1 0 00:51 20.03.2020
6361 Clouds 17 1028 42 10000 1 0 00:29 20.03.2020
6362 Clouds 18 1028 39 10000 2.6 360 23:47 19.03.2020
6363 Clouds 18 1028 39 10000 2.6 360 23:26 19.03.2020
6364 Clouds 18 1027 45 10000 4.6 270 22:56 19.03.2020
6365 Clouds 20 1027 40 10000 2.1 270 22:38 19.03.2020
6366 Clouds 20 1027 40 10000 2.1 270 22:18 19.03.2020
6367 Clouds 18 1027 45 10000 1.5 0 21:42 19.03.2020
6368 Clouds 18 1027 45 10000 4.6 180 21:20 19.03.2020
6369 Clouds 18 1027 45 10000 5.1 170 20:59 19.03.2020
6370 Clouds 18 1027 45 10000 5.1 170 20:41 19.03.2020
6371 Clouds 22 1028 37 10000 6.2 90 20:22 19.03.2020
6372 Clouds 22 1028 33 10000 3.6 360 19:55 19.03.2020
6373 Clouds 21 1029 37 10000 3.1 30 19:37 19.03.2020
6374 Clouds 21 1029 37 10000 3.1 30 19:19 19.03.2020
6375 Clouds 19 1030 42 10000 1 0 18:42 19.03.2020
6376 Clouds 19 1030 42 10000 1 0 18:22 19.03.2020
6377 Clouds 20 1031 37 10000 0.5 180 17:58 19.03.2020
6378 Clouds 18 1031 45 10000 1 0 17:40 19.03.2020
6379 Clouds 16 1033 51 10000 2.6 70 17:19 19.03.2020
6380 Clouds 17 1034 48 10000 0.5 80 16:43 19.03.2020
6381 Clouds 17 1034 48 10000 0.5 80 16:23 19.03.2020
6382 Clouds 15 1034 54 10000 0.5 0 15:45 19.03.2020
6383 Clouds 15 1034 54 10000 1 310 15:27 19.03.2020
6384 Clouds 14 1034 62 10000 1 0 14:55 19.03.2020
6385 Clouds 11 1034 71 10000 0.5 0 14:37 19.03.2020
6386 Clouds 11 1034 71 10000 0.5 0 14:19 19.03.2020
6387 Clouds 11 1034 71 10000 0.5 0 14:19 19.03.2020
6388 Clouds 9 1034 81 10000 0.24 119 13:40 19.03.2020
6389 Clouds 9 1034 81 10000 0.24 119 13:19 19.03.2020
6390 Clouds 7 1020 78 0 0.26 109 12:55 19.03.2020
6391 Clouds 7 1020 78 0 0.26 109 12:37 19.03.2020
6392 Clouds 7 1020 78 0 0.26 109 12:18 19.03.2020
6393 Clouds 7 1020 78 0 0.26 109 11:41 19.03.2020
6394 Clouds 5 1019 84 0 0.28 85 11:23 19.03.2020
6395 Clouds 5 1019 84 0 0.28 85 10:56 19.03.2020
6396 Clouds 5 1019 84 0 0.28 85 10:36 19.03.2020
6397 Clouds 5 1019 84 0 0.28 85 10:18 19.03.2020
6398 Clouds 5 1019 84 0 0.28 85 09:44 19.03.2020
6399 Clouds 5 1019 84 0 0.28 85 09:25 19.03.2020
6400 Clouds 5 1019 84 0 0.28 85 08:48 19.03.2020
6401 Clouds 5 1019 84 0 0.28 85 08:23 19.03.2020
6402 Clouds 6 1020 81 0 1.08 36 07:59 19.03.2020
6403 Clouds 6 1020 81 0 1.08 36 07:38 19.03.2020
6404 Clouds 6 1020 81 0 1.08 36 07:19 19.03.2020
6405 Clouds 6 1020 81 0 1.08 36 06:27 19.03.2020
6406 Clouds 6 1020 81 0 1.08 36 05:25 19.03.2020
6407 Clouds 7 1020 81 0 1.66 30 04:47 19.03.2020
6408 Clouds 7 1020 81 0 1.66 30 03:55 19.03.2020
6409 Rain 9 1016 77 0 1.75 39 01:46 19.03.2020
6410 Rain 14 1029 58 10000 3.6 110 00:42 19.03.2020
6411 Clouds 15 1029 54 10000 4.1 120 00:19 19.03.2020
6412 Clouds 15 1029 54 10000 4.1 110 23:42 18.03.2020
6413 Clouds 15 1029 54 10000 4.1 110 23:22 18.03.2020
6414 Clouds 17 1029 48 10000 2.1 50 22:43 18.03.2020
6415 Clouds 17 1029 48 10000 2.1 50 22:23 18.03.2020
6416 Clouds 17 1029 45 10000 3.6 50 21:57 18.03.2020
6417 Clouds 17 1029 45 10000 3.6 50 21:39 18.03.2020
6418 Clouds 17 1029 45 10000 4.6 60 21:20 18.03.2020
6419 Clouds 19 1029 42 10000 4.1 100 20:55 18.03.2020
6420 Clouds 18 1030 52 10000 2.6 140 20:37 18.03.2020
6421 Clouds 18 1030 52 10000 2.6 140 20:19 18.03.2020
6422 Clouds 16 1030 59 10000 3.1 110 19:41 18.03.2020
6423 Clouds 15 1031 62 10000 2.6 110 19:21 18.03.2020
6424 Clouds 15 1031 62 10000 2.6 110 19:21 18.03.2020
6425 Rain 17 1032 51 10000 3.1 130 18:58 18.03.2020
6426 Rain 17 1032 51 10000 3.1 130 18:58 18.03.2020
6427 Rain 17 1032 51 10000 3.1 130 18:39 18.03.2020
6428 Rain 16 1032 51 10000 2.1 90 18:19 18.03.2020
6429 Rain 16 1032 51 10000 2.1 90 17:55 18.03.2020
6430 Clouds 15 1033 54 10000 1 140 17:37 18.03.2020
6431 Clouds 15 1033 51 10000 1.63 67 17:19 18.03.2020
6432 Clouds 15 1033 51 10000 1.63 67 16:42 18.03.2020
6433 Clouds 15 1034 58 10000 1.63 67 16:20 18.03.2020
6434 Clouds 14 1034 62 10000 1.63 67 15:57 18.03.2020
6435 Clouds 14 1034 58 10000 1.63 67 15:38 18.03.2020
6436 Clouds 14 1034 58 10000 1.63 67 15:20 18.03.2020
6437 Clouds 13 1034 54 10000 1 330 14:42 18.03.2020
6438 Clouds 11 1033 71 10000 1.63 67 14:21 18.03.2020
6439 Clouds 10 1033 76 10000 1 170 13:42 18.03.2020
6440 Clouds 10 1033 76 10000 1 170 13:19 18.03.2020
6441 Mist 9 1032 81 10000 1 0 12:55 18.03.2020
6442 Mist 9 1032 81 10000 1 0 12:37 18.03.2020
6443 Mist 8 1031 81 10000 1 290 12:18 18.03.2020
6444 Mist 8 1031 81 10000 1 290 11:38 18.03.2020
6445 Clouds 8 1031 81 10000 1 90 11:19 18.03.2020
6446 Clouds 8 1031 81 10000 1 90 10:57 18.03.2020
6447 Clouds 8 1031 81 10000 1 90 10:37 18.03.2020
6448 Clouds 8 1031 81 10000 1 90 10:19 18.03.2020
6449 Clouds 9 1031 81 10000 1.5 100 09:42 18.03.2020
6450 Clouds 9 1031 81 10000 1.5 100 09:23 18.03.2020
6451 Clouds 9 1031 81 10000 0.5 110 08:55 18.03.2020
6452 Clouds 9 1031 81 10000 0.5 110 08:37 18.03.2020
6453 Clouds 9 1031 81 10000 0.5 110 08:19 18.03.2020
6454 Clouds 10 1031 76 10000 1 0 07:41 18.03.2020
6455 Clouds 10 1031 76 10000 1 0 07:23 18.03.2020
6456 Clouds 9 1032 76 10000 0.9 23 06:43 18.03.2020
6457 Clouds 9 1032 76 10000 0.9 23 05:53 18.03.2020
6458 Clouds 8 1032 75 10000 2.6 290 05:33 18.03.2020
6459 Clouds 10 1031 71 10000 0.5 0 03:56 18.03.2020
6460 Clouds 11 1031 66 10000 0.5 120 02:40 18.03.2020
6461 Clouds 14 1029 54 10000 1.5 260 01:46 18.03.2020
6462 Clouds 15 1029 41 10000 1 260 01:21 18.03.2020
6463 Clouds 16 1028 41 10000 5.7 20 00:23 18.03.2020
6464 Clouds 17 1027 36 10000 5.7 20 23:47 17.03.2020
6465 Clouds 18 1027 36 10000 4.6 20 23:26 17.03.2020
6466 Clouds 19 1027 34 10000 4.1 10 22:47 17.03.2020
6467 Clouds 17 1027 34 10000 4.1 10 22:29 17.03.2020
6468 Clouds 17 1028 39 10000 0.5 80 21:59 17.03.2020
6469 Clouds 17 1028 39 10000 1 0 21:37 17.03.2020
6470 Clouds 19 1028 39 10000 1 0 21:19 17.03.2020
6471 Clouds 19 1029 39 10000 2.6 130 20:38 17.03.2020
6472 Clouds 18 1029 34 10000 3.1 110 20:20 17.03.2020
6473 Clouds 18 1030 39 10000 1.5 140 19:54 17.03.2020
6474 Clouds 18 1030 39 10000 1.5 140 19:36 17.03.2020
6475 Clouds 17 1032 42 10000 2.6 100 19:18 17.03.2020
6476 Clouds 17 1032 42 10000 2.6 100 18:54 17.03.2020
6477 Clouds 16 1032 51 10000 2.6 0 18:36 17.03.2020
6478 Clouds 16 1033 55 10000 1.5 80 18:18 17.03.2020
6479 Clouds 16 1033 55 10000 1.5 80 18:18 17.03.2020
6480 Clouds 15 1034 51 10000 1 0 17:40 17.03.2020
6481 Clouds 15 1034 51 10000 1 0 17:20 17.03.2020
6482 Clouds 14 1034 58 10000 1.5 0 16:44 17.03.2020
6483 Clouds 13 1035 66 10000 1 120 16:20 17.03.2020
6484 Clouds 12 1035 66 10000 0.5 170 15:56 17.03.2020
6485 Clouds 12 1035 66 10000 0.5 170 15:56 17.03.2020
6486 Clouds 12 1035 66 10000 0.5 170 15:38 17.03.2020
6487 Clouds 11 1035 66 10000 0.5 60 15:18 17.03.2020
6488 Clouds 9 1033 70 10000 1.5 70 14:41 17.03.2020
6489 Clouds 9 1035 70 10000 0.64 105 14:18 17.03.2020
6490 Mist 8 1034 75 10000 0.5 140 13:43 17.03.2020
6491 Clouds 7 1034 81 10000 1.5 110 13:24 17.03.2020
6492 Mist 7 1033 81 10000 0.56 131 12:48 17.03.2020
6493 Mist 7 1033 81 10000 0.56 131 12:26 17.03.2020
6494 Mist 6 1033 87 10000 2.1 100 11:59 17.03.2020
6495 Clouds 6 1033 87 9000 3.1 110 11:40 17.03.2020
6496 Clouds 6 1033 87 9000 3.1 110 11:22 17.03.2020
6497 Clouds 6 1032 87 9000 3.6 110 10:56 17.03.2020
6498 Clouds 6 1032 87 9000 3.6 110 10:37 17.03.2020
6499 Clouds 6 1032 87 9000 3.6 110 10:18 17.03.2020
6500 Rain 6 1032 87 7000 3.1 110 09:46 17.03.2020
6501 Rain 6 1032 87 7000 3.1 110 09:20 17.03.2020
6502 Rain 7 1033 87 6000 5.7 100 08:58 17.03.2020
6503 Rain 7 1033 87 6000 5.7 100 08:40 17.03.2020
6504 Rain 7 1033 87 6000 5.7 100 08:18 17.03.2020
6505 Rain 8 1033 87 6000 6.2 110 07:49 17.03.2020
6506 -273 0 0 0 0 0 07:21 17.03.2020
6507 Rain 12 1032 76 9000 2.6 30 06:49 17.03.2020
6508 Rain 12 1032 76 9000 2.6 30 06:25 17.03.2020
6509 Clouds 12 1032 66 10000 0.5 30 05:26 17.03.2020
6510 Clouds 12 1031 71 10000 1.5 30 03:31 17.03.2020
6511 Clouds 13 1030 71 10000 3.1 280 01:50 17.03.2020
6512 Clouds 13 1030 66 10000 1.5 280 01:31 17.03.2020
6513 Clouds 13 1029 66 10000 2.61 30 00:53 17.03.2020
6514 Clouds 16 1028 51 10000 1.5 0 00:18 17.03.2020
6515 Clouds 16 1028 48 10000 1 100 23:34 16.03.2020
6516 Clouds 17 1028 42 10000 1.5 100 22:58 16.03.2020
6517 Clouds 17 1028 45 10000 0.5 300 22:38 16.03.2020
6518 Clouds 17 1028 45 10000 0.5 300 22:19 16.03.2020
6519 Clouds 17 1029 51 10000 0.5 0 21:44 16.03.2020
6520 Clouds 16 1029 55 10000 1 0 21:25 16.03.2020
6521 Clouds 16 1030 55 10000 0.5 130 20:58 16.03.2020
6522 Clouds 14 1031 58 0 1 0 20:39 16.03.2020
6523 Clouds 14 1031 58 0 1 0 20:20 16.03.2020
6524 Clouds 14 1032 54 10000 0.5 0 19:46 16.03.2020
6525 Clouds 13 1033 62 0 2.6 110 19:23 16.03.2020
6526 Clouds 13 1033 62 10000 2.6 100 18:57 16.03.2020
6527 Clouds 13 1033 62 10000 2.6 100 18:39 16.03.2020
6528 Drizzle 12 1034 66 10000 4.6 110 18:19 16.03.2020
6529 Drizzle 12 1034 66 10000 4.6 110 17:46 16.03.2020
6530 Drizzle 11 1035 81 9000 4.1 90 17:25 16.03.2020
6531 Drizzle 11 1035 76 9000 3.6 110 16:54 16.03.2020
6532 Drizzle 10 1035 76 9000 3.6 120 16:36 16.03.2020
6533 Drizzle 10 1035 76 9000 3.6 120 16:18 16.03.2020
6534 Rain 10 1035 81 9000 4.1 110 15:42 16.03.2020
6535 Rain 10 1035 81 8000 4.1 120 15:22 16.03.2020
6536 Rain 10 1035 81 6000 4.6 110 14:45 16.03.2020
6537 Rain 10 1034 87 6000 3.1 100 14:20 16.03.2020
6538 Drizzle 10 1034 87 6000 2.1 100 13:45 16.03.2020
6539 Drizzle 10 1034 87 6000 2.6 100 13:26 16.03.2020
6540 Drizzle 10 1033 87 9000 1.5 100 12:56 16.03.2020
6541 Clouds 10 1033 87 10000 1.5 90 12:37 16.03.2020
6542 Clouds 10 1033 87 10000 1.5 90 12:19 16.03.2020
6543 Clouds 10 1032 87 10000 1.5 100 11:42 16.03.2020
6544 Clouds 6 1019 75 0 0.04 46 11:20 16.03.2020
6545 Clouds 6 1019 75 0 0.04 46 10:43 16.03.2020
6546 Clouds 11 1032 76 10000 1.5 100 10:24 16.03.2020
6547 Clouds 11 1032 76 10000 1.5 100 09:47 16.03.2020
6548 Clouds 11 1032 76 10000 1.5 100 09:28 16.03.2020
6549 Clouds 11 1032 76 10000 1 110 08:59 16.03.2020
6550 Clouds 11 1032 76 10000 1 110 08:36 16.03.2020
6551 Clouds 9 1032 76 10000 1 110 08:18 16.03.2020
6552 Clouds 8 1033 71 10000 1 90 07:40 16.03.2020
6553 Clouds 9 1033 71 10000 1 90 07:18 16.03.2020
6554 Clouds 8 1033 66 10000 2.1 100 06:28 16.03.2020
6555 Clouds 9 1034 62 10000 2.1 0 05:54 16.03.2020
6556 Clouds 10 1033 58 10000 2.6 90 03:36 16.03.2020
6557 Thunderstorm 16 1029 41 10000 5.1 340 01:29 16.03.2020
6558 Clouds 17 1028 45 10000 5.1 20 00:43 16.03.2020
6559 Clouds 19 1027 42 10000 3.6 10 23:56 15.03.2020
6560 Clouds 20 1027 37 10000 3.1 350 23:37 15.03.2020
6561 Clouds 20 1027 37 10000 3.1 350 23:18 15.03.2020
6562 Clouds 19 1027 45 10000 1.5 290 22:41 15.03.2020
6563 Clouds 20 1027 37 10000 2.1 110 22:20 15.03.2020
6564 Clouds 21 1028 37 10000 1 220 21:39 15.03.2020
6565 Clouds 21 1028 37 10000 2.6 310 21:21 15.03.2020
6566 Clouds 21 1029 40 10000 1.5 0 20:55 15.03.2020
6567 Clouds 20 1030 37 10000 1.5 0 20:36 15.03.2020
6568 Clouds 20 1030 37 10000 1.5 0 20:18 15.03.2020
6569 Clouds 19 1031 39 10000 3.1 10 19:42 15.03.2020
6570 Clouds 19 1032 39 10000 2.1 0 19:24 15.03.2020
6571 Clouds 19 1032 42 10000 1.5 0 18:59 15.03.2020
6572 Clouds 18 1034 45 10000 1.94 28 18:39 15.03.2020
6573 Clouds 18 1034 45 10000 1.94 28 18:21 15.03.2020
6574 Clouds 17 1034 51 10000 1 0 17:57 15.03.2020
6575 Clouds 16 1035 59 10000 1 0 17:38 15.03.2020
6576 Clouds 16 1035 59 10000 1 0 17:18 15.03.2020
6577 Clouds 16 1035 59 10000 0.42 285 16:43 15.03.2020
6578 Clouds 15 1036 54 10000 1.5 50 16:25 15.03.2020
6579 Clouds 14 1036 62 10000 1 90 15:58 15.03.2020
6580 Clouds 14 1036 62 10000 1 90 15:40 15.03.2020
6581 Clouds 13 1036 66 10000 1 0 15:19 15.03.2020
6582 Clouds 11 1036 71 10000 1 320 14:46 15.03.2020
6583 Clouds 10 1035 87 10000 1 0 14:24 15.03.2020
6584 Clouds 9 1035 87 9000 2.07 177 13:57 15.03.2020
6585 Drizzle 9 1035 87 7000 2.07 177 13:38 15.03.2020
6586 Drizzle 9 1035 87 7000 2.07 177 13:38 15.03.2020
6587 Drizzle 9 1035 87 7000 2.07 177 13:20 15.03.2020
6588 Rain 9 1035 87 5000 1.5 90 12:44 15.03.2020
6589 Rain 9 1035 87 5000 2.15 167 12:25 15.03.2020
6590 Rain 9 1034 87 5000 1 100 11:54 15.03.2020
6591 Rain 9 1034 87 5000 2.6 100 11:36 15.03.2020
6592 Rain 9 1034 87 5000 1.5 100 11:18 15.03.2020
6593 Rain 9 1034 87 5000 1.5 100 10:55 15.03.2020
6594 Rain 9 1034 87 5000 1.5 100 10:36 15.03.2020
6595 Rain 9 1034 87 5000 1.5 100 10:18 15.03.2020
6596 Rain 9 1034 87 6000 2.1 90 09:39 15.03.2020
6597 Rain 9 1034 87 6000 2.1 90 09:20 15.03.2020
6598 Rain 9 1034 81 7000 1 70 08:42 15.03.2020
6599 Rain 9 1034 81 7000 1 70 08:20 15.03.2020
6600 Rain 9 1035 87 7000 2.1 120 07:50 15.03.2020
6601 Rain 9 1035 87 7000 2.1 120 07:23 15.03.2020
6602 Rain 10 1034 81 8000 5.7 80 06:45 15.03.2020
6603 Clouds 14 1034 62 10000 5.7 290 05:50 15.03.2020
6604 Clouds 12 1034 58 10000 3.6 300 04:58 15.03.2020
6605 Clouds 12 1034 58 10000 3.6 300 04:40 15.03.2020
6606 Clouds 12 1034 58 10000 3.6 300 04:21 15.03.2020
6607 Clouds 12 1033 58 10000 1 110 03:30 15.03.2020
6608 Clouds 12 1032 58 10000 3.6 280 02:37 15.03.2020
6609 Clouds 12 1031 54 10000 4.1 280 01:20 15.03.2020
6610 Clouds 12 1030 54 10000 3.6 280 00:42 15.03.2020
6611 Clouds 12 1030 51 10000 5.7 280 00:21 15.03.2020
6612 Clouds 14 1029 42 10000 2.1 90 23:41 14.03.2020
6613 Clouds 18 1029 42 10000 2.1 90 23:21 14.03.2020
6614 Clouds 18 1029 42 10000 1.5 50 22:58 14.03.2020
6615 Clouds 18 1029 42 10000 1.5 50 22:40 14.03.2020
6616 Clouds 18 1029 36 10000 1.5 0 22:22 14.03.2020
6617 Clouds 18 1029 34 10000 4.6 40 21:56 14.03.2020
6618 Clouds 19 1029 34 10000 7.2 20 21:36 14.03.2020
6619 Clouds 19 1029 34 10000 7.2 20 21:18 14.03.2020
6620 Clouds 20 1029 32 10000 5.7 30 20:58 14.03.2020
6621 Clouds 20 1029 32 10000 5.7 30 20:40 14.03.2020
6622 Clouds 20 1030 34 10000 1 50 20:19 14.03.2020
6623 Clouds 21 1032 32 10000 2.1 0 19:43 14.03.2020
6624 Clouds 21 1032 32 10000 2.1 0 19:25 14.03.2020
6625 Clouds 18 1034 42 10000 2.6 0 18:41 14.03.2020
6626 Clouds 18 1034 42 10000 2.6 0 18:23 14.03.2020
6627 Clouds 18 1034 45 10000 2.6 0 17:56 14.03.2020
6628 Clouds 18 1034 45 10000 2.6 0 17:38 14.03.2020
6629 Clouds 18 1035 39 10000 3.1 0 17:20 14.03.2020
6630 Clouds 17 1036 51 10000 1.5 300 16:41 14.03.2020
6631 Clouds 17 1036 51 10000 1.5 300 16:23 14.03.2020
6632 Clouds 15 1036 48 10000 1.5 90 15:58 14.03.2020
6633 Clouds 13 1036 54 10000 1.5 0 15:27 14.03.2020
6634 Clouds 13 1036 54 10000 1.5 0 14:58 14.03.2020
6635 Clouds 12 1036 62 10000 1 90 14:36 14.03.2020
6636 Clouds 12 1036 62 10000 1 90 14:18 14.03.2020
6637 Clouds 10 1035 81 10000 1.5 100 13:42 14.03.2020
6638 Clouds 9 1035 81 10000 1.5 100 13:23 14.03.2020
6639 Clouds 9 1035 81 10000 1 100 12:47 14.03.2020
6640 Clouds 9 1035 81 10000 1 100 12:27 14.03.2020
6641 Clouds 9 1034 76 10000 0.5 0 11:59 14.03.2020
6642 Clouds 9 1034 81 10000 1.5 110 11:39 14.03.2020
6643 Clouds 9 1034 76 10000 3.6 280 11:20 14.03.2020
6644 Clouds 9 1034 76 10000 3.6 280 10:45 14.03.2020
6645 Clouds 9 1034 76 10000 3.6 280 10:27 14.03.2020
6646 Clouds 9 1034 75 10000 1 90 09:57 14.03.2020
6647 Clouds 9 1034 75 10000 1 90 09:39 14.03.2020
6648 Clouds 9 1034 75 10000 1 90 09:19 14.03.2020
6649 Clouds 9 1034 76 10000 3.6 110 08:45 14.03.2020
6650 Clouds 9 1034 76 10000 3.6 110 08:22 14.03.2020
6651 Clouds 10 1035 71 10000 1.5 90 07:39 14.03.2020
6652 Clouds 10 1035 71 10000 1.5 90 07:20 14.03.2020
6653 Clouds 10 1035 71 10000 1.5 110 06:41 14.03.2020
6654 Clouds 10 1035 71 10000 1.5 100 05:49 14.03.2020
6655 Clouds 11 1035 66 10000 2.1 110 04:43 14.03.2020
6656 Clouds 12 1034 62 10000 1 90 03:24 14.03.2020
6657 Clouds 12 1033 62 10000 1.75 42 02:28 14.03.2020
6658 Clouds 14 1031 54 10000 2.6 120 01:20 14.03.2020
6659 Clouds 15 1031 51 10000 3.1 110 00:20 14.03.2020
6660 Clouds 16 1029 41 10000 2.1 100 23:32 13.03.2020
6661 Clouds 17 1029 39 10000 3.1 130 22:57 13.03.2020
6662 Clouds 17 1029 42 10000 3.6 110 22:38 13.03.2020
6663 Clouds 17 1029 42 10000 3.6 110 22:19 13.03.2020
6664 Clouds 18 1030 45 10000 4.6 110 21:39 13.03.2020
6665 Clouds 18 1030 45 10000 4.6 110 21:18 13.03.2020
6666 Clouds 18 1030 45 10000 3.6 100 20:41 13.03.2020
6667 Clouds 18 1030 39 10000 2.1 0 20:22 13.03.2020
6668 Clouds 18 1031 45 10000 3.6 350 19:49 13.03.2020
6669 Clouds 17 1032 48 10000 3.6 360 19:31 13.03.2020
6670 Rain 17 1033 48 10000 2.1 80 18:55 13.03.2020
6671 Rain 17 1033 48 10000 2.1 80 18:36 13.03.2020
6672 Clouds 16 1033 48 10000 2.1 80 18:18 13.03.2020
6673 Clouds 16 1033 48 10000 2.1 80 17:41 13.03.2020
6674 Clouds 16 1033 48 10000 2.1 80 17:21 13.03.2020
6675 Clouds 16 1034 44 10000 3.1 100 16:55 13.03.2020
6676 Clouds 16 1034 48 10000 1.5 300 16:36 13.03.2020
6677 Clouds 16 1034 48 10000 1.5 300 16:18 13.03.2020
6678 Clouds 17 1034 45 10000 1.5 40 15:41 13.03.2020
6679 -273 0 0 0 0 0 15:21 13.03.2020
6680 Clouds 14 1034 58 10000 0.57 193 14:44 13.03.2020
6681 Clouds 14 1034 58 10000 0.57 193 14:23 13.03.2020
6682 Clouds 13 1034 62 10000 0.26 42 13:58 13.03.2020
6683 Mist 10 1033 71 10000 1 120 13:40 13.03.2020
6684 Clouds 8 1033 81 10000 1 350 13:20 13.03.2020
6685 Clouds 8 1033 81 10000 1 350 12:56 13.03.2020
6686 Clouds 8 1033 81 10000 1 350 12:38 13.03.2020
6687 Mist 8 1033 81 10000 1.5 100 12:19 13.03.2020
6688 Clouds 8 1033 81 10000 2.6 100 11:45 13.03.2020
6689 Clouds 8 1033 81 10000 2.6 100 11:26 13.03.2020
6690 Clouds 9 1032 81 10000 1 100 10:58 13.03.2020
6691 Clouds 9 1032 81 10000 1 100 10:39 13.03.2020
6692 Clouds 9 1032 81 10000 1 100 10:21 13.03.2020
6693 Clouds 9 1032 76 10000 0.5 0 09:44 13.03.2020
6694 Clouds 9 1032 76 10000 0.5 0 09:25 13.03.2020
6695 Clouds 10 1032 76 10000 1 0 08:48 13.03.2020
6696 Clouds 10 1032 76 10000 1 0 08:24 13.03.2020
6697 Clouds 11 1032 71 10000 2.1 90 07:59 13.03.2020
6698 Clouds 11 1032 71 10000 2.1 90 07:38 13.03.2020
6699 Clouds 11 1032 71 10000 2.1 90 07:20 13.03.2020
6700 Clouds 11 1033 71 10000 1 110 06:45 13.03.2020
6701 Clouds 11 1033 71 10000 1 110 06:19 13.03.2020
6702 Clouds 11 1033 71 10000 1.05 38 05:43 13.03.2020
6703 Clouds 11 1032 71 10000 1 0 04:39 13.03.2020
6704 Clouds 11 1032 66 10000 1.5 280 03:50 13.03.2020
6705 Clouds 14 1030 54 10000 1.5 320 01:49 13.03.2020
6706 Clouds 14 1029 54 10000 3.1 270 01:19 13.03.2020
6707 Clouds 15 1029 51 10000 5.1 270 00:56 13.03.2020
6708 Clouds 15 1029 51 10000 5.1 270 00:38 13.03.2020
6709 Clouds 15 1028 47 10000 3.6 350 00:18 13.03.2020
6710 Clouds 16 1028 38 10000 5.7 350 23:37 12.03.2020
6711 Clouds 17 1027 39 10000 4.1 350 23:18 12.03.2020
6712 Clouds 17 1027 39 10000 4.1 350 22:44 12.03.2020
6713 Clouds 18 1027 39 10000 5.1 10 22:25 12.03.2020
6714 Clouds 19 1027 34 10000 5.7 20 21:54 12.03.2020
6715 Clouds 19 1027 32 10000 5.1 10 21:36 12.03.2020
6716 Clouds 19 1027 32 10000 5.1 10 21:18 12.03.2020
6717 Rain 21 1027 30 10000 5.1 20 20:42 12.03.2020
6718 Clouds 21 1028 32 10000 2.6 30 20:19 12.03.2020
6719 Clouds 21 1029 32 10000 2.6 200 19:42 12.03.2020
6720 Clouds 21 1029 32 10000 2.6 200 19:21 12.03.2020
6721 Clouds 21 1029 32 10000 2.6 200 19:21 12.03.2020
6722 Clouds 19 1030 32 10000 1 100 18:45 12.03.2020
6723 Clouds 19 1030 32 10000 1 100 18:25 12.03.2020
6724 Clouds 19 1031 37 10000 0.5 130 17:58 12.03.2020
6725 Clouds 18 1031 45 10000 1 0 17:40 12.03.2020
6726 Clouds 18 1031 45 10000 1 0 17:21 12.03.2020
6727 Clouds 18 1032 45 10000 1 170 16:58 12.03.2020
6728 Clouds 15 1032 51 10000 1 0 16:39 12.03.2020
6729 Clouds 15 1032 51 10000 1 0 16:20 12.03.2020
6730 Clouds 15 1033 51 10000 0.5 0 15:47 12.03.2020
6731 Clouds 14 1032 54 10000 1 300 15:27 12.03.2020
6732 Clouds 14 1032 62 10000 0.5 0 14:54 12.03.2020
6733 Clouds 14 1032 62 10000 0.5 0 14:54 12.03.2020
6734 Clouds 12 1032 66 10000 0.5 130 14:36 12.03.2020
6735 Clouds 12 1032 66 10000 0.53 49 14:18 12.03.2020
6736 Clouds 11 1031 71 10000 1 0 13:38 12.03.2020
6737 Clouds 11 1031 71 10000 1 0 13:20 12.03.2020
6738 Clouds 10 1031 76 10000 0.5 0 12:43 12.03.2020
6739 Clouds 10 1031 76 10000 0.5 0 12:23 12.03.2020
6740 Clouds 10 1030 81 10000 1.5 100 11:59 12.03.2020
6741 Clouds 11 1030 71 10000 1 100 11:39 12.03.2020
6742 Clouds 11 1030 71 10000 1 100 11:21 12.03.2020
6743 Clouds 11 1030 71 10000 1 100 11:21 12.03.2020
6744 Clouds 11 1029 76 10000 0.64 19 10:59 12.03.2020
6745 Clouds 11 1029 76 10000 0.64 19 10:41 12.03.2020
6746 Clouds 11 1029 76 10000 0.64 19 10:22 12.03.2020
6747 Clouds 11 1029 76 10000 0.64 19 10:22 12.03.2020
6748 Clouds 11 1030 71 10000 0.64 19 09:49 12.03.2020
6749 Clouds 11 1030 71 10000 0.64 19 09:29 12.03.2020
6750 Clouds 11 1030 71 10000 0.64 19 08:55 12.03.2020
6751 Clouds 11 1030 71 10000 0.64 19 08:37 12.03.2020
6752 Clouds 11 1030 71 10000 1.37 12 08:18 12.03.2020
6753 Clouds 11 1031 76 10000 1.08 9 07:46 12.03.2020
6754 Clouds 11 1031 76 10000 1.08 9 07:21 12.03.2020
6755 Clouds 10 1031 66 10000 1.08 9 06:18 12.03.2020
6756 Clouds 10 1031 66 10000 1.5 140 05:33 12.03.2020
6757 Clouds 9 1029 76 10000 1 0 02:54 12.03.2020
6758 Clouds 11 1028 66 10000 1 90 01:43 12.03.2020
6759 Clouds 13 1028 62 10000 4.1 110 01:21 12.03.2020
6760 Clouds 17 1027 45 10000 0.5 270 00:41 12.03.2020
6761 Rain 16 1027 48 10000 3.1 280 23:57 11.03.2020
6762 Rain 16 1027 48 10000 3.1 280 23:28 11.03.2020
6763 Clouds 16 1027 48 10000 5.7 270 22:59 11.03.2020
6764 Clouds 19 1027 34 10000 5.1 290 22:39 11.03.2020
6765 Clouds 19 1027 34 10000 5.1 290 22:21 11.03.2020
6766 Clouds 19 1027 37 10000 5.7 280 21:56 11.03.2020
6767 Clouds